Wetterdaten: Mittwoch, 21.06.2017
Datum Zeit Temp. A. Temp. A. max Feuchte A. Luftdruck Regen Wind Richtung Richtung Sonnenschein ET UV Solar Taupunkt Windchill Windböen
21.06.2017 00:00 20,3 °C 20,3 °C 67 % 1013,5 hPa 0,0 mm 4,8 km/h (1 Bft) S 190 ° 0 min 0,000 mm 0,0 UV-I 0 W/m² 14,0 °C 20,3 °C 9,7 km/h (2 Bft)
21.06.2017 00:01 20,3 °C 20,3 °C 67 % 1013,5 hPa 0,0 mm 4,5 km/h (1 Bft) S 178 ° 0 min 0,000 mm 0,0 UV-I 0 W/m² 14,0 °C 20,3 °C 6,4 km/h (2 Bft)
21.06.2017 00:02 20,4 °C 20,4 °C 67 % 1013,5 hPa 0,0 mm 3,4 km/h (1 Bft) S 178 ° 0 min 0,000 mm 0,0 UV-I 0 W/m² 14,1 °C 20,4 °C 4,8 km/h (1 Bft)
21.06.2017 00:03 20,4 °C 20,4 °C 67 % 1013,4 hPa 0,0 mm 3,5 km/h (1 Bft) S 182 ° 0 min 0,000 mm 0,0 UV-I 0 W/m² 14,1 °C 20,4 °C 4,8 km/h (1 Bft)
21.06.2017 00:04 20,4 °C 20,4 °C 67 % 1013,4 hPa 0,0 mm 2,8 km/h (1 Bft) S-SW 199 ° 0 min 0,000 mm 0,0 UV-I 0 W/m² 14,1 °C 20,4 °C 4,8 km/h (1 Bft)
21.06.2017 00:05 20,4 °C 20,4 °C 66 % 1013,5 hPa 0,0 mm 2,0 km/h (1 Bft) W 276 ° 0 min 0,000 mm 0,0 UV-I 0 W/m² 13,8 °C 20,4 °C 3,2 km/h (1 Bft)
21.06.2017 00:06 20,6 °C 20,6 °C 65 % 1013,5 hPa 0,0 mm 3,6 km/h (1 Bft) SW 221 ° 0 min 0,000 mm 0,0 UV-I 0 W/m² 13,8 °C 20,6 °C 6,4 km/h (2 Bft)
21.06.2017 00:07 20,7 °C 20,7 °C 65 % 1013,5 hPa 0,0 mm 4,5 km/h (1 Bft) S-SW 202 ° 0 min 0,000 mm 0,0 UV-I 0 W/m² 13,9 °C 20,7 °C 9,7 km/h (2 Bft)
21.06.2017 00:08 20,7 °C 20,7 °C 65 % 1013,6 hPa 0,0 mm 5,3 km/h (1 Bft) S-SW 198 ° 0 min 0,000 mm 0,0 UV-I 0 W/m² 13,9 °C 20,7 °C 8,0 km/h (2 Bft)
21.06.2017 00:09 20,8 °C 20,8 °C 66 % 1013,6 hPa 0,0 mm 8,4 km/h (2 Bft) SW 229 ° 0 min 0,000 mm 0,0 UV-I 0 W/m² 14,2 °C 20,8 °C 12,9 km/h (3 Bft)
21.06.2017 00:10 20,7 °C 20,8 °C 66 % 1013,6 hPa 0,0 mm 6,9 km/h (2 Bft) S-SW 198 ° 0 min 0,000 mm 0,0 UV-I 0 W/m² 14,1 °C 20,7 °C 11,3 km/h (2 Bft)
21.06.2017 00:11 20,7 °C 20,8 °C 68 % 1013,6 hPa 0,0 mm 10,3 km/h (2 Bft) S 188 ° 0 min 0,000 mm 0,0 UV-I 0 W/m² 14,6 °C 20,7 °C 12,9 km/h (3 Bft)
21.06.2017 00:12 20,6 °C 20,7 °C 68 % 1013,7 hPa 0,0 mm 6,2 km/h (2 Bft) S-SW 194 ° 0 min 0,000 mm 0,0 UV-I 0 W/m² 14,5 °C 20,6 °C 9,7 km/h (2 Bft)
21.06.2017 00:13 20,4 °C 20,6 °C 71 % 1013,6 hPa 0,2 mm 2,4 km/h (1 Bft) S-SW 194 ° 0 min 0,000 mm 0,0 UV-I 0 W/m² 15,0 °C 20,4 °C 3,2 km/h (1 Bft)
21.06.2017 00:14 20,1 °C 20,4 °C 73 % 1013,6 hPa 0,0 mm 2,8 km/h (1 Bft) S 190 ° 0 min 0,000 mm 0,0 UV-I 0 W/m² 15,1 °C 20,1 °C 3,2 km/h (1 Bft)
21.06.2017 00:15 19,8 °C 20,1 °C 75 % 1013,5 hPa 0,0 mm 2,9 km/h (1 Bft) S 170 ° 0 min 0,000 mm 0,0 UV-I 0 W/m² 15,2 °C 19,8 °C 6,4 km/h (2 Bft)
21.06.2017 00:16 19,5 °C 19,8 °C 77 % 1013,5 hPa 0,0 mm 5,0 km/h (1 Bft) S-SO 157 ° 0 min 0,000 mm 0,0 UV-I 0 W/m² 15,4 °C 19,5 °C 6,4 km/h (2 Bft)
21.06.2017 00:17 19,3 °C 19,5 °C 78 % 1013,5 hPa 0,0 mm 4,0 km/h (1 Bft) S-SO 152 ° 0 min 0,000 mm 0,0 UV-I 0 W/m² 15,4 °C 19,3 °C 4,8 km/h (1 Bft)
21.06.2017 00:18 18,9 °C 19,3 °C 79 % 1013,5 hPa 0,0 mm 1,1 km/h (1 Bft) S-SO 152 ° 0 min 0,000 mm 0,0 UV-I 0 W/m² 15,2 °C 18,9 °C 3,2 km/h (1 Bft)
21.06.2017 00:19 18,7 °C 18,9 °C 80 % 1013,5 hPa 0,0 mm 0,7 km/h (0 Bft) S-SO 152 ° 0 min 0,000 mm 0,0 UV-I 0 W/m² 15,2 °C 18,7 °C 1,6 km/h (1 Bft)
21.06.2017 00:20 18,5 °C 18,7 °C 82 % 1013,5 hPa 0,0 mm 0,1 km/h (0 Bft) S-SO 152 ° 0 min 0,000 mm 0,0 UV-I 0 W/m² 15,4 °C 18,5 °C 1,6 km/h (1 Bft)
21.06.2017 00:21 18,3 °C 18,5 °C 82 % 1013,5 hPa 0,0 mm 0,1 km/h (0 Bft) S-SO 152 ° 0 min 0,000 mm 0,0 UV-I 0 W/m² 15,2 °C 18,3 °C 1,6 km/h (1 Bft)
21.06.2017 00:22 18,2 °C 18,3 °C 83 % 1013,5 hPa 0,0 mm 0,0 km/h (0 Bft) S-SO 152 ° 0 min 0,000 mm 0,0 UV-I 0 W/m² 15,3 °C 18,2 °C 0,0 km/h (0 Bft)
21.06.2017 00:23 18,1 °C 18,2 °C 83 % 1013,5 hPa 0,0 mm 0,1 km/h (0 Bft) S-SO 152 ° 0 min 0,000 mm 0,0 UV-I 0 W/m² 15,2 °C 18,1 °C 1,6 km/h (1 Bft)
21.06.2017 00:24 18,2 °C 18,2 °C 82 % 1013,4 hPa 0,0 mm 0,0 km/h (0 Bft) S-SO 152 ° 0 min 0,000 mm 0,0 UV-I 0 W/m² 15,1 °C 18,2 °C 0,0 km/h (0 Bft)
21.06.2017 00:25 18,2 °C 18,2 °C 83 % 1013,4 hPa 0,0 mm 0,6 km/h (0 Bft) S-SO 152 ° 0 min 0,000 mm 0,0 UV-I 0 W/m² 15,3 °C 18,2 °C 1,6 km/h (1 Bft)
21.06.2017 00:26 18,2 °C 18,2 °C 83 % 1013,4 hPa 0,0 mm 1,5 km/h (1 Bft) S-SO 152 ° 0 min 0,000 mm 0,0 UV-I 0 W/m² 15,3 °C 18,2 °C 3,2 km/h (1 Bft)
21.06.2017 00:27 18,2 °C 18,2 °C 84 % 1013,4 hPa 0,0 mm 0,5 km/h (0 Bft) S-SO 152 ° 0 min 0,000 mm 0,0 UV-I 0 W/m² 15,4 °C 18,2 °C 1,6 km/h (1 Bft)
21.06.2017 00:28 18,1 °C 18,2 °C 84 % 1013,5 hPa 0,0 mm 0,4 km/h (0 Bft) S-SO 152 ° 0 min 0,000 mm 0,0 UV-I 0 W/m² 15,4 °C 18,1 °C 1,6 km/h (1 Bft)
21.06.2017 00:29 18,1 °C 18,1 °C 84 % 1013,5 hPa 0,0 mm 0,0 km/h (0 Bft) S-SO 152 ° 0 min 0,000 mm 0,0 UV-I 0 W/m² 15,4 °C 18,1 °C 0,0 km/h (0 Bft)
21.06.2017 00:30 17,9 °C 18,1 °C 85 % 1013,4 hPa 0,0 mm 0,0 km/h (0 Bft) S-SO 152 ° 0 min 0,000 mm 0,0 UV-I 0 W/m² 15,3 °C 17,9 °C 0,0 km/h (0 Bft)
21.06.2017 00:31 17,9 °C 17,9 °C 86 % 1013,5 hPa 0,0 mm 0,0 km/h (0 Bft) S-SO 152 ° 0 min 0,000 mm 0,0 UV-I 0 W/m² 15,5 °C 17,9 °C 0,0 km/h (0 Bft)
21.06.2017 00:32 17,9 °C 17,9 °C 86 % 1013,5 hPa 0,2 mm 0,0 km/h (0 Bft) S-SO 152 ° 0 min 0,000 mm 0,0 UV-I 0 W/m² 15,5 °C 17,9 °C 0,0 km/h (0 Bft)
21.06.2017 00:33 17,8 °C 17,9 °C 86 % 1013,4 hPa 0,0 mm 0,0 km/h (0 Bft) S-SO 152 ° 0 min 0,000 mm 0,0 UV-I 0 W/m² 15,4 °C 17,8 °C 0,0 km/h (0 Bft)
21.06.2017 00:34 17,8 °C 17,8 °C 86 % 1013,4 hPa 0,0 mm 0,0 km/h (0 Bft) S-SO 152 ° 0 min 0,000 mm 0,0 UV-I 0 W/m² 15,4 °C 17,8 °C 0,0 km/h (0 Bft)
21.06.2017 00:35 17,8 °C 17,8 °C 86 % 1013,4 hPa 0,0 mm 0,0 km/h (0 Bft) S-SO 152 ° 0 min 0,000 mm 0,0 UV-I 0 W/m² 15,4 °C 17,8 °C 0,0 km/h (0 Bft)
21.06.2017 00:36 17,7 °C 17,8 °C 87 % 1013,5 hPa 0,0 mm 0,0 km/h (0 Bft) S-SO 152 ° 0 min 0,000 mm 0,0 UV-I 0 W/m² 15,5 °C 17,7 °C 0,0 km/h (0 Bft)
21.06.2017 00:37 17,7 °C 17,8 °C 86 % 1013,4 hPa 0,0 mm 0,0 km/h (0 Bft) S-SO 152 ° 0 min 0,000 mm 0,0 UV-I 0 W/m² 15,3 °C 17,7 °C 0,0 km/h (0 Bft)
21.06.2017 00:38 17,7 °C 17,7 °C 86 % 1013,4 hPa 0,0 mm 0,0 km/h (0 Bft) S-SO 152 ° 0 min 0,000 mm 0,0 UV-I 0 W/m² 15,3 °C 17,7 °C 0,0 km/h (0 Bft)
21.06.2017 00:39 17,8 °C 17,8 °C 87 % 1013,4 hPa 0,0 mm 0,0 km/h (0 Bft) S-SO 152 ° 0 min 0,000 mm 0,0 UV-I 0 W/m² 15,6 °C 17,8 °C 0,0 km/h (0 Bft)
21.06.2017 00:40 17,8 °C 17,8 °C 87 % 1013,5 hPa 0,0 mm 0,0 km/h (0 Bft) S-SO 152 ° 0 min 0,000 mm 0,0 UV-I 0 W/m² 15,6 °C 17,8 °C 0,0 km/h (0 Bft)
21.06.2017 00:41 17,8 °C 17,8 °C 87 % 1013,4 hPa 0,0 mm 0,0 km/h (0 Bft) S-SO 152 ° 0 min 0,000 mm 0,0 UV-I 0 W/m² 15,6 °C 17,8 °C 0,0 km/h (0 Bft)
21.06.2017 00:42 17,8 °C 17,8 °C 87 % 1013,4 hPa 0,0 mm 0,0 km/h (0 Bft) S-SO 152 ° 0 min 0,000 mm 0,0 UV-I 0 W/m² 15,6 °C 17,8 °C 0,0 km/h (0 Bft)
21.06.2017 00:43 17,8 °C 17,8 °C 86 % 1013,4 hPa 0,0 mm 0,0 km/h (0 Bft) S-SO 152 ° 0 min 0,000 mm 0,0 UV-I 0 W/m² 15,4 °C 17,8 °C 0,0 km/h (0 Bft)
21.06.2017 00:44 17,8 °C 17,8 °C 87 % 1013,4 hPa 0,0 mm 0,0 km/h (0 Bft) S-SO 152 ° 0 min 0,000 mm 0,0 UV-I 0 W/m² 15,6 °C 17,8 °C 0,0 km/h (0 Bft)
21.06.2017 00:45 17,8 °C 17,8 °C 87 % 1013,4 hPa 0,0 mm 0,1 km/h (0 Bft) S-SO 152 ° 0 min 0,000 mm 0,0 UV-I 0 W/m² 15,6 °C 17,8 °C 1,6 km/h (1 Bft)
21.06.2017 00:46 17,8 °C 17,8 °C 87 % 1013,4 hPa 0,0 mm 0,1 km/h (0 Bft) S-SO 152 ° 0 min 0,000 mm 0,0 UV-I 0 W/m² 15,6 °C 17,8 °C 1,6 km/h (1 Bft)
21.06.2017 00:47 17,8 °C 17,8 °C 87 % 1013,4 hPa 0,0 mm 0,0 km/h (0 Bft) S-SO 152 ° 0 min 0,000 mm 0,0 UV-I 0 W/m² 15,6 °C 17,8 °C 0,0 km/h (0 Bft)
21.06.2017 00:48 17,7 °C 17,8 °C 87 % 1013,4 hPa 0,0 mm 0,0 km/h (0 Bft) S-SO 152 ° 0 min 0,000 mm 0,0 UV-I 0 W/m² 15,5 °C 17,7 °C 0,0 km/h (0 Bft)
21.06.2017 00:49 17,7 °C 17,8 °C 88 % 1013,4 hPa 0,0 mm 0,0 km/h (0 Bft) S-SO 152 ° 0 min 0,000 mm 0,0 UV-I 0 W/m² 15,7 °C 17,7 °C 0,0 km/h (0 Bft)
21.06.2017 00:50 17,7 °C 17,7 °C 88 % 1013,4 hPa 0,0 mm 0,0 km/h (0 Bft) S-SO 152 ° 0 min 0,000 mm 0,0 UV-I 0 W/m² 15,7 °C 17,7 °C 0,0 km/h (0 Bft)
21.06.2017 00:51 17,7 °C 17,7 °C 88 % 1013,4 hPa 0,0 mm 0,0 km/h (0 Bft) S-SO 152 ° 0 min 0,000 mm 0,0 UV-I 0 W/m² 15,7 °C 17,7 °C 0,0 km/h (0 Bft)
21.06.2017 00:52 17,7 °C 17,7 °C 88 % 1013,4 hPa 0,0 mm 0,0 km/h (0 Bft) S-SO 152 ° 0 min 0,000 mm 0,0 UV-I 0 W/m² 15,7 °C 17,7 °C 0,0 km/h (0 Bft)
21.06.2017 00:53 17,7 °C 17,7 °C 88 % 1013,3 hPa 0,0 mm 0,0 km/h (0 Bft) S-SO 152 ° 0 min 0,000 mm 0,0 UV-I 0 W/m² 15,7 °C 17,7 °C 0,0 km/h (0 Bft)
21.06.2017 00:54 17,7 °C 17,7 °C 88 % 1013,3 hPa 0,0 mm 0,0 km/h (0 Bft) S-SO 152 ° 0 min 0,000 mm 0,0 UV-I 0 W/m² 15,7 °C 17,7 °C 0,0 km/h (0 Bft)
21.06.2017 00:55 17,7 °C 17,7 °C 87 % 1013,3 hPa 0,0 mm 0,0 km/h (0 Bft) S-SO 152 ° 0 min 0,000 mm 0,0 UV-I 0 W/m² 15,5 °C 17,7 °C 0,0 km/h (0 Bft)
21.06.2017 00:56 17,7 °C 17,7 °C 87 % 1013,3 hPa 0,0 mm 0,0 km/h (0 Bft) S-SO 152 ° 0 min 0,000 mm 0,0 UV-I 0 W/m² 15,5 °C 17,7 °C 0,0 km/h (0 Bft)
21.06.2017 00:57 17,7 °C 17,7 °C 86 % 1013,2 hPa 0,0 mm 0,0 km/h (0 Bft) S-SO 152 ° 0 min 0,000 mm 0,0 UV-I 0 W/m² 15,3 °C 17,7 °C 0,0 km/h (0 Bft)
21.06.2017 00:58 17,7 °C 17,8 °C 86 % 1013,2 hPa 0,0 mm 0,0 km/h (0 Bft) S-SO 152 ° 0 min 0,000 mm 0,0 UV-I 0 W/m² 15,3 °C 17,7 °C 0,0 km/h (0 Bft)
21.06.2017 00:59 17,8 °C 17,8 °C 86 % 1013,3 hPa 0,0 mm 0,0 km/h (0 Bft) S-SO 152 ° 0 min 0,000 mm 0,0 UV-I 0 W/m² 15,4 °C 17,8 °C 0,0 km/h (0 Bft)
21.06.2017 01:00 17,8 °C 17,8 °C 86 % 1013,3 hPa 0,0 mm 0,0 km/h (0 Bft) S-SO 152 ° 0 min 0,025 mm 0,0 UV-I 0 W/m² 15,4 °C 17,8 °C 0,0 km/h (0 Bft)
21.06.2017 01:01 17,8 °C 17,8 °C 87 % 1013,3 hPa 0,0 mm 0,0 km/h (0 Bft) S-SO 152 ° 0 min 0,000 mm 0,0 UV-I 0 W/m² 15,6 °C 17,8 °C 0,0 km/h (0 Bft)
21.06.2017 01:02 17,8 °C 17,8 °C 87 % 1013,3 hPa 0,0 mm 0,0 km/h (0 Bft) S-SO 152 ° 0 min 0,000 mm 0,0 UV-I 0 W/m² 15,6 °C 17,8 °C 0,0 km/h (0 Bft)
21.06.2017 01:03 17,7 °C 17,8 °C 88 % 1013,2 hPa 0,0 mm 0,0 km/h (0 Bft) S-SO 152 ° 0 min 0,000 mm 0,0 UV-I 0 W/m² 15,7 °C 17,7 °C 0,0 km/h (0 Bft)
21.06.2017 01:04 17,7 °C 17,7 °C 87 % 1013,3 hPa 0,0 mm 0,0 km/h (0 Bft) S-SO 152 ° 0 min 0,000 mm 0,0 UV-I 0 W/m² 15,5 °C 17,7 °C 0,0 km/h (0 Bft)
21.06.2017 01:05 17,7 °C 17,7 °C 87 % 1013,3 hPa 0,0 mm 0,0 km/h (0 Bft) S-SO 152 ° 0 min 0,000 mm 0,0 UV-I 0 W/m² 15,5 °C 17,7 °C 0,0 km/h (0 Bft)
21.06.2017 01:06 17,6 °C 17,7 °C 88 % 1013,3 hPa 0,0 mm 0,0 km/h (0 Bft) S-SO 152 ° 0 min 0,000 mm 0,0 UV-I 0 W/m² 15,6 °C 17,6 °C 0,0 km/h (0 Bft)
21.06.2017 01:07 17,6 °C 17,6 °C 88 % 1013,3 hPa 0,0 mm 0,0 km/h (0 Bft) S-SO 152 ° 0 min 0,000 mm 0,0 UV-I 0 W/m² 15,6 °C 17,6 °C 0,0 km/h (0 Bft)
21.06.2017 01:08 17,6 °C 17,6 °C 88 % 1013,4 hPa 0,0 mm 0,0 km/h (0 Bft) S-SO 152 ° 0 min 0,000 mm 0,0 UV-I 0 W/m² 15,6 °C 17,6 °C 0,0 km/h (0 Bft)
21.06.2017 01:09 17,6 °C 17,6 °C 88 % 1013,4 hPa 0,0 mm 0,0 km/h (0 Bft) S-SO 152 ° 0 min 0,000 mm 0,0 UV-I 0 W/m² 15,6 °C 17,6 °C 0,0 km/h (0 Bft)
21.06.2017 01:10 17,6 °C 17,6 °C 88 % 1013,4 hPa 0,0 mm 0,0 km/h (0 Bft) S-SO 152 ° 0 min 0,000 mm 0,0 UV-I 0 W/m² 15,6 °C 17,6 °C 0,0 km/h (0 Bft)
21.06.2017 01:11 17,6 °C 17,6 °C 88 % 1013,3 hPa 0,0 mm 0,9 km/h (0 Bft) S-SO 152 ° 0 min 0,000 mm 0,0 UV-I 0 W/m² 15,6 °C 17,6 °C 3,2 km/h (1 Bft)
21.06.2017 01:12 17,6 °C 17,6 °C 87 % 1013,3 hPa 0,0 mm 2,4 km/h (1 Bft) S-SO 152 ° 0 min 0,000 mm 0,0 UV-I 0 W/m² 15,4 °C 17,6 °C 3,2 km/h (1 Bft)
21.06.2017 01:13 17,6 °C 17,7 °C 86 % 1013,3 hPa 0,0 mm 1,5 km/h (1 Bft) S-SO 152 ° 0 min 0,000 mm 0,0 UV-I 0 W/m² 15,2 °C 17,6 °C 3,2 km/h (1 Bft)
21.06.2017 01:14 17,7 °C 17,7 °C 86 % 1013,3 hPa 0,0 mm 1,4 km/h (1 Bft) S-SO 152 ° 0 min 0,000 mm 0,0 UV-I 0 W/m² 15,3 °C 17,7 °C 1,6 km/h (1 Bft)
21.06.2017 01:15 17,8 °C 17,8 °C 86 % 1013,3 hPa 0,0 mm 1,7 km/h (1 Bft) S-SO 152 ° 0 min 0,000 mm 0,0 UV-I 0 W/m² 15,4 °C 17,8 °C 3,2 km/h (1 Bft)
21.06.2017 01:16 17,8 °C 17,8 °C 85 % 1013,2 hPa 0,0 mm 1,4 km/h (1 Bft) S-SO 152 ° 0 min 0,000 mm 0,0 UV-I 0 W/m² 15,2 °C 17,8 °C 3,2 km/h (1 Bft)
21.06.2017 01:17 17,8 °C 17,9 °C 85 % 1013,2 hPa 0,0 mm 0,0 km/h (0 Bft) S-SO 152 ° 0 min 0,000 mm 0,0 UV-I 0 W/m² 15,2 °C 17,8 °C 0,0 km/h (0 Bft)
21.06.2017 01:18 17,9 °C 17,9 °C 84 % 1013,2 hPa 0,0 mm 0,0 km/h (0 Bft) S-SO 152 ° 0 min 0,000 mm 0,0 UV-I 0 W/m² 15,2 °C 17,9 °C 0,0 km/h (0 Bft)
21.06.2017 01:19 17,9 °C 17,9 °C 85 % 1013,2 hPa 0,0 mm 0,0 km/h (0 Bft) S-SO 152 ° 0 min 0,000 mm 0,0 UV-I 0 W/m² 15,3 °C 17,9 °C 0,0 km/h (0 Bft)
21.06.2017 01:20 17,9 °C 17,9 °C 84 % 1013,2 hPa 0,0 mm 0,0 km/h (0 Bft) S-SO 152 ° 0 min 0,000 mm 0,0 UV-I 0 W/m² 15,2 °C 17,9 °C 0,0 km/h (0 Bft)
21.06.2017 01:21 17,9 °C 17,9 °C 84 % 1013,2 hPa 0,0 mm 0,0 km/h (0 Bft) S-SO 152 ° 0 min 0,000 mm 0,0 UV-I 0 W/m² 15,2 °C 17,9 °C 0,0 km/h (0 Bft)
21.06.2017 01:22 17,9 °C 17,9 °C 85 % 1013,2 hPa 0,0 mm 0,0 km/h (0 Bft) S-SO 152 ° 0 min 0,000 mm 0,0 UV-I 0 W/m² 15,3 °C 17,9 °C 0,0 km/h (0 Bft)
21.06.2017 01:23 17,9 °C 17,9 °C 85 % 1013,2 hPa 0,0 mm 0,0 km/h (0 Bft) S-SO 152 ° 0 min 0,000 mm 0,0 UV-I 0 W/m² 15,3 °C 17,9 °C 0,0 km/h (0 Bft)
21.06.2017 01:24 17,9 °C 17,9 °C 84 % 1013,3 hPa 0,0 mm 0,0 km/h (0 Bft) S-SO 152 ° 0 min 0,000 mm 0,0 UV-I 0 W/m² 15,2 °C 17,9 °C 0,0 km/h (0 Bft)
21.06.2017 01:25 17,9 °C 17,9 °C 84 % 1013,3 hPa 0,0 mm 0,0 km/h (0 Bft) S-SO 152 ° 0 min 0,000 mm 0,0 UV-I 0 W/m² 15,2 °C 17,9 °C 0,0 km/h (0 Bft)
21.06.2017 01:26 17,9 °C 17,9 °C 83 % 1013,3 hPa 0,0 mm 0,0 km/h (0 Bft) S-SO 152 ° 0 min 0,000 mm 0,0 UV-I 0 W/m² 15,0 °C 17,9 °C 0,0 km/h (0 Bft)
21.06.2017 01:27 18,0 °C 18,0 °C 83 % 1013,3 hPa 0,0 mm 0,0 km/h (0 Bft) S-SO 152 ° 0 min 0,000 mm 0,0 UV-I 0 W/m² 15,1 °C 18,0 °C 0,0 km/h (0 Bft)
21.06.2017 01:28 18,0 °C 18,0 °C 85 % 1013,4 hPa 0,0 mm 0,0 km/h (0 Bft) S-SO 152 ° 0 min 0,000 mm 0,0 UV-I 0 W/m² 15,4 °C 18,0 °C 0,0 km/h (0 Bft)
21.06.2017 01:29 18,0 °C 18,0 °C 85 % 1013,3 hPa 0,0 mm 0,0 km/h (0 Bft) S-SO 152 ° 0 min 0,000 mm 0,0 UV-I 0 W/m² 15,4 °C 18,0 °C 0,0 km/h (0 Bft)
21.06.2017 01:30 17,9 °C 18,0 °C 85 % 1013,3 hPa 0,0 mm 0,0 km/h (0 Bft) S-SO 152 ° 0 min 0,000 mm 0,0 UV-I 0 W/m² 15,3 °C 17,9 °C 0,0 km/h (0 Bft)
21.06.2017 01:31 17,9 °C 17,9 °C 84 % 1013,3 hPa 0,0 mm 0,0 km/h (0 Bft) S-SO 152 ° 0 min 0,000 mm 0,0 UV-I 0 W/m² 15,2 °C 17,9 °C 0,0 km/h (0 Bft)
21.06.2017 01:32 17,9 °C 17,9 °C 84 % 1013,3 hPa 0,0 mm 0,0 km/h (0 Bft) S-SO 152 ° 0 min 0,000 mm 0,0 UV-I 0 W/m² 15,2 °C 17,9 °C 0,0 km/h (0 Bft)
21.06.2017 01:33 17,9 °C 17,9 °C 84 % 1013,4 hPa 0,0 mm 0,0 km/h (0 Bft) S-SO 152 ° 0 min 0,000 mm 0,0 UV-I 0 W/m² 15,2 °C 17,9 °C 0,0 km/h (0 Bft)
21.06.2017 01:34 17,9 °C 17,9 °C 84 % 1013,4 hPa 0,0 mm 0,0 km/h (0 Bft) S-SO 152 ° 0 min 0,000 mm 0,0 UV-I 0 W/m² 15,2 °C 17,9 °C 0,0 km/h (0 Bft)
21.06.2017 01:35 17,9 °C 17,9 °C 84 % 1013,5 hPa 0,0 mm 0,0 km/h (0 Bft) S-SO 153 ° 0 min 0,000 mm 0,0 UV-I 0 W/m² 15,2 °C 17,9 °C 0,0 km/h (0 Bft)
21.06.2017 01:36 17,9 °C 17,9 °C 84 % 1013,6 hPa 0,0 mm 0,0 km/h (0 Bft) S-SO 153 ° 0 min 0,000 mm 0,0 UV-I 0 W/m² 15,2 °C 17,9 °C 0,0 km/h (0 Bft)
21.06.2017 01:37 18,0 °C 18,0 °C 83 % 1013,6 hPa 0,0 mm 0,0 km/h (0 Bft) S 188 ° 0 min 0,000 mm 0,0 UV-I 0 W/m² 15,1 °C 18,0 °C 0,0 km/h (0 Bft)
21.06.2017 01:38 18,1 °C 18,1 °C 83 % 1013,6 hPa 0,0 mm 0,0 km/h (0 Bft) W-SW 237 ° 0 min 0,000 mm 0,0 UV-I 0 W/m² 15,2 °C 18,1 °C 0,0 km/h (0 Bft)
21.06.2017 01:39 18,1 °C 18,1 °C 83 % 1013,6 hPa 0,0 mm 0,0 km/h (0 Bft) W-SW 237 ° 0 min 0,000 mm 0,0 UV-I 0 W/m² 15,2 °C 18,1 °C 0,0 km/h (0 Bft)
21.06.2017 01:40 18,1 °C 18,1 °C 83 % 1013,6 hPa 0,0 mm 1,4 km/h (1 Bft) W 276 ° 0 min 0,000 mm 0,0 UV-I 0 W/m² 15,2 °C 18,1 °C 3,2 km/h (1 Bft)
21.06.2017 01:41 18,2 °C 18,2 °C 83 % 1013,5 hPa 0,0 mm 4,1 km/h (1 Bft) S-SW 202 ° 0 min 0,000 mm 0,0 UV-I 0 W/m² 15,3 °C 18,2 °C 6,4 km/h (2 Bft)
21.06.2017 01:42 18,3 °C 18,3 °C 79 % 1013,5 hPa 0,0 mm 3,6 km/h (1 Bft) S-SW 208 ° 0 min 0,000 mm 0,0 UV-I 0 W/m² 14,6 °C 18,3 °C 12,9 km/h (3 Bft)
21.06.2017 01:43 18,5 °C 18,5 °C 78 % 1013,4 hPa 0,0 mm 3,8 km/h (1 Bft) SW 214 ° 0 min 0,000 mm 0,0 UV-I 0 W/m² 14,6 °C 18,5 °C 8,0 km/h (2 Bft)
21.06.2017 01:44 18,8 °C 18,8 °C 77 % 1013,4 hPa 0,0 mm 4,8 km/h (1 Bft) W-SW 241 ° 0 min 0,000 mm 0,0 UV-I 0 W/m² 14,7 °C 18,8 °C 14,5 km/h (3 Bft)
21.06.2017 01:45 18,9 °C 18,9 °C 76 % 1013,4 hPa 0,0 mm 4,1 km/h (1 Bft) S-SW 206 ° 0 min 0,000 mm 0,0 UV-I 0 W/m² 14,6 °C 18,9 °C 6,4 km/h (2 Bft)
21.06.2017 01:46 19,2 °C 19,2 °C 76 % 1013,4 hPa 0,0 mm 11,5 km/h (2 Bft) W-SW 246 ° 0 min 0,000 mm 0,0 UV-I 0 W/m² 14,9 °C 19,2 °C 16,1 km/h (3 Bft)
21.06.2017 01:47 19,3 °C 19,3 °C 78 % 1013,3 hPa 0,2 mm 9,5 km/h (2 Bft) W-SW 258 ° 0 min 0,000 mm 0,0 UV-I 0 W/m² 15,4 °C 19,3 °C 16,1 km/h (3 Bft)
21.06.2017 01:48 19,3 °C 19,3 °C 78 % 1013,3 hPa 0,0 mm 9,4 km/h (2 Bft) W-NW 284 ° 0 min 0,000 mm 0,0 UV-I 0 W/m² 15,4 °C 19,3 °C 16,1 km/h (3 Bft)
21.06.2017 01:49 19,2 °C 19,3 °C 78 % 1013,3 hPa 0,2 mm 9,5 km/h (2 Bft) W 263 ° 0 min 0,000 mm 0,0 UV-I 0 W/m² 15,3 °C 19,2 °C 14,5 km/h (3 Bft)
21.06.2017 01:50 19,1 °C 19,2 °C 78 % 1013,3 hPa 0,0 mm 9,1 km/h (2 Bft) W 267 ° 0 min 0,000 mm 0,0 UV-I 0 W/m² 15,2 °C 19,1 °C 11,3 km/h (2 Bft)
21.06.2017 01:51 18,9 °C 19,1 °C 79 % 1013,3 hPa 0,0 mm 7,6 km/h (2 Bft) S 185 ° 0 min 0,000 mm 0,0 UV-I 0 W/m² 15,2 °C 18,9 °C 11,3 km/h (2 Bft)
21.06.2017 01:52 18,8 °C 18,9 °C 79 % 1013,1 hPa 0,0 mm 4,0 km/h (1 Bft) S-SW 196 ° 0 min 0,000 mm 0,0 UV-I 0 W/m² 15,1 °C 18,8 °C 6,4 km/h (2 Bft)
21.06.2017 01:53 18,8 °C 18,8 °C 80 % 1013,1 hPa 0,0 mm 6,6 km/h (2 Bft) S-SW 212 ° 0 min 0,000 mm 0,0 UV-I 0 W/m² 15,3 °C 18,8 °C 11,3 km/h (2 Bft)
21.06.2017 01:54 18,7 °C 18,8 °C 80 % 1013,1 hPa 0,0 mm 5,6 km/h (1 Bft) S-SW 211 ° 0 min 0,000 mm 0,0 UV-I 0 W/m² 15,2 °C 18,7 °C 12,9 km/h (3 Bft)
21.06.2017 01:55 18,6 °C 18,7 °C 81 % 1013,1 hPa 0,0 mm 5,0 km/h (1 Bft) S 191 ° 0 min 0,000 mm 0,0 UV-I 0 W/m² 15,3 °C 18,6 °C 11,3 km/h (2 Bft)
21.06.2017 01:56 18,6 °C 18,6 °C 81 % 1013,1 hPa 0,0 mm 2,4 km/h (1 Bft) W-SW 257 ° 0 min 0,000 mm 0,0 UV-I 0 W/m² 15,3 °C 18,6 °C 4,8 km/h (1 Bft)
21.06.2017 01:57 18,4 °C 18,6 °C 81 % 1013,0 hPa 0,0 mm 5,0 km/h (1 Bft) S-SW 204 ° 0 min 0,000 mm 0,0 UV-I 0 W/m² 15,1 °C 18,4 °C 8,0 km/h (2 Bft)
21.06.2017 01:58 18,3 °C 18,4 °C 82 % 1013,0 hPa 0,0 mm 10,1 km/h (2 Bft) S-SW 207 ° 0 min 0,000 mm 0,0 UV-I 0 W/m² 15,2 °C 18,3 °C 14,5 km/h (3 Bft)
21.06.2017 01:59 18,2 °C 18,3 °C 83 % 1012,9 hPa 0,2 mm 11,9 km/h (2 Bft) S 171 ° 0 min 0,000 mm 0,0 UV-I 0 W/m² 15,3 °C 18,2 °C 16,1 km/h (3 Bft)
21.06.2017 02:00 18,2 °C 18,2 °C 83 % 1012,9 hPa 0,2 mm 8,3 km/h (2 Bft) S 178 ° 0 min 0,026 mm 0,0 UV-I 0 W/m² 15,3 °C 18,2 °C 11,3 km/h (2 Bft)
21.06.2017 02:01 18,1 °C 18,2 °C 83 % 1013,0 hPa 0,0 mm 5,4 km/h (1 Bft) S-SW 204 ° 0 min 0,000 mm 0,0 UV-I 0 W/m² 15,2 °C 18,1 °C 12,9 km/h (3 Bft)
21.06.2017 02:02 18,1 °C 18,1 °C 83 % 1012,9 hPa 0,2 mm 12,3 km/h (3 Bft) SO 146 ° 0 min 0,000 mm 0,0 UV-I 0 W/m² 15,2 °C 18,1 °C 16,1 km/h (3 Bft)
21.06.2017 02:03 17,9 °C 18,1 °C 84 % 1012,9 hPa 0,2 mm 8,3 km/h (2 Bft) S 180 ° 0 min 0,000 mm 0,0 UV-I 0 W/m² 15,2 °C 17,9 °C 14,5 km/h (3 Bft)
21.06.2017 02:04 17,8 °C 17,9 °C 84 % 1012,9 hPa 0,0 mm 8,8 km/h (2 Bft) S-SO 157 ° 0 min 0,000 mm 0,0 UV-I 0 W/m² 15,1 °C 17,8 °C 14,5 km/h (3 Bft)
21.06.2017 02:05 17,7 °C 17,8 °C 86 % 1012,9 hPa 0,0 mm 6,2 km/h (2 Bft) S-SW 193 ° 0 min 0,000 mm 0,0 UV-I 0 W/m² 15,3 °C 17,7 °C 9,7 km/h (2 Bft)
21.06.2017 02:06 17,6 °C 17,7 °C 86 % 1012,9 hPa 0,0 mm 5,5 km/h (1 Bft) S 185 ° 0 min 0,000 mm 0,0 UV-I 0 W/m² 15,2 °C 17,6 °C 11,3 km/h (2 Bft)
21.06.2017 02:07 17,5 °C 17,6 °C 87 % 1012,9 hPa 0,0 mm 3,6 km/h (1 Bft) S-SO 163 ° 0 min 0,000 mm 0,0 UV-I 0 W/m² 15,3 °C 17,5 °C 8,0 km/h (2 Bft)
21.06.2017 02:08 17,3 °C 17,5 °C 87 % 1012,9 hPa 0,0 mm 2,4 km/h (1 Bft) S-SW 194 ° 0 min 0,000 mm 0,0 UV-I 0 W/m² 15,1 °C 17,3 °C 8,0 km/h (2 Bft)
21.06.2017 02:09 17,3 °C 17,3 °C 87 % 1012,9 hPa 0,0 mm 5,0 km/h (1 Bft) S-SW 199 ° 0 min 0,000 mm 0,0 UV-I 0 W/m² 15,1 °C 17,3 °C 9,7 km/h (2 Bft)
21.06.2017 02:10 17,3 °C 17,3 °C 87 % 1012,9 hPa 0,0 mm 3,0 km/h (1 Bft) S 169 ° 0 min 0,000 mm 0,0 UV-I 0 W/m² 15,1 °C 17,3 °C 6,4 km/h (2 Bft)
21.06.2017 02:11 17,2 °C 17,3 °C 88 % 1012,9 hPa 0,0 mm 1,7 km/h (1 Bft) S-SW 196 ° 0 min 0,000 mm 0,0 UV-I 0 W/m² 15,2 °C 17,2 °C 4,8 km/h (1 Bft)
21.06.2017 02:12 17,1 °C 17,2 °C 89 % 1013,0 hPa 0,0 mm 0,8 km/h (0 Bft) S-SO 167 ° 0 min 0,000 mm 0,0 UV-I 0 W/m² 15,3 °C 17,1 °C 4,8 km/h (1 Bft)
21.06.2017 02:13 17,1 °C 17,1 °C 89 % 1013,0 hPa 0,0 mm 0,8 km/h (0 Bft) S 169 ° 0 min 0,000 mm 0,0 UV-I 0 W/m² 15,3 °C 17,1 °C 3,2 km/h (1 Bft)
21.06.2017 02:14 17,1 °C 17,1 °C 89 % 1013,0 hPa 0,0 mm 1,7 km/h (1 Bft) S 169 ° 0 min 0,000 mm 0,0 UV-I 0 W/m² 15,3 °C 17,1 °C 3,2 km/h (1 Bft)
21.06.2017 02:15 17,0 °C 17,1 °C 89 % 1013,0 hPa 0,0 mm 1,5 km/h (1 Bft) W-NW 294 ° 0 min 0,000 mm 0,0 UV-I 0 W/m² 15,2 °C 17,0 °C 3,2 km/h (1 Bft)
21.06.2017 02:16 16,9 °C 17,0 °C 90 % 1013,0 hPa 0,0 mm 0,0 km/h (0 Bft) W 270 ° 0 min 0,000 mm 0,0 UV-I 0 W/m² 15,2 °C 16,9 °C 0,0 km/h (0 Bft)
21.06.2017 02:17 16,9 °C 16,9 °C 90 % 1013,0 hPa 0,0 mm 0,4 km/h (0 Bft) W-SW 240 ° 0 min 0,000 mm 0,0 UV-I 0 W/m² 15,2 °C 16,9 °C 1,6 km/h (1 Bft)
21.06.2017 02:18 16,9 °C 16,9 °C 90 % 1013,0 hPa 0,0 mm 0,7 km/h (0 Bft) W-SW 244 ° 0 min 0,000 mm 0,0 UV-I 0 W/m² 15,2 °C 16,9 °C 1,6 km/h (1 Bft)
21.06.2017 02:19 16,9 °C 16,9 °C 90 % 1013,0 hPa 0,0 mm 2,8 km/h (1 Bft) S-SW 196 ° 0 min 0,000 mm 0,0 UV-I 0 W/m² 15,2 °C 16,9 °C 8,0 km/h (2 Bft)
21.06.2017 02:20 17,0 °C 17,0 °C 90 % 1013,0 hPa 0,0 mm 1,5 km/h (1 Bft) S-SW 196 ° 0 min 0,000 mm 0,0 UV-I 0 W/m² 15,3 °C 17,0 °C 4,8 km/h (1 Bft)
21.06.2017 02:21 16,9 °C 17,0 °C 91 % 1013,1 hPa 0,0 mm 0,1 km/h (0 Bft) S-SW 196 ° 0 min 0,000 mm 0,0 UV-I 0 W/m² 15,4 °C 16,9 °C 1,6 km/h (1 Bft)
21.06.2017 02:22 16,9 °C 16,9 °C 91 % 1013,1 hPa 0,0 mm 0,0 km/h (0 Bft) S-SW 196 ° 0 min 0,000 mm 0,0 UV-I 0 W/m² 15,4 °C 16,9 °C 0,0 km/h (0 Bft)
21.06.2017 02:23 16,9 °C 16,9 °C 91 % 1013,1 hPa 0,0 mm 0,6 km/h (0 Bft) S-SW 196 ° 0 min 0,000 mm 0,0 UV-I 0 W/m² 15,4 °C 16,9 °C 3,2 km/h (1 Bft)
21.06.2017 02:24 16,9 °C 17,0 °C 91 % 1013,1 hPa 0,0 mm 1,1 km/h (1 Bft) S-SW 196 ° 0 min 0,000 mm 0,0 UV-I 0 W/m² 15,4 °C 16,9 °C 3,2 km/h (1 Bft)
21.06.2017 02:25 16,9 °C 16,9 °C 91 % 1013,1 hPa 0,0 mm 0,1 km/h (0 Bft) S-SW 196 ° 0 min 0,000 mm 0,0 UV-I 0 W/m² 15,4 °C 16,9 °C 1,6 km/h (1 Bft)
21.06.2017 02:26 16,9 °C 16,9 °C 91 % 1013,1 hPa 0,0 mm 0,0 km/h (0 Bft) S-SW 196 ° 0 min 0,000 mm 0,0 UV-I 0 W/m² 15,4 °C 16,9 °C 0,0 km/h (0 Bft)
21.06.2017 02:27 16,9 °C 16,9 °C 91 % 1013,2 hPa 0,0 mm 0,0 km/h (0 Bft) S-SW 196 ° 0 min 0,000 mm 0,0 UV-I 0 W/m² 15,4 °C 16,9 °C 0,0 km/h (0 Bft)
21.06.2017 02:28 16,8 °C 16,9 °C 91 % 1013,2 hPa 0,0 mm 0,0 km/h (0 Bft) S-SW 196 ° 0 min 0,000 mm 0,0 UV-I 0 W/m² 15,3 °C 16,8 °C 0,0 km/h (0 Bft)
21.06.2017 02:29 16,8 °C 16,8 °C 91 % 1013,1 hPa 0,0 mm 0,2 km/h (0 Bft) S-SW 196 ° 0 min 0,000 mm 0,0 UV-I 0 W/m² 15,3 °C 16,8 °C 1,6 km/h (1 Bft)
21.06.2017 02:30 16,7 °C 16,8 °C 91 % 1013,2 hPa 0,0 mm 0,0 km/h (0 Bft) S-SW 196 ° 0 min 0,000 mm 0,0 UV-I 0 W/m² 15,2 °C 16,7 °C 0,0 km/h (0 Bft)
21.06.2017 02:31 16,7 °C 16,7 °C 91 % 1013,2 hPa 0,0 mm 0,0 km/h (0 Bft) S-SW 196 ° 0 min 0,000 mm 0,0 UV-I 0 W/m² 15,2 °C 16,7 °C 0,0 km/h (0 Bft)
21.06.2017 02:32 16,7 °C 16,7 °C 91 % 1013,2 hPa 0,0 mm 0,0 km/h (0 Bft) S-SW 196 ° 0 min 0,000 mm 0,0 UV-I 0 W/m² 15,2 °C 16,7 °C 0,0 km/h (0 Bft)
21.06.2017 02:33 16,6 °C 16,7 °C 92 % 1013,2 hPa 0,0 mm 2,3 km/h (1 Bft) SO 142 ° 0 min 0,000 mm 0,0 UV-I 0 W/m² 15,3 °C 16,6 °C 4,8 km/h (1 Bft)
21.06.2017 02:34 16,6 °C 16,6 °C 92 % 1013,1 hPa 0,0 mm 1,5 km/h (1 Bft) SO 142 ° 0 min 0,000 mm 0,0 UV-I 0 W/m² 15,3 °C 16,6 °C 3,2 km/h (1 Bft)
21.06.2017 02:35 16,6 °C 16,6 °C 92 % 1013,2 hPa 0,0 mm 0,0 km/h (0 Bft) S 189 ° 0 min 0,000 mm 0,0 UV-I 0 W/m² 15,3 °C 16,6 °C 0,0 km/h (0 Bft)
21.06.2017 02:36 16,6 °C 16,6 °C 92 % 1013,2 hPa 0,0 mm 0,0 km/h (0 Bft) S 189 ° 0 min 0,000 mm 0,0 UV-I 0 W/m² 15,3 °C 16,6 °C 0,0 km/h (0 Bft)
21.06.2017 02:37 16,5 °C 16,6 °C 92 % 1013,2 hPa 0,0 mm 0,0 km/h (0 Bft) S-SW 196 ° 0 min 0,000 mm 0,0 UV-I 0 W/m² 15,2 °C 16,5 °C 0,0 km/h (0 Bft)
21.06.2017 02:38 16,5 °C 16,6 °C 92 % 1013,2 hPa 0,0 mm 3,8 km/h (1 Bft) W 274 ° 0 min 0,000 mm 0,0 UV-I 0 W/m² 15,2 °C 16,5 °C 11,3 km/h (2 Bft)
21.06.2017 02:39 16,4 °C 16,5 °C 92 % 1013,2 hPa 0,0 mm 7,4 km/h (2 Bft) W 262 ° 0 min 0,000 mm 0,0 UV-I 0 W/m² 15,1 °C 16,4 °C 12,9 km/h (3 Bft)
21.06.2017 02:40 16,6 °C 16,6 °C 92 % 1013,1 hPa 0,0 mm 2,7 km/h (1 Bft) W 261 ° 0 min 0,000 mm 0,0 UV-I 0 W/m² 15,3 °C 16,6 °C 6,4 km/h (2 Bft)
21.06.2017 02:41 16,6 °C 16,6 °C 92 % 1013,1 hPa 0,0 mm 2,5 km/h (1 Bft) S-SW 211 ° 0 min 0,000 mm 0,0 UV-I 0 W/m² 15,3 °C 16,6 °C 3,2 km/h (1 Bft)
21.06.2017 02:42 16,5 °C 16,6 °C 92 % 1013,1 hPa 0,0 mm 0,3 km/h (0 Bft) S-SW 211 ° 0 min 0,000 mm 0,0 UV-I 0 W/m² 15,2 °C 16,5 °C 1,6 km/h (1 Bft)
21.06.2017 02:43 16,6 °C 16,6 °C 92 % 1013,1 hPa 0,0 mm 0,0 km/h (0 Bft) S-SW 211 ° 0 min 0,000 mm 0,0 UV-I 0 W/m² 15,3 °C 16,6 °C 0,0 km/h (0 Bft)
21.06.2017 02:44 16,6 °C 16,6 °C 92 % 1013,1 hPa 0,0 mm 1,3 km/h (1 Bft) SW 226 ° 0 min 0,000 mm 0,0 UV-I 0 W/m² 15,3 °C 16,6 °C 3,2 km/h (1 Bft)
21.06.2017 02:45 16,5 °C 16,6 °C 92 % 1013,2 hPa 0,0 mm 0,8 km/h (0 Bft) SW 226 ° 0 min 0,000 mm 0,0 UV-I 0 W/m² 15,2 °C 16,5 °C 3,2 km/h (1 Bft)
21.06.2017 02:46 16,5 °C 16,6 °C 92 % 1013,2 hPa 0,0 mm 2,1 km/h (1 Bft) S-SW 195 ° 0 min 0,000 mm 0,0 UV-I 0 W/m² 15,2 °C 16,5 °C 6,4 km/h (2 Bft)
21.06.2017 02:47 16,5 °C 16,5 °C 92 % 1013,1 hPa 0,0 mm 1,0 km/h (0 Bft) S-SW 195 ° 0 min 0,000 mm 0,0 UV-I 0 W/m² 15,2 °C 16,5 °C 4,8 km/h (1 Bft)
21.06.2017 02:48 16,5 °C 16,5 °C 92 % 1013,2 hPa 0,0 mm 0,0 km/h (0 Bft) S-SW 195 ° 0 min 0,000 mm 0,0 UV-I 0 W/m² 15,2 °C 16,5 °C 0,0 km/h (0 Bft)
21.06.2017 02:49 16,4 °C 16,5 °C 92 % 1013,2 hPa 0,0 mm 0,0 km/h (0 Bft) S-SW 195 ° 0 min 0,000 mm 0,0 UV-I 0 W/m² 15,1 °C 16,4 °C 0,0 km/h (0 Bft)
21.06.2017 02:50 16,5 °C 16,5 °C 92 % 1013,1 hPa 0,0 mm 1,2 km/h (1 Bft) S-SW 194 ° 0 min 0,000 mm 0,0 UV-I 0 W/m² 15,2 °C 16,5 °C 4,8 km/h (1 Bft)
21.06.2017 02:51 16,5 °C 16,5 °C 92 % 1013,1 hPa 0,0 mm 1,0 km/h (0 Bft) S 186 ° 0 min 0,000 mm 0,0 UV-I 0 W/m² 15,2 °C 16,5 °C 3,2 km/h (1 Bft)
21.06.2017 02:52 16,5 °C 16,5 °C 92 % 1013,1 hPa 0,0 mm 0,0 km/h (0 Bft) S 186 ° 0 min 0,000 mm 0,0 UV-I 0 W/m² 15,2 °C 16,5 °C 0,0 km/h (0 Bft)
21.06.2017 02:53 16,4 °C 16,5 °C 92 % 1013,1 hPa 0,0 mm 0,1 km/h (0 Bft) S 186 ° 0 min 0,000 mm 0,0 UV-I 0 W/m² 15,1 °C 16,4 °C 1,6 km/h (1 Bft)
21.06.2017 02:54 16,4 °C 16,4 °C 92 % 1013,2 hPa 0,0 mm 0,2 km/h (0 Bft) S 186 ° 0 min 0,000 mm 0,0 UV-I 0 W/m² 15,1 °C 16,4 °C 1,6 km/h (1 Bft)
21.06.2017 02:55 16,4 °C 16,4 °C 92 % 1013,2 hPa 0,0 mm 0,0 km/h (0 Bft) S 186 ° 0 min 0,000 mm 0,0 UV-I 0 W/m² 15,1 °C 16,4 °C 0,0 km/h (0 Bft)
21.06.2017 02:56 16,4 °C 16,4 °C 92 % 1013,2 hPa 0,0 mm 0,0 km/h (0 Bft) S 186 ° 0 min 0,000 mm 0,0 UV-I 0 W/m² 15,1 °C 16,4 °C 0,0 km/h (0 Bft)
21.06.2017 02:57 16,3 °C 16,4 °C 92 % 1013,2 hPa 0,0 mm 1,0 km/h (0 Bft) S 186 ° 0 min 0,000 mm 0,0 UV-I 0 W/m² 15,0 °C 16,3 °C 3,2 km/h (1 Bft)
21.06.2017 02:58 16,3 °C 16,4 °C 92 % 1013,2 hPa 0,0 mm 1,5 km/h (1 Bft) S 180 ° 0 min 0,000 mm 0,0 UV-I 0 W/m² 15,0 °C 16,3 °C 3,2 km/h (1 Bft)
21.06.2017 02:59 16,3 °C 16,3 °C 92 % 1013,2 hPa 0,0 mm 0,1 km/h (0 Bft) S 180 ° 0 min 0,000 mm 0,0 UV-I 0 W/m² 15,0 °C 16,3 °C 1,6 km/h (1 Bft)
21.06.2017 03:00 16,3 °C 16,3 °C 92 % 1013,2 hPa 0,0 mm 0,0 km/h (0 Bft) S 180 ° 0 min 0,000 mm 0,0 UV-I 0 W/m² 15,0 °C 16,3 °C 0,0 km/h (0 Bft)
21.06.2017 03:01 16,3 °C 16,3 °C 92 % 1013,2 hPa 0,0 mm 0,1 km/h (0 Bft) S 180 ° 0 min 0,000 mm 0,0 UV-I 0 W/m² 15,0 °C 16,3 °C 1,6 km/h (1 Bft)
21.06.2017 03:02 16,3 °C 16,3 °C 92 % 1013,2 hPa 0,0 mm 0,0 km/h (0 Bft) S 180 ° 0 min 0,000 mm 0,0 UV-I 0 W/m² 15,0 °C 16,3 °C 0,0 km/h (0 Bft)
21.06.2017 03:03 16,3 °C 16,4 °C 92 % 1013,2 hPa 0,0 mm 0,0 km/h (0 Bft) S 180 ° 0 min 0,000 mm 0,0 UV-I 0 W/m² 15,0 °C 16,3 °C 0,0 km/h (0 Bft)
21.06.2017 03:04 16,4 °C 16,4 °C 92 % 1013,2 hPa 0,0 mm 0,1 km/h (0 Bft) S 180 ° 0 min 0,000 mm 0,0 UV-I 0 W/m² 15,1 °C 16,4 °C 1,6 km/h (1 Bft)
21.06.2017 03:05 16,4 °C 16,4 °C 92 % 1013,2 hPa 0,0 mm 0,3 km/h (0 Bft) S 180 ° 0 min 0,000 mm 0,0 UV-I 0 W/m² 15,1 °C 16,4 °C 1,6 km/h (1 Bft)
21.06.2017 03:06 16,4 °C 16,4 °C 92 % 1013,2 hPa 0,0 mm 0,0 km/h (0 Bft) S 180 ° 0 min 0,000 mm 0,0 UV-I 0 W/m² 15,1 °C 16,4 °C 0,0 km/h (0 Bft)
21.06.2017 03:07 16,4 °C 16,4 °C 92 % 1013,2 hPa 0,0 mm 0,0 km/h (0 Bft) S 180 ° 0 min 0,000 mm 0,0 UV-I 0 W/m² 15,1 °C 16,4 °C 0,0 km/h (0 Bft)
21.06.2017 03:08 16,4 °C 16,5 °C 92 % 1013,2 hPa 0,0 mm 0,0 km/h (0 Bft) S 180 ° 0 min 0,000 mm 0,0 UV-I 0 W/m² 15,1 °C 16,4 °C 0,0 km/h (0 Bft)
21.06.2017 03:09 16,4 °C 16,5 °C 92 % 1013,2 hPa 0,0 mm 0,0 km/h (0 Bft) S 180 ° 0 min 0,000 mm 0,0 UV-I 0 W/m² 15,1 °C 16,4 °C 0,0 km/h (0 Bft)
21.06.2017 03:10 16,5 °C 16,5 °C 92 % 1013,3 hPa 0,0 mm 0,0 km/h (0 Bft) S 180 ° 0 min 0,000 mm 0,0 UV-I 0 W/m² 15,2 °C 16,5 °C 0,0 km/h (0 Bft)
21.06.2017 03:11 16,4 °C 16,5 °C 92 % 1013,2 hPa 0,0 mm 0,0 km/h (0 Bft) S 180 ° 0 min 0,000 mm 0,0 UV-I 0 W/m² 15,1 °C 16,4 °C 0,0 km/h (0 Bft)
21.06.2017 03:12 16,5 °C 16,5 °C 92 % 1013,2 hPa 0,0 mm 0,0 km/h (0 Bft) S 180 ° 0 min 0,000 mm 0,0 UV-I 0 W/m² 15,2 °C 16,5 °C 0,0 km/h (0 Bft)
21.06.2017 03:13 16,5 °C 16,6 °C 92 % 1013,3 hPa 0,0 mm 0,0 km/h (0 Bft) S 180 ° 0 min 0,000 mm 0,0 UV-I 0 W/m² 15,2 °C 16,5 °C 0,0 km/h (0 Bft)
21.06.2017 03:14 16,6 °C 16,6 °C 92 % 1013,3 hPa 0,0 mm 0,0 km/h (0 Bft) S 180 ° 0 min 0,000 mm 0,0 UV-I 0 W/m² 15,3 °C 16,6 °C 0,0 km/h (0 Bft)
21.06.2017 03:15 16,5 °C 16,6 °C 92 % 1013,3 hPa 0,0 mm 0,0 km/h (0 Bft) S 180 ° 0 min 0,000 mm 0,0 UV-I 0 W/m² 15,2 °C 16,5 °C 0,0 km/h (0 Bft)
21.06.2017 03:16 16,5 °C 16,6 °C 92 % 1013,3 hPa 0,0 mm 0,0 km/h (0 Bft) S 180 ° 0 min 0,000 mm 0,0 UV-I 0 W/m² 15,2 °C 16,5 °C 0,0 km/h (0 Bft)
21.06.2017 03:17 16,5 °C 16,5 °C 92 % 1013,3 hPa 0,0 mm 0,0 km/h (0 Bft) S 180 ° 0 min 0,000 mm 0,0 UV-I 0 W/m² 15,2 °C 16,5 °C 0,0 km/h (0 Bft)
21.06.2017 03:18 16,4 °C 16,5 °C 92 % 1013,3 hPa 0,0 mm 0,0 km/h (0 Bft) S 180 ° 0 min 0,000 mm 0,0 UV-I 0 W/m² 15,1 °C 16,4 °C 0,0 km/h (0 Bft)
21.06.2017 03:19 16,4 °C 16,5 °C 92 % 1013,3 hPa 0,0 mm 0,0 km/h (0 Bft) S 180 ° 0 min 0,000 mm 0,0 UV-I 0 W/m² 15,1 °C 16,4 °C 0,0 km/h (0 Bft)
21.06.2017 03:20 16,4 °C 16,5 °C 92 % 1013,3 hPa 0,0 mm 0,0 km/h (0 Bft) S 180 ° 0 min 0,000 mm 0,0 UV-I 0 W/m² 15,1 °C 16,4 °C 0,0 km/h (0 Bft)
21.06.2017 03:21 16,4 °C 16,5 °C 92 % 1013,3 hPa 0,0 mm 0,0 km/h (0 Bft) S 180 ° 0 min 0,000 mm 0,0 UV-I 0 W/m² 15,1 °C 16,4 °C 0,0 km/h (0 Bft)
21.06.2017 03:22 16,4 °C 16,4 °C 92 % 1013,3 hPa 0,0 mm 0,0 km/h (0 Bft) S 180 ° 0 min 0,000 mm 0,0 UV-I 0 W/m² 15,1 °C 16,4 °C 0,0 km/h (0 Bft)
21.06.2017 03:23 16,4 °C 16,4 °C 92 % 1013,3 hPa 0,0 mm 0,0 km/h (0 Bft) S 180 ° 0 min 0,000 mm 0,0 UV-I 0 W/m² 15,1 °C 16,4 °C 0,0 km/h (0 Bft)
21.06.2017 03:24 16,4 °C 16,4 °C 92 % 1013,3 hPa 0,0 mm 0,0 km/h (0 Bft) S 180 ° 0 min 0,000 mm 0,0 UV-I 0 W/m² 15,1 °C 16,4 °C 0,0 km/h (0 Bft)
21.06.2017 03:25 16,4 °C 16,4 °C 92 % 1013,3 hPa 0,0 mm 0,0 km/h (0 Bft) S 180 ° 0 min 0,000 mm 0,0 UV-I 0 W/m² 15,1 °C 16,4 °C 0,0 km/h (0 Bft)
21.06.2017 03:26 16,4 °C 16,4 °C 92 % 1013,3 hPa 0,0 mm 0,0 km/h (0 Bft) S 180 ° 0 min 0,000 mm 0,0 UV-I 0 W/m² 15,1 °C 16,4 °C 0,0 km/h (0 Bft)
21.06.2017 03:27 16,3 °C 16,4 °C 92 % 1013,3 hPa 0,0 mm 0,0 km/h (0 Bft) S 180 ° 0 min 0,000 mm 0,0 UV-I 0 W/m² 15,0 °C 16,3 °C 0,0 km/h (0 Bft)
21.06.2017 03:28 16,3 °C 16,3 °C 92 % 1013,2 hPa 0,0 mm 0,0 km/h (0 Bft) S 180 ° 0 min 0,000 mm 0,0 UV-I 0 W/m² 15,0 °C 16,3 °C 0,0 km/h (0 Bft)
21.06.2017 03:29 16,3 °C 16,3 °C 92 % 1013,2 hPa 0,0 mm 0,0 km/h (0 Bft) S 180 ° 0 min 0,000 mm 0,0 UV-I 0 W/m² 15,0 °C 16,3 °C 0,0 km/h (0 Bft)
21.06.2017 03:30 16,2 °C 16,3 °C 92 % 1013,2 hPa 0,0 mm 0,0 km/h (0 Bft) S 180 ° 0 min 0,000 mm 0,0 UV-I 0 W/m² 14,9 °C 16,2 °C 0,0 km/h (0 Bft)
21.06.2017 03:31 16,3 °C 16,3 °C 93 % 1013,2 hPa 0,0 mm 0,0 km/h (0 Bft) S 180 ° 0 min 0,000 mm 0,0 UV-I 0 W/m² 15,2 °C 16,3 °C 0,0 km/h (0 Bft)
21.06.2017 03:32 16,3 °C 16,3 °C 93 % 1013,2 hPa 0,0 mm 0,0 km/h (0 Bft) S 180 ° 0 min 0,000 mm 0,0 UV-I 0 W/m² 15,2 °C 16,3 °C 0,0 km/h (0 Bft)
21.06.2017 03:33 16,3 °C 16,3 °C 93 % 1013,2 hPa 0,0 mm 0,0 km/h (0 Bft) S 180 ° 0 min 0,000 mm 0,0 UV-I 0 W/m² 15,2 °C 16,3 °C 0,0 km/h (0 Bft)
21.06.2017 03:34 16,3 °C 16,3 °C 93 % 1013,2 hPa 0,0 mm 0,0 km/h (0 Bft) S 180 ° 0 min 0,000 mm 0,0 UV-I 0 W/m² 15,2 °C 16,3 °C 0,0 km/h (0 Bft)
21.06.2017 03:35 16,3 °C 16,3 °C 92 % 1013,2 hPa 0,0 mm 0,0 km/h (0 Bft) S 180 ° 0 min 0,000 mm 0,0 UV-I 0 W/m² 15,0 °C 16,3 °C 0,0 km/h (0 Bft)
21.06.2017 03:36 16,3 °C 16,3 °C 92 % 1013,2 hPa 0,0 mm 0,0 km/h (0 Bft) S 180 ° 0 min 0,000 mm 0,0 UV-I 0 W/m² 15,0 °C 16,3 °C 0,0 km/h (0 Bft)
21.06.2017 03:37 16,3 °C 16,3 °C 92 % 1013,1 hPa 0,0 mm 0,0 km/h (0 Bft) S 180 ° 0 min 0,000 mm 0,0 UV-I 0 W/m² 15,0 °C 16,3 °C 0,0 km/h (0 Bft)
21.06.2017 03:38 16,3 °C 16,3 °C 92 % 1013,1 hPa 0,0 mm 0,0 km/h (0 Bft) S 180 ° 0 min 0,000 mm 0,0 UV-I 0 W/m² 15,0 °C 16,3 °C 0,0 km/h (0 Bft)
21.06.2017 03:39 16,3 °C 16,3 °C 93 % 1013,1 hPa 0,0 mm 0,0 km/h (0 Bft) S 180 ° 0 min 0,000 mm 0,0 UV-I 0 W/m² 15,2 °C 16,3 °C 0,0 km/h (0 Bft)
21.06.2017 03:40 16,3 °C 16,3 °C 92 % 1013,1 hPa 0,0 mm 0,0 km/h (0 Bft) S 180 ° 0 min 0,000 mm 0,0 UV-I 0 W/m² 15,0 °C 16,3 °C 0,0 km/h (0 Bft)
21.06.2017 03:41 16,3 °C 16,3 °C 92 % 1013,1 hPa 0,0 mm 0,0 km/h (0 Bft) S 180 ° 0 min 0,000 mm 0,0 UV-I 0 W/m² 15,0 °C 16,3 °C 0,0 km/h (0 Bft)
21.06.2017 03:42 16,3 °C 16,3 °C 92 % 1013,1 hPa 0,0 mm 0,0 km/h (0 Bft) S 180 ° 0 min 0,000 mm 0,0 UV-I 0 W/m² 15,0 °C 16,3 °C 0,0 km/h (0 Bft)
21.06.2017 03:43 16,2 °C 16,3 °C 92 % 1013,0 hPa 0,0 mm 0,0 km/h (0 Bft) S 180 ° 0 min 0,000 mm 0,0 UV-I 0 W/m² 14,9 °C 16,2 °C 0,0 km/h (0 Bft)
21.06.2017 03:44 16,2 °C 16,2 °C 92 % 1013,0 hPa 0,0 mm 0,0 km/h (0 Bft) S 180 ° 0 min 0,000 mm 0,0 UV-I 0 W/m² 14,9 °C 16,2 °C 0,0 km/h (0 Bft)
21.06.2017 03:45 16,2 °C 16,2 °C 92 % 1013,0 hPa 0,0 mm 2,0 km/h (1 Bft) SW 222 ° 0 min 0,000 mm 0,0 UV-I 0 W/m² 14,9 °C 16,2 °C 3,2 km/h (1 Bft)
21.06.2017 03:46 16,2 °C 16,2 °C 92 % 1012,9 hPa 0,0 mm 1,2 km/h (1 Bft) SW 233 ° 0 min 0,000 mm 0,0 UV-I 0 W/m² 14,9 °C 16,2 °C 4,8 km/h (1 Bft)
21.06.2017 03:47 16,2 °C 16,2 °C 93 % 1012,9 hPa 0,0 mm 1,4 km/h (1 Bft) W-SW 250 ° 0 min 0,000 mm 0,0 UV-I 0 W/m² 15,1 °C 16,2 °C 3,2 km/h (1 Bft)
21.06.2017 03:48 16,2 °C 16,2 °C 93 % 1012,9 hPa 0,0 mm 1,9 km/h (1 Bft) W 277 ° 0 min 0,000 mm 0,0 UV-I 0 W/m² 15,1 °C 16,2 °C 6,4 km/h (2 Bft)
21.06.2017 03:49 16,2 °C 16,2 °C 92 % 1013,0 hPa 0,0 mm 1,5 km/h (1 Bft) W 277 ° 0 min 0,000 mm 0,0 UV-I 0 W/m² 14,9 °C 16,2 °C 3,2 km/h (1 Bft)
21.06.2017 03:50 16,2 °C 16,2 °C 92 % 1013,0 hPa 0,0 mm 0,5 km/h (0 Bft) W 277 ° 0 min 0,000 mm 0,0 UV-I 0 W/m² 14,9 °C 16,2 °C 1,6 km/h (1 Bft)
21.06.2017 03:51 16,3 °C 16,3 °C 92 % 1013,0 hPa 0,0 mm 0,7 km/h (0 Bft) W 277 ° 0 min 0,000 mm 0,0 UV-I 0 W/m² 15,0 °C 16,3 °C 1,6 km/h (1 Bft)
21.06.2017 03:52 16,3 °C 16,3 °C 92 % 1013,0 hPa 0,0 mm 0,6 km/h (0 Bft) W 277 ° 0 min 0,000 mm 0,0 UV-I 0 W/m² 15,0 °C 16,3 °C 3,2 km/h (1 Bft)
21.06.2017 03:53 16,3 °C 16,3 °C 92 % 1013,1 hPa 0,0 mm 0,0 km/h (0 Bft) W 277 ° 0 min 0,000 mm 0,0 UV-I 0 W/m² 15,0 °C 16,3 °C 0,0 km/h (0 Bft)
21.06.2017 03:54 16,3 °C 16,3 °C 92 % 1013,0 hPa 0,0 mm 0,0 km/h (0 Bft) W 277 ° 0 min 0,000 mm 0,0 UV-I 0 W/m² 15,0 °C 16,3 °C 0,0 km/h (0 Bft)
21.06.2017 03:55 16,3 °C 16,3 °C 92 % 1013,0 hPa 0,0 mm 0,0 km/h (0 Bft) W 277 ° 0 min 0,000 mm 0,0 UV-I 0 W/m² 15,0 °C 16,3 °C 0,0 km/h (0 Bft)
21.06.2017 03:56 16,3 °C 16,3 °C 92 % 1013,0 hPa 0,0 mm 0,0 km/h (0 Bft) W 277 ° 0 min 0,000 mm 0,0 UV-I 0 W/m² 15,0 °C 16,3 °C 0,0 km/h (0 Bft)
21.06.2017 03:57 16,3 °C 16,3 °C 92 % 1013,0 hPa 0,0 mm 0,0 km/h (0 Bft) W 277 ° 0 min 0,000 mm 0,0 UV-I 0 W/m² 15,0 °C 16,3 °C 0,0 km/h (0 Bft)
21.06.2017 03:58 16,3 °C 16,3 °C 92 % 1013,0 hPa 0,0 mm 0,0 km/h (0 Bft) W 277 ° 0 min 0,000 mm 0,0 UV-I 0 W/m² 15,0 °C 16,3 °C 0,0 km/h (0 Bft)
21.06.2017 03:59 16,2 °C 16,3 °C 92 % 1013,0 hPa 0,0 mm 0,0 km/h (0 Bft) W 277 ° 0 min 0,000 mm 0,0 UV-I 0 W/m² 14,9 °C 16,2 °C 0,0 km/h (0 Bft)
21.06.2017 04:00 16,3 °C 16,3 °C 92 % 1013,0 hPa 0,0 mm 0,0 km/h (0 Bft) W 277 ° 0 min 0,000 mm 0,0 UV-I 0 W/m² 15,0 °C 16,3 °C 0,0 km/h (0 Bft)
21.06.2017 04:01 16,3 °C 16,3 °C 92 % 1013,0 hPa 0,0 mm 0,2 km/h (0 Bft) W 277 ° 0 min 0,000 mm 0,0 UV-I 0 W/m² 15,0 °C 16,3 °C 1,6 km/h (1 Bft)
21.06.2017 04:02 16,3 °C 16,3 °C 92 % 1012,9 hPa 0,0 mm 0,0 km/h (0 Bft) W 277 ° 0 min 0,000 mm 0,0 UV-I 0 W/m² 15,0 °C 16,3 °C 0,0 km/h (0 Bft)
21.06.2017 04:03 16,3 °C 16,3 °C 92 % 1012,9 hPa 0,0 mm 3,2 km/h (1 Bft) S 169 ° 0 min 0,000 mm 0,0 UV-I 0 W/m² 15,0 °C 16,3 °C 6,4 km/h (2 Bft)
21.06.2017 04:04 16,3 °C 16,3 °C 92 % 1012,9 hPa 0,0 mm 0,7 km/h (0 Bft) W-NW 285 ° 0 min 0,000 mm 0,0 UV-I 0 W/m² 15,0 °C 16,3 °C 3,2 km/h (1 Bft)
21.06.2017 04:05 16,3 °C 16,3 °C 92 % 1013,0 hPa 0,0 mm 0,7 km/h (0 Bft) W-NW 287 ° 0 min 0,000 mm 0,0 UV-I 0 W/m² 15,0 °C 16,3 °C 3,2 km/h (1 Bft)
21.06.2017 04:06 16,3 °C 16,3 °C 91 % 1012,9 hPa 0,0 mm 0,0 km/h (0 Bft) W-NW 287 ° 0 min 0,000 mm 0,0 UV-I 0 W/m² 14,8 °C 16,3 °C 0,0 km/h (0 Bft)
21.06.2017 04:07 16,3 °C 16,3 °C 92 % 1012,9 hPa 0,0 mm 0,0 km/h (0 Bft) W-NW 287 ° 0 min 0,000 mm 0,0 UV-I 0 W/m² 15,0 °C 16,3 °C 0,0 km/h (0 Bft)
21.06.2017 04:08 16,3 °C 16,3 °C 92 % 1012,9 hPa 0,0 mm 0,0 km/h (0 Bft) W-NW 287 ° 0 min 0,000 mm 0,0 UV-I 0 W/m² 15,0 °C 16,3 °C 0,0 km/h (0 Bft)
21.06.2017 04:09 16,3 °C 16,3 °C 92 % 1012,9 hPa 0,0 mm 0,0 km/h (0 Bft) W-NW 287 ° 0 min 0,000 mm 0,0 UV-I 0 W/m² 15,0 °C 16,3 °C 0,0 km/h (0 Bft)
21.06.2017 04:10 16,3 °C 16,3 °C 92 % 1012,9 hPa 0,0 mm 0,0 km/h (0 Bft) W-NW 286 ° 0 min 0,000 mm 0,0 UV-I 0 W/m² 15,0 °C 16,3 °C 0,0 km/h (0 Bft)
21.06.2017 04:11 16,3 °C 16,3 °C 91 % 1012,9 hPa 0,0 mm 0,2 km/h (0 Bft) W-NW 286 ° 0 min 0,000 mm 0,0 UV-I 0 W/m² 14,8 °C 16,3 °C 1,6 km/h (1 Bft)
21.06.2017 04:12 16,3 °C 16,3 °C 92 % 1012,9 hPa 0,0 mm 0,8 km/h (0 Bft) W-NW 286 ° 0 min 0,000 mm 0,0 UV-I 0 W/m² 15,0 °C 16,3 °C 3,2 km/h (1 Bft)
21.06.2017 04:13 16,3 °C 16,3 °C 91 % 1012,9 hPa 0,0 mm 0,0 km/h (0 Bft) W-NW 286 ° 0 min 0,000 mm 0,0 UV-I 0 W/m² 14,8 °C 16,3 °C 0,0 km/h (0 Bft)
21.06.2017 04:14 16,3 °C 16,3 °C 91 % 1012,9 hPa 0,0 mm 0,0 km/h (0 Bft) W-NW 286 ° 0 min 0,000 mm 0,0 UV-I 0 W/m² 14,8 °C 16,3 °C 0,0 km/h (0 Bft)
21.06.2017 04:15 16,3 °C 16,3 °C 91 % 1012,9 hPa 0,0 mm 0,0 km/h (0 Bft) W-NW 286 ° 0 min 0,000 mm 0,0 UV-I 0 W/m² 14,8 °C 16,3 °C 0,0 km/h (0 Bft)
21.06.2017 04:16 16,4 °C 16,4 °C 91 % 1012,8 hPa 0,0 mm 2,6 km/h (1 Bft) S-SW 202 ° 0 min 0,000 mm 0,0 UV-I 0 W/m² 14,9 °C 16,4 °C 4,8 km/h (1 Bft)
21.06.2017 04:17 16,4 °C 16,4 °C 91 % 1012,8 hPa 0,0 mm 0,1 km/h (0 Bft) S-SW 202 ° 0 min 0,000 mm 0,0 UV-I 0 W/m² 14,9 °C 16,4 °C 1,6 km/h (1 Bft)
21.06.2017 04:18 16,4 °C 16,4 °C 91 % 1012,8 hPa 0,0 mm 0,0 km/h (0 Bft) S-SW 202 ° 0 min 0,000 mm 0,0 UV-I 0 W/m² 14,9 °C 16,4 °C 0,0 km/h (0 Bft)
21.06.2017 04:19 16,3 °C 16,4 °C 91 % 1012,9 hPa 0,0 mm 1,1 km/h (1 Bft) O 84 ° 0 min 0,000 mm 0,0 UV-I 0 W/m² 14,8 °C 16,3 °C 3,2 km/h (1 Bft)
21.06.2017 04:20 16,3 °C 16,3 °C 91 % 1012,8 hPa 0,0 mm 0,4 km/h (0 Bft) O 84 ° 0 min 0,000 mm 0,0 UV-I 0 W/m² 14,8 °C 16,3 °C 1,6 km/h (1 Bft)
21.06.2017 04:21 16,3 °C 16,3 °C 91 % 1012,8 hPa 0,0 mm 0,0 km/h (0 Bft) O 84 ° 0 min 0,000 mm 0,0 UV-I 0 W/m² 14,8 °C 16,3 °C 0,0 km/h (0 Bft)
21.06.2017 04:22 16,3 °C 16,3 °C 91 % 1012,8 hPa 0,0 mm 0,0 km/h (0 Bft) O 84 ° 0 min 0,000 mm 0,0 UV-I 0 W/m² 14,8 °C 16,3 °C 0,0 km/h (0 Bft)
21.06.2017 04:23 16,3 °C 16,3 °C 91 % 1012,8 hPa 0,0 mm 0,2 km/h (0 Bft) O 90 ° 0 min 0,000 mm 0,0 UV-I 0 W/m² 14,8 °C 16,3 °C 1,6 km/h (1 Bft)
21.06.2017 04:24 16,4 °C 16,4 °C 91 % 1012,8 hPa 0,0 mm 4,0 km/h (1 Bft) O 94 ° 0 min 0,000 mm 0,0 UV-I 0 W/m² 14,9 °C 16,4 °C 6,4 km/h (2 Bft)
21.06.2017 04:25 16,4 °C 16,4 °C 91 % 1012,8 hPa 0,0 mm 1,4 km/h (1 Bft) O 98 ° 0 min 0,000 mm 0,0 UV-I 0 W/m² 14,9 °C 16,4 °C 4,8 km/h (1 Bft)
21.06.2017 04:26 16,5 °C 16,5 °C 91 % 1012,8 hPa 0,0 mm 0,0 km/h (0 Bft) O 98 ° 0 min 0,000 mm 0,0 UV-I 0 W/m² 15,0 °C 16,5 °C 0,0 km/h (0 Bft)
21.06.2017 04:27 16,5 °C 16,5 °C 91 % 1012,8 hPa 0,0 mm 0,5 km/h (0 Bft) O-SO 110 ° 0 min 0,000 mm 0,0 UV-I 0 W/m² 15,0 °C 16,5 °C 1,6 km/h (1 Bft)
21.06.2017 04:28 16,5 °C 16,5 °C 91 % 1012,9 hPa 0,0 mm 0,0 km/h (0 Bft) O-SO 110 ° 0 min 0,000 mm 0,0 UV-I 0 W/m² 15,0 °C 16,5 °C 0,0 km/h (0 Bft)
21.06.2017 04:29 16,5 °C 16,6 °C 91 % 1012,8 hPa 0,0 mm 1,0 km/h (0 Bft) O-SO 110 ° 0 min 0,000 mm 0,0 UV-I 0 W/m² 15,0 °C 16,5 °C 3,2 km/h (1 Bft)
21.06.2017 04:30 16,6 °C 16,6 °C 91 % 1012,8 hPa 0,0 mm 1,1 km/h (1 Bft) O-SO 109 ° 0 min 0,000 mm 0,0 UV-I 0 W/m² 15,1 °C 16,6 °C 3,2 km/h (1 Bft)
21.06.2017 04:31 16,5 °C 16,6 °C 91 % 1012,8 hPa 0,0 mm 0,0 km/h (0 Bft) O-SO 109 ° 0 min 0,000 mm 0,0 UV-I 0 W/m² 15,0 °C 16,5 °C 0,0 km/h (0 Bft)
21.06.2017 04:32 16,6 °C 16,6 °C 91 % 1012,9 hPa 0,0 mm 0,8 km/h (0 Bft) N-NW 348 ° 0 min 0,000 mm 0,0 UV-I 0 W/m² 15,1 °C 16,6 °C 3,2 km/h (1 Bft)
21.06.2017 04:33 16,5 °C 16,6 °C 91 % 1012,9 hPa 0,0 mm 0,0 km/h (0 Bft) N-NW 348 ° 0 min 0,000 mm 0,0 UV-I 0 W/m² 15,0 °C 16,5 °C 0,0 km/h (0 Bft)
21.06.2017 04:34 16,5 °C 16,5 °C 90 % 1012,8 hPa 0,0 mm 0,7 km/h (0 Bft) N-NW 348 ° 0 min 0,000 mm 0,0 UV-I 0 W/m² 14,9 °C 16,5 °C 3,2 km/h (1 Bft)
21.06.2017 04:35 16,4 °C 16,5 °C 90 % 1012,8 hPa 0,0 mm 0,2 km/h (0 Bft) N-NW 348 ° 0 min 0,000 mm 0,0 UV-I 0 W/m² 14,8 °C 16,4 °C 1,6 km/h (1 Bft)
21.06.2017 04:36 16,4 °C 16,5 °C 91 % 1012,9 hPa 0,0 mm 0,0 km/h (0 Bft) N-NW 348 ° 0 min 0,000 mm 0,0 UV-I 0 W/m² 14,9 °C 16,4 °C 0,0 km/h (0 Bft)
21.06.2017 04:37 16,4 °C 16,4 °C 91 % 1012,9 hPa 0,0 mm 0,0 km/h (0 Bft) N-NW 348 ° 0 min 0,000 mm 0,0 UV-I 0 W/m² 14,9 °C 16,4 °C 0,0 km/h (0 Bft)
21.06.2017 04:38 16,4 °C 16,4 °C 91 % 1012,9 hPa 0,0 mm 0,3 km/h (0 Bft) N 355 ° 0 min 0,000 mm 0,0 UV-I 0 W/m² 14,9 °C 16,4 °C 1,6 km/h (1 Bft)
21.06.2017 04:39 16,4 °C 16,4 °C 91 % 1012,9 hPa 0,0 mm 0,5 km/h (0 Bft) N 355 ° 0 min 0,000 mm 0,0 UV-I 0 W/m² 14,9 °C 16,4 °C 1,6 km/h (1 Bft)
21.06.2017 04:40 16,4 °C 16,4 °C 91 % 1012,9 hPa 0,0 mm 2,4 km/h (1 Bft) N 355 ° 0 min 0,000 mm 0,0 UV-I 0 W/m² 14,9 °C 16,4 °C 3,2 km/h (1 Bft)
21.06.2017 04:41 16,4 °C 16,4 °C 91 % 1012,9 hPa 0,0 mm 0,2 km/h (0 Bft) N 355 ° 0 min 0,000 mm 0,0 UV-I 0 W/m² 14,9 °C 16,4 °C 1,6 km/h (1 Bft)
21.06.2017 04:42 16,3 °C 16,4 °C 91 % 1012,9 hPa 0,0 mm 0,9 km/h (0 Bft) N 355 ° 0 min 0,000 mm 0,0 UV-I 0 W/m² 14,8 °C 16,3 °C 3,2 km/h (1 Bft)
21.06.2017 04:43 16,3 °C 16,3 °C 91 % 1012,9 hPa 0,0 mm 1,6 km/h (1 Bft) N 351 ° 0 min 0,000 mm 0,0 UV-I 0 W/m² 14,8 °C 16,3 °C 3,2 km/h (1 Bft)
21.06.2017 04:44 16,3 °C 16,3 °C 91 % 1012,9 hPa 0,0 mm 1,5 km/h (1 Bft) N 351 ° 0 min 0,000 mm 0,0 UV-I 0 W/m² 14,8 °C 16,3 °C 3,2 km/h (1 Bft)
21.06.2017 04:45 16,2 °C 16,3 °C 91 % 1012,9 hPa 0,0 mm 0,9 km/h (0 Bft) N 351 ° 0 min 0,000 mm 0,0 UV-I 0 W/m² 14,7 °C 16,2 °C 1,6 km/h (1 Bft)
21.06.2017 04:46 16,2 °C 16,2 °C 91 % 1012,9 hPa 0,0 mm 1,3 km/h (1 Bft) N 351 ° 0 min 0,000 mm 0,0 UV-I 0 W/m² 14,7 °C 16,2 °C 3,2 km/h (1 Bft)
21.06.2017 04:47 16,1 °C 16,2 °C 91 % 1012,8 hPa 0,0 mm 0,1 km/h (0 Bft) N 351 ° 0 min 0,000 mm 0,0 UV-I 0 W/m² 14,6 °C 16,1 °C 1,6 km/h (1 Bft)
21.06.2017 04:48 16,1 °C 16,1 °C 91 % 1012,8 hPa 0,0 mm 0,0 km/h (0 Bft) N 351 ° 0 min 0,000 mm 0,0 UV-I 0 W/m² 14,6 °C 16,1 °C 0,0 km/h (0 Bft)
21.06.2017 04:49 16,1 °C 16,1 °C 92 % 1013,0 hPa 0,0 mm 0,0 km/h (0 Bft) N 351 ° 0 min 0,000 mm 0,0 UV-I 0 W/m² 14,8 °C 16,1 °C 0,0 km/h (0 Bft)
21.06.2017 04:50 16,1 °C 16,1 °C 92 % 1012,9 hPa 0,0 mm 0,2 km/h (0 Bft) N 351 ° 0 min 0,000 mm 0,0 UV-I 0 W/m² 14,8 °C 16,1 °C 1,6 km/h (1 Bft)
21.06.2017 04:51 16,1 °C 16,1 °C 92 % 1012,9 hPa 0,0 mm 0,9 km/h (0 Bft) N 351 ° 0 min 0,000 mm 0,0 UV-I 0 W/m² 14,8 °C 16,1 °C 1,6 km/h (1 Bft)
21.06.2017 04:52 16,1 °C 16,1 °C 92 % 1012,8 hPa 0,0 mm 0,0 km/h (0 Bft) N 351 ° 0 min 0,000 mm 0,0 UV-I 0 W/m² 14,8 °C 16,1 °C 0,0 km/h (0 Bft)
21.06.2017 04:53 16,0 °C 16,1 °C 92 % 1012,8 hPa 0,0 mm 0,0 km/h (0 Bft) N 351 ° 0 min 0,000 mm 0,0 UV-I 0 W/m² 14,7 °C 16,0 °C 0,0 km/h (0 Bft)
21.06.2017 04:54 16,0 °C 16,0 °C 92 % 1012,8 hPa 0,0 mm 0,0 km/h (0 Bft) N 351 ° 0 min 0,000 mm 0,0 UV-I 0 W/m² 14,7 °C 16,0 °C 0,0 km/h (0 Bft)
21.06.2017 04:55 15,9 °C 16,0 °C 92 % 1012,8 hPa 0,0 mm 0,0 km/h (0 Bft) N 351 ° 0 min 0,000 mm 0,0 UV-I 0 W/m² 14,6 °C 15,9 °C 0,0 km/h (0 Bft)
21.06.2017 04:56 15,9 °C 15,9 °C 92 % 1012,8 hPa 0,0 mm 0,0 km/h (0 Bft) N 351 ° 0 min 0,000 mm 0,0 UV-I 0 W/m² 14,6 °C 15,9 °C 0,0 km/h (0 Bft)
21.06.2017 04:57 15,9 °C 15,9 °C 92 % 1012,8 hPa 0,0 mm 0,0 km/h (0 Bft) N 351 ° 0 min 0,000 mm 0,0 UV-I 0 W/m² 14,6 °C 15,9 °C 0,0 km/h (0 Bft)
21.06.2017 04:58 15,9 °C 15,9 °C 92 % 1012,8 hPa 0,0 mm 1,9 km/h (1 Bft) NW 318 ° 0 min 0,000 mm 0,0 UV-I 0 W/m² 14,6 °C 15,9 °C 3,2 km/h (1 Bft)
21.06.2017 04:59 15,8 °C 15,9 °C 92 % 1012,8 hPa 0,0 mm 0,9 km/h (0 Bft) NW 318 ° 0 min 0,000 mm 0,0 UV-I 0 W/m² 14,5 °C 15,8 °C 3,2 km/h (1 Bft)
21.06.2017 05:00 15,8 °C 15,8 °C 92 % 1012,8 hPa 0,0 mm 0,0 km/h (0 Bft) NW 318 ° 0 min 0,000 mm 0,0 UV-I 0 W/m² 14,5 °C 15,8 °C 0,0 km/h (0 Bft)
21.06.2017 05:01 15,8 °C 15,8 °C 92 % 1012,8 hPa 0,0 mm 0,0 km/h (0 Bft) NW 318 ° 0 min 0,000 mm 0,0 UV-I 0 W/m² 14,5 °C 15,8 °C 0,0 km/h (0 Bft)
21.06.2017 05:02 15,8 °C 15,8 °C 92 % 1012,7 hPa 0,0 mm 0,0 km/h (0 Bft) NW 318 ° 0 min 0,000 mm 0,0 UV-I 0 W/m² 14,5 °C 15,8 °C 0,0 km/h (0 Bft)
21.06.2017 05:03 15,8 °C 15,8 °C 92 % 1012,7 hPa 0,0 mm 0,0 km/h (0 Bft) NW 318 ° 0 min 0,000 mm 0,0 UV-I 0 W/m² 14,5 °C 15,8 °C 0,0 km/h (0 Bft)
21.06.2017 05:04 15,8 °C 15,8 °C 92 % 1012,8 hPa 0,0 mm 0,0 km/h (0 Bft) NW 318 ° 0 min 0,000 mm 0,0 UV-I 0 W/m² 14,5 °C 15,8 °C 0,0 km/h (0 Bft)
21.06.2017 05:05 15,8 °C 15,8 °C 92 % 1012,7 hPa 0,0 mm 0,0 km/h (0 Bft) NW 318 ° 0 min 0,000 mm 0,0 UV-I 0 W/m² 14,5 °C 15,8 °C 0,0 km/h (0 Bft)
21.06.2017 05:06 15,7 °C 15,8 °C 92 % 1012,8 hPa 0,0 mm 0,0 km/h (0 Bft) NW 318 ° 0 min 0,000 mm 0,0 UV-I 0 W/m² 14,4 °C 15,7 °C 0,0 km/h (0 Bft)
21.06.2017 05:07 15,7 °C 15,7 °C 92 % 1012,8 hPa 0,0 mm 0,0 km/h (0 Bft) NW 318 ° 0 min 0,000 mm 0,0 UV-I 0 W/m² 14,4 °C 15,7 °C 0,0 km/h (0 Bft)
21.06.2017 05:08 15,7 °C 15,7 °C 92 % 1012,7 hPa 0,0 mm 0,4 km/h (0 Bft) NW 318 ° 0 min 0,000 mm 0,0 UV-I 0 W/m² 14,4 °C 15,7 °C 1,6 km/h (1 Bft)
21.06.2017 05:09 15,7 °C 15,7 °C 92 % 1012,8 hPa 0,0 mm 0,2 km/h (0 Bft) NW 318 ° 0 min 0,000 mm 0,0 UV-I 0 W/m² 14,4 °C 15,7 °C 1,6 km/h (1 Bft)
21.06.2017 05:10 15,6 °C 15,7 °C 92 % 1012,8 hPa 0,0 mm 0,0 km/h (0 Bft) NW 318 ° 0 min 0,000 mm 0,0 UV-I 0 W/m² 14,3 °C 15,6 °C 0,0 km/h (0 Bft)
21.06.2017 05:11 15,7 °C 15,7 °C 93 % 1012,8 hPa 0,0 mm 0,0 km/h (0 Bft) NW 318 ° 0 min 0,000 mm 0,0 UV-I 0 W/m² 14,6 °C 15,7 °C 0,0 km/h (0 Bft)
21.06.2017 05:12 15,7 °C 15,7 °C 93 % 1012,8 hPa 0,0 mm 0,7 km/h (0 Bft) NW 318 ° 0 min 0,000 mm 0,0 UV-I 0 W/m² 14,6 °C 15,7 °C 1,6 km/h (1 Bft)
21.06.2017 05:13 15,7 °C 15,7 °C 93 % 1012,8 hPa 0,0 mm 0,0 km/h (0 Bft) NW 318 ° 0 min 0,000 mm 0,0 UV-I 0 W/m² 14,6 °C 15,7 °C 0,0 km/h (0 Bft)
21.06.2017 05:14 15,7 °C 15,7 °C 93 % 1012,8 hPa 0,0 mm 0,0 km/h (0 Bft) NW 318 ° 0 min 0,000 mm 0,0 UV-I 0 W/m² 14,6 °C 15,7 °C 0,0 km/h (0 Bft)
21.06.2017 05:15 15,6 °C 15,7 °C 93 % 1012,8 hPa 0,0 mm 0,0 km/h (0 Bft) NW 318 ° 0 min 0,000 mm 0,0 UV-I 0 W/m² 14,5 °C 15,6 °C 0,0 km/h (0 Bft)
21.06.2017 05:16 15,6 °C 15,6 °C 93 % 1012,8 hPa 0,0 mm 0,5 km/h (0 Bft) NW 318 ° 0 min 0,000 mm 0,0 UV-I 0 W/m² 14,5 °C 15,6 °C 3,2 km/h (1 Bft)
21.06.2017 05:17 15,6 °C 15,6 °C 93 % 1012,8 hPa 0,0 mm 1,1 km/h (1 Bft) O-NO 76 ° 0 min 0,000 mm 0,0 UV-I 0 W/m² 14,5 °C 15,6 °C 3,2 km/h (1 Bft)
21.06.2017 05:18 15,6 °C 15,6 °C 93 % 1012,7 hPa 0,0 mm 0,0 km/h (0 Bft) O-NO 76 ° 0 min 0,000 mm 0,0 UV-I 0 W/m² 14,5 °C 15,6 °C 0,0 km/h (0 Bft)
21.06.2017 05:19 15,6 °C 15,6 °C 93 % 1012,8 hPa 0,0 mm 1,5 km/h (1 Bft) O-NO 76 ° 0 min 0,000 mm 0,0 UV-I 0 W/m² 14,5 °C 15,6 °C 3,2 km/h (1 Bft)
21.06.2017 05:20 15,6 °C 15,6 °C 93 % 1012,8 hPa 0,0 mm 2,3 km/h (1 Bft) O-NO 76 ° 0 min 0,000 mm 0,0 UV-I 0 W/m² 14,5 °C 15,6 °C 3,2 km/h (1 Bft)
21.06.2017 05:21 15,6 °C 15,6 °C 93 % 1012,8 hPa 0,0 mm 1,3 km/h (1 Bft) O-NO 76 ° 0 min 0,000 mm 0,0 UV-I 0 W/m² 14,5 °C 15,6 °C 1,6 km/h (1 Bft)
21.06.2017 05:22 15,5 °C 15,6 °C 93 % 1012,8 hPa 0,0 mm 1,3 km/h (1 Bft) O-NO 75 ° 0 min 0,000 mm 0,0 UV-I 0 W/m² 14,4 °C 15,5 °C 3,2 km/h (1 Bft)
21.06.2017 05:23 15,6 °C 15,6 °C 93 % 1012,8 hPa 0,0 mm 0,0 km/h (0 Bft) O-NO 75 ° 0 min 0,000 mm 0,0 UV-I 0 W/m² 14,5 °C 15,6 °C 0,0 km/h (0 Bft)
21.06.2017 05:24 15,6 °C 15,6 °C 93 % 1012,8 hPa 0,0 mm 0,3 km/h (0 Bft) O-NO 75 ° 0 min 0,000 mm 0,0 UV-I 0 W/m² 14,5 °C 15,6 °C 1,6 km/h (1 Bft)
21.06.2017 05:25 15,6 °C 15,6 °C 93 % 1012,8 hPa 0,0 mm 0,0 km/h (0 Bft) O-NO 75 ° 0 min 0,000 mm 0,0 UV-I 0 W/m² 14,5 °C 15,6 °C 0,0 km/h (0 Bft)
21.06.2017 05:26 15,6 °C 15,6 °C 93 % 1012,8 hPa 0,0 mm 0,0 km/h (0 Bft) O-NO 75 ° 0 min 0,000 mm 0,0 UV-I 0 W/m² 14,5 °C 15,6 °C 0,0 km/h (0 Bft)
21.06.2017 05:27 15,6 °C 15,6 °C 93 % 1012,8 hPa 0,0 mm 0,0 km/h (0 Bft) O-NO 75 ° 0 min 0,000 mm 0,0 UV-I 5 W/m² 14,5 °C 15,6 °C 0,0 km/h (0 Bft)
21.06.2017 05:28 15,6 °C 15,7 °C 93 % 1012,8 hPa 0,0 mm 0,3 km/h (0 Bft) O-NO 75 ° 0 min 0,000 mm 0,0 UV-I 5 W/m² 14,5 °C 15,6 °C 1,6 km/h (1 Bft)
21.06.2017 05:29 15,6 °C 15,7 °C 93 % 1012,8 hPa 0,0 mm 0,2 km/h (0 Bft) O-NO 75 ° 0 min 0,000 mm 0,0 UV-I 5 W/m² 14,5 °C 15,6 °C 1,6 km/h (1 Bft)
21.06.2017 05:30 15,7 °C 15,7 °C 93 % 1012,8 hPa 0,0 mm 0,0 km/h (0 Bft) O-NO 75 ° 0 min 0,000 mm 0,0 UV-I 5 W/m² 14,6 °C 15,7 °C 0,0 km/h (0 Bft)
21.06.2017 05:31 15,7 °C 15,7 °C 93 % 1012,8 hPa 0,0 mm 0,0 km/h (0 Bft) O-NO 75 ° 0 min 0,000 mm 0,0 UV-I 5 W/m² 14,6 °C 15,7 °C 0,0 km/h (0 Bft)
21.06.2017 05:32 15,7 °C 15,7 °C 92 % 1012,8 hPa 0,0 mm 0,0 km/h (0 Bft) O-NO 75 ° 0 min 0,000 mm 0,0 UV-I 5 W/m² 14,4 °C 15,7 °C 0,0 km/h (0 Bft)
21.06.2017 05:33 15,7 °C 15,7 °C 92 % 1012,8 hPa 0,0 mm 0,0 km/h (0 Bft) O-NO 75 ° 0 min 0,000 mm 0,0 UV-I 5 W/m² 14,4 °C 15,7 °C 0,0 km/h (0 Bft)
21.06.2017 05:34 15,6 °C 15,7 °C 92 % 1012,8 hPa 0,0 mm 0,0 km/h (0 Bft) O-NO 75 ° 0 min 0,000 mm 0,0 UV-I 5 W/m² 14,3 °C 15,6 °C 0,0 km/h (0 Bft)
21.06.2017 05:35 15,6 °C 15,6 °C 92 % 1012,8 hPa 0,0 mm 0,0 km/h (0 Bft) O-NO 75 ° 0 min 0,000 mm 0,0 UV-I 7 W/m² 14,3 °C 15,6 °C 0,0 km/h (0 Bft)
21.06.2017 05:36 15,6 °C 15,6 °C 93 % 1012,8 hPa 0,0 mm 0,0 km/h (0 Bft) O-NO 75 ° 0 min 0,000 mm 0,0 UV-I 7 W/m² 14,5 °C 15,6 °C 0,0 km/h (0 Bft)
21.06.2017 05:37 15,6 °C 15,6 °C 93 % 1012,8 hPa 0,0 mm 0,0 km/h (0 Bft) O-NO 75 ° 0 min 0,000 mm 0,0 UV-I 7 W/m² 14,5 °C 15,6 °C 0,0 km/h (0 Bft)
21.06.2017 05:38 15,6 °C 15,6 °C 93 % 1012,8 hPa 0,0 mm 0,0 km/h (0 Bft) O-NO 75 ° 0 min 0,000 mm 0,0 UV-I 7 W/m² 14,5 °C 15,6 °C 0,0 km/h (0 Bft)
21.06.2017 05:39 15,6 °C 15,6 °C 93 % 1012,8 hPa 0,0 mm 0,0 km/h (0 Bft) O-NO 75 ° 0 min 0,000 mm 0,0 UV-I 7 W/m² 14,5 °C 15,6 °C 0,0 km/h (0 Bft)
21.06.2017 05:40 15,6 °C 15,6 °C 93 % 1012,8 hPa 0,0 mm 0,0 km/h (0 Bft) O-NO 75 ° 0 min 0,000 mm 0,0 UV-I 9 W/m² 14,5 °C 15,6 °C 0,0 km/h (0 Bft)
21.06.2017 05:41 15,6 °C 15,6 °C 93 % 1012,8 hPa 0,0 mm 0,0 km/h (0 Bft) O-NO 75 ° 0 min 0,000 mm 0,0 UV-I 9 W/m² 14,5 °C 15,6 °C 0,0 km/h (0 Bft)
21.06.2017 05:42 15,6 °C 15,6 °C 93 % 1012,8 hPa 0,0 mm 0,0 km/h (0 Bft) O-NO 75 ° 0 min 0,000 mm 0,0 UV-I 9 W/m² 14,5 °C 15,6 °C 0,0 km/h (0 Bft)
21.06.2017 05:43 15,4 °C 15,6 °C 93 % 1012,8 hPa 0,0 mm 0,0 km/h (0 Bft) O-NO 75 ° 0 min 0,000 mm 0,0 UV-I 9 W/m² 14,3 °C 15,4 °C 0,0 km/h (0 Bft)
21.06.2017 05:44 15,4 °C 15,5 °C 93 % 1012,8 hPa 0,0 mm 0,0 km/h (0 Bft) O-NO 75 ° 0 min 0,000 mm 0,0 UV-I 9 W/m² 14,3 °C 15,4 °C 0,0 km/h (0 Bft)
21.06.2017 05:45 15,4 °C 15,4 °C 93 % 1012,8 hPa 0,0 mm 0,0 km/h (0 Bft) O-NO 75 ° 0 min 0,000 mm 0,0 UV-I 9 W/m² 14,3 °C 15,4 °C 0,0 km/h (0 Bft)
21.06.2017 05:46 15,4 °C 15,4 °C 93 % 1012,9 hPa 0,0 mm 0,0 km/h (0 Bft) O-NO 75 ° 0 min 0,000 mm 0,0 UV-I 9 W/m² 14,3 °C 15,4 °C 0,0 km/h (0 Bft)
21.06.2017 05:47 15,4 °C 15,4 °C 93 % 1012,9 hPa 0,0 mm 0,0 km/h (0 Bft) O-NO 75 ° 0 min 0,000 mm 0,0 UV-I 9 W/m² 14,3 °C 15,4 °C 0,0 km/h (0 Bft)
21.06.2017 05:48 15,3 °C 15,4 °C 93 % 1012,8 hPa 0,0 mm 0,0 km/h (0 Bft) O-NO 75 ° 0 min 0,000 mm 0,0 UV-I 9 W/m² 14,2 °C 15,3 °C 0,0 km/h (0 Bft)
21.06.2017 05:49 15,3 °C 15,3 °C 93 % 1012,9 hPa 0,0 mm 0,0 km/h (0 Bft) O-NO 75 ° 0 min 0,000 mm 0,0 UV-I 9 W/m² 14,2 °C 15,3 °C 0,0 km/h (0 Bft)
21.06.2017 05:50 15,3 °C 15,3 °C 93 % 1012,9 hPa 0,0 mm 0,0 km/h (0 Bft) O-NO 75 ° 0 min 0,000 mm 0,0 UV-I 9 W/m² 14,2 °C 15,3 °C 0,0 km/h (0 Bft)
21.06.2017 05:51 15,3 °C 15,3 °C 93 % 1012,9 hPa 0,0 mm 0,0 km/h (0 Bft) O-NO 75 ° 0 min 0,000 mm 0,0 UV-I 11 W/m² 14,2 °C 15,3 °C 0,0 km/h (0 Bft)
21.06.2017 05:52 15,3 °C 15,3 °C 93 % 1012,9 hPa 0,0 mm 0,0 km/h (0 Bft) O-NO 75 ° 0 min 0,000 mm 0,0 UV-I 11 W/m² 14,2 °C 15,3 °C 0,0 km/h (0 Bft)
21.06.2017 05:53 15,3 °C 15,3 °C 94 % 1013,0 hPa 0,0 mm 0,0 km/h (0 Bft) O-NO 75 ° 0 min 0,000 mm 0,0 UV-I 11 W/m² 14,3 °C 15,3 °C 0,0 km/h (0 Bft)
21.06.2017 05:54 15,3 °C 15,3 °C 94 % 1013,0 hPa 0,0 mm 0,0 km/h (0 Bft) O-NO 75 ° 0 min 0,000 mm 0,0 UV-I 11 W/m² 14,3 °C 15,3 °C 0,0 km/h (0 Bft)
21.06.2017 05:55 15,4 °C 15,4 °C 94 % 1013,1 hPa 0,0 mm 0,0 km/h (0 Bft) O-NO 75 ° 0 min 0,000 mm 0,0 UV-I 11 W/m² 14,4 °C 15,4 °C 0,0 km/h (0 Bft)
21.06.2017 05:56 15,4 °C 15,4 °C 94 % 1013,1 hPa 0,0 mm 0,0 km/h (0 Bft) O-NO 75 ° 0 min 0,000 mm 0,0 UV-I 12 W/m² 14,4 °C 15,4 °C 0,0 km/h (0 Bft)
21.06.2017 05:57 15,6 °C 15,6 °C 94 % 1013,0 hPa 0,0 mm 0,0 km/h (0 Bft) O-NO 75 ° 0 min 0,000 mm 0,0 UV-I 12 W/m² 14,6 °C 15,6 °C 0,0 km/h (0 Bft)
21.06.2017 05:58 15,6 °C 15,6 °C 94 % 1013,1 hPa 0,0 mm 0,0 km/h (0 Bft) O-NO 75 ° 0 min 0,000 mm 0,0 UV-I 12 W/m² 14,6 °C 15,6 °C 0,0 km/h (0 Bft)
21.06.2017 05:59 15,6 °C 15,6 °C 93 % 1013,1 hPa 0,0 mm 2,9 km/h (1 Bft) O 84 ° 0 min 0,000 mm 0,0 UV-I 12 W/m² 14,5 °C 15,6 °C 4,8 km/h (1 Bft)
21.06.2017 06:00 15,7 °C 15,7 °C 93 % 1013,1 hPa 0,0 mm 3,4 km/h (1 Bft) O 84 ° 0 min 0,000 mm 0,0 UV-I 12 W/m² 14,6 °C 15,7 °C 4,8 km/h (1 Bft)
21.06.2017 06:01 15,7 °C 15,7 °C 93 % 1013,1 hPa 0,0 mm 2,2 km/h (1 Bft) O 84 ° 0 min 0,000 mm 0,0 UV-I 14 W/m² 14,6 °C 15,7 °C 3,2 km/h (1 Bft)
21.06.2017 06:02 15,7 °C 15,7 °C 93 % 1013,1 hPa 0,0 mm 1,5 km/h (1 Bft) O 84 ° 0 min 0,000 mm 0,0 UV-I 14 W/m² 14,6 °C 15,7 °C 3,2 km/h (1 Bft)
21.06.2017 06:03 15,6 °C 15,7 °C 93 % 1013,1 hPa 0,0 mm 0,4 km/h (0 Bft) O 84 ° 0 min 0,000 mm 0,0 UV-I 14 W/m² 14,5 °C 15,6 °C 1,6 km/h (1 Bft)
21.06.2017 06:04 15,7 °C 15,7 °C 93 % 1013,1 hPa 0,0 mm 1,8 km/h (1 Bft) O 83 ° 0 min 0,000 mm 0,0 UV-I 14 W/m² 14,6 °C 15,7 °C 3,2 km/h (1 Bft)
21.06.2017 06:05 15,6 °C 15,7 °C 93 % 1013,2 hPa 0,0 mm 2,6 km/h (1 Bft) O 83 ° 0 min 0,000 mm 0,0 UV-I 16 W/m² 14,5 °C 15,6 °C 3,2 km/h (1 Bft)
21.06.2017 06:06 15,6 °C 15,6 °C 93 % 1013,2 hPa 0,0 mm 0,0 km/h (0 Bft) O 83 ° 0 min 0,000 mm 0,0 UV-I 18 W/m² 14,5 °C 15,6 °C 0,0 km/h (0 Bft)
21.06.2017 06:07 15,6 °C 15,6 °C 93 % 1013,2 hPa 0,0 mm 0,0 km/h (0 Bft) O 83 ° 0 min 0,000 mm 0,0 UV-I 18 W/m² 14,5 °C 15,6 °C 0,0 km/h (0 Bft)
21.06.2017 06:08 15,7 °C 15,7 °C 94 % 1013,2 hPa 0,0 mm 0,0 km/h (0 Bft) O 83 ° 0 min 0,000 mm 0,0 UV-I 21 W/m² 14,7 °C 15,7 °C 0,0 km/h (0 Bft)
21.06.2017 06:09 15,7 °C 15,7 °C 94 % 1013,2 hPa 0,0 mm 0,0 km/h (0 Bft) O 83 ° 0 min 0,000 mm 0,0 UV-I 26 W/m² 14,7 °C 15,7 °C 0,0 km/h (0 Bft)
21.06.2017 06:10 15,7 °C 15,7 °C 93 % 1013,2 hPa 0,0 mm 0,0 km/h (0 Bft) O 83 ° 0 min 0,000 mm 0,0 UV-I 30 W/m² 14,6 °C 15,7 °C 0,0 km/h (0 Bft)
21.06.2017 06:11 15,7 °C 15,7 °C 93 % 1013,2 hPa 0,0 mm 0,0 km/h (0 Bft) O 83 ° 0 min 0,000 mm 0,0 UV-I 33 W/m² 14,6 °C 15,7 °C 0,0 km/h (0 Bft)
21.06.2017 06:12 15,8 °C 15,8 °C 93 % 1013,2 hPa 0,0 mm 0,0 km/h (0 Bft) O 83 ° 0 min 0,000 mm 0,0 UV-I 32 W/m² 14,7 °C 15,8 °C 0,0 km/h (0 Bft)
21.06.2017 06:13 15,8 °C 15,8 °C 93 % 1013,2 hPa 0,0 mm 0,2 km/h (0 Bft) O 83 ° 0 min 0,000 mm 0,0 UV-I 25 W/m² 14,7 °C 15,8 °C 1,6 km/h (1 Bft)
21.06.2017 06:14 15,9 °C 15,9 °C 93 % 1013,1 hPa 0,0 mm 2,6 km/h (1 Bft) O 83 ° 0 min 0,000 mm 0,0 UV-I 21 W/m² 14,8 °C 15,9 °C 3,2 km/h (1 Bft)
21.06.2017 06:15 15,9 °C 15,9 °C 93 % 1013,1 hPa 0,0 mm 1,3 km/h (1 Bft) O 83 ° 0 min 0,000 mm 0,0 UV-I 19 W/m² 14,8 °C 15,9 °C 1,6 km/h (1 Bft)
21.06.2017 06:16 15,9 °C 15,9 °C 93 % 1013,2 hPa 0,0 mm 2,1 km/h (1 Bft) O 83 ° 0 min 0,000 mm 0,0 UV-I 19 W/m² 14,8 °C 15,9 °C 3,2 km/h (1 Bft)
21.06.2017 06:17 15,9 °C 15,9 °C 93 % 1013,2 hPa 0,0 mm 0,7 km/h (0 Bft) O 83 ° 0 min 0,000 mm 0,0 UV-I 19 W/m² 14,8 °C 15,9 °C 3,2 km/h (1 Bft)
21.06.2017 06:18 15,9 °C 15,9 °C 93 % 1013,2 hPa 0,0 mm 2,2 km/h (1 Bft) N-NW 334 ° 0 min 0,000 mm 0,0 UV-I 16 W/m² 14,8 °C 15,9 °C 3,2 km/h (1 Bft)
21.06.2017 06:19 15,8 °C 15,9 °C 92 % 1013,3 hPa 0,0 mm 0,7 km/h (0 Bft) N-NW 334 ° 0 min 0,000 mm 0,0 UV-I 14 W/m² 14,5 °C 15,8 °C 3,2 km/h (1 Bft)
21.06.2017 06:20 15,8 °C 15,8 °C 92 % 1013,3 hPa 0,0 mm 0,1 km/h (0 Bft) N-NW 334 ° 0 min 0,000 mm 0,0 UV-I 14 W/m² 14,5 °C 15,8 °C 1,6 km/h (1 Bft)
21.06.2017 06:21 15,7 °C 15,8 °C 92 % 1013,4 hPa 0,0 mm 0,0 km/h (0 Bft) N-NW 334 ° 0 min 0,000 mm 0,0 UV-I 14 W/m² 14,4 °C 15,7 °C 0,0 km/h (0 Bft)
21.06.2017 06:22 15,7 °C 15,7 °C 92 % 1013,5 hPa 0,0 mm 0,0 km/h (0 Bft) N-NW 334 ° 0 min 0,000 mm 0,0 UV-I 14 W/m² 14,4 °C 15,7 °C 0,0 km/h (0 Bft)
21.06.2017 06:23 15,7 °C 15,7 °C 93 % 1013,5 hPa 0,0 mm 0,0 km/h (0 Bft) N-NW 334 ° 0 min 0,000 mm 0,0 UV-I 14 W/m² 14,6 °C 15,7 °C 0,0 km/h (0 Bft)
21.06.2017 06:24 15,7 °C 15,7 °C 93 % 1013,5 hPa 0,0 mm 0,0 km/h (0 Bft) N-NW 334 ° 0 min 0,000 mm 0,0 UV-I 14 W/m² 14,6 °C 15,7 °C 0,0 km/h (0 Bft)
21.06.2017 06:25 15,7 °C 15,7 °C 93 % 1013,5 hPa 0,0 mm 0,0 km/h (0 Bft) N-NW 334 ° 0 min 0,000 mm 0,0 UV-I 14 W/m² 14,6 °C 15,7 °C 0,0 km/h (0 Bft)
21.06.2017 06:26 15,7 °C 15,7 °C 93 % 1013,5 hPa 0,0 mm 0,0 km/h (0 Bft) N-NW 334 ° 0 min 0,000 mm 0,0 UV-I 14 W/m² 14,6 °C 15,7 °C 0,0 km/h (0 Bft)
21.06.2017 06:27 15,8 °C 15,8 °C 93 % 1013,5 hPa 0,0 mm 0,0 km/h (0 Bft) N-NW 334 ° 0 min 0,000 mm 0,0 UV-I 14 W/m² 14,7 °C 15,8 °C 0,0 km/h (0 Bft)
21.06.2017 06:28 15,8 °C 15,8 °C 93 % 1013,4 hPa 0,0 mm 0,0 km/h (0 Bft) N-NW 334 ° 0 min 0,000 mm 0,0 UV-I 14 W/m² 14,7 °C 15,8 °C 0,0 km/h (0 Bft)
21.06.2017 06:29 15,8 °C 15,8 °C 93 % 1013,4 hPa 0,0 mm 0,0 km/h (0 Bft) N-NW 334 ° 0 min 0,000 mm 0,0 UV-I 14 W/m² 14,7 °C 15,8 °C 0,0 km/h (0 Bft)
21.06.2017 06:30 15,8 °C 15,8 °C 93 % 1013,4 hPa 0,0 mm 0,0 km/h (0 Bft) N-NW 334 ° 0 min 0,000 mm 0,0 UV-I 14 W/m² 14,7 °C 15,8 °C 0,0 km/h (0 Bft)
21.06.2017 06:31 15,8 °C 15,8 °C 93 % 1013,4 hPa 0,0 mm 0,0 km/h (0 Bft) N-NW 334 ° 0 min 0,000 mm 0,0 UV-I 14 W/m² 14,7 °C 15,8 °C 0,0 km/h (0 Bft)
21.06.2017 06:32 15,7 °C 15,8 °C 93 % 1013,3 hPa 0,0 mm 0,0 km/h (0 Bft) N-NW 334 ° 0 min 0,000 mm 0,0 UV-I 12 W/m² 14,6 °C 15,7 °C 0,0 km/h (0 Bft)
21.06.2017 06:33 15,7 °C 15,7 °C 93 % 1013,3 hPa 0,0 mm 0,0 km/h (0 Bft) N-NW 334 ° 0 min 0,000 mm 0,0 UV-I 12 W/m² 14,6 °C 15,7 °C 0,0 km/h (0 Bft)
21.06.2017 06:34 15,6 °C 15,7 °C 93 % 1013,3 hPa 0,0 mm 0,0 km/h (0 Bft) N-NW 334 ° 0 min 0,000 mm 0,0 UV-I 12 W/m² 14,5 °C 15,6 °C 0,0 km/h (0 Bft)
21.06.2017 06:35 15,7 °C 15,7 °C 93 % 1013,3 hPa 0,0 mm 0,0 km/h (0 Bft) N-NW 334 ° 0 min 0,000 mm 0,0 UV-I 12 W/m² 14,6 °C 15,7 °C 0,0 km/h (0 Bft)
21.06.2017 06:36 15,6 °C 15,7 °C 93 % 1013,3 hPa 0,0 mm 0,0 km/h (0 Bft) N-NW 334 ° 0 min 0,000 mm 0,0 UV-I 12 W/m² 14,5 °C 15,6 °C 0,0 km/h (0 Bft)
21.06.2017 06:37 15,6 °C 15,7 °C 93 % 1013,3 hPa 0,0 mm 0,0 km/h (0 Bft) N-NW 334 ° 0 min 0,000 mm 0,0 UV-I 12 W/m² 14,5 °C 15,6 °C 0,0 km/h (0 Bft)
21.06.2017 06:38 15,7 °C 15,7 °C 93 % 1013,3 hPa 0,0 mm 0,0 km/h (0 Bft) N-NW 334 ° 0 min 0,000 mm 0,0 UV-I 14 W/m² 14,6 °C 15,7 °C 0,0 km/h (0 Bft)
21.06.2017 06:39 15,7 °C 15,7 °C 93 % 1013,4 hPa 0,0 mm 0,0 km/h (0 Bft) N-NW 334 ° 0 min 0,000 mm 0,0 UV-I 14 W/m² 14,6 °C 15,7 °C 0,0 km/h (0 Bft)
21.06.2017 06:40 15,7 °C 15,7 °C 93 % 1013,4 hPa 0,0 mm 1,3 km/h (1 Bft) N-NW 334 ° 0 min 0,000 mm 0,0 UV-I 14 W/m² 14,6 °C 15,7 °C 3,2 km/h (1 Bft)
21.06.2017 06:41 15,7 °C 15,7 °C 93 % 1013,4 hPa 0,0 mm 0,3 km/h (0 Bft) N-NW 335 ° 0 min 0,000 mm 0,0 UV-I 14 W/m² 14,6 °C 15,7 °C 1,6 km/h (1 Bft)
21.06.2017 06:42 15,6 °C 15,7 °C 93 % 1013,4 hPa 0,0 mm 0,0 km/h (0 Bft) N-NW 335 ° 0 min 0,000 mm 0,0 UV-I 14 W/m² 14,5 °C 15,6 °C 0,0 km/h (0 Bft)
21.06.2017 06:43 15,6 °C 15,6 °C 93 % 1013,5 hPa 0,0 mm 0,0 km/h (0 Bft) N-NW 335 ° 0 min 0,000 mm 0,0 UV-I 14 W/m² 14,5 °C 15,6 °C 0,0 km/h (0 Bft)
21.06.2017 06:44 15,6 °C 15,6 °C 93 % 1013,5 hPa 0,0 mm 0,1 km/h (0 Bft) N-NW 335 ° 0 min 0,000 mm 0,0 UV-I 14 W/m² 14,5 °C 15,6 °C 1,6 km/h (1 Bft)
21.06.2017 06:45 15,6 °C 15,6 °C 93 % 1013,5 hPa 0,0 mm 0,0 km/h (0 Bft) N-NW 335 ° 0 min 0,000 mm 0,0 UV-I 12 W/m² 14,5 °C 15,6 °C 0,0 km/h (0 Bft)
21.06.2017 06:46 15,6 °C 15,6 °C 93 % 1013,4 hPa 0,0 mm 0,1 km/h (0 Bft) N-NW 335 ° 0 min 0,000 mm 0,0 UV-I 14 W/m² 14,5 °C 15,6 °C 1,6 km/h (1 Bft)
21.06.2017 06:47 15,6 °C 15,6 °C 93 % 1013,4 hPa 0,0 mm 0,3 km/h (0 Bft) N-NW 337 ° 0 min 0,000 mm 0,0 UV-I 14 W/m² 14,5 °C 15,6 °C 1,6 km/h (1 Bft)
21.06.2017 06:48 15,6 °C 15,6 °C 94 % 1013,4 hPa 0,0 mm 2,3 km/h (1 Bft) N 360 ° 0 min 0,000 mm 0,0 UV-I 14 W/m² 14,6 °C 15,6 °C 3,2 km/h (1 Bft)
21.06.2017 06:49 15,6 °C 15,7 °C 94 % 1013,4 hPa 0,0 mm 1,9 km/h (1 Bft) N 360 ° 0 min 0,000 mm 0,0 UV-I 14 W/m² 14,6 °C 15,6 °C 3,2 km/h (1 Bft)
21.06.2017 06:50 15,6 °C 15,7 °C 94 % 1013,5 hPa 0,0 mm 2,7 km/h (1 Bft) N 360 ° 0 min 0,000 mm 0,0 UV-I 16 W/m² 14,6 °C 15,6 °C 3,2 km/h (1 Bft)
21.06.2017 06:51 15,7 °C 15,7 °C 94 % 1013,5 hPa 0,0 mm 0,5 km/h (0 Bft) N 360 ° 0 min 0,000 mm 0,0 UV-I 16 W/m² 14,7 °C 15,7 °C 1,6 km/h (1 Bft)
21.06.2017 06:52 15,7 °C 15,7 °C 94 % 1013,5 hPa 0,0 mm 0,0 km/h (0 Bft) N 360 ° 0 min 0,000 mm 0,0 UV-I 16 W/m² 14,7 °C 15,7 °C 0,0 km/h (0 Bft)
21.06.2017 06:53 15,7 °C 15,7 °C 93 % 1013,5 hPa 0,0 mm 0,0 km/h (0 Bft) N 360 ° 0 min 0,000 mm 0,0 UV-I 16 W/m² 14,6 °C 15,7 °C 0,0 km/h (0 Bft)
21.06.2017 06:54 15,7 °C 15,7 °C 93 % 1013,5 hPa 0,0 mm 0,0 km/h (0 Bft) N 360 ° 0 min 0,000 mm 0,0 UV-I 18 W/m² 14,6 °C 15,7 °C 0,0 km/h (0 Bft)
21.06.2017 06:55 15,7 °C 15,7 °C 93 % 1013,5 hPa 0,0 mm 0,0 km/h (0 Bft) N 360 ° 0 min 0,000 mm 0,0 UV-I 18 W/m² 14,6 °C 15,7 °C 0,0 km/h (0 Bft)
21.06.2017 06:56 15,7 °C 15,7 °C 93 % 1013,5 hPa 0,0 mm 0,0 km/h (0 Bft) N 360 ° 0 min 0,000 mm 0,0 UV-I 19 W/m² 14,6 °C 15,7 °C 0,0 km/h (0 Bft)
21.06.2017 06:57 15,7 °C 15,7 °C 93 % 1013,5 hPa 0,0 mm 0,0 km/h (0 Bft) N 360 ° 0 min 0,000 mm 0,0 UV-I 19 W/m² 14,6 °C 15,7 °C 0,0 km/h (0 Bft)
21.06.2017 06:58 15,7 °C 15,7 °C 93 % 1013,4 hPa 0,0 mm 0,0 km/h (0 Bft) N 360 ° 0 min 0,000 mm 0,0 UV-I 19 W/m² 14,6 °C 15,7 °C 0,0 km/h (0 Bft)
21.06.2017 06:59 15,7 °C 15,7 °C 93 % 1013,4 hPa 0,0 mm 0,0 km/h (0 Bft) N 360 ° 0 min 0,000 mm 0,0 UV-I 19 W/m² 14,6 °C 15,7 °C 0,0 km/h (0 Bft)
21.06.2017 07:00 15,6 °C 15,7 °C 93 % 1013,4 hPa 0,0 mm 0,0 km/h (0 Bft) N 360 ° 0 min 0,000 mm 0,0 UV-I 21 W/m² 14,5 °C 15,6 °C 0,0 km/h (0 Bft)
21.06.2017 07:01 15,6 °C 15,7 °C 93 % 1013,4 hPa 0,0 mm 0,0 km/h (0 Bft) N 360 ° 0 min 0,000 mm 0,0 UV-I 23 W/m² 14,5 °C 15,6 °C 0,0 km/h (0 Bft)
21.06.2017 07:02 15,6 °C 15,7 °C 93 % 1013,5 hPa 0,0 mm 0,0 km/h (0 Bft) N 360 ° 0 min 0,000 mm 0,0 UV-I 23 W/m² 14,5 °C 15,6 °C 0,0 km/h (0 Bft)
21.06.2017 07:03 15,7 °C 15,7 °C 93 % 1013,5 hPa 0,0 mm 0,0 km/h (0 Bft) N 360 ° 0 min 0,000 mm 0,0 UV-I 25 W/m² 14,6 °C 15,7 °C 0,0 km/h (0 Bft)
21.06.2017 07:04 15,7 °C 15,7 °C 93 % 1013,5 hPa 0,0 mm 0,1 km/h (0 Bft) N 360 ° 0 min 0,000 mm 0,0 UV-I 25 W/m² 14,6 °C 15,7 °C 1,6 km/h (1 Bft)
21.06.2017 07:05 15,6 °C 15,7 °C 93 % 1013,5 hPa 0,0 mm 0,4 km/h (0 Bft) N 360 ° 0 min 0,000 mm 0,0 UV-I 26 W/m² 14,5 °C 15,6 °C 1,6 km/h (1 Bft)
21.06.2017 07:06 15,6 °C 15,7 °C 93 % 1013,5 hPa 0,0 mm 0,0 km/h (0 Bft) N 360 ° 0 min 0,000 mm 0,0 UV-I 30 W/m² 14,5 °C 15,6 °C 0,0 km/h (0 Bft)
21.06.2017 07:07 15,7 °C 15,7 °C 93 % 1013,6 hPa 0,0 mm 0,0 km/h (0 Bft) N 360 ° 0 min 0,000 mm 0,0 UV-I 32 W/m² 14,6 °C 15,7 °C 0,0 km/h (0 Bft)
21.06.2017 07:08 15,7 °C 15,7 °C 93 % 1013,5 hPa 0,0 mm 0,0 km/h (0 Bft) N 360 ° 0 min 0,000 mm 0,0 UV-I 35 W/m² 14,6 °C 15,7 °C 0,0 km/h (0 Bft)
21.06.2017 07:09 15,7 °C 15,7 °C 93 % 1013,5 hPa 0,0 mm 0,0 km/h (0 Bft) N 360 ° 0 min 0,000 mm 0,0 UV-I 37 W/m² 14,6 °C 15,7 °C 0,0 km/h (0 Bft)
21.06.2017 07:10 15,7 °C 15,7 °C 93 % 1013,6 hPa 0,0 mm 0,0 km/h (0 Bft) N 360 ° 0 min 0,000 mm 0,0 UV-I 40 W/m² 14,6 °C 15,7 °C 0,0 km/h (0 Bft)
21.06.2017 07:11 15,7 °C 15,7 °C 93 % 1013,6 hPa 0,0 mm 0,0 km/h (0 Bft) N 360 ° 0 min 0,000 mm 0,0 UV-I 40 W/m² 14,6 °C 15,7 °C 0,0 km/h (0 Bft)
21.06.2017 07:12 15,7 °C 15,7 °C 93 % 1013,6 hPa 0,0 mm 0,0 km/h (0 Bft) N 360 ° 0 min 0,000 mm 0,0 UV-I 51 W/m² 14,6 °C 15,7 °C 0,0 km/h (0 Bft)
21.06.2017 07:13 15,7 °C 15,7 °C 93 % 1013,6 hPa 0,0 mm 0,0 km/h (0 Bft) N 360 ° 0 min 0,000 mm 0,6 UV-I 56 W/m² 14,6 °C 15,7 °C 0,0 km/h (0 Bft)
21.06.2017 07:14 15,7 °C 15,7 °C 93 % 1013,6 hPa 0,0 mm 0,0 km/h (0 Bft) N 360 ° 0 min 0,000 mm 0,6 UV-I 60 W/m² 14,6 °C 15,7 °C 0,0 km/h (0 Bft)
21.06.2017 07:15 15,7 °C 15,7 °C 93 % 1013,6 hPa 0,0 mm 0,0 km/h (0 Bft) N 360 ° 0 min 0,000 mm 0,6 UV-I 65 W/m² 14,6 °C 15,7 °C 0,0 km/h (0 Bft)
21.06.2017 07:16 15,8 °C 15,8 °C 93 % 1013,6 hPa 0,0 mm 0,0 km/h (0 Bft) N 360 ° 0 min 0,000 mm 0,7 UV-I 69 W/m² 14,7 °C 15,8 °C 0,0 km/h (0 Bft)
21.06.2017 07:17 15,8 °C 15,8 °C 93 % 1013,6 hPa 0,0 mm 0,0 km/h (0 Bft) N 360 ° 0 min 0,000 mm 0,7 UV-I 74 W/m² 14,7 °C 15,8 °C 0,0 km/h (0 Bft)
21.06.2017 07:18 15,8 °C 15,8 °C 93 % 1013,6 hPa 0,0 mm 0,0 km/h (0 Bft) N 360 ° 0 min 0,000 mm 0,7 UV-I 83 W/m² 14,7 °C 15,8 °C 0,0 km/h (0 Bft)
21.06.2017 07:19 15,9 °C 15,9 °C 93 % 1013,6 hPa 0,0 mm 0,0 km/h (0 Bft) N 360 ° 0 min 0,000 mm 0,7 UV-I 84 W/m² 14,8 °C 15,9 °C 0,0 km/h (0 Bft)
21.06.2017 07:20 15,9 °C 15,9 °C 93 % 1013,6 hPa 0,0 mm 0,0 km/h (0 Bft) N 360 ° 0 min 0,000 mm 0,7 UV-I 86 W/m² 14,8 °C 15,9 °C 0,0 km/h (0 Bft)
21.06.2017 07:21 15,9 °C 15,9 °C 93 % 1013,6 hPa 0,0 mm 0,0 km/h (0 Bft) N 360 ° 0 min 0,000 mm 0,7 UV-I 88 W/m² 14,8 °C 15,9 °C 0,0 km/h (0 Bft)
21.06.2017 07:22 16,0 °C 16,0 °C 93 % 1013,6 hPa 0,0 mm 0,0 km/h (0 Bft) N 360 ° 0 min 0,000 mm 0,7 UV-I 88 W/m² 14,9 °C 16,0 °C 0,0 km/h (0 Bft)
21.06.2017 07:23 16,1 °C 16,1 °C 93 % 1013,6 hPa 0,0 mm 0,0 km/h (0 Bft) N 360 ° 0 min 0,000 mm 0,7 UV-I 86 W/m² 15,0 °C 16,1 °C 0,0 km/h (0 Bft)
21.06.2017 07:24 16,1 °C 16,1 °C 93 % 1013,7 hPa 0,0 mm 0,0 km/h (0 Bft) N 360 ° 0 min 0,000 mm 0,7 UV-I 83 W/m² 15,0 °C 16,1 °C 0,0 km/h (0 Bft)
21.06.2017 07:25 16,1 °C 16,1 °C 93 % 1013,6 hPa 0,0 mm 0,0 km/h (0 Bft) N 360 ° 0 min 0,000 mm 0,7 UV-I 83 W/m² 15,0 °C 16,1 °C 0,0 km/h (0 Bft)
21.06.2017 07:26 16,1 °C 16,1 °C 93 % 1013,6 hPa 0,0 mm 0,0 km/h (0 Bft) N 360 ° 0 min 0,000 mm 0,6 UV-I 83 W/m² 15,0 °C 16,1 °C 0,0 km/h (0 Bft)
21.06.2017 07:27 16,2 °C 16,2 °C 93 % 1013,5 hPa 0,0 mm 0,0 km/h (0 Bft) N 360 ° 0 min 0,000 mm 0,6 UV-I 83 W/m² 15,1 °C 16,2 °C 0,0 km/h (0 Bft)
21.06.2017 07:28 16,2 °C 16,2 °C 93 % 1013,5 hPa 0,0 mm 0,0 km/h (0 Bft) N 360 ° 0 min 0,000 mm 0,6 UV-I 83 W/m² 15,1 °C 16,2 °C 0,0 km/h (0 Bft)
21.06.2017 07:29 16,3 °C 16,3 °C 93 % 1013,5 hPa 0,0 mm 0,0 km/h (0 Bft) N 360 ° 0 min 0,000 mm 0,6 UV-I 83 W/m² 15,2 °C 16,3 °C 0,0 km/h (0 Bft)
21.06.2017 07:30 16,3 °C 16,3 °C 92 % 1013,5 hPa 0,0 mm 0,0 km/h (0 Bft) N 360 ° 0 min 0,000 mm 0,6 UV-I 88 W/m² 15,0 °C 16,3 °C 0,0 km/h (0 Bft)
21.06.2017 07:31 16,3 °C 16,3 °C 92 % 1013,5 hPa 0,0 mm 0,0 km/h (0 Bft) N 360 ° 0 min 0,000 mm 0,6 UV-I 90 W/m² 15,0 °C 16,3 °C 0,0 km/h (0 Bft)
21.06.2017 07:32 16,3 °C 16,3 °C 92 % 1013,5 hPa 0,0 mm 0,0 km/h (0 Bft) N 360 ° 0 min 0,000 mm 0,6 UV-I 90 W/m² 15,0 °C 16,3 °C 0,0 km/h (0 Bft)
21.06.2017 07:33 16,4 °C 16,4 °C 92 % 1013,6 hPa 0,0 mm 0,0 km/h (0 Bft) N 360 ° 0 min 0,000 mm 0,6 UV-I 90 W/m² 15,1 °C 16,4 °C 0,0 km/h (0 Bft)
21.06.2017 07:34 16,4 °C 16,4 °C 92 % 1013,6 hPa 0,0 mm 0,0 km/h (0 Bft) N 360 ° 0 min 0,000 mm 0,6 UV-I 86 W/m² 15,1 °C 16,4 °C 0,0 km/h (0 Bft)
21.06.2017 07:35 16,4 °C 16,5 °C 92 % 1013,6 hPa 0,0 mm 0,0 km/h (0 Bft) N 360 ° 0 min 0,000 mm 0,6 UV-I 79 W/m² 15,1 °C 16,4 °C 0,0 km/h (0 Bft)
21.06.2017 07:36 16,6 °C 16,6 °C 93 % 1013,6 hPa 0,0 mm 0,0 km/h (0 Bft) N 360 ° 0 min 0,000 mm 0,6 UV-I 79 W/m² 15,5 °C 16,6 °C 0,0 km/h (0 Bft)
21.06.2017 07:37 16,6 °C 16,6 °C 93 % 1013,5 hPa 0,0 mm 0,0 km/h (0 Bft) N 360 ° 0 min 0,000 mm 0,5 UV-I 77 W/m² 15,5 °C 16,6 °C 0,0 km/h (0 Bft)
21.06.2017 07:38 16,7 °C 16,7 °C 93 % 1013,5 hPa 0,0 mm 0,0 km/h (0 Bft) N 360 ° 0 min 0,000 mm 0,5 UV-I 77 W/m² 15,6 °C 16,7 °C 0,0 km/h (0 Bft)
21.06.2017 07:39 16,7 °C 16,7 °C 93 % 1013,5 hPa 0,0 mm 0,0 km/h (0 Bft) N 360 ° 0 min 0,000 mm 0,5 UV-I 77 W/m² 15,6 °C 16,7 °C 0,0 km/h (0 Bft)
21.06.2017 07:40 16,8 °C 16,8 °C 93 % 1013,5 hPa 0,0 mm 0,0 km/h (0 Bft) N 360 ° 0 min 0,000 mm 0,5 UV-I 77 W/m² 15,7 °C 16,8 °C 0,0 km/h (0 Bft)
21.06.2017 07:41 16,8 °C 16,8 °C 93 % 1013,5 hPa 0,0 mm 0,0 km/h (0 Bft) N 360 ° 0 min 0,000 mm 0,5 UV-I 79 W/m² 15,7 °C 16,8 °C 0,0 km/h (0 Bft)
21.06.2017 07:42 16,8 °C 16,8 °C 93 % 1013,5 hPa 0,0 mm 0,0 km/h (0 Bft) N 360 ° 0 min 0,000 mm 0,5 UV-I 76 W/m² 15,7 °C 16,8 °C 0,0 km/h (0 Bft)
21.06.2017 07:43 16,9 °C 16,9 °C 92 % 1013,5 hPa 0,0 mm 0,0 km/h (0 Bft) N 360 ° 0 min 0,000 mm 0,5 UV-I 72 W/m² 15,6 °C 16,9 °C 0,0 km/h (0 Bft)
21.06.2017 07:44 16,9 °C 16,9 °C 92 % 1013,5 hPa 0,0 mm 0,0 km/h (0 Bft) N 360 ° 0 min 0,000 mm 0,5 UV-I 70 W/m² 15,6 °C 16,9 °C 0,0 km/h (0 Bft)
21.06.2017 07:45 17,0 °C 17,0 °C 93 % 1013,4 hPa 0,0 mm 0,0 km/h (0 Bft) N 360 ° 0 min 0,000 mm 0,5 UV-I 69 W/m² 15,9 °C 17,0 °C 0,0 km/h (0 Bft)
21.06.2017 07:46 17,0 °C 17,0 °C 93 % 1013,4 hPa 0,0 mm 0,0 km/h (0 Bft) N 360 ° 0 min 0,000 mm 0,5 UV-I 67 W/m² 15,9 °C 17,0 °C 0,0 km/h (0 Bft)
21.06.2017 07:47 17,1 °C 17,1 °C 92 % 1013,4 hPa 0,0 mm 0,0 km/h (0 Bft) N 360 ° 0 min 0,000 mm 0,5 UV-I 63 W/m² 15,8 °C 17,1 °C 0,0 km/h (0 Bft)
21.06.2017 07:48 17,1 °C 17,1 °C 92 % 1013,4 hPa 0,0 mm 0,0 km/h (0 Bft) N 360 ° 0 min 0,000 mm 0,5 UV-I 63 W/m² 15,8 °C 17,1 °C 0,0 km/h (0 Bft)
21.06.2017 07:49 17,1 °C 17,1 °C 92 % 1013,4 hPa 0,0 mm 0,0 km/h (0 Bft) N 360 ° 0 min 0,000 mm 0,5 UV-I 62 W/m² 15,8 °C 17,1 °C 0,0 km/h (0 Bft)
21.06.2017 07:50 17,2 °C 17,2 °C 92 % 1013,4 hPa 0,0 mm 0,0 km/h (0 Bft) N 360 ° 0 min 0,000 mm 0,5 UV-I 58 W/m² 15,9 °C 17,2 °C 0,0 km/h (0 Bft)
21.06.2017 07:51 17,2 °C 17,2 °C 91 % 1013,4 hPa 0,0 mm 0,0 km/h (0 Bft) N 360 ° 0 min 0,000 mm 0,5 UV-I 56 W/m² 15,7 °C 17,2 °C 0,0 km/h (0 Bft)
21.06.2017 07:52 17,2 °C 17,2 °C 91 % 1013,4 hPa 0,0 mm 0,0 km/h (0 Bft) N 360 ° 0 min 0,000 mm 0,0 UV-I 54 W/m² 15,7 °C 17,2 °C 0,0 km/h (0 Bft)
21.06.2017 07:53 17,3 °C 17,3 °C 90 % 1013,5 hPa 0,0 mm 0,0 km/h (0 Bft) N 360 ° 0 min 0,000 mm 0,0 UV-I 51 W/m² 15,6 °C 17,3 °C 0,0 km/h (0 Bft)
21.06.2017 07:54 17,4 °C 17,4 °C 90 % 1013,5 hPa 0,0 mm 0,0 km/h (0 Bft) N 360 ° 0 min 0,000 mm 0,0 UV-I 49 W/m² 15,7 °C 17,4 °C 0,0 km/h (0 Bft)
21.06.2017 07:55 17,4 °C 17,4 °C 90 % 1013,5 hPa 0,0 mm 0,0 km/h (0 Bft) N 360 ° 0 min 0,000 mm 0,0 UV-I 49 W/m² 15,7 °C 17,4 °C 0,0 km/h (0 Bft)
21.06.2017 07:56 17,4 °C 17,4 °C 90 % 1013,5 hPa 0,0 mm 0,3 km/h (0 Bft) N 360 ° 0 min 0,000 mm 0,0 UV-I 47 W/m² 15,7 °C 17,4 °C 1,6 km/h (1 Bft)
21.06.2017 07:57 17,4 °C 17,5 °C 90 % 1013,5 hPa 0,0 mm 1,5 km/h (1 Bft) SW 225 ° 0 min 0,000 mm 0,0 UV-I 46 W/m² 15,7 °C 17,4 °C 3,2 km/h (1 Bft)
21.06.2017 07:58 17,5 °C 17,5 °C 90 % 1013,5 hPa 0,0 mm 0,7 km/h (0 Bft) SW 227 ° 0 min 0,000 mm 0,0 UV-I 46 W/m² 15,8 °C 17,5 °C 1,6 km/h (1 Bft)
21.06.2017 07:59 17,5 °C 17,5 °C 90 % 1013,5 hPa 0,0 mm 0,9 km/h (0 Bft) SW 227 ° 0 min 0,000 mm 0,0 UV-I 44 W/m² 15,8 °C 17,5 °C 1,6 km/h (1 Bft)
21.06.2017 08:00 17,5 °C 17,5 °C 90 % 1013,5 hPa 0,0 mm 0,0 km/h (0 Bft) SW 227 ° 0 min 0,025 mm 0,0 UV-I 42 W/m² 15,8 °C 17,5 °C 0,0 km/h (0 Bft)
21.06.2017 08:01 17,5 °C 17,5 °C 89 % 1013,5 hPa 0,0 mm 0,0 km/h (0 Bft) SW 227 ° 0 min 0,000 mm 0,0 UV-I 42 W/m² 15,7 °C 17,5 °C 0,0 km/h (0 Bft)
21.06.2017 08:02 17,5 °C 17,5 °C 90 % 1013,4 hPa 0,0 mm 0,7 km/h (0 Bft) SW 231 ° 0 min 0,000 mm 0,0 UV-I 40 W/m² 15,8 °C 17,5 °C 3,2 km/h (1 Bft)
21.06.2017 08:03 17,4 °C 17,5 °C 89 % 1013,5 hPa 0,0 mm 0,2 km/h (0 Bft) SW 231 ° 0 min 0,000 mm 0,0 UV-I 40 W/m² 15,6 °C 17,4 °C 1,6 km/h (1 Bft)
21.06.2017 08:04 17,5 °C 17,5 °C 89 % 1013,5 hPa 0,0 mm 0,1 km/h (0 Bft) SW 231 ° 0 min 0,000 mm 0,0 UV-I 40 W/m² 15,7 °C 17,5 °C 1,6 km/h (1 Bft)
21.06.2017 08:05 17,5 °C 17,5 °C 90 % 1013,5 hPa 0,0 mm 0,9 km/h (0 Bft) SW 231 ° 0 min 0,000 mm 0,0 UV-I 42 W/m² 15,8 °C 17,5 °C 1,6 km/h (1 Bft)
21.06.2017 08:06 17,4 °C 17,5 °C 89 % 1013,5 hPa 0,0 mm 0,0 km/h (0 Bft) SW 231 ° 0 min 0,000 mm 0,0 UV-I 42 W/m² 15,6 °C 17,4 °C 0,0 km/h (0 Bft)
21.06.2017 08:07 17,4 °C 17,4 °C 89 % 1013,5 hPa 0,0 mm 0,6 km/h (0 Bft) SW 231 ° 0 min 0,000 mm 0,0 UV-I 44 W/m² 15,6 °C 17,4 °C 3,2 km/h (1 Bft)
21.06.2017 08:08 17,4 °C 17,4 °C 90 % 1013,5 hPa 0,0 mm 1,3 km/h (1 Bft) SW 231 ° 0 min 0,000 mm 0,0 UV-I 46 W/m² 15,7 °C 17,4 °C 1,6 km/h (1 Bft)
21.06.2017 08:09 17,3 °C 17,4 °C 90 % 1013,5 hPa 0,0 mm 0,6 km/h (0 Bft) SW 231 ° 0 min 0,000 mm 0,0 UV-I 47 W/m² 15,6 °C 17,3 °C 1,6 km/h (1 Bft)
21.06.2017 08:10 17,3 °C 17,3 °C 90 % 1013,6 hPa 0,0 mm 1,0 km/h (0 Bft) SW 234 ° 0 min 0,000 mm 0,0 UV-I 49 W/m² 15,6 °C 17,3 °C 3,2 km/h (1 Bft)
21.06.2017 08:11 17,3 °C 17,3 °C 90 % 1013,6 hPa 0,0 mm 1,5 km/h (1 Bft) N-NW 336 ° 0 min 0,000 mm 0,0 UV-I 49 W/m² 15,6 °C 17,3 °C 4,8 km/h (1 Bft)
21.06.2017 08:12 17,3 °C 17,3 °C 90 % 1013,6 hPa 0,0 mm 0,8 km/h (0 Bft) N-NW 336 ° 0 min 0,000 mm 0,0 UV-I 51 W/m² 15,6 °C 17,3 °C 3,2 km/h (1 Bft)
21.06.2017 08:13 17,3 °C 17,3 °C 89 % 1013,6 hPa 0,0 mm 0,0 km/h (0 Bft) N-NW 336 ° 0 min 0,000 mm 0,0 UV-I 51 W/m² 15,5 °C 17,3 °C 0,0 km/h (0 Bft)
21.06.2017 08:14 17,3 °C 17,3 °C 89 % 1013,7 hPa 0,0 mm 1,9 km/h (1 Bft) NW 324 ° 0 min 0,000 mm 0,0 UV-I 51 W/m² 15,5 °C 17,3 °C 4,8 km/h (1 Bft)
21.06.2017 08:15 17,4 °C 17,4 °C 89 % 1013,7 hPa 0,0 mm 1,8 km/h (1 Bft) NW 325 ° 0 min 0,000 mm 0,0 UV-I 53 W/m² 15,6 °C 17,4 °C 4,8 km/h (1 Bft)
21.06.2017 08:16 17,4 °C 17,4 °C 89 % 1013,7 hPa 0,0 mm 0,4 km/h (0 Bft) NW 325 ° 0 min 0,000 mm 0,8 UV-I 60 W/m² 15,6 °C 17,4 °C 1,6 km/h (1 Bft)
21.06.2017 08:17 17,4 °C 17,4 °C 89 % 1013,7 hPa 0,0 mm 0,0 km/h (0 Bft) NW 325 ° 0 min 0,000 mm 0,8 UV-I 62 W/m² 15,6 °C 17,4 °C 0,0 km/h (0 Bft)
21.06.2017 08:18 17,3 °C 17,4 °C 89 % 1013,7 hPa 0,0 mm 0,0 km/h (0 Bft) NW 325 ° 0 min 0,000 mm 0,8 UV-I 63 W/m² 15,5 °C 17,3 °C 0,0 km/h (0 Bft)
21.06.2017 08:19 17,3 °C 17,3 °C 89 % 1013,8 hPa 0,0 mm 0,0 km/h (0 Bft) NW 325 ° 0 min 0,000 mm 0,9 UV-I 65 W/m² 15,5 °C 17,3 °C 0,0 km/h (0 Bft)
21.06.2017 08:20 17,3 °C 17,3 °C 89 % 1013,7 hPa 0,0 mm 0,0 km/h (0 Bft) NW 325 ° 0 min 0,000 mm 0,9 UV-I 67 W/m² 15,5 °C 17,3 °C 0,0 km/h (0 Bft)
21.06.2017 08:21 17,2 °C 17,3 °C 89 % 1013,8 hPa 0,0 mm 0,0 km/h (0 Bft) NW 325 ° 0 min 0,000 mm 1,0 UV-I 79 W/m² 15,4 °C 17,2 °C 0,0 km/h (0 Bft)
21.06.2017 08:22 17,2 °C 17,2 °C 89 % 1013,8 hPa 0,0 mm 0,0 km/h (0 Bft) NW 325 ° 0 min 0,000 mm 1,0 UV-I 95 W/m² 15,4 °C 17,2 °C 0,0 km/h (0 Bft)
21.06.2017 08:23 17,2 °C 17,2 °C 89 % 1013,8 hPa 0,0 mm 0,0 km/h (0 Bft) NW 325 ° 0 min 0,000 mm 1,1 UV-I 111 W/m² 15,4 °C 17,2 °C 0,0 km/h (0 Bft)
21.06.2017 08:24 17,2 °C 17,2 °C 89 % 1013,7 hPa 0,0 mm 0,0 km/h (0 Bft) NW 325 ° 0 min 0,000 mm 1,2 UV-I 123 W/m² 15,4 °C 17,2 °C 0,0 km/h (0 Bft)
21.06.2017 08:25 17,3 °C 17,3 °C 89 % 1013,7 hPa 0,0 mm 0,0 km/h (0 Bft) NW 325 ° 0 min 0,000 mm 1,3 UV-I 132 W/m² 15,5 °C 17,3 °C 0,0 km/h (0 Bft)
21.06.2017 08:26 17,3 °C 17,3 °C 90 % 1013,7 hPa 0,0 mm 0,0 km/h (0 Bft) NW 325 ° 0 min 0,000 mm 1,3 UV-I 148 W/m² 15,6 °C 17,3 °C 0,0 km/h (0 Bft)
21.06.2017 08:27 17,4 °C 17,4 °C 90 % 1013,7 hPa 0,0 mm 0,0 km/h (0 Bft) NW 325 ° 0 min 0,000 mm 1,3 UV-I 134 W/m² 15,7 °C 17,4 °C 0,0 km/h (0 Bft)
21.06.2017 08:28 17,4 °C 17,4 °C 90 % 1013,7 hPa 0,0 mm 0,0 km/h (0 Bft) NW 325 ° 0 min 0,000 mm 1,4 UV-I 183 W/m² 15,7 °C 17,4 °C 0,0 km/h (0 Bft)
21.06.2017 08:29 17,5 °C 17,5 °C 90 % 1013,7 hPa 0,0 mm 0,0 km/h (0 Bft) NW 325 ° 0 min 0,000 mm 1,5 UV-I 214 W/m² 15,8 °C 17,5 °C 0,0 km/h (0 Bft)
21.06.2017 08:30 17,6 °C 17,6 °C 90 % 1013,7 hPa 0,0 mm 0,6 km/h (0 Bft) NW 320 ° 0 min 0,000 mm 1,6 UV-I 225 W/m² 15,9 °C 17,6 °C 3,2 km/h (1 Bft)
21.06.2017 08:31 17,8 °C 17,8 °C 90 % 1013,7 hPa 0,0 mm 0,2 km/h (0 Bft) NW 320 ° 0 min 0,000 mm 1,7 UV-I 251 W/m² 16,1 °C 17,8 °C 1,6 km/h (1 Bft)
21.06.2017 08:32 18,0 °C 18,0 °C 90 % 1013,7 hPa 0,0 mm 0,7 km/h (0 Bft) NW 320 ° 0 min 0,000 mm 1,8 UV-I 251 W/m² 16,3 °C 18,0 °C 3,2 km/h (1 Bft)
21.06.2017 08:33 18,1 °C 18,1 °C 90 % 1013,7 hPa 0,0 mm 1,0 km/h (0 Bft) NW 320 ° 1 min 0,000 mm 1,8 UV-I 343 W/m² 16,4 °C 18,1 °C 3,2 km/h (1 Bft)
21.06.2017 08:34 18,3 °C 18,3 °C 89 % 1013,7 hPa 0,0 mm 0,9 km/h (0 Bft) NW 320 ° 1 min 0,000 mm 1,9 UV-I 350 W/m² 16,5 °C 18,3 °C 3,2 km/h (1 Bft)
21.06.2017 08:35 18,5 °C 18,5 °C 91 % 1013,7 hPa 0,0 mm 0,1 km/h (0 Bft) NW 320 ° 1 min 0,000 mm 2,0 UV-I 355 W/m² 17,0 °C 18,5 °C 1,6 km/h (1 Bft)
21.06.2017 08:36 18,6 °C 18,6 °C 90 % 1013,7 hPa 0,0 mm 0,0 km/h (0 Bft) NW 320 ° 1 min 0,000 mm 2,0 UV-I 360 W/m² 16,9 °C 18,6 °C 0,0 km/h (0 Bft)
21.06.2017 08:37 18,7 °C 18,7 °C 89 % 1013,7 hPa 0,0 mm 1,0 km/h (0 Bft) NW 320 ° 1 min 0,000 mm 2,0 UV-I 364 W/m² 16,8 °C 18,7 °C 3,2 km/h (1 Bft)
21.06.2017 08:38 18,8 °C 18,8 °C 90 % 1013,7 hPa 0,0 mm 0,8 km/h (0 Bft) NW 320 ° 1 min 0,000 mm 2,1 UV-I 373 W/m² 17,1 °C 18,8 °C 1,6 km/h (1 Bft)
21.06.2017 08:39 18,8 °C 18,9 °C 89 % 1013,7 hPa 0,0 mm 1,9 km/h (1 Bft) NW 320 ° 1 min 0,000 mm 2,1 UV-I 374 W/m² 16,9 °C 18,8 °C 3,2 km/h (1 Bft)
21.06.2017 08:40 18,9 °C 18,9 °C 89 % 1013,7 hPa 0,0 mm 0,1 km/h (0 Bft) NW 320 ° 1 min 0,000 mm 2,1 UV-I 376 W/m² 17,0 °C 18,9 °C 1,6 km/h (1 Bft)
21.06.2017 08:41 19,0 °C 19,0 °C 88 % 1013,7 hPa 0,0 mm 0,4 km/h (0 Bft) NW 320 ° 1 min 0,000 mm 2,1 UV-I 383 W/m² 17,0 °C 19,0 °C 1,6 km/h (1 Bft)
21.06.2017 08:42 19,1 °C 19,1 °C 89 % 1013,7 hPa 0,0 mm 0,3 km/h (0 Bft) NW 320 ° 1 min 0,000 mm 2,2 UV-I 388 W/m² 17,2 °C 19,1 °C 1,6 km/h (1 Bft)
21.06.2017 08:43 19,2 °C 19,2 °C 88 % 1013,7 hPa 0,0 mm 0,0 km/h (0 Bft) NW 320 ° 1 min 0,000 mm 2,2 UV-I 390 W/m² 17,2 °C 19,2 °C 0,0 km/h (0 Bft)
21.06.2017 08:44 19,3 °C 19,3 °C 88 % 1013,7 hPa 0,0 mm 0,0 km/h (0 Bft) NW 320 ° 1 min 0,000 mm 2,2 UV-I 392 W/m² 17,3 °C 19,3 °C 0,0 km/h (0 Bft)
21.06.2017 08:45 19,4 °C 19,4 °C 88 % 1013,7 hPa 0,0 mm 0,0 km/h (0 Bft) NW 320 ° 1 min 0,000 mm 2,2 UV-I 396 W/m² 17,4 °C 19,4 °C 0,0 km/h (0 Bft)
21.06.2017 08:46 19,5 °C 19,5 °C 87 % 1013,7 hPa 0,0 mm 0,0 km/h (0 Bft) NW 320 ° 1 min 0,000 mm 2,3 UV-I 406 W/m² 17,3 °C 19,5 °C 0,0 km/h (0 Bft)
21.06.2017 08:47 19,6 °C 19,6 °C 88 % 1013,7 hPa 0,0 mm 0,0 km/h (0 Bft) NW 320 ° 1 min 0,000 mm 2,3 UV-I 408 W/m² 17,6 °C 19,6 °C 0,0 km/h (0 Bft)
21.06.2017 08:48 19,7 °C 19,7 °C 87 % 1013,7 hPa 0,0 mm 0,0 km/h (0 Bft) NW 320 ° 1 min 0,000 mm 2,3 UV-I 411 W/m² 17,5 °C 19,7 °C 0,0 km/h (0 Bft)
21.06.2017 08:49 19,7 °C 19,7 °C 88 % 1013,7 hPa 0,0 mm 0,0 km/h (0 Bft) NW 320 ° 1 min 0,000 mm 2,4 UV-I 413 W/m² 17,7 °C 19,7 °C 0,0 km/h (0 Bft)
21.06.2017 08:50 19,7 °C 19,7 °C 85 % 1013,6 hPa 0,0 mm 0,0 km/h (0 Bft) NW 320 ° 1 min 0,000 mm 2,4 UV-I 415 W/m² 17,1 °C 19,7 °C 0,0 km/h (0 Bft)
21.06.2017 08:51 19,8 °C 19,8 °C 86 % 1013,6 hPa 0,0 mm 0,0 km/h (0 Bft) NW 320 ° 1 min 0,000 mm 2,4 UV-I 404 W/m² 17,4 °C 19,8 °C 0,0 km/h (0 Bft)
21.06.2017 08:52 19,9 °C 19,9 °C 85 % 1013,6 hPa 0,0 mm 0,1 km/h (0 Bft) NW 320 ° 1 min 0,000 mm 2,4 UV-I 415 W/m² 17,3 °C 19,9 °C 1,6 km/h (1 Bft)
21.06.2017 08:53 20,1 °C 20,1 °C 87 % 1013,6 hPa 0,0 mm 0,0 km/h (0 Bft) NW 320 ° 1 min 0,000 mm 2,4 UV-I 413 W/m² 17,9 °C 20,1 °C 0,0 km/h (0 Bft)
21.06.2017 08:54 20,2 °C 20,2 °C 87 % 1013,6 hPa 0,0 mm 0,0 km/h (0 Bft) NW 320 ° 1 min 0,000 mm 2,5 UV-I 418 W/m² 18,0 °C 20,2 °C 0,0 km/h (0 Bft)
21.06.2017 08:55 20,3 °C 20,3 °C 85 % 1013,5 hPa 0,0 mm 0,5 km/h (0 Bft) N 355 ° 1 min 0,000 mm 2,5 UV-I 418 W/m² 17,7 °C 20,3 °C 1,6 km/h (1 Bft)
21.06.2017 08:56 20,4 °C 20,4 °C 85 % 1013,6 hPa 0,0 mm 0,0 km/h (0 Bft) N 355 ° 1 min 0,000 mm 2,5 UV-I 431 W/m² 17,8 °C 20,4 °C 0,0 km/h (0 Bft)
21.06.2017 08:57 20,6 °C 20,6 °C 86 % 1013,5 hPa 0,0 mm 0,1 km/h (0 Bft) N 355 ° 1 min 0,000 mm 2,6 UV-I 445 W/m² 18,2 °C 20,6 °C 1,6 km/h (1 Bft)
21.06.2017 08:58 20,7 °C 20,7 °C 84 % 1013,5 hPa 0,0 mm 0,0 km/h (0 Bft) N 355 ° 1 min 0,000 mm 2,6 UV-I 445 W/m² 17,9 °C 20,7 °C 0,0 km/h (0 Bft)
21.06.2017 08:59 20,9 °C 20,9 °C 83 % 1013,6 hPa 0,0 mm 0,0 km/h (0 Bft) N 355 ° 1 min 0,000 mm 2,6 UV-I 452 W/m² 17,9 °C 20,9 °C 0,0 km/h (0 Bft)
21.06.2017 09:00 21,2 °C 21,2 °C 84 % 1013,5 hPa 0,0 mm 1,4 km/h (1 Bft) W 270 ° 1 min 0,000 mm 2,6 UV-I 454 W/m² 18,4 °C 21,2 °C 4,8 km/h (1 Bft)
21.06.2017 09:01 21,4 °C 21,4 °C 83 % 1013,5 hPa 0,0 mm 2,1 km/h (1 Bft) W 272 ° 1 min 0,127 mm 2,6 UV-I 457 W/m² 18,4 °C 21,4 °C 4,8 km/h (1 Bft)
21.06.2017 09:02 21,7 °C 21,7 °C 80 % 1013,6 hPa 0,0 mm 3,2 km/h (1 Bft) W 266 ° 1 min 0,000 mm 2,6 UV-I 461 W/m² 18,1 °C 21,7 °C 4,8 km/h (1 Bft)
21.06.2017 09:03 21,9 °C 21,9 °C 77 % 1013,5 hPa 0,0 mm 1,0 km/h (0 Bft) W 265 ° 1 min 0,000 mm 2,7 UV-I 473 W/m² 17,7 °C 21,9 °C 3,2 km/h (1 Bft)
21.06.2017 09:04 22,2 °C 22,2 °C 81 % 1013,5 hPa 0,0 mm 0,0 km/h (0 Bft) W 265 ° 1 min 0,000 mm 2,8 UV-I 478 W/m² 18,8 °C 22,2 °C 0,0 km/h (0 Bft)
21.06.2017 09:05 22,3 °C 22,3 °C 80 % 1013,6 hPa 0,0 mm 0,0 km/h (0 Bft) W 265 ° 1 min 0,000 mm 2,8 UV-I 483 W/m² 18,7 °C 22,3 °C 0,0 km/h (0 Bft)
21.06.2017 09:06 22,2 °C 22,3 °C 78 % 1013,5 hPa 0,0 mm 0,0 km/h (0 Bft) W 265 ° 1 min 0,000 mm 2,9 UV-I 485 W/m² 18,2 °C 22,2 °C 0,0 km/h (0 Bft)
21.06.2017 09:07 22,1 °C 22,2 °C 80 % 1013,5 hPa 0,0 mm 0,0 km/h (0 Bft) W 265 ° 1 min 0,000 mm 2,9 UV-I 490 W/m² 18,5 °C 22,1 °C 0,0 km/h (0 Bft)
21.06.2017 09:08 22,1 °C 22,1 °C 77 % 1013,5 hPa 0,0 mm 0,0 km/h (0 Bft) W 265 ° 1 min 0,000 mm 2,9 UV-I 494 W/m² 17,9 °C 22,1 °C 0,0 km/h (0 Bft)
21.06.2017 09:09 22,1 °C 22,1 °C 75 % 1013,4 hPa 0,0 mm 0,0 km/h (0 Bft) W 265 ° 1 min 0,000 mm 3,0 UV-I 497 W/m² 17,5 °C 22,1 °C 0,0 km/h (0 Bft)
21.06.2017 09:10 22,2 °C 22,2 °C 77 % 1013,5 hPa 0,0 mm 1,3 km/h (1 Bft) W 265 ° 1 min 0,000 mm 3,0 UV-I 499 W/m² 18,0 °C 22,2 °C 3,2 km/h (1 Bft)
21.06.2017 09:11 22,1 °C 22,2 °C 78 % 1013,5 hPa 0,0 mm 0,5 km/h (0 Bft) W 265 ° 1 min 0,000 mm 3,1 UV-I 506 W/m² 18,1 °C 22,1 °C 3,2 km/h (1 Bft)
21.06.2017 09:12 22,2 °C 22,2 °C 80 % 1013,5 hPa 0,0 mm 0,4 km/h (0 Bft) W 265 ° 1 min 0,000 mm 3,1 UV-I 510 W/m² 18,6 °C 22,2 °C 1,6 km/h (1 Bft)
21.06.2017 09:13 22,3 °C 22,3 °C 80 % 1013,5 hPa 0,0 mm 0,1 km/h (0 Bft) W 263 ° 1 min 0,000 mm 3,1 UV-I 517 W/m² 18,7 °C 22,3 °C 1,6 km/h (1 Bft)
21.06.2017 09:14 22,6 °C 22,6 °C 79 % 1013,5 hPa 0,0 mm 1,9 km/h (1 Bft) SW 229 ° 1 min 0,000 mm 3,1 UV-I 510 W/m² 18,8 °C 22,6 °C 4,8 km/h (1 Bft)
21.06.2017 09:15 22,7 °C 22,7 °C 75 % 1013,4 hPa 0,0 mm 0,9 km/h (0 Bft) SW 235 ° 1 min 0,000 mm 3,1 UV-I 499 W/m² 18,0 °C 22,7 °C 1,6 km/h (1 Bft)
21.06.2017 09:16 22,8 °C 22,8 °C 71 % 1013,5 hPa 0,0 mm 2,3 km/h (1 Bft) S-SW 200 ° 1 min 0,000 mm 3,1 UV-I 499 W/m² 17,3 °C 22,8 °C 6,4 km/h (2 Bft)
21.06.2017 09:17 22,8 °C 22,8 °C 71 % 1013,5 hPa 0,0 mm 2,3 km/h (1 Bft) S-SW 204 ° 1 min 0,000 mm 3,1 UV-I 487 W/m² 17,3 °C 22,8 °C 3,2 km/h (1 Bft)
21.06.2017 09:18 22,9 °C 22,9 °C 72 % 1013,5 hPa 0,0 mm 2,5 km/h (1 Bft) S-SW 202 ° 1 min 0,000 mm 3,1 UV-I 494 W/m² 17,6 °C 22,9 °C 4,8 km/h (1 Bft)
21.06.2017 09:19 22,9 °C 22,9 °C 73 % 1013,5 hPa 0,0 mm 1,4 km/h (1 Bft) S-SW 202 ° 1 min 0,000 mm 3,2 UV-I 497 W/m² 17,8 °C 22,9 °C 3,2 km/h (1 Bft)
21.06.2017 09:20 22,9 °C 23,0 °C 71 % 1013,5 hPa 0,0 mm 0,3 km/h (0 Bft) S-SW 206 ° 1 min 0,000 mm 3,2 UV-I 519 W/m² 17,4 °C 22,9 °C 1,6 km/h (1 Bft)
21.06.2017 09:21 23,0 °C 23,0 °C 71 % 1013,4 hPa 0,0 mm 1,3 km/h (1 Bft) S-SW 205 ° 1 min 0,000 mm 3,3 UV-I 529 W/m² 17,4 °C 23,0 °C 3,2 km/h (1 Bft)
21.06.2017 09:22 23,0 °C 23,1 °C 71 % 1013,5 hPa 0,0 mm 0,3 km/h (0 Bft) S-SW 205 ° 1 min 0,000 mm 3,3 UV-I 533 W/m² 17,4 °C 23,0 °C 1,6 km/h (1 Bft)
21.06.2017 09:23 23,1 °C 23,1 °C 74 % 1013,4 hPa 0,0 mm 0,0 km/h (0 Bft) S-SW 205 ° 1 min 0,000 mm 3,3 UV-I 529 W/m² 18,2 °C 23,1 °C 0,0 km/h (0 Bft)
21.06.2017 09:24 23,1 °C 23,1 °C 74 % 1013,4 hPa 0,0 mm 1,3 km/h (1 Bft) W-NW 286 ° 1 min 0,000 mm 3,4 UV-I 536 W/m² 18,2 °C 23,1 °C 4,8 km/h (1 Bft)
21.06.2017 09:25 23,2 °C 23,2 °C 74 % 1013,4 hPa 0,0 mm 1,3 km/h (1 Bft) W-SW 250 ° 1 min 0,000 mm 3,4 UV-I 536 W/m² 18,3 °C 23,2 °C 4,8 km/h (1 Bft)
21.06.2017 09:26 23,3 °C 23,3 °C 74 % 1013,5 hPa 0,0 mm 2,4 km/h (1 Bft) S 186 ° 1 min 0,000 mm 3,4 UV-I 533 W/m² 18,4 °C 23,3 °C 6,4 km/h (2 Bft)
21.06.2017 09:27 23,4 °C 23,4 °C 74 % 1013,4 hPa 0,0 mm 1,2 km/h (1 Bft) S 186 ° 1 min 0,000 mm 3,4 UV-I 526 W/m² 18,5 °C 23,4 °C 3,2 km/h (1 Bft)
21.06.2017 09:28 23,4 °C 23,4 °C 76 % 1013,4 hPa 0,0 mm 1,7 km/h (1 Bft) S-SW 198 ° 1 min 0,000 mm 3,4 UV-I 533 W/m² 18,9 °C 23,4 °C 3,2 km/h (1 Bft)
21.06.2017 09:29 23,4 °C 23,4 °C 70 % 1013,4 hPa 0,0 mm 3,3 km/h (1 Bft) W-SW 251 ° 1 min 0,000 mm 3,4 UV-I 531 W/m² 17,6 °C 23,4 °C 4,8 km/h (1 Bft)
21.06.2017 09:30 23,5 °C 23,5 °C 74 % 1013,4 hPa 0,0 mm 0,3 km/h (0 Bft) W-SW 251 ° 1 min 0,000 mm 3,4 UV-I 536 W/m² 18,6 °C 23,5 °C 1,6 km/h (1 Bft)
21.06.2017 09:31 23,6 °C 23,6 °C 76 % 1013,4 hPa 0,0 mm 1,2 km/h (1 Bft) SW 223 ° 1 min 0,000 mm 3,5 UV-I 538 W/m² 19,1 °C 23,6 °C 4,8 km/h (1 Bft)
21.06.2017 09:32 23,7 °C 23,7 °C 73 % 1013,4 hPa 0,0 mm 1,5 km/h (1 Bft) SW 222 ° 1 min 0,000 mm 3,5 UV-I 543 W/m² 18,6 °C 23,7 °C 4,8 km/h (1 Bft)
21.06.2017 09:33 23,7 °C 23,7 °C 72 % 1013,4 hPa 0,0 mm 0,3 km/h (0 Bft) SW 222 ° 1 min 0,000 mm 3,5 UV-I 548 W/m² 18,3 °C 23,7 °C 1,6 km/h (1 Bft)
21.06.2017 09:34 23,8 °C 23,8 °C 76 % 1013,4 hPa 0,0 mm 1,7 km/h (1 Bft) W 265 ° 1 min 0,000 mm 3,6 UV-I 548 W/m² 19,3 °C 23,8 °C 6,4 km/h (2 Bft)
21.06.2017 09:35 23,7 °C 23,8 °C 74 % 1013,5 hPa 0,0 mm 5,5 km/h (1 Bft) W 269 ° 1 min 0,000 mm 3,6 UV-I 552 W/m² 18,8 °C 23,7 °C 11,3 km/h (2 Bft)
21.06.2017 09:36 23,9 °C 23,9 °C 74 % 1013,4 hPa 0,0 mm 3,4 km/h (1 Bft) W 272 ° 1 min 0,000 mm 3,6 UV-I 541 W/m² 19,0 °C 23,9 °C 6,4 km/h (2 Bft)
21.06.2017 09:37 24,0 °C 24,0 °C 74 % 1013,5 hPa 0,0 mm 8,8 km/h (2 Bft) W 261 ° 1 min 0,000 mm 3,6 UV-I 545 W/m² 19,1 °C 24,0 °C 12,9 km/h (3 Bft)
21.06.2017 09:38 24,1 °C 24,1 °C 70 % 1013,4 hPa 0,0 mm 3,9 km/h (1 Bft) W-SW 256 ° 1 min 0,000 mm 3,6 UV-I 561 W/m² 18,3 °C 24,1 °C 6,4 km/h (2 Bft)
21.06.2017 09:39 24,1 °C 24,1 °C 72 % 1013,4 hPa 0,0 mm 4,6 km/h (1 Bft) W 275 ° 1 min 0,000 mm 3,7 UV-I 564 W/m² 18,7 °C 24,1 °C 9,7 km/h (2 Bft)
21.06.2017 09:40 24,2 °C 24,2 °C 72 % 1013,4 hPa 0,0 mm 3,3 km/h (1 Bft) W-SW 257 ° 1 min 0,000 mm 3,7 UV-I 564 W/m² 18,8 °C 24,2 °C 6,4 km/h (2 Bft)
21.06.2017 09:41 24,3 °C 24,3 °C 76 % 1013,4 hPa 0,0 mm 5,8 km/h (2 Bft) W 267 ° 1 min 0,000 mm 3,7 UV-I 566 W/m² 19,8 °C 24,3 °C 11,3 km/h (2 Bft)
21.06.2017 09:42 24,3 °C 24,3 °C 71 % 1013,3 hPa 0,0 mm 5,6 km/h (1 Bft) W 266 ° 1 min 0,000 mm 3,8 UV-I 571 W/m² 18,7 °C 24,3 °C 9,7 km/h (2 Bft)
21.06.2017 09:43 24,4 °C 24,4 °C 72 % 1013,3 hPa 0,0 mm 7,7 km/h (2 Bft) W-SW 246 ° 1 min 0,000 mm 3,8 UV-I 575 W/m² 19,0 °C 24,4 °C 14,5 km/h (3 Bft)
21.06.2017 09:44 24,4 °C 24,4 °C 69 % 1013,3 hPa 0,0 mm 5,1 km/h (1 Bft) W 273 ° 1 min 0,000 mm 3,8 UV-I 577 W/m² 18,3 °C 24,4 °C 9,7 km/h (2 Bft)
21.06.2017 09:45 24,4 °C 24,4 °C 73 % 1013,3 hPa 0,0 mm 3,4 km/h (1 Bft) W 263 ° 1 min 0,000 mm 3,8 UV-I 578 W/m² 19,2 °C 24,4 °C 6,4 km/h (2 Bft)
21.06.2017 09:46 24,5 °C 24,5 °C 73 % 1013,3 hPa 0,0 mm 3,2 km/h (1 Bft) W-SW 257 ° 1 min 0,000 mm 3,8 UV-I 578 W/m² 19,3 °C 24,5 °C 6,4 km/h (2 Bft)
21.06.2017 09:47 24,6 °C 24,6 °C 70 % 1013,3 hPa 0,0 mm 5,8 km/h (2 Bft) W-SW 247 ° 1 min 0,000 mm 3,8 UV-I 580 W/m² 18,8 °C 24,6 °C 8,0 km/h (2 Bft)
21.06.2017 09:48 24,6 °C 24,6 °C 73 % 1013,3 hPa 0,0 mm 5,2 km/h (1 Bft) W-NW 283 ° 1 min 0,000 mm 3,9 UV-I 587 W/m² 19,4 °C 24,6 °C 6,4 km/h (2 Bft)
21.06.2017 09:49 24,6 °C 24,6 °C 71 % 1013,3 hPa 0,0 mm 5,6 km/h (1 Bft) W 275 ° 1 min 0,000 mm 3,9 UV-I 585 W/m² 19,0 °C 24,6 °C 8,0 km/h (2 Bft)
21.06.2017 09:50 24,6 °C 24,6 °C 68 % 1013,2 hPa 0,0 mm 8,5 km/h (2 Bft) W-NW 299 ° 1 min 0,000 mm 3,9 UV-I 585 W/m² 18,3 °C 24,6 °C 14,5 km/h (3 Bft)
21.06.2017 09:51 24,5 °C 24,6 °C 70 % 1013,3 hPa 0,0 mm 3,9 km/h (1 Bft) W 273 ° 1 min 0,000 mm 3,9 UV-I 587 W/m² 18,7 °C 24,5 °C 6,4 km/h (2 Bft)
21.06.2017 09:52 24,6 °C 24,6 °C 70 % 1013,2 hPa 0,0 mm 4,0 km/h (1 Bft) W-SW 252 ° 1 min 0,000 mm 3,9 UV-I 587 W/m² 18,8 °C 24,6 °C 6,4 km/h (2 Bft)
21.06.2017 09:53 24,6 °C 24,6 °C 72 % 1013,2 hPa 0,0 mm 5,6 km/h (1 Bft) W 269 ° 1 min 0,000 mm 3,9 UV-I 585 W/m² 19,2 °C 24,6 °C 6,4 km/h (2 Bft)
21.06.2017 09:54 24,7 °C 24,7 °C 71 % 1013,2 hPa 0,0 mm 7,6 km/h (2 Bft) W-NW 303 ° 1 min 0,000 mm 3,9 UV-I 587 W/m² 19,1 °C 24,7 °C 14,5 km/h (3 Bft)
21.06.2017 09:55 24,7 °C 24,7 °C 68 % 1013,2 hPa 0,0 mm 9,6 km/h (2 Bft) W 266 ° 1 min 0,000 mm 3,9 UV-I 592 W/m² 18,4 °C 24,7 °C 16,1 km/h (3 Bft)
21.06.2017 09:56 24,7 °C 24,7 °C 68 % 1013,3 hPa 0,0 mm 5,4 km/h (1 Bft) SW 233 ° 1 min 0,000 mm 3,9 UV-I 591 W/m² 18,4 °C 24,7 °C 8,0 km/h (2 Bft)
21.06.2017 09:57 24,7 °C 24,7 °C 65 % 1013,2 hPa 0,0 mm 4,3 km/h (1 Bft) W 270 ° 1 min 0,000 mm 4,0 UV-I 599 W/m² 17,7 °C 24,7 °C 6,4 km/h (2 Bft)
21.06.2017 09:58 24,7 °C 24,7 °C 66 % 1013,2 hPa 0,0 mm 9,5 km/h (2 Bft) W 279 ° 1 min 0,000 mm 4,0 UV-I 598 W/m² 17,9 °C 24,7 °C 16,1 km/h (3 Bft)
21.06.2017 09:59 24,7 °C 24,7 °C 68 % 1013,2 hPa 0,0 mm 2,2 km/h (1 Bft) W 263 ° 1 min 0,000 mm 4,0 UV-I 603 W/m² 18,4 °C 24,7 °C 3,2 km/h (1 Bft)
21.06.2017 10:00 24,8 °C 24,8 °C 71 % 1013,2 hPa 0,0 mm 2,3 km/h (1 Bft) W 273 ° 1 min 0,000 mm 4,1 UV-I 608 W/m² 19,2 °C 24,8 °C 4,8 km/h (1 Bft)
21.06.2017 10:01 24,8 °C 24,8 °C 70 % 1013,2 hPa 0,0 mm 5,3 km/h (1 Bft) W-SW 246 ° 1 min 0,330 mm 4,1 UV-I 608 W/m² 18,9 °C 24,8 °C 8,0 km/h (2 Bft)
21.06.2017 10:02 24,9 °C 24,9 °C 68 % 1013,2 hPa 0,0 mm 8,9 km/h (2 Bft) SW 233 ° 1 min 0,000 mm 4,1 UV-I 613 W/m² 18,6 °C 24,9 °C 12,9 km/h (3 Bft)
21.06.2017 10:03 24,9 °C 24,9 °C 69 % 1013,1 hPa 0,0 mm 5,3 km/h (1 Bft) W-SW 245 ° 1 min 0,000 mm 4,2 UV-I 617 W/m² 18,8 °C 24,9 °C 9,7 km/h (2 Bft)
21.06.2017 10:04 24,9 °C 24,9 °C 68 % 1013,2 hPa 0,0 mm 8,3 km/h (2 Bft) W-SW 257 ° 1 min 0,000 mm 4,2 UV-I 621 W/m² 18,6 °C 24,9 °C 11,3 km/h (2 Bft)
21.06.2017 10:05 25,0 °C 25,0 °C 67 % 1013,2 hPa 0,0 mm 6,2 km/h (2 Bft) SW 221 ° 1 min 0,000 mm 4,2 UV-I 621 W/m² 18,4 °C 25,0 °C 8,0 km/h (2 Bft)
21.06.2017 10:06 24,9 °C 25,0 °C 66 % 1013,2 hPa 0,0 mm 10,2 km/h (2 Bft) W-SW 253 ° 1 min 0,000 mm 4,2 UV-I 619 W/m² 18,1 °C 24,9 °C 14,5 km/h (3 Bft)
21.06.2017 10:07 25,0 °C 25,0 °C 69 % 1013,2 hPa 0,0 mm 5,7 km/h (1 Bft) W-SW 240 ° 1 min 0,000 mm 4,3 UV-I 629 W/m² 18,9 °C 25,0 °C 9,7 km/h (2 Bft)
21.06.2017 10:08 24,9 °C 25,0 °C 66 % 1013,2 hPa 0,0 mm 6,9 km/h (2 Bft) W 263 ° 1 min 0,000 mm 4,3 UV-I 631 W/m² 18,1 °C 24,9 °C 9,7 km/h (2 Bft)
21.06.2017 10:09 24,9 °C 25,0 °C 69 % 1013,1 hPa 0,0 mm 7,9 km/h (2 Bft) W 267 ° 1 min 0,000 mm 4,4 UV-I 635 W/m² 18,8 °C 24,9 °C 12,9 km/h (3 Bft)
21.06.2017 10:10 25,1 °C 25,1 °C 68 % 1013,2 hPa 0,0 mm 8,9 km/h (2 Bft) W-NW 289 ° 1 min 0,000 mm 4,4 UV-I 636 W/m² 18,8 °C 25,1 °C 14,5 km/h (3 Bft)
21.06.2017 10:11 25,0 °C 25,1 °C 66 % 1013,1 hPa 0,0 mm 11,3 km/h (2 Bft) W 267 ° 1 min 0,000 mm 4,4 UV-I 638 W/m² 18,2 °C 25,0 °C 17,7 km/h (3 Bft)
21.06.2017 10:12 25,1 °C 25,1 °C 69 % 1013,1 hPa 0,0 mm 7,0 km/h (2 Bft) W-SW 253 ° 1 min 0,000 mm 4,5 UV-I 643 W/m² 19,0 °C 25,1 °C 12,9 km/h (3 Bft)
21.06.2017 10:13 25,1 °C 25,1 °C 63 % 1013,1 hPa 0,0 mm 4,4 km/h (1 Bft) W 274 ° 1 min 0,000 mm 4,5 UV-I 647 W/m² 17,5 °C 25,1 °C 6,4 km/h (2 Bft)
21.06.2017 10:14 25,1 °C 25,1 °C 65 % 1013,1 hPa 0,0 mm 4,4 km/h (1 Bft) W 263 ° 1 min 0,000 mm 4,5 UV-I 649 W/m² 18,0 °C 25,1 °C 9,7 km/h (2 Bft)
21.06.2017 10:15 25,2 °C 25,2 °C 66 % 1013,2 hPa 0,0 mm 8,5 km/h (2 Bft) W 259 ° 1 min 0,000 mm 4,5 UV-I 650 W/m² 18,4 °C 25,2 °C 16,1 km/h (3 Bft)
21.06.2017 10:16 25,2 °C 25,2 °C 67 % 1013,2 hPa 0,0 mm 7,6 km/h (2 Bft) W 270 ° 1 min 0,000 mm 4,5 UV-I 647 W/m² 18,6 °C 25,2 °C 11,3 km/h (2 Bft)
21.06.2017 10:17 25,2 °C 25,2 °C 63 % 1013,2 hPa 0,0 mm 6,6 km/h (2 Bft) W-NW 297 ° 1 min 0,000 mm 4,6 UV-I 649 W/m² 17,6 °C 25,2 °C 11,3 km/h (2 Bft)
21.06.2017 10:18 25,2 °C 25,2 °C 64 % 1013,2 hPa 0,0 mm 3,8 km/h (1 Bft) W 262 ° 1 min 0,000 mm 4,6 UV-I 650 W/m² 17,9 °C 25,2 °C 4,8 km/h (1 Bft)
21.06.2017 10:19 25,2 °C 25,2 °C 66 % 1013,2 hPa 0,0 mm 8,6 km/h (2 Bft) W 273 ° 1 min 0,000 mm 4,6 UV-I 654 W/m² 18,4 °C 25,2 °C 17,7 km/h (3 Bft)
21.06.2017 10:20 25,3 °C 25,3 °C 67 % 1013,2 hPa 0,0 mm 7,5 km/h (2 Bft) S-SW 194 ° 1 min 0,000 mm 4,6 UV-I 656 W/m² 18,7 °C 25,3 °C 12,9 km/h (3 Bft)
21.06.2017 10:21 25,3 °C 25,3 °C 66 % 1013,2 hPa 0,0 mm 4,2 km/h (1 Bft) SW 233 ° 1 min 0,000 mm 4,6 UV-I 659 W/m² 18,5 °C 25,3 °C 9,7 km/h (2 Bft)
21.06.2017 10:22 25,4 °C 25,4 °C 66 % 1013,2 hPa 0,0 mm 9,8 km/h (2 Bft) W-NW 283 ° 1 min 0,000 mm 4,6 UV-I 659 W/m² 18,6 °C 25,4 °C 16,1 km/h (3 Bft)
21.06.2017 10:23 25,4 °C 25,4 °C 64 % 1013,2 hPa 0,0 mm 12,3 km/h (3 Bft) W 269 ° 1 min 0,000 mm 4,6 UV-I 661 W/m² 18,1 °C 25,4 °C 16,1 km/h (3 Bft)
21.06.2017 10:24 25,3 °C 25,4 °C 64 % 1013,2 hPa 0,0 mm 11,9 km/h (2 Bft) W 269 ° 1 min 0,000 mm 4,7 UV-I 666 W/m² 18,0 °C 25,3 °C 16,1 km/h (3 Bft)
21.06.2017 10:25 25,3 °C 25,3 °C 63 % 1013,2 hPa 0,0 mm 11,7 km/h (2 Bft) W-SW 248 ° 1 min 0,000 mm 4,7 UV-I 671 W/m² 17,7 °C 25,3 °C 14,5 km/h (3 Bft)
21.06.2017 10:26 25,3 °C 25,3 °C 62 % 1013,2 hPa 0,0 mm 7,3 km/h (2 Bft) W-SW 248 ° 1 min 0,000 mm 4,8 UV-I 640 W/m² 17,5 °C 25,3 °C 12,9 km/h (3 Bft)
21.06.2017 10:27 25,3 °C 25,3 °C 65 % 1013,2 hPa 0,0 mm 12,2 km/h (2 Bft) W-SW 248 ° 1 min 0,000 mm 4,8 UV-I 673 W/m² 18,2 °C 25,3 °C 17,7 km/h (3 Bft)
21.06.2017 10:28 25,3 °C 25,3 °C 64 % 1013,2 hPa 0,0 mm 11,7 km/h (2 Bft) W 259 ° 1 min 0,000 mm 4,8 UV-I 677 W/m² 18,0 °C 25,3 °C 14,5 km/h (3 Bft)
21.06.2017 10:29 25,3 °C 25,3 °C 65 % 1013,2 hPa 0,0 mm 4,5 km/h (1 Bft) W-NW 290 ° 1 min 0,000 mm 4,8 UV-I 682 W/m² 18,2 °C 25,3 °C 9,7 km/h (2 Bft)
21.06.2017 10:30 25,3 °C 25,4 °C 62 % 1013,2 hPa 0,0 mm 6,2 km/h (2 Bft) W 274 ° 1 min 0,000 mm 4,9 UV-I 684 W/m² 17,5 °C 25,3 °C 11,3 km/h (2 Bft)
21.06.2017 10:31 25,4 °C 25,4 °C 67 % 1013,2 hPa 0,0 mm 9,6 km/h (2 Bft) W 267 ° 1 min 0,000 mm 4,9 UV-I 687 W/m² 18,8 °C 25,4 °C 20,9 km/h (4 Bft)
21.06.2017 10:32 25,4 °C 25,4 °C 62 % 1013,2 hPa 0,0 mm 12,9 km/h (3 Bft) W 271 ° 1 min 0,000 mm 4,9 UV-I 687 W/m² 17,6 °C 25,4 °C 17,7 km/h (3 Bft)
21.06.2017 10:33 25,4 °C 25,4 °C 63 % 1013,2 hPa 0,0 mm 6,4 km/h (2 Bft) W 261 ° 1 min 0,000 mm 4,9 UV-I 687 W/m² 17,8 °C 25,4 °C 12,9 km/h (3 Bft)
21.06.2017 10:34 25,5 °C 25,5 °C 63 % 1013,3 hPa 0,0 mm 8,0 km/h (2 Bft) W 261 ° 1 min 0,000 mm 4,9 UV-I 689 W/m² 17,9 °C 25,5 °C 12,9 km/h (3 Bft)
21.06.2017 10:35 25,5 °C 25,6 °C 65 % 1013,2 hPa 0,0 mm 8,5 km/h (2 Bft) W-SW 257 ° 1 min 0,000 mm 4,9 UV-I 689 W/m² 18,4 °C 25,5 °C 11,3 km/h (2 Bft)
21.06.2017 10:36 25,6 °C 25,6 °C 66 % 1013,2 hPa 0,0 mm 7,8 km/h (2 Bft) SW 221 ° 1 min 0,000 mm 4,9 UV-I 689 W/m² 18,8 °C 25,6 °C 11,3 km/h (2 Bft)
21.06.2017 10:37 25,6 °C 25,6 °C 64 % 1013,2 hPa 0,0 mm 7,5 km/h (2 Bft) W-SW 252 ° 1 min 0,000 mm 5,0 UV-I 694 W/m² 18,3 °C 25,6 °C 12,9 km/h (3 Bft)
21.06.2017 10:38 25,6 °C 25,6 °C 65 % 1013,2 hPa 0,0 mm 8,4 km/h (2 Bft) W-NW 296 ° 1 min 0,000 mm 5,0 UV-I 696 W/m² 18,5 °C 25,6 °C 11,3 km/h (2 Bft)
21.06.2017 10:39 25,6 °C 25,6 °C 65 % 1013,2 hPa 0,0 mm 6,6 km/h (2 Bft) W 274 ° 1 min 0,000 mm 5,0 UV-I 698 W/m² 18,5 °C 25,6 °C 9,7 km/h (2 Bft)
21.06.2017 10:40 25,7 °C 25,7 °C 65 % 1013,2 hPa 0,0 mm 7,1 km/h (2 Bft) NW 308 ° 1 min 0,000 mm 5,1 UV-I 703 W/m² 18,6 °C 25,7 °C 11,3 km/h (2 Bft)
21.06.2017 10:41 25,8 °C 25,8 °C 67 % 1013,2 hPa 0,0 mm 4,3 km/h (1 Bft) W-NW 286 ° 1 min 0,000 mm 5,2 UV-I 708 W/m² 19,2 °C 25,8 °C 6,4 km/h (2 Bft)
21.06.2017 10:42 25,8 °C 25,8 °C 65 % 1013,2 hPa 0,0 mm 8,5 km/h (2 Bft) W-NW 296 ° 1 min 0,000 mm 5,2 UV-I 714 W/m² 18,7 °C 25,8 °C 11,3 km/h (2 Bft)
21.06.2017 10:43 25,8 °C 25,8 °C 67 % 1013,2 hPa 0,0 mm 7,2 km/h (2 Bft) NW 313 ° 1 min 0,000 mm 5,2 UV-I 721 W/m² 19,2 °C 25,8 °C 12,9 km/h (3 Bft)
21.06.2017 10:44 25,8 °C 25,8 °C 65 % 1013,2 hPa 0,0 mm 7,8 km/h (2 Bft) W-NW 290 ° 1 min 0,000 mm 5,3 UV-I 722 W/m² 18,7 °C 25,8 °C 12,9 km/h (3 Bft)
21.06.2017 10:45 25,9 °C 25,9 °C 67 % 1013,2 hPa 0,0 mm 4,0 km/h (1 Bft) W-NW 297 ° 1 min 0,000 mm 5,4 UV-I 724 W/m² 19,3 °C 25,9 °C 6,4 km/h (2 Bft)
21.06.2017 10:46 25,9 °C 25,9 °C 67 % 1013,2 hPa 0,0 mm 1,7 km/h (1 Bft) W-NW 296 ° 1 min 0,000 mm 5,4 UV-I 729 W/m² 19,3 °C 25,9 °C 4,8 km/h (1 Bft)
21.06.2017 10:47 26,0 °C 26,0 °C 63 % 1013,3 hPa 0,0 mm 5,9 km/h (2 Bft) W 281 ° 1 min 0,000 mm 5,4 UV-I 729 W/m² 18,4 °C 26,0 °C 9,7 km/h (2 Bft)
21.06.2017 10:48 25,9 °C 26,0 °C 64 % 1013,3 hPa 0,0 mm 4,8 km/h (1 Bft) W 265 ° 1 min 0,000 mm 5,4 UV-I 731 W/m² 18,6 °C 25,9 °C 11,3 km/h (2 Bft)
21.06.2017 10:49 26,0 °C 26,0 °C 63 % 1013,3 hPa 0,0 mm 7,3 km/h (2 Bft) W 280 ° 1 min 0,000 mm 5,4 UV-I 731 W/m² 18,4 °C 26,0 °C 14,5 km/h (3 Bft)
21.06.2017 10:50 25,9 °C 26,0 °C 63 % 1013,3 hPa 0,0 mm 7,9 km/h (2 Bft) W 265 ° 1 min 0,000 mm 5,4 UV-I 735 W/m² 18,3 °C 25,9 °C 12,9 km/h (3 Bft)
21.06.2017 10:51 26,0 °C 26,1 °C 64 % 1013,3 hPa 0,0 mm 7,2 km/h (2 Bft) W 269 ° 1 min 0,000 mm 5,4 UV-I 737 W/m² 18,6 °C 26,0 °C 14,5 km/h (3 Bft)
21.06.2017 10:52 26,0 °C 26,1 °C 62 % 1013,3 hPa 0,0 mm 15,2 km/h (3 Bft) W-SW 255 ° 1 min 0,000 mm 5,5 UV-I 738 W/m² 18,1 °C 26,0 °C 19,3 km/h (3 Bft)
21.06.2017 10:53 25,9 °C 26,0 °C 63 % 1013,3 hPa 0,0 mm 9,0 km/h (2 Bft) SW 224 ° 1 min 0,000 mm 5,5 UV-I 737 W/m² 18,3 °C 25,9 °C 16,1 km/h (3 Bft)
21.06.2017 10:54 25,9 °C 25,9 °C 59 % 1013,3 hPa 0,0 mm 3,7 km/h (1 Bft) S-SW 196 ° 1 min 0,000 mm 5,5 UV-I 742 W/m² 17,3 °C 25,9 °C 6,4 km/h (2 Bft)
21.06.2017 10:55 25,9 °C 25,9 °C 60 % 1013,3 hPa 0,0 mm 5,1 km/h (1 Bft) W-NW 293 ° 1 min 0,000 mm 5,5 UV-I 740 W/m² 17,5 °C 25,9 °C 9,7 km/h (2 Bft)
21.06.2017 10:56 25,9 °C 25,9 °C 64 % 1013,3 hPa 0,0 mm 3,6 km/h (1 Bft) W-NW 288 ° 1 min 0,000 mm 5,5 UV-I 744 W/m² 18,6 °C 25,9 °C 6,4 km/h (2 Bft)
21.06.2017 10:57 25,9 °C 25,9 °C 64 % 1013,3 hPa 0,0 mm 6,8 km/h (2 Bft) W-NW 289 ° 1 min 0,000 mm 5,6 UV-I 747 W/m² 18,6 °C 25,9 °C 11,3 km/h (2 Bft)
21.06.2017 10:58 25,9 °C 25,9 °C 64 % 1013,3 hPa 0,0 mm 5,6 km/h (1 Bft) N-NW 332 ° 1 min 0,000 mm 5,6 UV-I 751 W/m² 18,6 °C 25,9 °C 11,3 km/h (2 Bft)
21.06.2017 10:59 26,0 °C 26,0 °C 62 % 1013,3 hPa 0,0 mm 1,6 km/h (1 Bft) W-NW 289 ° 1 min 0,000 mm 5,6 UV-I 754 W/m² 18,1 °C 26,0 °C 4,8 km/h (1 Bft)
21.06.2017 11:00 26,0 °C 26,0 °C 64 % 1013,2 hPa 0,0 mm 2,8 km/h (1 Bft) W-NW 292 ° 1 min 0,000 mm 5,7 UV-I 754 W/m² 18,6 °C 26,0 °C 3,2 km/h (1 Bft)
21.06.2017 11:01 26,1 °C 26,1 °C 64 % 1013,3 hPa 0,0 mm 3,6 km/h (1 Bft) W 276 ° 1 min 0,458 mm 5,7 UV-I 763 W/m² 18,7 °C 26,1 °C 6,4 km/h (2 Bft)
21.06.2017 11:02 26,1 °C 26,1 °C 63 % 1013,2 hPa 0,0 mm 7,6 km/h (2 Bft) W-NW 300 ° 1 min 0,000 mm 5,8 UV-I 768 W/m² 18,5 °C 26,1 °C 11,3 km/h (2 Bft)
21.06.2017 11:03 26,1 °C 26,2 °C 62 % 1013,4 hPa 0,0 mm 7,7 km/h (2 Bft) W 273 ° 1 min 0,000 mm 5,8 UV-I 773 W/m² 18,2 °C 26,1 °C 16,1 km/h (3 Bft)
21.06.2017 11:04 26,2 °C 26,2 °C 62 % 1013,3 hPa 0,0 mm 6,6 km/h (2 Bft) W-NW 289 ° 1 min 0,000 mm 5,8 UV-I 768 W/m² 18,3 °C 26,2 °C 11,3 km/h (2 Bft)
21.06.2017 11:05 26,2 °C 26,2 °C 64 % 1013,4 hPa 0,0 mm 8,4 km/h (2 Bft) W-NW 302 ° 1 min 0,000 mm 5,9 UV-I 784 W/m² 18,8 °C 26,2 °C 12,9 km/h (3 Bft)
21.06.2017 11:06 26,2 °C 26,2 °C 63 % 1013,3 hPa 0,0 mm 7,5 km/h (2 Bft) NW 324 ° 1 min 0,000 mm 5,8 UV-I 782 W/m² 18,6 °C 26,2 °C 12,9 km/h (3 Bft)
21.06.2017 11:07 26,3 °C 26,3 °C 59 % 1013,3 hPa 0,0 mm 9,7 km/h (2 Bft) NW 323 ° 1 min 0,000 mm 5,8 UV-I 761 W/m² 17,6 °C 26,3 °C 16,1 km/h (3 Bft)
21.06.2017 11:08 26,2 °C 26,3 °C 61 % 1013,3 hPa 0,0 mm 8,2 km/h (2 Bft) W-NW 294 ° 1 min 0,000 mm 5,6 UV-I 729 W/m² 18,1 °C 26,2 °C 16,1 km/h (3 Bft)
21.06.2017 11:09 26,2 °C 26,3 °C 55 % 1013,3 hPa 0,0 mm 7,5 km/h (2 Bft) W-NW 283 ° 1 min 0,000 mm 5,8 UV-I 751 W/m² 16,4 °C 26,2 °C 11,3 km/h (2 Bft)
21.06.2017 11:10 26,1 °C 26,2 °C 57 % 1013,3 hPa 0,0 mm 4,0 km/h (1 Bft) NW 311 ° 1 min 0,000 mm 5,6 UV-I 744 W/m² 16,9 °C 26,1 °C 6,4 km/h (2 Bft)
21.06.2017 11:11 26,1 °C 26,1 °C 60 % 1013,3 hPa 0,0 mm 2,7 km/h (1 Bft) NW 309 ° 1 min 0,000 mm 5,5 UV-I 698 W/m² 17,7 °C 26,1 °C 4,8 km/h (1 Bft)
21.06.2017 11:12 26,2 °C 26,2 °C 63 % 1013,3 hPa 0,0 mm 5,7 km/h (1 Bft) W 281 ° 1 min 0,000 mm 5,6 UV-I 724 W/m² 18,6 °C 26,2 °C 11,3 km/h (2 Bft)
21.06.2017 11:13 26,3 °C 26,3 °C 62 % 1013,3 hPa 0,0 mm 6,5 km/h (2 Bft) W 269 ° 1 min 0,000 mm 5,8 UV-I 752 W/m² 18,4 °C 26,3 °C 11,3 km/h (2 Bft)
21.06.2017 11:14 26,3 °C 26,3 °C 59 % 1013,3 hPa 0,0 mm 4,1 km/h (1 Bft) W 274 ° 1 min 0,000 mm 5,9 UV-I 772 W/m² 17,6 °C 26,3 °C 6,4 km/h (2 Bft)
21.06.2017 11:15 26,4 °C 26,4 °C 58 % 1013,3 hPa 0,0 mm 5,7 km/h (1 Bft) W 272 ° 1 min 0,000 mm 5,9 UV-I 782 W/m² 17,5 °C 26,4 °C 11,3 km/h (2 Bft)
21.06.2017 11:16 26,4 °C 26,4 °C 57 % 1013,3 hPa 0,0 mm 7,5 km/h (2 Bft) NW 305 ° 1 min 0,000 mm 6,0 UV-I 777 W/m² 17,2 °C 26,4 °C 11,3 km/h (2 Bft)
21.06.2017 11:17 26,4 °C 26,4 °C 59 % 1013,3 hPa 0,0 mm 3,9 km/h (1 Bft) W-NW 292 ° 1 min 0,000 mm 5,9 UV-I 758 W/m² 17,7 °C 26,4 °C 4,8 km/h (1 Bft)
21.06.2017 11:18 26,3 °C 26,4 °C 58 % 1013,4 hPa 0,0 mm 7,3 km/h (2 Bft) W-SW 255 ° 1 min 0,000 mm 5,7 UV-I 675 W/m² 17,4 °C 26,3 °C 12,9 km/h (3 Bft)
21.06.2017 11:19 26,3 °C 26,3 °C 51 % 1013,4 hPa 0,0 mm 4,6 km/h (1 Bft) W-SW 253 ° 1 min 0,000 mm 5,9 UV-I 765 W/m² 15,3 °C 26,3 °C 9,7 km/h (2 Bft)
21.06.2017 11:20 26,3 °C 26,3 °C 54 % 1013,4 hPa 0,0 mm 3,1 km/h (1 Bft) W 281 ° 1 min 0,000 mm 5,7 UV-I 740 W/m² 16,2 °C 26,3 °C 4,8 km/h (1 Bft)
21.06.2017 11:21 26,3 °C 26,3 °C 55 % 1013,4 hPa 0,0 mm 1,4 km/h (1 Bft) SW 217 ° 1 min 0,000 mm 5,8 UV-I 724 W/m² 16,5 °C 26,3 °C 3,2 km/h (1 Bft)
21.06.2017 11:22 26,3 °C 26,3 °C 61 % 1013,4 hPa 0,0 mm 3,7 km/h (1 Bft) W 263 ° 1 min 0,000 mm 5,9 UV-I 752 W/m² 18,2 °C 26,3 °C 11,3 km/h (2 Bft)
21.06.2017 11:23 26,3 °C 26,4 °C 52 % 1013,4 hPa 0,0 mm 9,8 km/h (2 Bft) W-NW 284 ° 1 min 0,000 mm 5,9 UV-I 747 W/m² 15,6 °C 26,3 °C 14,5 km/h (3 Bft)
21.06.2017 11:24 26,4 °C 26,4 °C 56 % 1013,4 hPa 0,0 mm 8,2 km/h (2 Bft) W-NW 284 ° 1 min 0,000 mm 5,9 UV-I 807 W/m² 16,9 °C 26,4 °C 14,5 km/h (3 Bft)
21.06.2017 11:25 26,5 °C 26,5 °C 54 % 1013,4 hPa 0,0 mm 5,2 km/h (1 Bft) W-SW 257 ° 1 min 0,000 mm 6,1 UV-I 770 W/m² 16,4 °C 26,5 °C 8,0 km/h (2 Bft)
21.06.2017 11:26 26,6 °C 26,6 °C 56 % 1013,4 hPa 0,0 mm 2,2 km/h (1 Bft) W 269 ° 1 min 0,000 mm 5,8 UV-I 770 W/m² 17,1 °C 26,6 °C 4,8 km/h (1 Bft)
21.06.2017 11:27 26,5 °C 26,6 °C 48 % 1013,4 hPa 0,0 mm 2,2 km/h (1 Bft) W 270 ° 1 min 0,000 mm 6,0 UV-I 689 W/m² 14,6 °C 26,5 °C 4,8 km/h (1 Bft)
21.06.2017 11:28 26,5 °C 26,6 °C 47 % 1013,4 hPa 0,0 mm 4,0 km/h (1 Bft) W-NW 284 ° 1 min 0,000 mm 6,3 UV-I 689 W/m² 14,3 °C 26,5 °C 4,8 km/h (1 Bft)
21.06.2017 11:29 26,5 °C 26,5 °C 50 % 1013,4 hPa 0,0 mm 5,2 km/h (1 Bft) W 279 ° 1 min 0,000 mm 6,3 UV-I 803 W/m² 15,2 °C 26,5 °C 9,7 km/h (2 Bft)
21.06.2017 11:30 26,6 °C 26,6 °C 58 % 1013,4 hPa 0,0 mm 6,8 km/h (2 Bft) W 277 ° 1 min 0,000 mm 6,2 UV-I 802 W/m² 17,6 °C 26,6 °C 12,9 km/h (3 Bft)
21.06.2017 11:31 26,6 °C 26,6 °C 49 % 1013,4 hPa 0,0 mm 5,7 km/h (1 Bft) W 269 ° 1 min 0,000 mm 6,0 UV-I 775 W/m² 15,0 °C 26,6 °C 9,7 km/h (2 Bft)
21.06.2017 11:32 26,6 °C 26,6 °C 53 % 1013,4 hPa 0,0 mm 10,1 km/h (2 Bft) W-SW 257 ° 1 min 0,000 mm 5,9 UV-I 717 W/m² 16,2 °C 26,6 °C 14,5 km/h (3 Bft)
21.06.2017 11:33 26,6 °C 26,6 °C 50 % 1013,4 hPa 0,0 mm 8,7 km/h (2 Bft) W-NW 286 ° 1 min 0,000 mm 6,1 UV-I 791 W/m² 15,3 °C 26,6 °C 12,9 km/h (3 Bft)
21.06.2017 11:34 26,6 °C 26,6 °C 50 % 1013,4 hPa 0,0 mm 5,1 km/h (1 Bft) NW 306 ° 1 min 0,000 mm 6,4 UV-I 798 W/m² 15,3 °C 26,6 °C 8,0 km/h (2 Bft)
21.06.2017 11:35 26,6 °C 26,6 °C 49 % 1013,4 hPa 0,0 mm 6,4 km/h (2 Bft) W-NW 287 ° 1 min 0,000 mm 6,5 UV-I 858 W/m² 15,0 °C 26,6 °C 9,7 km/h (2 Bft)
21.06.2017 11:36 26,7 °C 26,7 °C 49 % 1013,4 hPa 0,0 mm 6,5 km/h (2 Bft) W 281 ° 1 min 0,000 mm 6,6 UV-I 824 W/m² 15,1 °C 26,7 °C 9,7 km/h (2 Bft)
21.06.2017 11:37 26,7 °C 26,7 °C 44 % 1013,4 hPa 0,0 mm 2,8 km/h (1 Bft) W-NW 298 ° 1 min 0,000 mm 6,3 UV-I 791 W/m² 13,4 °C 26,7 °C 4,8 km/h (1 Bft)
21.06.2017 11:38 26,8 °C 26,8 °C 51 % 1013,4 hPa 0,0 mm 4,1 km/h (1 Bft) NW 320 ° 1 min 0,000 mm 6,2 UV-I 786 W/m² 15,8 °C 26,8 °C 4,8 km/h (1 Bft)
21.06.2017 11:39 26,8 °C 26,8 °C 52 % 1013,4 hPa 0,0 mm 4,8 km/h (1 Bft) W 263 ° 1 min 0,000 mm 6,3 UV-I 800 W/m² 16,1 °C 26,8 °C 9,7 km/h (2 Bft)
21.06.2017 11:40 26,8 °C 26,8 °C 46 % 1013,4 hPa 0,0 mm 8,6 km/h (2 Bft) W 261 ° 1 min 0,000 mm 6,4 UV-I 807 W/m² 14,2 °C 26,8 °C 12,9 km/h (3 Bft)
21.06.2017 11:41 26,8 °C 26,8 °C 40 % 1013,4 hPa 0,0 mm 7,7 km/h (2 Bft) W-NW 299 ° 1 min 0,000 mm 6,5 UV-I 819 W/m² 12,1 °C 26,8 °C 12,9 km/h (3 Bft)
21.06.2017 11:42 26,8 °C 26,8 °C 44 % 1013,4 hPa 0,0 mm 4,0 km/h (1 Bft) W-NW 292 ° 1 min 0,000 mm 6,4 UV-I 821 W/m² 13,5 °C 26,8 °C 6,4 km/h (2 Bft)
21.06.2017 11:43 26,8 °C 26,8 °C 42 % 1013,4 hPa 0,0 mm 6,3 km/h (2 Bft) W-NW 290 ° 1 min 0,000 mm 6,1 UV-I 768 W/m² 12,8 °C 26,8 °C 8,0 km/h (2 Bft)
21.06.2017 11:44 26,8 °C 26,8 °C 47 % 1013,4 hPa 0,0 mm 7,6 km/h (2 Bft) NW 324 ° 1 min 0,000 mm 6,3 UV-I 756 W/m² 14,5 °C 26,8 °C 12,9 km/h (3 Bft)
21.06.2017 11:45 26,8 °C 26,8 °C 46 % 1013,4 hPa 0,0 mm 2,9 km/h (1 Bft) W 277 ° 1 min 0,000 mm 6,5 UV-I 824 W/m² 14,2 °C 26,8 °C 6,4 km/h (2 Bft)
21.06.2017 11:46 26,8 °C 26,8 °C 52 % 1013,4 hPa 0,0 mm 4,2 km/h (1 Bft) S-SW 198 ° 1 min 0,000 mm 6,5 UV-I 805 W/m² 16,1 °C 26,8 °C 4,8 km/h (1 Bft)
21.06.2017 11:47 26,8 °C 26,8 °C 47 % 1013,4 hPa 0,0 mm 2,1 km/h (1 Bft) W-SW 248 ° 1 min 0,000 mm 6,5 UV-I 828 W/m² 14,5 °C 26,8 °C 6,4 km/h (2 Bft)
21.06.2017 11:48 26,9 °C 26,9 °C 53 % 1013,4 hPa 0,0 mm 5,9 km/h (2 Bft) W-SW 255 ° 1 min 0,000 mm 6,6 UV-I 812 W/m² 16,5 °C 26,9 °C 6,4 km/h (2 Bft)
21.06.2017 11:49 26,9 °C 26,9 °C 51 % 1013,4 hPa 0,0 mm 8,2 km/h (2 Bft) W 266 ° 1 min 0,000 mm 6,7 UV-I 846 W/m² 15,9 °C 26,9 °C 12,9 km/h (3 Bft)
21.06.2017 11:50 26,9 °C 26,9 °C 50 % 1013,4 hPa 0,0 mm 4,0 km/h (1 Bft) W-SW 252 ° 1 min 0,000 mm 6,7 UV-I 835 W/m² 15,6 °C 26,9 °C 4,8 km/h (1 Bft)
21.06.2017 11:51 26,8 °C 26,9 °C 51 % 1013,4 hPa 0,0 mm 2,3 km/h (1 Bft) W-SW 242 ° 1 min 0,000 mm 6,6 UV-I 833 W/m² 15,8 °C 26,8 °C 4,8 km/h (1 Bft)
21.06.2017 11:52 26,8 °C 26,8 °C 48 % 1013,3 hPa 0,0 mm 1,3 km/h (1 Bft) W-SW 242 ° 1 min 0,000 mm 6,4 UV-I 786 W/m² 14,9 °C 26,8 °C 4,8 km/h (1 Bft)
21.06.2017 11:53 26,8 °C 26,8 °C 47 % 1013,4 hPa 0,0 mm 3,5 km/h (1 Bft) W 275 ° 1 min 0,000 mm 6,4 UV-I 765 W/m² 14,5 °C 26,8 °C 6,4 km/h (2 Bft)
21.06.2017 11:54 26,8 °C 26,9 °C 45 % 1013,4 hPa 0,0 mm 3,9 km/h (1 Bft) W 270 ° 1 min 0,000 mm 6,4 UV-I 810 W/m² 13,9 °C 26,8 °C 6,4 km/h (2 Bft)
21.06.2017 11:55 26,9 °C 26,9 °C 49 % 1013,4 hPa 0,0 mm 4,8 km/h (1 Bft) W 271 ° 1 min 0,000 mm 6,5 UV-I 807 W/m² 15,3 °C 26,9 °C 6,4 km/h (2 Bft)
21.06.2017 11:56 26,9 °C 26,9 °C 50 % 1013,4 hPa 0,0 mm 5,7 km/h (1 Bft) W-NW 282 ° 1 min 0,000 mm 6,4 UV-I 798 W/m² 15,6 °C 26,9 °C 8,0 km/h (2 Bft)
21.06.2017 11:57 27,1 °C 27,1 °C 51 % 1013,4 hPa 0,0 mm 3,6 km/h (1 Bft) W-NW 298 ° 1 min 0,000 mm 6,2 UV-I 756 W/m² 16,1 °C 27,1 °C 4,8 km/h (1 Bft)
21.06.2017 11:58 27,1 °C 27,1 °C 51 % 1013,4 hPa 0,0 mm 4,8 km/h (1 Bft) NW 309 ° 1 min 0,000 mm 6,4 UV-I 775 W/m² 16,1 °C 27,1 °C 8,0 km/h (2 Bft)
21.06.2017 11:59 27,2 °C 27,2 °C 53 % 1013,4 hPa 0,0 mm 2,9 km/h (1 Bft) NW 311 ° 1 min 0,000 mm 6,6 UV-I 817 W/m² 16,8 °C 27,2 °C 4,8 km/h (1 Bft)
21.06.2017 12:00 27,3 °C 27,3 °C 49 % 1013,4 hPa 0,0 mm 5,8 km/h (2 Bft) NW 308 ° 1 min 0,000 mm 6,7 UV-I 831 W/m² 15,6 °C 27,3 °C 8,0 km/h (2 Bft)
21.06.2017 12:01 27,3 °C 27,3 °C 48 % 1013,4 hPa 0,0 mm 8,2 km/h (2 Bft) NW 321 ° 1 min 0,533 mm 6,6 UV-I 830 W/m² 15,3 °C 27,3 °C 12,9 km/h (3 Bft)
21.06.2017 12:02 27,3 °C 27,3 °C 50 % 1013,4 hPa 0,0 mm 4,6 km/h (1 Bft) W-NW 292 ° 1 min 0,000 mm 6,8 UV-I 814 W/m² 15,9 °C 27,3 °C 6,4 km/h (2 Bft)
21.06.2017 12:03 27,2 °C 27,3 °C 45 % 1013,3 hPa 0,0 mm 4,1 km/h (1 Bft) NW 323 ° 1 min 0,000 mm 6,9 UV-I 858 W/m² 14,2 °C 27,2 °C 6,4 km/h (2 Bft)
21.06.2017 12:04 27,2 °C 27,3 °C 51 % 1013,4 hPa 0,0 mm 4,2 km/h (1 Bft) W-NW 295 ° 1 min 0,000 mm 6,7 UV-I 838 W/m² 16,2 °C 27,2 °C 6,4 km/h (2 Bft)
21.06.2017 12:05 27,2 °C 27,2 °C 45 % 1013,4 hPa 0,0 mm 4,4 km/h (1 Bft) NW 311 ° 1 min 0,000 mm 6,5 UV-I 791 W/m² 14,2 °C 27,2 °C 6,4 km/h (2 Bft)
21.06.2017 12:06 27,2 °C 27,2 °C 48 % 1013,4 hPa 0,0 mm 6,0 km/h (2 Bft) NW 320 ° 1 min 0,000 mm 6,7 UV-I 821 W/m² 15,2 °C 27,2 °C 8,0 km/h (2 Bft)
21.06.2017 12:07 27,2 °C 27,2 °C 50 % 1013,4 hPa 0,0 mm 8,7 km/h (2 Bft) W-NW 290 ° 1 min 0,000 mm 6,8 UV-I 833 W/m² 15,9 °C 27,2 °C 14,5 km/h (3 Bft)
21.06.2017 12:08 27,2 °C 27,3 °C 52 % 1013,4 hPa 0,0 mm 9,7 km/h (2 Bft) W 270 ° 1 min 0,000 mm 6,7 UV-I 831 W/m² 16,5 °C 27,2 °C 12,9 km/h (3 Bft)
21.06.2017 12:09 27,2 °C 27,3 °C 50 % 1013,4 hPa 0,0 mm 4,3 km/h (1 Bft) W-NW 284 ° 1 min 0,000 mm 6,5 UV-I 786 W/m² 15,9 °C 27,2 °C 6,4 km/h (2 Bft)
21.06.2017 12:10 27,2 °C 27,2 °C 48 % 1013,4 hPa 0,0 mm 4,7 km/h (1 Bft) W 281 ° 1 min 0,000 mm 6,7 UV-I 816 W/m² 15,2 °C 27,2 °C 9,7 km/h (2 Bft)
21.06.2017 12:11 27,2 °C 27,2 °C 50 % 1013,4 hPa 0,0 mm 4,9 km/h (1 Bft) W-NW 292 ° 1 min 0,000 mm 6,9 UV-I 854 W/m² 15,9 °C 27,2 °C 6,4 km/h (2 Bft)
21.06.2017 12:12 27,1 °C 27,2 °C 50 % 1013,4 hPa 0,0 mm 2,3 km/h (1 Bft) S 190 ° 1 min 0,000 mm 7,0 UV-I 882 W/m² 15,8 °C 27,1 °C 4,8 km/h (1 Bft)
21.06.2017 12:13 27,1 °C 27,1 °C 52 % 1013,4 hPa 0,0 mm 1,5 km/h (1 Bft) W 262 ° 1 min 0,000 mm 6,8 UV-I 842 W/m² 16,4 °C 27,1 °C 4,8 km/h (1 Bft)
21.06.2017 12:14 27,1 °C 27,1 °C 51 % 1013,4 hPa 0,0 mm 1,0 km/h (0 Bft) W 259 ° 1 min 0,000 mm 6,9 UV-I 854 W/m² 16,1 °C 27,1 °C 4,8 km/h (1 Bft)
21.06.2017 12:15 27,1 °C 27,2 °C 52 % 1013,4 hPa 0,0 mm 8,0 km/h (2 Bft) W 280 ° 1 min 0,000 mm 7,0 UV-I 856 W/m² 16,4 °C 27,1 °C 14,5 km/h (3 Bft)
21.06.2017 12:16 27,1 °C 27,2 °C 49 % 1013,4 hPa 0,0 mm 10,7 km/h (2 Bft) W-NW 299 ° 1 min 0,000 mm 7,0 UV-I 882 W/m² 15,4 °C 27,1 °C 14,5 km/h (3 Bft)
21.06.2017 12:17 27,1 °C 27,1 °C 48 % 1013,4 hPa 0,0 mm 7,8 km/h (2 Bft) W-NW 285 ° 1 min 0,000 mm 7,1 UV-I 863 W/m² 15,1 °C 27,1 °C 11,3 km/h (2 Bft)
21.06.2017 12:18 27,1 °C 27,1 °C 46 % 1013,4 hPa 0,0 mm 5,9 km/h (2 Bft) W-NW 303 ° 1 min 0,000 mm 7,3 UV-I 884 W/m² 14,5 °C 27,1 °C 9,7 km/h (2 Bft)
21.06.2017 12:19 27,2 °C 27,2 °C 50 % 1013,4 hPa 0,0 mm 6,8 km/h (2 Bft) W 271 ° 1 min 0,000 mm 7,3 UV-I 919 W/m² 15,9 °C 27,2 °C 11,3 km/h (2 Bft)
21.06.2017 12:20 27,2 °C 27,2 °C 49 % 1013,4 hPa 0,0 mm 3,5 km/h (1 Bft) W 275 ° 1 min 0,000 mm 7,3 UV-I 940 W/m² 15,5 °C 27,2 °C 4,8 km/h (1 Bft)
21.06.2017 12:21 27,3 °C 27,3 °C 48 % 1013,4 hPa 0,0 mm 4,5 km/h (1 Bft) W-SW 243 ° 1 min 0,000 mm 7,3 UV-I 912 W/m² 15,3 °C 27,3 °C 8,0 km/h (2 Bft)
21.06.2017 12:22 27,3 °C 27,3 °C 46 % 1013,4 hPa 0,0 mm 5,6 km/h (1 Bft) S-SW 192 ° 1 min 0,000 mm 7,5 UV-I 960 W/m² 14,6 °C 27,3 °C 8,0 km/h (2 Bft)
21.06.2017 12:23 27,2 °C 27,3 °C 43 % 1013,3 hPa 0,0 mm 4,6 km/h (1 Bft) W-SW 246 ° 1 min 0,000 mm 7,5 UV-I 954 W/m² 13,5 °C 27,2 °C 8,0 km/h (2 Bft)
21.06.2017 12:24 27,2 °C 27,2 °C 46 % 1013,4 hPa 0,0 mm 3,0 km/h (1 Bft) W-SW 253 ° 1 min 0,000 mm 7,4 UV-I 944 W/m² 14,6 °C 27,2 °C 6,4 km/h (2 Bft)
21.06.2017 12:25 27,3 °C 27,3 °C 50 % 1013,4 hPa 0,0 mm 6,4 km/h (2 Bft) W-NW 298 ° 1 min 0,000 mm 7,3 UV-I 933 W/m² 15,9 °C 27,3 °C 9,7 km/h (2 Bft)
21.06.2017 12:26 27,3 °C 27,3 °C 48 % 1013,3 hPa 0,0 mm 4,2 km/h (1 Bft) W-NW 296 ° 1 min 0,000 mm 7,1 UV-I 870 W/m² 15,3 °C 27,3 °C 8,0 km/h (2 Bft)
21.06.2017 12:27 27,3 °C 27,3 °C 49 % 1013,4 hPa 0,0 mm 9,9 km/h (2 Bft) W-NW 299 ° 1 min 0,000 mm 7,0 UV-I 860 W/m² 15,6 °C 27,3 °C 12,9 km/h (3 Bft)
21.06.2017 12:28 27,3 °C 27,4 °C 46 % 1013,5 hPa 0,0 mm 8,1 km/h (2 Bft) W-NW 292 ° 1 min 0,000 mm 6,8 UV-I 795 W/m² 14,6 °C 27,3 °C 12,9 km/h (3 Bft)
21.06.2017 12:29 27,3 °C 27,3 °C 51 % 1013,4 hPa 0,0 mm 4,6 km/h (1 Bft) W 279 ° 1 min 0,000 mm 7,0 UV-I 851 W/m² 16,3 °C 27,3 °C 6,4 km/h (2 Bft)
21.06.2017 12:30 27,3 °C 27,3 °C 46 % 1013,4 hPa 0,0 mm 8,2 km/h (2 Bft) W-NW 288 ° 1 min 0,000 mm 7,5 UV-I 939 W/m² 14,6 °C 27,3 °C 11,3 km/h (2 Bft)
21.06.2017 12:31 27,3 °C 27,3 °C 47 % 1013,4 hPa 0,0 mm 10,1 km/h (2 Bft) W-NW 286 ° 1 min 0,000 mm 7,5 UV-I 947 W/m² 15,0 °C 27,3 °C 14,5 km/h (3 Bft)
21.06.2017 12:32 27,3 °C 27,3 °C 52 % 1013,4 hPa 0,0 mm 7,4 km/h (2 Bft) W-NW 303 ° 1 min 0,000 mm 7,5 UV-I 951 W/m² 16,6 °C 27,3 °C 11,3 km/h (2 Bft)
21.06.2017 12:33 27,3 °C 27,3 °C 50 % 1013,5 hPa 0,0 mm 5,8 km/h (2 Bft) NW 310 ° 1 min 0,000 mm 7,5 UV-I 958 W/m² 15,9 °C 27,3 °C 9,7 km/h (2 Bft)
21.06.2017 12:34 27,4 °C 27,4 °C 44 % 1013,4 hPa 0,0 mm 3,5 km/h (1 Bft) N-NW 330 ° 1 min 0,000 mm 7,2 UV-I 881 W/m² 14,0 °C 27,4 °C 4,8 km/h (1 Bft)
21.06.2017 12:35 27,4 °C 27,4 °C 49 % 1013,4 hPa 0,0 mm 2,9 km/h (1 Bft) N-NW 329 ° 1 min 0,000 mm 7,4 UV-I 930 W/m² 15,7 °C 27,4 °C 6,4 km/h (2 Bft)
21.06.2017 12:36 27,4 °C 27,4 °C 46 % 1013,4 hPa 0,0 mm 4,5 km/h (1 Bft) W-NW 289 ° 1 min 0,000 mm 7,2 UV-I 893 W/m² 14,7 °C 27,4 °C 6,4 km/h (2 Bft)
21.06.2017 12:37 27,3 °C 27,4 °C 43 % 1013,3 hPa 0,0 mm 2,8 km/h (1 Bft) O-SO 123 ° 1 min 0,000 mm 7,2 UV-I 888 W/m² 13,6 °C 27,3 °C 4,8 km/h (1 Bft)
21.06.2017 12:38 27,3 °C 27,3 °C 46 % 1013,3 hPa 0,0 mm 3,8 km/h (1 Bft) SW 228 ° 1 min 0,000 mm 7,6 UV-I 949 W/m² 14,6 °C 27,3 °C 6,4 km/h (2 Bft)
21.06.2017 12:39 27,4 °C 27,4 °C 49 % 1013,3 hPa 0,0 mm 4,8 km/h (1 Bft) W-SW 244 ° 1 min 0,000 mm 7,6 UV-I 946 W/m² 15,7 °C 27,4 °C 11,3 km/h (2 Bft)
21.06.2017 12:40 27,5 °C 27,5 °C 49 % 1013,3 hPa 0,0 mm 3,6 km/h (1 Bft) W-SW 247 ° 1 min 0,000 mm 7,5 UV-I 912 W/m² 15,8 °C 27,5 °C 6,4 km/h (2 Bft)
21.06.2017 12:41 27,6 °C 27,6 °C 49 % 1013,3 hPa 0,0 mm 5,6 km/h (1 Bft) W-NW 286 ° 1 min 0,000 mm 7,5 UV-I 918 W/m² 15,9 °C 27,6 °C 9,7 km/h (2 Bft)
21.06.2017 12:42 27,7 °C 27,7 °C 50 % 1013,3 hPa 0,0 mm 8,4 km/h (2 Bft) NW 316 ° 1 min 0,000 mm 7,6 UV-I 946 W/m² 16,3 °C 27,7 °C 12,9 km/h (3 Bft)
21.06.2017 12:43 27,7 °C 27,7 °C 48 % 1013,3 hPa 0,0 mm 7,8 km/h (2 Bft) NW 321 ° 1 min 0,000 mm 7,4 UV-I 921 W/m² 15,7 °C 27,7 °C 12,9 km/h (3 Bft)
21.06.2017 12:44 27,8 °C 27,8 °C 48 % 1013,3 hPa 0,0 mm 8,7 km/h (2 Bft) W 274 ° 1 min 0,000 mm 7,3 UV-I 916 W/m² 15,8 °C 27,8 °C 14,5 km/h (3 Bft)
21.06.2017 12:45 27,8 °C 27,8 °C 46 % 1013,3 hPa 0,0 mm 6,8 km/h (2 Bft) NW 314 ° 1 min 0,000 mm 7,4 UV-I 926 W/m² 15,1 °C 27,8 °C 12,9 km/h (3 Bft)
21.06.2017 12:46 27,7 °C 27,8 °C 43 % 1013,3 hPa 0,0 mm 7,8 km/h (2 Bft) W 275 ° 1 min 0,000 mm 5,5 UV-I 926 W/m² 14,0 °C 27,7 °C 12,9 km/h (3 Bft)
21.06.2017 12:47 27,6 °C 27,7 °C 42 % 1013,2 hPa 0,0 mm 7,8 km/h (2 Bft) W 277 ° 0 min 0,000 mm 4,7 UV-I 183 W/m² 13,5 °C 27,6 °C 12,9 km/h (3 Bft)
21.06.2017 12:48 27,4 °C 27,6 °C 45 % 1013,2 hPa 0,0 mm 6,9 km/h (2 Bft) W-NW 291 ° 0 min 0,000 mm 7,6 UV-I 183 W/m² 14,4 °C 27,4 °C 12,9 km/h (3 Bft)
21.06.2017 12:49 27,3 °C 27,4 °C 43 % 1013,2 hPa 0,0 mm 5,3 km/h (1 Bft) NW 304 ° 1 min 0,000 mm 7,5 UV-I 940 W/m² 13,6 °C 27,3 °C 6,4 km/h (2 Bft)
21.06.2017 12:50 27,3 °C 27,3 °C 46 % 1013,2 hPa 0,0 mm 7,0 km/h (2 Bft) NW 324 ° 1 min 0,000 mm 7,4 UV-I 886 W/m² 14,6 °C 27,3 °C 11,3 km/h (2 Bft)
21.06.2017 12:51 27,3 °C 27,3 °C 43 % 1013,2 hPa 0,0 mm 6,9 km/h (2 Bft) NW 319 ° 1 min 0,000 mm 7,4 UV-I 914 W/m² 13,6 °C 27,3 °C 9,7 km/h (2 Bft)
21.06.2017 12:52 27,4 °C 27,4 °C 46 % 1013,2 hPa 0,0 mm 9,0 km/h (2 Bft) N-NW 334 ° 1 min 0,000 mm 7,5 UV-I 914 W/m² 14,7 °C 27,4 °C 14,5 km/h (3 Bft)
21.06.2017 12:53 27,4 °C 27,4 °C 42 % 1013,1 hPa 0,0 mm 8,2 km/h (2 Bft) W-NW 302 ° 1 min 0,000 mm 7,6 UV-I 932 W/m² 13,3 °C 27,4 °C 12,9 km/h (3 Bft)
21.06.2017 12:54 27,5 °C 27,5 °C 43 % 1013,1 hPa 0,0 mm 7,0 km/h (2 Bft) W 259 ° 1 min 0,000 mm 7,5 UV-I 928 W/m² 13,8 °C 27,5 °C 11,3 km/h (2 Bft)
21.06.2017 12:55 27,6 °C 27,6 °C 50 % 1013,1 hPa 0,0 mm 6,5 km/h (2 Bft) W-NW 296 ° 1 min 0,000 mm 7,5 UV-I 930 W/m² 16,2 °C 27,6 °C 9,7 km/h (2 Bft)
21.06.2017 12:56 27,7 °C 27,7 °C 47 % 1013,1 hPa 0,0 mm 4,0 km/h (1 Bft) W-SW 246 ° 1 min 0,000 mm 7,5 UV-I 926 W/m² 15,3 °C 27,7 °C 8,0 km/h (2 Bft)
21.06.2017 12:57 27,7 °C 27,7 °C 45 % 1013,1 hPa 0,0 mm 6,2 km/h (2 Bft) NW 306 ° 1 min 0,000 mm 7,5 UV-I 923 W/m² 14,7 °C 27,7 °C 12,9 km/h (3 Bft)
21.06.2017 12:58 27,8 °C 27,8 °C 47 % 1013,1 hPa 0,0 mm 7,3 km/h (2 Bft) W-NW 298 ° 1 min 0,000 mm 7,5 UV-I 918 W/m² 15,4 °C 27,8 °C 11,3 km/h (2 Bft)
21.06.2017 12:59 27,8 °C 27,8 °C 48 % 1013,1 hPa 0,0 mm 5,2 km/h (1 Bft) W 281 ° 1 min 0,000 mm 7,5 UV-I 919 W/m² 15,8 °C 27,8 °C 8,0 km/h (2 Bft)
21.06.2017 13:00 27,8 °C 27,8 °C 45 % 1013,1 hPa 0,0 mm 8,0 km/h (2 Bft) N-NW 338 ° 1 min 0,000 mm 7,5 UV-I 914 W/m² 14,8 °C 27,8 °C 12,9 km/h (3 Bft)
21.06.2017 13:01 27,6 °C 27,8 °C 46 % 1013,1 hPa 0,0 mm 5,4 km/h (1 Bft) NW 317 ° 1 min 0,610 mm 7,4 UV-I 898 W/m² 14,9 °C 27,6 °C 9,7 km/h (2 Bft)
21.06.2017 13:02 27,6 °C 27,7 °C 49 % 1013,1 hPa 0,0 mm 6,6 km/h (2 Bft) W-NW 287 ° 1 min 0,000 mm 7,4 UV-I 902 W/m² 15,9 °C 27,6 °C 8,0 km/h (2 Bft)
21.06.2017 13:03 27,7 °C 27,7 °C 49 % 1013,1 hPa 0,0 mm 9,9 km/h (2 Bft) W 269 ° 1 min 0,000 mm 7,3 UV-I 895 W/m² 16,0 °C 27,7 °C 12,9 km/h (3 Bft)
21.06.2017 13:04 27,7 °C 27,7 °C 49 % 1013,1 hPa 0,0 mm 6,7 km/h (2 Bft) N-NW 336 ° 1 min 0,000 mm 7,3 UV-I 895 W/m² 16,0 °C 27,7 °C 11,3 km/h (2 Bft)
21.06.2017 13:05 27,7 °C 27,7 °C 48 % 1013,1 hPa 0,0 mm 7,2 km/h (2 Bft) W 276 ° 1 min 0,000 mm 7,0 UV-I 884 W/m² 15,7 °C 27,7 °C 11,3 km/h (2 Bft)
21.06.2017 13:06 27,5 °C 27,7 °C 44 % 1013,1 hPa 0,0 mm 4,3 km/h (1 Bft) W 281 ° 1 min 0,000 mm 7,3 UV-I 893 W/m² 14,1 °C 27,5 °C 6,4 km/h (2 Bft)
21.06.2017 13:07 27,4 °C 27,5 °C 45 % 1013,1 hPa 0,0 mm 5,9 km/h (2 Bft) W-NW 298 ° 1 min 0,000 mm 7,4 UV-I 896 W/m² 14,4 °C 27,4 °C 6,4 km/h (2 Bft)
21.06.2017 13:08 27,3 °C 27,4 °C 46 % 1013,1 hPa 0,0 mm 6,6 km/h (2 Bft) W 259 ° 1 min 0,000 mm 7,4 UV-I 902 W/m² 14,6 °C 27,3 °C 16,1 km/h (3 Bft)
21.06.2017 13:09 27,3 °C 27,3 °C 51 % 1013,0 hPa 0,0 mm 9,2 km/h (2 Bft) S 185 ° 1 min 0,000 mm 7,5 UV-I 914 W/m² 16,3 °C 27,3 °C 12,9 km/h (3 Bft)
21.06.2017 13:10 27,4 °C 27,4 °C 45 % 1013,0 hPa 0,0 mm 9,0 km/h (2 Bft) SW 223 ° 1 min 0,000 mm 7,6 UV-I 921 W/m² 14,4 °C 27,4 °C 12,9 km/h (3 Bft)
21.06.2017 13:11 27,4 °C 27,4 °C 43 % 1013,1 hPa 0,0 mm 5,7 km/h (1 Bft) SW 221 ° 1 min 0,000 mm 7,6 UV-I 921 W/m² 13,7 °C 27,4 °C 11,3 km/h (2 Bft)
21.06.2017 13:12 27,5 °C 27,5 °C 44 % 1013,0 hPa 0,0 mm 7,8 km/h (2 Bft) W 272 ° 1 min 0,000 mm 7,6 UV-I 919 W/m² 14,1 °C 27,5 °C 14,5 km/h (3 Bft)
21.06.2017 13:13 27,5 °C 27,5 °C 42 % 1013,0 hPa 0,0 mm 6,4 km/h (2 Bft) W-SW 250 ° 1 min 0,000 mm 7,5 UV-I 916 W/m² 13,4 °C 27,5 °C 11,3 km/h (2 Bft)
21.06.2017 13:14 27,7 °C 27,7 °C 46 % 1013,1 hPa 0,0 mm 11,0 km/h (2 Bft) W-SW 252 ° 1 min 0,000 mm 7,6 UV-I 919 W/m² 15,0 °C 27,7 °C 20,9 km/h (4 Bft)
21.06.2017 13:15 27,7 °C 27,7 °C 41 % 1013,0 hPa 0,0 mm 14,0 km/h (3 Bft) W-NW 288 ° 1 min 0,000 mm 7,6 UV-I 918 W/m² 13,2 °C 27,7 °C 19,3 km/h (3 Bft)
21.06.2017 13:16 27,7 °C 27,7 °C 40 % 1013,0 hPa 0,0 mm 11,6 km/h (2 Bft) W-NW 292 ° 1 min 0,000 mm 7,6 UV-I 916 W/m² 12,9 °C 27,7 °C 14,5 km/h (3 Bft)
21.06.2017 13:17 27,7 °C 27,7 °C 38 % 1013,0 hPa 0,0 mm 9,1 km/h (2 Bft) W-NW 290 ° 1 min 0,000 mm 7,4 UV-I 909 W/m² 12,1 °C 27,7 °C 11,3 km/h (2 Bft)
21.06.2017 13:18 27,7 °C 27,7 °C 37 % 1013,0 hPa 0,0 mm 7,4 km/h (2 Bft) W-NW 286 ° 1 min 0,000 mm 7,5 UV-I 912 W/m² 11,7 °C 27,7 °C 11,3 km/h (2 Bft)
21.06.2017 13:19 27,7 °C 27,7 °C 38 % 1013,0 hPa 0,0 mm 6,7 km/h (2 Bft) W 278 ° 1 min 0,000 mm 7,5 UV-I 912 W/m² 12,1 °C 27,7 °C 9,7 km/h (2 Bft)
21.06.2017 13:20 27,8 °C 27,8 °C 47 % 1013,0 hPa 0,0 mm 6,7 km/h (2 Bft) W-SW 248 ° 1 min 0,000 mm 7,5 UV-I 918 W/m² 15,4 °C 27,8 °C 11,3 km/h (2 Bft)
21.06.2017 13:21 27,9 °C 27,9 °C 43 % 1012,9 hPa 0,0 mm 3,4 km/h (1 Bft) W 267 ° 1 min 0,000 mm 7,6 UV-I 925 W/m² 14,1 °C 27,9 °C 4,8 km/h (1 Bft)
21.06.2017 13:22 27,9 °C 27,9 °C 42 % 1012,9 hPa 0,0 mm 8,6 km/h (2 Bft) W-SW 244 ° 1 min 0,000 mm 7,6 UV-I 923 W/m² 13,8 °C 27,9 °C 16,1 km/h (3 Bft)
21.06.2017 13:23 27,9 °C 27,9 °C 43 % 1012,9 hPa 0,0 mm 12,6 km/h (3 Bft) W 259 ° 1 min 0,000 mm 7,5 UV-I 921 W/m² 14,1 °C 27,9 °C 16,1 km/h (3 Bft)
21.06.2017 13:24 27,9 °C 27,9 °C 44 % 1012,9 hPa 0,0 mm 10,6 km/h (2 Bft) NW 315 ° 1 min 0,000 mm 7,6 UV-I 925 W/m² 14,5 °C 27,9 °C 14,5 km/h (3 Bft)
21.06.2017 13:25 27,9 °C 28,0 °C 41 % 1012,9 hPa 0,0 mm 12,7 km/h (3 Bft) NW 315 ° 1 min 0,000 mm 7,6 UV-I 926 W/m² 13,4 °C 27,9 °C 17,7 km/h (3 Bft)
21.06.2017 13:26 27,9 °C 27,9 °C 39 % 1012,9 hPa 0,0 mm 10,8 km/h (2 Bft) W-NW 296 ° 1 min 0,000 mm 7,6 UV-I 935 W/m² 12,6 °C 27,9 °C 14,5 km/h (3 Bft)
21.06.2017 13:27 27,9 °C 27,9 °C 41 % 1012,9 hPa 0,0 mm 10,9 km/h (2 Bft) NW 325 ° 1 min 0,000 mm 7,7 UV-I 949 W/m² 13,4 °C 27,9 °C 14,5 km/h (3 Bft)
21.06.2017 13:28 27,9 °C 27,9 °C 42 % 1012,9 hPa 0,0 mm 6,7 km/h (2 Bft) W-SW 252 ° 1 min 0,000 mm 7,8 UV-I 960 W/m² 13,8 °C 27,9 °C 11,3 km/h (2 Bft)
21.06.2017 13:29 27,9 °C 27,9 °C 42 % 1012,9 hPa 0,0 mm 5,7 km/h (1 Bft) W-NW 287 ° 1 min 0,000 mm 7,9 UV-I 977 W/m² 13,8 °C 27,9 °C 9,7 km/h (2 Bft)
21.06.2017 13:30 27,8 °C 27,9 °C 41 % 1012,9 hPa 0,0 mm 6,6 km/h (2 Bft) NW 309 ° 1 min 0,000 mm 8,0 UV-I 997 W/m² 13,3 °C 27,8 °C 11,3 km/h (2 Bft)
21.06.2017 13:31 27,9 °C 27,9 °C 42 % 1012,9 hPa 0,0 mm 8,6 km/h (2 Bft) NW 309 ° 1 min 0,000 mm 8,1 UV-I 1023 W/m² 13,8 °C 27,9 °C 16,1 km/h (3 Bft)
21.06.2017 13:32 28,1 °C 28,1 °C 47 % 1012,9 hPa 0,0 mm 9,9 km/h (2 Bft) W-SW 249 ° 1 min 0,000 mm 8,1 UV-I 1027 W/m² 15,7 °C 28,1 °C 14,5 km/h (3 Bft)
21.06.2017 13:33 28,1 °C 28,1 °C 41 % 1012,9 hPa 0,0 mm 8,4 km/h (2 Bft) W 266 ° 1 min 0,000 mm 8,0 UV-I 1027 W/m² 13,6 °C 28,1 °C 16,1 km/h (3 Bft)
21.06.2017 13:34 28,0 °C 28,1 °C 42 % 1012,8 hPa 0,0 mm 5,9 km/h (2 Bft) NW 308 ° 1 min 0,000 mm 6,1 UV-I 1027 W/m² 13,9 °C 28,0 °C 11,3 km/h (2 Bft)
21.06.2017 13:35 28,0 °C 28,1 °C 46 % 1012,8 hPa 0,0 mm 5,3 km/h (1 Bft) W 269 ° 1 min 0,000 mm 5,2 UV-I 578 W/m² 15,3 °C 28,0 °C 8,0 km/h (2 Bft)
21.06.2017 13:36 28,0 °C 28,1 °C 46 % 1012,8 hPa 0,0 mm 5,7 km/h (1 Bft) W-SW 250 ° 1 min 0,000 mm 4,9 UV-I 515 W/m² 15,3 °C 28,0 °C 9,7 km/h (2 Bft)
21.06.2017 13:37 27,8 °C 28,0 °C 41 % 1012,8 hPa 0,0 mm 8,0 km/h (2 Bft) NW 316 ° 1 min 0,000 mm 5,2 UV-I 527 W/m² 13,3 °C 27,8 °C 11,3 km/h (2 Bft)
21.06.2017 13:38 27,7 °C 27,8 °C 45 % 1012,8 hPa 0,0 mm 4,6 km/h (1 Bft) W-NW 283 ° 1 min 0,000 mm 5,6 UV-I 631 W/m² 14,7 °C 27,7 °C 11,3 km/h (2 Bft)
21.06.2017 13:39 27,7 °C 27,7 °C 48 % 1012,7 hPa 0,0 mm 7,0 km/h (2 Bft) W 274 ° 1 min 0,000 mm 5,7 UV-I 677 W/m² 15,7 °C 27,7 °C 12,9 km/h (3 Bft)
21.06.2017 13:40 27,7 °C 27,7 °C 46 % 1012,8 hPa 0,0 mm 3,0 km/h (1 Bft) W-NW 282 ° 1 min 0,000 mm 6,3 UV-I 719 W/m² 15,0 °C 27,7 °C 6,4 km/h (2 Bft)
21.06.2017 13:41 27,7 °C 27,7 °C 46 % 1012,7 hPa 0,0 mm 6,2 km/h (2 Bft) W 274 ° 1 min 0,000 mm 6,3 UV-I 735 W/m² 15,0 °C 27,7 °C 9,7 km/h (2 Bft)
21.06.2017 13:42 27,8 °C 27,8 °C 47 % 1012,7 hPa 0,0 mm 5,1 km/h (1 Bft) W-NW 301 ° 1 min 0,000 mm 6,7 UV-I 775 W/m² 15,4 °C 27,8 °C 11,3 km/h (2 Bft)
21.06.2017 13:43 27,8 °C 27,8 °C 42 % 1012,7 hPa 0,0 mm 13,2 km/h (3 Bft) W 275 ° 1 min 0,000 mm 6,7 UV-I 837 W/m² 13,7 °C 27,8 °C 17,7 km/h (3 Bft)
21.06.2017 13:44 27,8 °C 27,8 °C 42 % 1012,7 hPa 0,0 mm 12,5 km/h (3 Bft) W-NW 284 ° 1 min 0,000 mm 6,5 UV-I 807 W/m² 13,7 °C 27,8 °C 19,3 km/h (3 Bft)
21.06.2017 13:45 27,7 °C 27,8 °C 39 % 1012,7 hPa 0,0 mm 8,4 km/h (2 Bft) W-NW 291 ° 1 min 0,000 mm 6,6 UV-I 768 W/m² 12,5 °C 27,7 °C 12,9 km/h (3 Bft)
21.06.2017 13:46 27,7 °C 27,7 °C 43 % 1012,7 hPa 0,0 mm 7,4 km/h (2 Bft) NW 325 ° 1 min 0,000 mm 6,9 UV-I 768 W/m² 14,0 °C 27,7 °C 11,3 km/h (2 Bft)
21.06.2017 13:47 27,7 °C 27,7 °C 43 % 1012,7 hPa 0,0 mm 5,4 km/h (1 Bft) W 273 ° 1 min 0,000 mm 6,8 UV-I 828 W/m² 14,0 °C 27,7 °C 9,7 km/h (2 Bft)
21.06.2017 13:48 27,7 °C 27,8 °C 41 % 1012,7 hPa 0,0 mm 10,4 km/h (2 Bft) W 275 ° 1 min 0,000 mm 6,7 UV-I 821 W/m² 13,2 °C 27,7 °C 16,1 km/h (3 Bft)
21.06.2017 13:49 27,7 °C 27,8 °C 42 % 1012,7 hPa 0,0 mm 9,1 km/h (2 Bft) NW 317 ° 1 min 0,000 mm 6,5 UV-I 793 W/m² 13,6 °C 27,7 °C 16,1 km/h (3 Bft)
21.06.2017 13:50 27,8 °C 27,8 °C 42 % 1012,6 hPa 0,0 mm 9,7 km/h (2 Bft) NW 311 ° 1 min 0,000 mm 6,3 UV-I 773 W/m² 13,7 °C 27,8 °C 14,5 km/h (3 Bft)
21.06.2017 13:51 27,8 °C 27,8 °C 42 % 1012,6 hPa 0,0 mm 6,9 km/h (2 Bft) NW 306 ° 1 min 0,000 mm 6,1 UV-I 747 W/m² 13,7 °C 27,8 °C 8,0 km/h (2 Bft)
21.06.2017 13:52 27,9 °C 27,9 °C 43 % 1012,6 hPa 0,0 mm 6,6 km/h (2 Bft) W-SW 253 ° 1 min 0,000 mm 6,3 UV-I 758 W/m² 14,1 °C 27,9 °C 9,7 km/h (2 Bft)
21.06.2017 13:53 27,9 °C 27,9 °C 44 % 1012,5 hPa 0,0 mm 4,2 km/h (1 Bft) W 279 ° 1 min 0,000 mm 6,3 UV-I 747 W/m² 14,5 °C 27,9 °C 6,4 km/h (2 Bft)
21.06.2017 13:54 27,8 °C 27,9 °C 39 % 1012,5 hPa 0,0 mm 4,8 km/h (1 Bft) N-NW 334 ° 1 min 0,000 mm 6,0 UV-I 735 W/m² 12,6 °C 27,8 °C 6,4 km/h (2 Bft)
21.06.2017 13:55 27,8 °C 27,8 °C 38 % 1012,5 hPa 0,0 mm 5,1 km/h (1 Bft) NW 307 ° 1 min 0,000 mm 5,9 UV-I 715 W/m² 12,2 °C 27,8 °C 8,0 km/h (2 Bft)
21.06.2017 13:56 27,8 °C 27,8 °C 39 % 1012,5 hPa 0,0 mm 4,4 km/h (1 Bft) W-NW 303 ° 1 min 0,000 mm 6,0 UV-I 721 W/m² 12,6 °C 27,8 °C 6,4 km/h (2 Bft)
21.06.2017 13:57 27,8 °C 27,8 °C 40 % 1012,5 hPa 0,0 mm 4,6 km/h (1 Bft) NW 309 ° 1 min 0,000 mm 5,8 UV-I 694 W/m² 12,9 °C 27,8 °C 8,0 km/h (2 Bft)
21.06.2017 13:58 27,7 °C 27,8 °C 43 % 1012,3 hPa 0,0 mm 6,0 km/h (2 Bft) W-NW 284 ° 1 min 0,000 mm 5,6 UV-I 656 W/m² 14,0 °C 27,7 °C 11,3 km/h (2 Bft)
21.06.2017 13:59 27,7 °C 27,7 °C 43 % 1012,4 hPa 0,0 mm 5,6 km/h (1 Bft) S-SO 154 ° 1 min 0,000 mm 5,8 UV-I 680 W/m² 14,0 °C 27,7 °C 8,0 km/h (2 Bft)
21.06.2017 14:00 27,7 °C 27,7 °C 40 % 1012,3 hPa 0,0 mm 14,8 km/h (3 Bft) W-SW 250 ° 1 min 0,000 mm 6,1 UV-I 763 W/m² 12,9 °C 27,7 °C 20,9 km/h (4 Bft)
21.06.2017 14:01 27,6 °C 27,7 °C 39 % 1012,4 hPa 0,0 mm 10,6 km/h (2 Bft) W-NW 286 ° 1 min 0,609 mm 6,1 UV-I 752 W/m² 12,4 °C 27,6 °C 14,5 km/h (3 Bft)
21.06.2017 14:02 27,6 °C 27,6 °C 39 % 1012,4 hPa 0,0 mm 5,4 km/h (1 Bft) N-NW 342 ° 1 min 0,000 mm 6,3 UV-I 816 W/m² 12,4 °C 27,6 °C 8,0 km/h (2 Bft)
21.06.2017 14:03 27,7 °C 27,7 °C 38 % 1012,4 hPa 0,0 mm 8,7 km/h (2 Bft) N-NW 327 ° 1 min 0,000 mm 5,9 UV-I 758 W/m² 12,1 °C 27,7 °C 14,5 km/h (3 Bft)
21.06.2017 14:04 27,7 °C 27,7 °C 40 % 1012,4 hPa 0,0 mm 6,3 km/h (2 Bft) N-NW 329 ° 1 min 0,000 mm 5,7 UV-I 705 W/m² 12,9 °C 27,7 °C 11,3 km/h (2 Bft)
21.06.2017 14:05 27,8 °C 27,8 °C 42 % 1012,4 hPa 0,0 mm 5,3 km/h (1 Bft) NW 324 ° 1 min 0,000 mm 5,6 UV-I 691 W/m² 13,7 °C 27,8 °C 8,0 km/h (2 Bft)
21.06.2017 14:06 27,8 °C 27,8 °C 40 % 1012,4 hPa 0,0 mm 6,9 km/h (2 Bft) W-NW 290 ° 1 min 0,000 mm 5,5 UV-I 691 W/m² 12,9 °C 27,8 °C 12,9 km/h (3 Bft)
21.06.2017 14:07 27,8 °C 27,8 °C 42 % 1012,3 hPa 0,0 mm 6,4 km/h (2 Bft) NW 323 ° 1 min 0,000 mm 5,2 UV-I 650 W/m² 13,7 °C 27,8 °C 11,3 km/h (2 Bft)
21.06.2017 14:08 27,8 °C 27,8 °C 42 % 1012,4 hPa 0,0 mm 8,9 km/h (2 Bft) NW 317 ° 1 min 0,000 mm 5,0 UV-I 547 W/m² 13,7 °C 27,8 °C 16,1 km/h (3 Bft)
21.06.2017 14:09 27,8 °C 27,8 °C 42 % 1012,4 hPa 0,0 mm 7,2 km/h (2 Bft) W-NW 298 ° 1 min 0,000 mm 4,4 UV-I 513 W/m² 13,7 °C 27,8 °C 11,3 km/h (2 Bft)
21.06.2017 14:10 27,7 °C 27,8 °C 39 % 1012,4 hPa 0,0 mm 8,2 km/h (2 Bft) NW 313 ° 1 min 0,000 mm 4,3 UV-I 494 W/m² 12,5 °C 27,7 °C 14,5 km/h (3 Bft)
21.06.2017 14:11 27,6 °C 27,7 °C 38 % 1012,4 hPa 0,0 mm 9,5 km/h (2 Bft) NW 315 ° 1 min 0,000 mm 4,2 UV-I 478 W/m² 12,0 °C 27,6 °C 14,5 km/h (3 Bft)
21.06.2017 14:12 27,6 °C 27,7 °C 43 % 1012,4 hPa 0,0 mm 8,5 km/h (2 Bft) NW 306 ° 1 min 0,000 mm 4,1 UV-I 462 W/m² 13,9 °C 27,6 °C 12,9 km/h (3 Bft)
21.06.2017 14:13 27,5 °C 27,6 °C 42 % 1012,4 hPa 0,0 mm 11,6 km/h (2 Bft) W-NW 294 ° 1 min 0,000 mm 3,9 UV-I 438 W/m² 13,4 °C 27,5 °C 16,1 km/h (3 Bft)
21.06.2017 14:14 27,4 °C 27,5 °C 44 % 1012,4 hPa 0,0 mm 8,4 km/h (2 Bft) W-SW 242 ° 1 min 0,000 mm 3,8 UV-I 399 W/m² 14,0 °C 27,4 °C 14,5 km/h (3 Bft)
21.06.2017 14:15 27,4 °C 27,4 °C 44 % 1012,5 hPa 0,0 mm 8,6 km/h (2 Bft) W-SW 252 ° 1 min 0,000 mm 3,5 UV-I 381 W/m² 14,0 °C 27,4 °C 16,1 km/h (3 Bft)
21.06.2017 14:16 27,2 °C 27,4 °C 41 % 1012,5 hPa 0,0 mm 1,9 km/h (1 Bft) W 259 ° 1 min 0,000 mm 3,5 UV-I 385 W/m² 12,8 °C 27,2 °C 4,8 km/h (1 Bft)
21.06.2017 14:17 27,2 °C 27,2 °C 40 % 1012,5 hPa 0,0 mm 8,4 km/h (2 Bft) W 266 ° 1 min 0,000 mm 3,5 UV-I 378 W/m² 12,4 °C 27,2 °C 12,9 km/h (3 Bft)
21.06.2017 14:18 27,1 °C 27,2 °C 40 % 1012,5 hPa 0,0 mm 6,0 km/h (2 Bft) W-NW 286 ° 1 min 0,000 mm 3,4 UV-I 366 W/m² 12,3 °C 27,1 °C 9,7 km/h (2 Bft)
21.06.2017 14:19 27,0 °C 27,1 °C 43 % 1012,5 hPa 0,0 mm 4,7 km/h (1 Bft) NW 313 ° 1 min 0,000 mm 3,3 UV-I 355 W/m² 13,3 °C 27,0 °C 8,0 km/h (2 Bft)
21.06.2017 14:20 26,9 °C 27,0 °C 43 % 1012,5 hPa 0,0 mm 4,8 km/h (1 Bft) W 279 ° 1 min 0,000 mm 3,2 UV-I 348 W/m² 13,2 °C 26,9 °C 6,4 km/h (2 Bft)
21.06.2017 14:21 26,9 °C 26,9 °C 45 % 1012,5 hPa 0,0 mm 6,2 km/h (2 Bft) W 269 ° 1 min 0,000 mm 3,1 UV-I 343 W/m² 13,9 °C 26,9 °C 11,3 km/h (2 Bft)
21.06.2017 14:22 26,8 °C 26,9 °C 46 % 1012,5 hPa 0,0 mm 5,6 km/h (1 Bft) W 281 ° 1 min 0,000 mm 3,1 UV-I 338 W/m² 14,2 °C 26,8 °C 12,9 km/h (3 Bft)
21.06.2017 14:23 26,8 °C 26,8 °C 44 % 1012,5 hPa 0,0 mm 6,1 km/h (2 Bft) W-NW 303 ° 1 min 0,000 mm 3,1 UV-I 334 W/m² 13,5 °C 26,8 °C 11,3 km/h (2 Bft)
21.06.2017 14:24 26,8 °C 26,8 °C 43 % 1012,5 hPa 0,0 mm 7,2 km/h (2 Bft) W-NW 290 ° 1 min 0,000 mm 3,1 UV-I 332 W/m² 13,2 °C 26,8 °C 9,7 km/h (2 Bft)
21.06.2017 14:25 26,8 °C 26,8 °C 45 % 1012,5 hPa 0,0 mm 4,6 km/h (1 Bft) W 277 ° 1 min 0,000 mm 3,0 UV-I 329 W/m² 13,9 °C 26,8 °C 6,4 km/h (2 Bft)
21.06.2017 14:26 26,7 °C 26,8 °C 43 % 1012,5 hPa 0,0 mm 4,2 km/h (1 Bft) W 275 ° 1 min 0,000 mm 3,0 UV-I 329 W/m² 13,1 °C 26,7 °C 6,4 km/h (2 Bft)
21.06.2017 14:27 26,7 °C 26,7 °C 44 % 1012,5 hPa 0,0 mm 4,0 km/h (1 Bft) NW 322 ° 1 min 0,000 mm 3,0 UV-I 329 W/m² 13,4 °C 26,7 °C 6,4 km/h (2 Bft)
21.06.2017 14:28 26,7 °C 26,7 °C 48 % 1012,5 hPa 0,0 mm 5,4 km/h (1 Bft) W-NW 302 ° 1 min 0,000 mm 3,0 UV-I 330 W/m² 14,8 °C 26,7 °C 8,0 km/h (2 Bft)
21.06.2017 14:29 26,7 °C 26,7 °C 45 % 1012,5 hPa 0,0 mm 5,6 km/h (1 Bft) W-NW 285 ° 1 min 0,000 mm 3,0 UV-I 329 W/m² 13,8 °C 26,7 °C 11,3 km/h (2 Bft)
21.06.2017 14:30 26,7 °C 26,7 °C 44 % 1012,5 hPa 0,0 mm 3,8 km/h (1 Bft) NW 324 ° 1 min 0,000 mm 3,0 UV-I 327 W/m² 13,4 °C 26,7 °C 9,7 km/h (2 Bft)
21.06.2017 14:31 26,6 °C 26,7 °C 48 % 1012,6 hPa 0,0 mm 4,0 km/h (1 Bft) NW 313 ° 1 min 0,000 mm 3,0 UV-I 323 W/m² 14,7 °C 26,6 °C 6,4 km/h (2 Bft)
21.06.2017 14:32 26,6 °C 26,6 °C 46 % 1012,6 hPa 0,0 mm 5,5 km/h (1 Bft) NW 304 ° 0 min 0,000 mm 2,9 UV-I 246 W/m² 14,0 °C 26,6 °C 11,3 km/h (2 Bft)
21.06.2017 14:33 26,6 °C 26,6 °C 43 % 1012,5 hPa 0,0 mm 5,2 km/h (1 Bft) W-NW 300 ° 1 min 0,000 mm 2,9 UV-I 323 W/m² 13,0 °C 26,6 °C 9,7 km/h (2 Bft)
21.06.2017 14:34 26,6 °C 26,6 °C 43 % 1012,6 hPa 0,0 mm 4,0 km/h (1 Bft) W-NW 292 ° 1 min 0,000 mm 2,9 UV-I 323 W/m² 13,0 °C 26,6 °C 4,8 km/h (1 Bft)
21.06.2017 14:35 26,7 °C 26,7 °C 44 % 1012,6 hPa 0,0 mm 4,0 km/h (1 Bft) W-NW 293 ° 1 min 0,000 mm 2,9 UV-I 323 W/m² 13,4 °C 26,7 °C 6,4 km/h (2 Bft)
21.06.2017 14:36 26,7 °C 26,7 °C 48 % 1012,6 hPa 0,0 mm 5,8 km/h (2 Bft) W 277 ° 1 min 0,000 mm 2,9 UV-I 322 W/m² 14,8 °C 26,7 °C 6,4 km/h (2 Bft)
21.06.2017 14:37 26,7 °C 26,7 °C 44 % 1012,6 hPa 0,0 mm 4,8 km/h (1 Bft) N-NW 342 ° 1 min 0,000 mm 2,8 UV-I 322 W/m² 13,4 °C 26,7 °C 6,4 km/h (2 Bft)
21.06.2017 14:38 26,6 °C 26,7 °C 48 % 1012,6 hPa 0,0 mm 7,1 km/h (2 Bft) NW 305 ° 1 min 0,000 mm 2,8 UV-I 320 W/m² 14,7 °C 26,6 °C 11,3 km/h (2 Bft)
21.06.2017 14:39 26,7 °C 26,7 °C 46 % 1012,6 hPa 0,0 mm 3,3 km/h (1 Bft) NW 319 ° 1 min 0,000 mm 2,8 UV-I 322 W/m² 14,1 °C 26,7 °C 8,0 km/h (2 Bft)
21.06.2017 14:40 26,7 °C 26,7 °C 46 % 1012,6 hPa 0,0 mm 6,3 km/h (2 Bft) W-NW 285 ° 1 min 0,000 mm 2,9 UV-I 325 W/m² 14,1 °C 26,7 °C 12,9 km/h (3 Bft)
21.06.2017 14:41 26,7 °C 26,7 °C 48 % 1012,6 hPa 0,0 mm 6,9 km/h (2 Bft) W 280 ° 1 min 0,000 mm 2,9 UV-I 330 W/m² 14,8 °C 26,7 °C 12,9 km/h (3 Bft)
21.06.2017 14:42 26,6 °C 26,7 °C 49 % 1012,6 hPa 0,0 mm 3,0 km/h (1 Bft) W-NW 292 ° 1 min 0,000 mm 2,9 UV-I 339 W/m² 15,0 °C 26,6 °C 4,8 km/h (1 Bft)
21.06.2017 14:43 26,6 °C 26,6 °C 51 % 1012,7 hPa 0,0 mm 1,1 km/h (1 Bft) W-SW 246 ° 1 min 0,000 mm 3,0 UV-I 350 W/m² 15,6 °C 26,6 °C 4,8 km/h (1 Bft)
21.06.2017 14:44 26,6 °C 26,6 °C 54 % 1012,6 hPa 0,0 mm 6,3 km/h (2 Bft) W 261 ° 1 min 0,000 mm 3,1 UV-I 364 W/m² 16,5 °C 26,6 °C 11,3 km/h (2 Bft)
21.06.2017 14:45 26,6 °C 26,6 °C 47 % 1012,6 hPa 0,0 mm 6,0 km/h (2 Bft) W-NW 284 ° 1 min 0,000 mm 3,2 UV-I 383 W/m² 14,3 °C 26,6 °C 9,7 km/h (2 Bft)
21.06.2017 14:46 26,6 °C 26,6 °C 46 % 1012,7 hPa 0,0 mm 2,9 km/h (1 Bft) W 259 ° 1 min 0,000 mm 3,2 UV-I 387 W/m² 14,0 °C 26,6 °C 4,8 km/h (1 Bft)
21.06.2017 14:47 26,6 °C 26,6 °C 43 % 1012,6 hPa 0,0 mm 4,8 km/h (1 Bft) W 280 ° 1 min 0,000 mm 3,3 UV-I 394 W/m² 13,0 °C 26,6 °C 9,7 km/h (2 Bft)
21.06.2017 14:48 26,6 °C 26,6 °C 44 % 1012,7 hPa 0,0 mm 3,6 km/h (1 Bft) W-NW 296 ° 1 min 0,000 mm 3,6 UV-I 429 W/m² 13,3 °C 26,6 °C 4,8 km/h (1 Bft)
21.06.2017 14:49 26,6 °C 26,7 °C 46 % 1012,6 hPa 0,0 mm 4,8 km/h (1 Bft) NW 320 ° 1 min 0,000 mm 3,7 UV-I 510 W/m² 14,0 °C 26,6 °C 6,4 km/h (2 Bft)
21.06.2017 14:50 26,8 °C 26,8 °C 49 % 1012,6 hPa 0,0 mm 3,6 km/h (1 Bft) NW 305 ° 1 min 0,000 mm 4,3 UV-I 555 W/m² 15,2 °C 26,8 °C 6,4 km/h (2 Bft)
21.06.2017 14:51 26,8 °C 26,8 °C 48 % 1012,7 hPa 0,0 mm 3,7 km/h (1 Bft) NW 325 ° 1 min 0,000 mm 4,6 UV-I 592 W/m² 14,9 °C 26,8 °C 6,4 km/h (2 Bft)
21.06.2017 14:52 26,9 °C 26,9 °C 46 % 1012,7 hPa 0,0 mm 5,3 km/h (1 Bft) NW 325 ° 1 min 0,000 mm 4,7 UV-I 621 W/m² 14,3 °C 26,9 °C 11,3 km/h (2 Bft)
21.06.2017 14:53 27,0 °C 27,0 °C 50 % 1012,6 hPa 0,0 mm 5,6 km/h (1 Bft) NW 318 ° 1 min 0,000 mm 4,8 UV-I 631 W/m² 15,7 °C 27,0 °C 9,7 km/h (2 Bft)
21.06.2017 14:54 27,1 °C 27,1 °C 47 % 1012,6 hPa 0,0 mm 4,8 km/h (1 Bft) W-NW 284 ° 1 min 0,000 mm 5,0 UV-I 673 W/m² 14,8 °C 27,1 °C 12,9 km/h (3 Bft)
21.06.2017 14:55 27,1 °C 27,1 °C 45 % 1012,6 hPa 0,0 mm 8,9 km/h (2 Bft) W-NW 284 ° 1 min 0,000 mm 4,9 UV-I 638 W/m² 14,1 °C 27,1 °C 12,9 km/h (3 Bft)
21.06.2017 14:56 27,2 °C 27,2 °C 42 % 1012,6 hPa 0,0 mm 6,4 km/h (2 Bft) W 279 ° 1 min 0,000 mm 4,7 UV-I 598 W/m² 13,2 °C 27,2 °C 11,3 km/h (2 Bft)
21.06.2017 14:57 27,2 °C 27,2 °C 41 % 1012,6 hPa 0,0 mm 12,4 km/h (3 Bft) W 271 ° 1 min 0,000 mm 4,6 UV-I 587 W/m² 12,8 °C 27,2 °C 16,1 km/h (3 Bft)
21.06.2017 14:58 27,2 °C 27,2 °C 45 % 1012,6 hPa 0,0 mm 7,9 km/h (2 Bft) N-NW 334 ° 1 min 0,000 mm 4,6 UV-I 573 W/m² 14,2 °C 27,2 °C 12,9 km/h (3 Bft)
21.06.2017 14:59 27,2 °C 27,2 °C 45 % 1012,6 hPa 0,0 mm 8,3 km/h (2 Bft) NW 308 ° 1 min 0,000 mm 4,5 UV-I 571 W/m² 14,2 °C 27,2 °C 11,3 km/h (2 Bft)
21.06.2017 15:00 27,3 °C 27,3 °C 46 % 1012,6 hPa 0,0 mm 5,7 km/h (1 Bft) NW 325 ° 1 min 0,000 mm 4,4 UV-I 534 W/m² 14,6 °C 27,3 °C 8,0 km/h (2 Bft)
21.06.2017 15:01 27,3 °C 27,3 °C 45 % 1012,6 hPa 0,0 mm 4,1 km/h (1 Bft) W-NW 300 ° 1 min 0,356 mm 4,3 UV-I 527 W/m² 14,3 °C 27,3 °C 6,4 km/h (2 Bft)
21.06.2017 15:02 27,4 °C 27,4 °C 49 % 1012,6 hPa 0,0 mm 7,5 km/h (2 Bft) W 276 ° 1 min 0,000 mm 4,3 UV-I 531 W/m² 15,7 °C 27,4 °C 11,3 km/h (2 Bft)
21.06.2017 15:03 27,4 °C 27,4 °C 45 % 1012,6 hPa 0,0 mm 6,9 km/h (2 Bft) W 267 ° 1 min 0,000 mm 4,3 UV-I 527 W/m² 14,4 °C 27,4 °C 11,3 km/h (2 Bft)
21.06.2017 15:04 27,3 °C 27,4 °C 43 % 1012,5 hPa 0,0 mm 11,3 km/h (2 Bft) W-SW 258 ° 1 min 0,000 mm 4,3 UV-I 529 W/m² 13,6 °C 27,3 °C 14,5 km/h (3 Bft)
21.06.2017 15:05 27,3 °C 27,3 °C 45 % 1012,5 hPa 0,0 mm 6,5 km/h (2 Bft) W-NW 288 ° 1 min 0,000 mm 4,4 UV-I 543 W/m² 14,3 °C 27,3 °C 8,0 km/h (2 Bft)
21.06.2017 15:06 27,3 °C 27,3 °C 48 % 1012,6 hPa 0,0 mm 6,0 km/h (2 Bft) W-NW 296 ° 1 min 0,000 mm 4,6 UV-I 584 W/m² 15,3 °C 27,3 °C 8,0 km/h (2 Bft)
21.06.2017 15:07 27,4 °C 27,4 °C 47 % 1012,6 hPa 0,0 mm 3,1 km/h (1 Bft) NW 311 ° 1 min 0,000 mm 4,6 UV-I 577 W/m² 15,1 °C 27,4 °C 6,4 km/h (2 Bft)
21.06.2017 15:08 27,4 °C 27,4 °C 45 % 1012,6 hPa 0,0 mm 4,4 km/h (1 Bft) W 270 ° 1 min 0,000 mm 4,7 UV-I 598 W/m² 14,4 °C 27,4 °C 6,4 km/h (2 Bft)
21.06.2017 15:09 27,4 °C 27,4 °C 46 % 1012,5 hPa 0,0 mm 2,3 km/h (1 Bft) W 273 ° 1 min 0,000 mm 4,4 UV-I 557 W/m² 14,7 °C 27,4 °C 6,4 km/h (2 Bft)
21.06.2017 15:10 27,4 °C 27,4 °C 48 % 1012,5 hPa 0,0 mm 6,1 km/h (2 Bft) W-NW 289 ° 1 min 0,000 mm 4,3 UV-I 519 W/m² 15,4 °C 27,4 °C 8,0 km/h (2 Bft)
21.06.2017 15:11 27,5 °C 27,5 °C 51 % 1012,5 hPa 0,0 mm 6,1 km/h (2 Bft) W 275 ° 1 min 0,000 mm 4,1 UV-I 492 W/m² 16,4 °C 27,5 °C 9,7 km/h (2 Bft)
21.06.2017 15:12 27,4 °C 27,5 °C 45 % 1012,4 hPa 0,0 mm 4,6 km/h (1 Bft) NW 307 ° 1 min 0,000 mm 4,2 UV-I 501 W/m² 14,4 °C 27,4 °C 6,4 km/h (2 Bft)
21.06.2017 15:13 27,4 °C 27,4 °C 45 % 1012,4 hPa 0,0 mm 4,7 km/h (1 Bft) W-NW 301 ° 1 min 0,000 mm 4,0 UV-I 480 W/m² 14,4 °C 27,4 °C 8,0 km/h (2 Bft)
21.06.2017 15:14 27,4 °C 27,4 °C 47 % 1012,4 hPa 0,0 mm 4,2 km/h (1 Bft) W-NW 300 ° 1 min 0,000 mm 3,8 UV-I 446 W/m² 15,1 °C 27,4 °C 6,4 km/h (2 Bft)
21.06.2017 15:15 27,3 °C 27,4 °C 46 % 1012,5 hPa 0,0 mm 5,8 km/h (2 Bft) NW 309 ° 1 min 0,000 mm 3,7 UV-I 406 W/m² 14,6 °C 27,3 °C 8,0 km/h (2 Bft)
21.06.2017 15:16 27,3 °C 27,3 °C 46 % 1012,5 hPa 0,0 mm 5,0 km/h (1 Bft) W-NW 302 ° 1 min 0,000 mm 3,7 UV-I 406 W/m² 14,6 °C 27,3 °C 6,4 km/h (2 Bft)
21.06.2017 15:17 27,2 °C 27,3 °C 44 % 1012,4 hPa 0,0 mm 6,8 km/h (2 Bft) N-NW 348 ° 1 min 0,000 mm 3,7 UV-I 427 W/m² 13,9 °C 27,2 °C 11,3 km/h (2 Bft)
21.06.2017 15:18 27,2 °C 27,2 °C 46 % 1012,4 hPa 0,0 mm 8,3 km/h (2 Bft) NW 315 ° 1 min 0,000 mm 3,8 UV-I 452 W/m² 14,6 °C 27,2 °C 12,9 km/h (3 Bft)
21.06.2017 15:19 27,1 °C 27,2 °C 47 % 1012,4 hPa 0,0 mm 7,8 km/h (2 Bft) N-NW 333 ° 1 min 0,000 mm 3,9 UV-I 450 W/m² 14,8 °C 27,1 °C 14,5 km/h (3 Bft)
21.06.2017 15:20 27,1 °C 27,1 °C 46 % 1012,4 hPa 0,0 mm 5,5 km/h (1 Bft) NW 315 ° 1 min 0,000 mm 3,7 UV-I 429 W/m² 14,5 °C 27,1 °C 9,7 km/h (2 Bft)
21.06.2017 15:21 27,1 °C 27,1 °C 46 % 1012,4 hPa 0,0 mm 3,2 km/h (1 Bft) W-NW 295 ° 1 min 0,000 mm 3,6 UV-I 403 W/m² 14,5 °C 27,1 °C 6,4 km/h (2 Bft)
21.06.2017 15:22 27,1 °C 27,1 °C 50 % 1012,4 hPa 0,0 mm 6,3 km/h (2 Bft) NW 313 ° 1 min 0,000 mm 3,5 UV-I 390 W/m² 15,8 °C 27,1 °C 11,3 km/h (2 Bft)
21.06.2017 15:23 27,0 °C 27,1 °C 49 % 1012,4 hPa 0,0 mm 5,3 km/h (1 Bft) W-NW 289 ° 1 min 0,000 mm 3,5 UV-I 376 W/m² 15,4 °C 27,0 °C 9,7 km/h (2 Bft)
21.06.2017 15:24 26,9 °C 27,0 °C 46 % 1012,4 hPa 0,0 mm 3,5 km/h (1 Bft) NW 320 ° 1 min 0,000 mm 3,4 UV-I 371 W/m² 14,3 °C 26,9 °C 6,4 km/h (2 Bft)
21.06.2017 15:25 26,9 °C 26,9 °C 47 % 1012,4 hPa 0,0 mm 7,2 km/h (2 Bft) W-NW 301 ° 1 min 0,000 mm 3,4 UV-I 378 W/m² 14,6 °C 26,9 °C 12,9 km/h (3 Bft)
21.06.2017 15:26 26,8 °C 26,9 °C 48 % 1012,4 hPa 0,0 mm 6,6 km/h (2 Bft) W 271 ° 1 min 0,000 mm 3,4 UV-I 366 W/m² 14,9 °C 26,8 °C 9,7 km/h (2 Bft)
21.06.2017 15:27 26,8 °C 26,8 °C 48 % 1012,4 hPa 0,0 mm 4,6 km/h (1 Bft) NW 304 ° 1 min 0,000 mm 3,2 UV-I 338 W/m² 14,9 °C 26,8 °C 11,3 km/h (2 Bft)
21.06.2017 15:28 26,8 °C 26,8 °C 48 % 1012,4 hPa 0,0 mm 1,4 km/h (1 Bft) NW 304 ° 1 min 0,000 mm 3,2 UV-I 336 W/m² 14,9 °C 26,8 °C 3,2 km/h (1 Bft)
21.06.2017 15:29 26,8 °C 26,8 °C 50 % 1012,4 hPa 0,0 mm 5,1 km/h (1 Bft) W 280 ° 1 min 0,000 mm 3,1 UV-I 308 W/m² 15,5 °C 26,8 °C 11,3 km/h (2 Bft)
21.06.2017 15:30 26,7 °C 26,8 °C 46 % 1012,5 hPa 0,0 mm 8,9 km/h (2 Bft) W 273 ° 1 min 0,000 mm 3,1 UV-I 327 W/m² 14,1 °C 26,7 °C 11,3 km/h (2 Bft)
21.06.2017 15:31 26,7 °C 26,7 °C 49 % 1012,4 hPa 0,0 mm 3,3 km/h (1 Bft) NW 309 ° 1 min 0,000 mm 3,0 UV-I 302 W/m² 15,1 °C 26,7 °C 6,4 km/h (2 Bft)
21.06.2017 15:32 26,6 °C 26,7 °C 50 % 1012,5 hPa 0,0 mm 5,2 km/h (1 Bft) W-NW 297 ° 1 min 0,000 mm 3,0 UV-I 301 W/m² 15,3 °C 26,6 °C 8,0 km/h (2 Bft)
21.06.2017 15:33 26,6 °C 26,6 °C 49 % 1012,5 hPa 0,0 mm 6,0 km/h (2 Bft) NW 319 ° 1 min 0,000 mm 3,1 UV-I 313 W/m² 15,0 °C 26,6 °C 9,7 km/h (2 Bft)
21.06.2017 15:34 26,6 °C 26,6 °C 50 % 1012,4 hPa 0,0 mm 7,2 km/h (2 Bft) NW 309 ° 1 min 0,000 mm 3,1 UV-I 316 W/m² 15,3 °C 26,6 °C 11,3 km/h (2 Bft)
21.06.2017 15:35 26,6 °C 26,6 °C 51 % 1012,5 hPa 0,0 mm 5,1 km/h (1 Bft) NW 320 ° 1 min 0,000 mm 3,3 UV-I 392 W/m² 15,6 °C 26,6 °C 11,3 km/h (2 Bft)
21.06.2017 15:36 26,6 °C 26,6 °C 47 % 1012,5 hPa 0,0 mm 8,8 km/h (2 Bft) NW 323 ° 1 min 0,000 mm 3,5 UV-I 408 W/m² 14,3 °C 26,6 °C 12,9 km/h (3 Bft)
21.06.2017 15:37 26,7 °C 26,7 °C 47 % 1012,5 hPa 0,0 mm 5,4 km/h (1 Bft) NW 313 ° 1 min 0,000 mm 3,7 UV-I 434 W/m² 14,4 °C 26,7 °C 8,0 km/h (2 Bft)
21.06.2017 15:38 26,7 °C 26,7 °C 50 % 1012,5 hPa 0,0 mm 3,7 km/h (1 Bft) NW 321 ° 1 min 0,000 mm 3,9 UV-I 464 W/m² 15,4 °C 26,7 °C 6,4 km/h (2 Bft)
21.06.2017 15:39 26,7 °C 26,7 °C 51 % 1012,4 hPa 0,0 mm 4,5 km/h (1 Bft) W-NW 302 ° 1 min 0,000 mm 4,0 UV-I 496 W/m² 15,7 °C 26,7 °C 8,0 km/h (2 Bft)
21.06.2017 15:40 26,8 °C 26,8 °C 49 % 1012,4 hPa 0,0 mm 3,3 km/h (1 Bft) W-NW 291 ° 1 min 0,000 mm 3,8 UV-I 473 W/m² 15,2 °C 26,8 °C 8,0 km/h (2 Bft)
21.06.2017 15:41 26,8 °C 26,8 °C 48 % 1012,4 hPa 0,0 mm 4,4 km/h (1 Bft) W-NW 296 ° 1 min 0,000 mm 3,5 UV-I 401 W/m² 14,9 °C 26,8 °C 9,7 km/h (2 Bft)
21.06.2017 15:42 26,8 °C 26,8 °C 48 % 1012,4 hPa 0,0 mm 3,2 km/h (1 Bft) W-NW 286 ° 1 min 0,000 mm 3,6 UV-I 408 W/m² 14,9 °C 26,8 °C 4,8 km/h (1 Bft)
21.06.2017 15:43 26,8 °C 26,8 °C 48 % 1012,5 hPa 0,0 mm 2,6 km/h (1 Bft) NW 311 ° 1 min 0,000 mm 3,5 UV-I 378 W/m² 14,9 °C 26,8 °C 6,4 km/h (2 Bft)
21.06.2017 15:44 26,7 °C 26,8 °C 49 % 1012,5 hPa 0,0 mm 5,6 km/h (1 Bft) W-NW 302 ° 1 min 0,000 mm 3,5 UV-I 381 W/m² 15,1 °C 26,7 °C 11,3 km/h (2 Bft)
21.06.2017 15:45 26,7 °C 26,8 °C 48 % 1012,4 hPa 0,0 mm 4,3 km/h (1 Bft) NW 311 ° 1 min 0,000 mm 3,6 UV-I 403 W/m² 14,8 °C 26,7 °C 9,7 km/h (2 Bft)
21.06.2017 15:46 26,7 °C 26,7 °C 49 % 1012,4 hPa 0,0 mm 6,8 km/h (2 Bft) N-NO 17 ° 1 min 0,000 mm 3,7 UV-I 436 W/m² 15,1 °C 26,7 °C 9,7 km/h (2 Bft)
21.06.2017 15:47 26,8 °C 26,8 °C 50 % 1012,4 hPa 0,0 mm 6,1 km/h (2 Bft) N-NW 334 ° 1 min 0,000 mm 4,0 UV-I 510 W/m² 15,5 °C 26,8 °C 9,7 km/h (2 Bft)
21.06.2017 15:48 26,8 °C 26,8 °C 47 % 1012,4 hPa 0,0 mm 9,8 km/h (2 Bft) NW 317 ° 1 min 0,000 mm 4,1 UV-I 540 W/m² 14,5 °C 26,8 °C 14,5 km/h (3 Bft)
21.06.2017 15:49 26,8 °C 26,8 °C 46 % 1012,4 hPa 0,0 mm 8,0 km/h (2 Bft) NW 314 ° 1 min 0,000 mm 4,1 UV-I 517 W/m² 14,2 °C 26,8 °C 12,9 km/h (3 Bft)
21.06.2017 15:50 26,8 °C 26,8 °C 47 % 1012,4 hPa 0,0 mm 7,6 km/h (2 Bft) NW 319 ° 1 min 0,000 mm 4,1 UV-I 487 W/m² 14,5 °C 26,8 °C 12,9 km/h (3 Bft)
21.06.2017 15:51 26,8 °C 26,8 °C 44 % 1012,4 hPa 0,0 mm 4,0 km/h (1 Bft) NW 319 ° 1 min 0,000 mm 4,0 UV-I 490 W/m² 13,5 °C 26,8 °C 4,8 km/h (1 Bft)
21.06.2017 15:52 26,7 °C 26,8 °C 46 % 1012,4 hPa 0,0 mm 4,9 km/h (1 Bft) NW 306 ° 1 min 0,000 mm 3,8 UV-I 455 W/m² 14,1 °C 26,7 °C 8,0 km/h (2 Bft)
21.06.2017 15:53 26,8 °C 26,8 °C 46 % 1012,4 hPa 0,0 mm 4,2 km/h (1 Bft) N-NW 337 ° 1 min 0,000 mm 3,7 UV-I 401 W/m² 14,2 °C 26,8 °C 6,4 km/h (2 Bft)
21.06.2017 15:54 26,7 °C 26,8 °C 48 % 1012,4 hPa 0,0 mm 4,9 km/h (1 Bft) NW 304 ° 1 min 0,000 mm 3,4 UV-I 376 W/m² 14,8 °C 26,7 °C 8,0 km/h (2 Bft)
21.06.2017 15:55 26,7 °C 26,8 °C 48 % 1012,4 hPa 0,0 mm 3,6 km/h (1 Bft) NW 317 ° 1 min 0,000 mm 3,3 UV-I 348 W/m² 14,8 °C 26,7 °C 6,4 km/h (2 Bft)
21.06.2017 15:56 26,7 °C 26,7 °C 49 % 1012,4 hPa 0,0 mm 3,8 km/h (1 Bft) NW 325 ° 1 min 0,000 mm 3,2 UV-I 320 W/m² 15,1 °C 26,7 °C 8,0 km/h (2 Bft)
21.06.2017 15:57 26,7 °C 26,7 °C 48 % 1012,4 hPa 0,0 mm 2,3 km/h (1 Bft) N-NW 333 ° 1 min 0,000 mm 3,2 UV-I 320 W/m² 14,8 °C 26,7 °C 4,8 km/h (1 Bft)
21.06.2017 15:58 26,7 °C 26,7 °C 50 % 1012,4 hPa 0,0 mm 2,7 km/h (1 Bft) NW 309 ° 1 min 0,000 mm 3,1 UV-I 294 W/m² 15,4 °C 26,7 °C 3,2 km/h (1 Bft)
21.06.2017 15:59 26,6 °C 26,7 °C 48 % 1012,4 hPa 0,0 mm 4,9 km/h (1 Bft) W 281 ° 1 min 0,000 mm 3,4 UV-I 339 W/m² 14,7 °C 26,6 °C 11,3 km/h (2 Bft)
21.06.2017 16:00 26,5 °C 26,6 °C 50 % 1012,5 hPa 0,0 mm 5,3 km/h (1 Bft) NW 305 ° 1 min 0,330 mm 3,9 UV-I 473 W/m² 15,2 °C 26,5 °C 8,0 km/h (2 Bft)
21.06.2017 16:01 26,5 °C 26,5 °C 48 % 1012,4 hPa 0,0 mm 6,2 km/h (2 Bft) W-NW 288 ° 1 min 0,000 mm 4,2 UV-I 550 W/m² 14,6 °C 26,5 °C 11,3 km/h (2 Bft)
21.06.2017 16:02 26,4 °C 26,5 °C 49 % 1012,4 hPa 0,0 mm 8,7 km/h (2 Bft) W-NW 297 ° 1 min 0,000 mm 4,7 UV-I 631 W/m² 14,8 °C 26,4 °C 14,5 km/h (3 Bft)
21.06.2017 16:03 26,5 °C 26,5 °C 47 % 1012,5 hPa 0,0 mm 4,5 km/h (1 Bft) W-NW 296 ° 1 min 0,000 mm 5,1 UV-I 631 W/m² 14,3 °C 26,5 °C 11,3 km/h (2 Bft)
21.06.2017 16:04 26,5 °C 26,5 °C 48 % 1012,5 hPa 0,0 mm 5,9 km/h (2 Bft) W-NW 289 ° 1 min 0,000 mm 5,0 UV-I 749 W/m² 14,6 °C 26,5 °C 9,7 km/h (2 Bft)
21.06.2017 16:05 26,6 °C 26,6 °C 51 % 1012,5 hPa 0,0 mm 4,7 km/h (1 Bft) NW 304 ° 1 min 0,000 mm 4,8 UV-I 703 W/m² 15,6 °C 26,6 °C 6,4 km/h (2 Bft)
21.06.2017 16:06 26,7 °C 26,7 °C 50 % 1012,5 hPa 0,0 mm 7,0 km/h (2 Bft) W-NW 288 ° 1 min 0,000 mm 5,0 UV-I 733 W/m² 15,4 °C 26,7 °C 12,9 km/h (3 Bft)
21.06.2017 16:07 26,8 °C 26,8 °C 49 % 1012,5 hPa 0,0 mm 8,9 km/h (2 Bft) W-NW 291 ° 1 min 0,000 mm 4,9 UV-I 722 W/m² 15,2 °C 26,8 °C 14,5 km/h (3 Bft)
21.06.2017 16:08 26,8 °C 26,8 °C 47 % 1012,5 hPa 0,0 mm 6,4 km/h (2 Bft) W-NW 294 ° 1 min 0,000 mm 4,9 UV-I 728 W/m² 14,5 °C 26,8 °C 11,3 km/h (2 Bft)
21.06.2017 16:09 26,8 °C 26,8 °C 47 % 1012,5 hPa 0,0 mm 5,3 km/h (1 Bft) W 279 ° 1 min 0,000 mm 4,9 UV-I 728 W/m² 14,5 °C 26,8 °C 6,4 km/h (2 Bft)
21.06.2017 16:10 26,8 °C 26,8 °C 47 % 1012,5 hPa 0,0 mm 7,9 km/h (2 Bft) W 279 ° 1 min 0,000 mm 4,9 UV-I 722 W/m² 14,5 °C 26,8 °C 14,5 km/h (3 Bft)
21.06.2017 16:11 26,8 °C 26,8 °C 50 % 1012,5 hPa 0,0 mm 9,5 km/h (2 Bft) W-SW 251 ° 1 min 0,000 mm 4,8 UV-I 573 W/m² 15,5 °C 26,8 °C 14,5 km/h (3 Bft)
21.06.2017 16:12 26,8 °C 26,8 °C 46 % 1012,5 hPa 0,0 mm 4,4 km/h (1 Bft) N 355 ° 1 min 0,000 mm 3,9 UV-I 573 W/m² 14,2 °C 26,8 °C 6,4 km/h (2 Bft)
21.06.2017 16:13 26,9 °C 26,9 °C 49 % 1012,5 hPa 0,0 mm 7,2 km/h (2 Bft) NW 323 ° 1 min 0,000 mm 3,3 UV-I 573 W/m² 15,3 °C 26,9 °C 14,5 km/h (3 Bft)
21.06.2017 16:14 26,9 °C 26,9 °C 46 % 1012,5 hPa 0,0 mm 7,0 km/h (2 Bft) N-NW 329 ° 0 min 0,000 mm 3,0 UV-I 134 W/m² 14,3 °C 26,9 °C 9,7 km/h (2 Bft)
21.06.2017 16:15 26,9 °C 26,9 °C 48 % 1012,5 hPa 0,0 mm 3,7 km/h (1 Bft) NW 319 ° 0 min 0,000 mm 2,8 UV-I 127 W/m² 14,9 °C 26,9 °C 8,0 km/h (2 Bft)
21.06.2017 16:16 26,9 °C 26,9 °C 45 % 1012,5 hPa 0,0 mm 5,6 km/h (1 Bft) NW 316 ° 0 min 0,000 mm 2,8 UV-I 107 W/m² 13,9 °C 26,9 °C 8,0 km/h (2 Bft)
21.06.2017 16:17 26,9 °C 26,9 °C 45 % 1012,4 hPa 0,0 mm 3,3 km/h (1 Bft) N-NW 341 ° 0 min 0,000 mm 2,7 UV-I 107 W/m² 13,9 °C 26,9 °C 6,4 km/h (2 Bft)
21.06.2017 16:18 26,9 °C 26,9 °C 46 % 1012,5 hPa 0,0 mm 2,7 km/h (1 Bft) W-NW 283 ° 0 min 0,000 mm 2,7 UV-I 105 W/m² 14,3 °C 26,9 °C 4,8 km/h (1 Bft)
21.06.2017 16:19 26,9 °C 26,9 °C 46 % 1012,5 hPa 0,0 mm 6,2 km/h (2 Bft) NW 308 ° 0 min 0,000 mm 2,7 UV-I 104 W/m² 14,3 °C 26,9 °C 9,7 km/h (2 Bft)
21.06.2017 16:20 26,8 °C 26,9 °C 48 % 1012,4 hPa 0,0 mm 6,1 km/h (2 Bft) NW 312 ° 0 min 0,000 mm 2,7 UV-I 102 W/m² 14,9 °C 26,8 °C 8,0 km/h (2 Bft)
21.06.2017 16:21 26,8 °C 26,8 °C 49 % 1012,4 hPa 0,0 mm 2,5 km/h (1 Bft) N-NW 336 ° 0 min 0,000 mm 2,7 UV-I 102 W/m² 15,2 °C 26,8 °C 4,8 km/h (1 Bft)
21.06.2017 16:22 26,9 °C 26,9 °C 51 % 1012,4 hPa 0,0 mm 5,4 km/h (1 Bft) NW 326 ° 0 min 0,000 mm 2,6 UV-I 98 W/m² 15,9 °C 26,9 °C 8,0 km/h (2 Bft)
21.06.2017 16:23 26,9 °C 26,9 °C 47 % 1012,4 hPa 0,0 mm 5,0 km/h (1 Bft) NW 315 ° 0 min 0,000 mm 2,6 UV-I 97 W/m² 14,6 °C 26,9 °C 8,0 km/h (2 Bft)
21.06.2017 16:24 26,9 °C 26,9 °C 50 % 1012,3 hPa 0,0 mm 2,1 km/h (1 Bft) NW 315 ° 0 min 0,000 mm 2,6 UV-I 97 W/m² 15,6 °C 26,9 °C 3,2 km/h (1 Bft)
21.06.2017 16:25 26,9 °C 26,9 °C 48 % 1012,3 hPa 0,0 mm 3,2 km/h (1 Bft) NW 315 ° 0 min 0,000 mm 2,6 UV-I 95 W/m² 14,9 °C 26,9 °C 4,8 km/h (1 Bft)
21.06.2017 16:26 26,9 °C 26,9 °C 48 % 1012,3 hPa 0,0 mm 2,8 km/h (1 Bft) NW 320 ° 0 min 0,000 mm 2,6 UV-I 93 W/m² 14,9 °C 26,9 °C 3,2 km/h (1 Bft)
21.06.2017 16:27 26,9 °C 26,9 °C 49 % 1012,4 hPa 0,0 mm 3,9 km/h (1 Bft) NW 320 ° 0 min 0,000 mm 2,5 UV-I 91 W/m² 15,3 °C 26,9 °C 6,4 km/h (2 Bft)
21.06.2017 16:28 27,0 °C 27,0 °C 48 % 1012,3 hPa 0,0 mm 5,1 km/h (1 Bft) NW 304 ° 0 min 0,000 mm 2,5 UV-I 88 W/m² 15,0 °C 27,0 °C 6,4 km/h (2 Bft)
21.06.2017 16:29 27,1 °C 27,1 °C 43 % 1012,3 hPa 0,0 mm 6,4 km/h (2 Bft) W-NW 287 ° 0 min 0,000 mm 2,5 UV-I 86 W/m² 13,4 °C 27,1 °C 9,7 km/h (2 Bft)
21.06.2017 16:30 27,1 °C 27,1 °C 46 % 1012,3 hPa 0,0 mm 4,6 km/h (1 Bft) W-NW 283 ° 0 min 0,000 mm 2,5 UV-I 90 W/m² 14,5 °C 27,1 °C 6,4 km/h (2 Bft)
21.06.2017 16:31 27,1 °C 27,1 °C 46 % 1012,3 hPa 0,0 mm 6,0 km/h (2 Bft) W-NW 298 ° 0 min 0,000 mm 2,5 UV-I 91 W/m² 14,5 °C 27,1 °C 11,3 km/h (2 Bft)
21.06.2017 16:32 27,1 °C 27,1 °C 46 % 1012,3 hPa 0,0 mm 4,1 km/h (1 Bft) NW 322 ° 0 min 0,000 mm 2,5 UV-I 104 W/m² 14,5 °C 27,1 °C 4,8 km/h (1 Bft)
21.06.2017 16:33 27,1 °C 27,1 °C 46 % 1012,3 hPa 0,0 mm 4,4 km/h (1 Bft) NW 326 ° 0 min 0,000 mm 2,5 UV-I 97 W/m² 14,5 °C 27,1 °C 6,4 km/h (2 Bft)
21.06.2017 16:34 27,1 °C 27,1 °C 43 % 1012,3 hPa 0,0 mm 4,2 km/h (1 Bft) NW 323 ° 0 min 0,000 mm 2,5 UV-I 91 W/m² 13,4 °C 27,1 °C 6,4 km/h (2 Bft)
21.06.2017 16:35 27,1 °C 27,1 °C 46 % 1012,3 hPa 0,0 mm 6,4 km/h (2 Bft) NW 315 ° 0 min 0,000 mm 2,5 UV-I 120 W/m² 14,5 °C 27,1 °C 8,0 km/h (2 Bft)
21.06.2017 16:36 27,2 °C 27,2 °C 43 % 1012,3 hPa 0,0 mm 3,2 km/h (1 Bft) N 355 ° 0 min 0,000 mm 2,5 UV-I 137 W/m² 13,5 °C 27,2 °C 6,4 km/h (2 Bft)
21.06.2017 16:37 27,2 °C 27,2 °C 43 % 1012,2 hPa 0,0 mm 1,1 km/h (1 Bft) N 355 ° 0 min 0,000 mm 2,5 UV-I 130 W/m² 13,5 °C 27,2 °C 3,2 km/h (1 Bft)
21.06.2017 16:38 27,2 °C 27,2 °C 43 % 1012,2 hPa 0,0 mm 2,4 km/h (1 Bft) N 355 ° 0 min 0,000 mm 2,4 UV-I 93 W/m² 13,5 °C 27,2 °C 3,2 km/h (1 Bft)
21.06.2017 16:39 27,2 °C 27,2 °C 41 % 1012,2 hPa 0,0 mm 2,3 km/h (1 Bft) N-NW 338 ° 0 min 0,000 mm 2,4 UV-I 86 W/m² 12,8 °C 27,2 °C 4,8 km/h (1 Bft)
21.06.2017 16:40 27,2 °C 27,2 °C 44 % 1012,2 hPa 0,0 mm 4,0 km/h (1 Bft) NW 311 ° 0 min 0,000 mm 2,4 UV-I 88 W/m² 13,9 °C 27,2 °C 4,8 km/h (1 Bft)
21.06.2017 16:41 27,2 °C 27,2 °C 45 % 1012,2 hPa 0,0 mm 7,2 km/h (2 Bft) NW 319 ° 0 min 0,000 mm 2,4 UV-I 88 W/m² 14,2 °C 27,2 °C 11,3 km/h (2 Bft)
21.06.2017 16:42 27,2 °C 27,2 °C 44 % 1012,2 hPa 0,0 mm 3,4 km/h (1 Bft) W-NW 286 ° 0 min 0,000 mm 2,4 UV-I 88 W/m² 13,9 °C 27,2 °C 6,4 km/h (2 Bft)
21.06.2017 16:43 27,1 °C 27,2 °C 45 % 1012,2 hPa 0,0 mm 4,9 km/h (1 Bft) W-NW 294 ° 0 min 0,000 mm 2,4 UV-I 90 W/m² 14,1 °C 27,1 °C 6,4 km/h (2 Bft)
21.06.2017 16:44 27,1 °C 27,1 °C 46 % 1012,1 hPa 0,0 mm 4,4 km/h (1 Bft) NW 320 ° 0 min 0,000 mm 2,4 UV-I 90 W/m² 14,5 °C 27,1 °C 6,4 km/h (2 Bft)
21.06.2017 16:45 27,1 °C 27,1 °C 45 % 1012,2 hPa 0,0 mm 4,8 km/h (1 Bft) W-NW 283 ° 0 min 0,000 mm 2,4 UV-I 91 W/m² 14,1 °C 27,1 °C 6,4 km/h (2 Bft)
21.06.2017 16:46 27,1 °C 27,1 °C 49 % 1012,1 hPa 0,0 mm 4,2 km/h (1 Bft) W-NW 290 ° 0 min 0,000 mm 2,4 UV-I 91 W/m² 15,4 °C 27,1 °C 8,0 km/h (2 Bft)
21.06.2017 16:47 27,1 °C 27,1 °C 44 % 1012,2 hPa 0,0 mm 6,8 km/h (2 Bft) NW 304 ° 0 min 0,000 mm 2,4 UV-I 93 W/m² 13,8 °C 27,1 °C 9,7 km/h (2 Bft)
21.06.2017 16:48 27,1 °C 27,1 °C 45 % 1012,2 hPa 0,0 mm 6,0 km/h (2 Bft) N-NW 346 ° 0 min 0,000 mm 2,4 UV-I 93 W/m² 14,1 °C 27,1 °C 12,9 km/h (3 Bft)
21.06.2017 16:49 27,1 °C 27,1 °C 43 % 1012,2 hPa 0,0 mm 3,3 km/h (1 Bft) NW 317 ° 0 min 0,000 mm 2,3 UV-I 93 W/m² 13,4 °C 27,1 °C 4,8 km/h (1 Bft)
21.06.2017 16:50 27,1 °C 27,1 °C 45 % 1012,2 hPa 0,0 mm 3,6 km/h (1 Bft) N-NO 20 ° 0 min 0,000 mm 2,3 UV-I 93 W/m² 14,1 °C 27,1 °C 6,4 km/h (2 Bft)
21.06.2017 16:51 27,1 °C 27,1 °C 46 % 1012,2 hPa 0,0 mm 5,3 km/h (1 Bft) N 355 ° 0 min 0,000 mm 2,3 UV-I 93 W/m² 14,5 °C 27,1 °C 8,0 km/h (2 Bft)
21.06.2017 16:52 27,1 °C 27,2 °C 44 % 1012,2 hPa 0,0 mm 1,8 km/h (1 Bft) N 355 ° 0 min 0,000 mm 2,3 UV-I 95 W/m² 13,8 °C 27,1 °C 4,8 km/h (1 Bft)
21.06.2017 16:53 27,2 °C 27,2 °C 45 % 1012,1 hPa 0,0 mm 2,7 km/h (1 Bft) W-SW 248 ° 0 min 0,000 mm 2,3 UV-I 97 W/m² 14,2 °C 27,2 °C 4,8 km/h (1 Bft)
21.06.2017 16:54 27,1 °C 27,2 °C 47 % 1012,1 hPa 0,0 mm 4,5 km/h (1 Bft) W-SW 250 ° 0 min 0,000 mm 2,3 UV-I 97 W/m² 14,8 °C 27,1 °C 6,4 km/h (2 Bft)
21.06.2017 16:55 27,1 °C 27,2 °C 42 % 1012,1 hPa 0,0 mm 3,2 km/h (1 Bft) W-SW 250 ° 0 min 0,000 mm 2,3 UV-I 98 W/m² 13,1 °C 27,1 °C 4,8 km/h (1 Bft)
21.06.2017 16:56 27,1 °C 27,1 °C 45 % 1012,1 hPa 0,0 mm 1,7 km/h (1 Bft) W-SW 249 ° 0 min 0,000 mm 2,3 UV-I 98 W/m² 14,1 °C 27,1 °C 3,2 km/h (1 Bft)
21.06.2017 16:57 27,1 °C 27,1 °C 42 % 1012,1 hPa 0,0 mm 3,8 km/h (1 Bft) SW 219 ° 0 min 0,000 mm 2,3 UV-I 100 W/m² 13,1 °C 27,1 °C 4,8 km/h (1 Bft)
21.06.2017 16:58 27,1 °C 27,1 °C 40 % 1012,1 hPa 0,0 mm 2,8 km/h (1 Bft) S 186 ° 0 min 0,000 mm 2,3 UV-I 100 W/m² 12,3 °C 27,1 °C 4,8 km/h (1 Bft)
21.06.2017 16:59 27,1 °C 27,1 °C 41 % 1012,1 hPa 0,0 mm 1,6 km/h (1 Bft) S 186 ° 0 min 0,000 mm 2,3 UV-I 102 W/m² 12,7 °C 27,1 °C 3,2 km/h (1 Bft)
21.06.2017 17:00 27,1 °C 27,1 °C 44 % 1012,0 hPa 0,0 mm 1,1 km/h (1 Bft) S 187 ° 0 min 0,178 mm 2,3 UV-I 102 W/m² 13,8 °C 27,1 °C 1,6 km/h (1 Bft)
21.06.2017 17:01 27,2 °C 27,2 °C 43 % 1012,0 hPa 0,0 mm 0,3 km/h (0 Bft) S 187 ° 0 min 0,000 mm 2,3 UV-I 102 W/m² 13,5 °C 27,2 °C 1,6 km/h (1 Bft)
21.06.2017 17:02 27,2 °C 27,2 °C 46 % 1012,0 hPa 0,0 mm 3,4 km/h (1 Bft) W-SW 244 ° 0 min 0,000 mm 2,3 UV-I 104 W/m² 14,6 °C 27,2 °C 4,8 km/h (1 Bft)
21.06.2017 17:03 27,1 °C 27,2 °C 44 % 1012,0 hPa 0,0 mm 3,0 km/h (1 Bft) W-SW 244 ° 0 min 0,000 mm 2,3 UV-I 104 W/m² 13,8 °C 27,1 °C 4,8 km/h (1 Bft)
21.06.2017 17:04 27,1 °C 27,2 °C 45 % 1011,9 hPa 0,0 mm 3,0 km/h (1 Bft) NW 322 ° 0 min 0,000 mm 2,3 UV-I 105 W/m² 14,1 °C 27,1 °C 6,4 km/h (2 Bft)
21.06.2017 17:05 27,2 °C 27,2 °C 47 % 1011,9 hPa 0,0 mm 4,1 km/h (1 Bft) N 355 ° 0 min 0,000 mm 2,2 UV-I 105 W/m² 14,9 °C 27,2 °C 6,4 km/h (2 Bft)
21.06.2017 17:06 27,2 °C 27,2 °C 48 % 1011,9 hPa 0,0 mm 3,6 km/h (1 Bft) N 355 ° 0 min 0,000 mm 2,2 UV-I 105 W/m² 15,2 °C 27,2 °C 4,8 km/h (1 Bft)
21.06.2017 17:07 27,3 °C 27,3 °C 42 % 1011,9 hPa 0,0 mm 1,0 km/h (0 Bft) N 355 ° 0 min 0,000 mm 2,2 UV-I 104 W/m² 13,2 °C 27,3 °C 3,2 km/h (1 Bft)
21.06.2017 17:08 27,4 °C 27,4 °C 43 % 1011,9 hPa 0,0 mm 1,8 km/h (1 Bft) N-NW 340 ° 0 min 0,000 mm 2,2 UV-I 104 W/m² 13,7 °C 27,4 °C 3,2 km/h (1 Bft)
21.06.2017 17:09 27,4 °C 27,4 °C 45 % 1011,9 hPa 0,0 mm 1,4 km/h (1 Bft) N-NW 327 ° 0 min 0,000 mm 2,2 UV-I 104 W/m² 14,4 °C 27,4 °C 3,2 km/h (1 Bft)
21.06.2017 17:10 27,5 °C 27,5 °C 44 % 1011,8 hPa 0,0 mm 1,8 km/h (1 Bft) W 260 ° 0 min 0,000 mm 2,2 UV-I 111 W/m² 14,1 °C 27,5 °C 4,8 km/h (1 Bft)
21.06.2017 17:11 27,5 °C 27,5 °C 45 % 1011,8 hPa 0,0 mm 2,3 km/h (1 Bft) W-SW 249 ° 0 min 0,000 mm 2,2 UV-I 113 W/m² 14,5 °C 27,5 °C 4,8 km/h (1 Bft)
21.06.2017 17:12 27,5 °C 27,5 °C 45 % 1011,9 hPa 0,0 mm 4,2 km/h (1 Bft) NW 311 ° 0 min 0,000 mm 2,2 UV-I 104 W/m² 14,5 °C 27,5 °C 4,8 km/h (1 Bft)
21.06.2017 17:13 27,5 °C 27,5 °C 44 % 1011,8 hPa 0,0 mm 4,7 km/h (1 Bft) NW 324 ° 0 min 0,000 mm 2,2 UV-I 102 W/m² 14,1 °C 27,5 °C 6,4 km/h (2 Bft)
21.06.2017 17:14 27,5 °C 27,5 °C 43 % 1011,8 hPa 0,0 mm 3,3 km/h (1 Bft) NW 315 ° 0 min 0,000 mm 2,2 UV-I 100 W/m² 13,8 °C 27,5 °C 4,8 km/h (1 Bft)
21.06.2017 17:15 27,4 °C 27,5 °C 45 % 1011,8 hPa 0,0 mm 3,5 km/h (1 Bft) W-NW 299 ° 0 min 0,000 mm 2,1 UV-I 100 W/m² 14,4 °C 27,4 °C 4,8 km/h (1 Bft)
21.06.2017 17:16 27,4 °C 27,4 °C 45 % 1011,8 hPa 0,0 mm 3,4 km/h (1 Bft) W-NW 303 ° 0 min 0,000 mm 2,1 UV-I 98 W/m² 14,4 °C 27,4 °C 6,4 km/h (2 Bft)
21.06.2017 17:17 27,4 °C 27,4 °C 48 % 1011,8 hPa 0,0 mm 5,2 km/h (1 Bft) W-NW 292 ° 0 min 0,000 mm 2,1 UV-I 98 W/m² 15,4 °C 27,4 °C 6,4 km/h (2 Bft)
21.06.2017 17:18 27,4 °C 27,4 °C 41 % 1011,8 hPa 0,0 mm 3,6 km/h (1 Bft) W-NW 292 ° 0 min 0,000 mm 2,1 UV-I 100 W/m² 13,0 °C 27,4 °C 4,8 km/h (1 Bft)
21.06.2017 17:19 27,3 °C 27,4 °C 42 % 1011,8 hPa 0,0 mm 3,2 km/h (1 Bft) NW 306 ° 0 min 0,000 mm 2,1 UV-I 100 W/m² 13,2 °C 27,3 °C 4,8 km/h (1 Bft)
21.06.2017 17:20 27,4 °C 27,4 °C 45 % 1011,7 hPa 0,0 mm 3,8 km/h (1 Bft) NW 310 ° 0 min 0,000 mm 2,1 UV-I 100 W/m² 14,4 °C 27,4 °C 4,8 km/h (1 Bft)
21.06.2017 17:21 27,4 °C 27,4 °C 43 % 1011,8 hPa 0,0 mm 3,5 km/h (1 Bft) N-NO 17 ° 0 min 0,000 mm 2,1 UV-I 98 W/m² 13,7 °C 27,4 °C 6,4 km/h (2 Bft)
21.06.2017 17:22 27,4 °C 27,4 °C 42 % 1011,8 hPa 0,0 mm 7,3 km/h (2 Bft) N-NO 14 ° 0 min 0,000 mm 2,1 UV-I 98 W/m² 13,3 °C 27,4 °C 9,7 km/h (2 Bft)
21.06.2017 17:23 27,6 °C 27,6 °C 41 % 1011,8 hPa 0,0 mm 4,7 km/h (1 Bft) N-NO 18 ° 0 min 0,000 mm 2,0 UV-I 97 W/m² 13,1 °C 27,6 °C 6,4 km/h (2 Bft)
21.06.2017 17:24 27,6 °C 27,6 °C 42 % 1011,8 hPa 0,0 mm 1,5 km/h (1 Bft) N-NO 18 ° 0 min 0,000 mm 2,0 UV-I 97 W/m² 13,5 °C 27,6 °C 3,2 km/h (1 Bft)
21.06.2017 17:25 27,6 °C 27,6 °C 43 % 1011,8 hPa 0,0 mm 1,1 km/h (1 Bft) O-NO 69 ° 0 min 0,000 mm 2,0 UV-I 98 W/m² 13,9 °C 27,6 °C 3,2 km/h (1 Bft)
21.06.2017 17:26 27,5 °C 27,6 °C 44 % 1011,8 hPa 0,0 mm 3,0 km/h (1 Bft) N 5 ° 0 min 0,000 mm 2,0 UV-I 98 W/m² 14,1 °C 27,5 °C 4,8 km/h (1 Bft)
21.06.2017 17:27 27,5 °C 27,5 °C 42 % 1011,8 hPa 0,0 mm 4,7 km/h (1 Bft) NW 318 ° 0 min 0,000 mm 2,0 UV-I 93 W/m² 13,4 °C 27,5 °C 6,4 km/h (2 Bft)
21.06.2017 17:28 27,4 °C 27,5 °C 41 % 1011,8 hPa 0,0 mm 4,0 km/h (1 Bft) N 360 ° 0 min 0,000 mm 1,9 UV-I 88 W/m² 13,0 °C 27,4 °C 4,8 km/h (1 Bft)
21.06.2017 17:29 27,4 °C 27,4 °C 45 % 1011,8 hPa 0,0 mm 0,9 km/h (0 Bft) N 360 ° 0 min 0,000 mm 1,9 UV-I 90 W/m² 14,4 °C 27,4 °C 3,2 km/h (1 Bft)
21.06.2017 17:30 27,3 °C 27,4 °C 43 % 1011,8 hPa 0,0 mm 2,5 km/h (1 Bft) N 360 ° 0 min 0,000 mm 1,9 UV-I 93 W/m² 13,6 °C 27,3 °C 4,8 km/h (1 Bft)
21.06.2017 17:31 27,3 °C 27,3 °C 42 % 1011,8 hPa 0,0 mm 2,0 km/h (1 Bft) N 360 ° 0 min 0,000 mm 1,9 UV-I 98 W/m² 13,2 °C 27,3 °C 3,2 km/h (1 Bft)
21.06.2017 17:32 27,3 °C 27,3 °C 42 % 1011,8 hPa 0,0 mm 2,3 km/h (1 Bft) N 360 ° 0 min 0,000 mm 1,9 UV-I 105 W/m² 13,2 °C 27,3 °C 3,2 km/h (1 Bft)
21.06.2017 17:33 27,2 °C 27,3 °C 41 % 1011,8 hPa 0,0 mm 1,9 km/h (1 Bft) N 360 ° 0 min 0,000 mm 1,9 UV-I 118 W/m² 12,8 °C 27,2 °C 3,2 km/h (1 Bft)
21.06.2017 17:34 27,2 °C 27,2 °C 42 % 1011,9 hPa 0,0 mm 0,3 km/h (0 Bft) N 360 ° 0 min 0,000 mm 1,9 UV-I 121 W/m² 13,2 °C 27,2 °C 1,6 km/h (1 Bft)
21.06.2017 17:35 27,1 °C 27,2 °C 42 % 1011,9 hPa 0,0 mm 0,1 km/h (0 Bft) N 360 ° 0 min 0,000 mm 1,9 UV-I 125 W/m² 13,1 °C 27,1 °C 1,6 km/h (1 Bft)
21.06.2017 17:36 27,1 °C 27,1 °C 44 % 1011,8 hPa 0,0 mm 0,3 km/h (0 Bft) N 360 ° 0 min 0,000 mm 1,9 UV-I 134 W/m² 13,8 °C 27,1 °C 1,6 km/h (1 Bft)
21.06.2017 17:37 27,0 °C 27,1 °C 47 % 1011,9 hPa 0,0 mm 0,0 km/h (0 Bft) N 360 ° 0 min 0,000 mm 1,9 UV-I 139 W/m² 14,7 °C 27,0 °C 0,0 km/h (0 Bft)
21.06.2017 17:38 26,9 °C 27,0 °C 47 % 1011,9 hPa 0,0 mm 1,0 km/h (0 Bft) N-NW 333 ° 0 min 0,000 mm 1,9 UV-I 149 W/m² 14,6 °C 26,9 °C 4,8 km/h (1 Bft)
21.06.2017 17:39 26,9 °C 26,9 °C 48 % 1011,9 hPa 0,0 mm 4,0 km/h (1 Bft) NW 326 ° 0 min 0,000 mm 2,0 UV-I 153 W/m² 14,9 °C 26,9 °C 4,8 km/h (1 Bft)
21.06.2017 17:40 27,0 °C 27,0 °C 42 % 1011,9 hPa 0,0 mm 2,3 km/h (1 Bft) NW 326 ° 0 min 0,000 mm 2,0 UV-I 155 W/m² 13,0 °C 27,0 °C 3,2 km/h (1 Bft)
21.06.2017 17:41 27,1 °C 27,1 °C 43 % 1011,9 hPa 0,0 mm 3,3 km/h (1 Bft) NW 326 ° 0 min 0,000 mm 2,0 UV-I 156 W/m² 13,4 °C 27,1 °C 4,8 km/h (1 Bft)
21.06.2017 17:42 27,3 °C 27,3 °C 45 % 1011,9 hPa 0,0 mm 5,4 km/h (1 Bft) W-NW 289 ° 0 min 0,000 mm 2,0 UV-I 153 W/m² 14,3 °C 27,3 °C 9,7 km/h (2 Bft)
21.06.2017 17:43 27,3 °C 27,3 °C 40 % 1011,9 hPa 0,0 mm 4,2 km/h (1 Bft) W-NW 290 ° 0 min 0,000 mm 2,0 UV-I 144 W/m² 12,5 °C 27,3 °C 6,4 km/h (2 Bft)
21.06.2017 17:44 27,4 °C 27,4 °C 42 % 1011,9 hPa 0,0 mm 2,8 km/h (1 Bft) W-NW 290 ° 0 min 0,000 mm 2,0 UV-I 137 W/m² 13,3 °C 27,4 °C 4,8 km/h (1 Bft)
21.06.2017 17:45 27,4 °C 27,4 °C 40 % 1011,9 hPa 0,0 mm 1,5 km/h (1 Bft) W-NW 290 ° 0 min 0,000 mm 1,9 UV-I 134 W/m² 12,6 °C 27,4 °C 3,2 km/h (1 Bft)
21.06.2017 17:46 27,4 °C 27,4 °C 44 % 1011,9 hPa 0,0 mm 1,9 km/h (1 Bft) W-NW 290 ° 0 min 0,000 mm 1,9 UV-I 130 W/m² 14,0 °C 27,4 °C 3,2 km/h (1 Bft)
21.06.2017 17:47 27,4 °C 27,4 °C 42 % 1011,9 hPa 0,0 mm 1,5 km/h (1 Bft) W-NW 290 ° 0 min 0,000 mm 1,9 UV-I 125 W/m² 13,3 °C 27,4 °C 3,2 km/h (1 Bft)
21.06.2017 17:48 27,4 °C 27,4 °C 44 % 1011,8 hPa 0,0 mm 3,1 km/h (1 Bft) W 272 ° 0 min 0,000 mm 1,8 UV-I 116 W/m² 14,0 °C 27,4 °C 6,4 km/h (2 Bft)
21.06.2017 17:49 27,4 °C 27,4 °C 42 % 1011,8 hPa 0,0 mm 3,8 km/h (1 Bft) W-NW 282 ° 0 min 0,000 mm 1,8 UV-I 114 W/m² 13,3 °C 27,4 °C 6,4 km/h (2 Bft)
21.06.2017 17:50 27,4 °C 27,4 °C 45 % 1011,8 hPa 0,0 mm 2,5 km/h (1 Bft) W 281 ° 0 min 0,000 mm 1,8 UV-I 114 W/m² 14,4 °C 27,4 °C 4,8 km/h (1 Bft)
21.06.2017 17:51 27,3 °C 27,4 °C 47 % 1011,8 hPa 0,0 mm 1,7 km/h (1 Bft) W 280 ° 0 min 0,000 mm 1,7 UV-I 113 W/m² 15,0 °C 27,3 °C 4,8 km/h (1 Bft)
21.06.2017 17:52 27,3 °C 27,3 °C 47 % 1011,8 hPa 0,0 mm 3,0 km/h (1 Bft) W-NW 282 ° 0 min 0,000 mm 1,7 UV-I 113 W/m² 15,0 °C 27,3 °C 4,8 km/h (1 Bft)
21.06.2017 17:53 27,3 °C 27,3 °C 46 % 1011,9 hPa 0,0 mm 6,8 km/h (2 Bft) W 263 ° 0 min 0,000 mm 1,7 UV-I 109 W/m² 14,6 °C 27,3 °C 11,3 km/h (2 Bft)
21.06.2017 17:54 27,3 °C 27,3 °C 49 % 1011,8 hPa 0,0 mm 8,4 km/h (2 Bft) W 263 ° 0 min 0,000 mm 1,7 UV-I 107 W/m² 15,6 °C 27,3 °C 11,3 km/h (2 Bft)
21.06.2017 17:55 27,2 °C 27,3 °C 44 % 1011,9 hPa 0,0 mm 5,9 km/h (2 Bft) W 273 ° 0 min 0,000 mm 1,6 UV-I 105 W/m² 13,9 °C 27,2 °C 9,7 km/h (2 Bft)
21.06.2017 17:56 27,2 °C 27,2 °C 44 % 1011,9 hPa 0,0 mm 3,7 km/h (1 Bft) W-NW 300 ° 0 min 0,000 mm 1,6 UV-I 100 W/m² 13,9 °C 27,2 °C 6,4 km/h (2 Bft)
21.06.2017 17:57 27,2 °C 27,2 °C 45 % 1011,9 hPa 0,0 mm 3,5 km/h (1 Bft) W 264 ° 0 min 0,000 mm 1,5 UV-I 86 W/m² 14,2 °C 27,2 °C 6,4 km/h (2 Bft)
21.06.2017 17:58 27,2 °C 27,2 °C 46 % 1011,9 hPa 0,0 mm 4,5 km/h (1 Bft) W-SW 246 ° 0 min 0,000 mm 1,5 UV-I 83 W/m² 14,6 °C 27,2 °C 6,4 km/h (2 Bft)
21.06.2017 17:59 27,1 °C 27,2 °C 48 % 1011,9 hPa 0,0 mm 3,8 km/h (1 Bft) W-SW 254 ° 0 min 0,000 mm 1,4 UV-I 79 W/m² 15,1 °C 27,1 °C 6,4 km/h (2 Bft)
21.06.2017 18:00 26,9 °C 27,1 °C 48 % 1011,8 hPa 0,0 mm 1,5 km/h (1 Bft) W-SW 254 ° 0 min 0,000 mm 1,4 UV-I 76 W/m² 14,9 °C 26,9 °C 4,8 km/h (1 Bft)
21.06.2017 18:01 26,8 °C 26,9 °C 47 % 1011,8 hPa 0,0 mm 0,2 km/h (0 Bft) W-SW 254 ° 0 min 0,101 mm 1,3 UV-I 70 W/m² 14,5 °C 26,8 °C 1,6 km/h (1 Bft)
21.06.2017 18:02 26,6 °C 26,8 °C 49 % 1011,8 hPa 0,0 mm 0,0 km/h (0 Bft) W-SW 254 ° 0 min 0,000 mm 1,3 UV-I 63 W/m² 15,0 °C 26,6 °C 0,0 km/h (0 Bft)
21.06.2017 18:03 26,4 °C 26,6 °C 46 % 1011,7 hPa 0,0 mm 0,1 km/h (0 Bft) W-SW 254 ° 0 min 0,000 mm 1,2 UV-I 62 W/m² 13,8 °C 26,4 °C 1,6 km/h (1 Bft)
21.06.2017 18:04 26,3 °C 26,4 °C 46 % 1011,8 hPa 0,0 mm 0,0 km/h (0 Bft) W-SW 254 ° 0 min 0,000 mm 1,2 UV-I 58 W/m² 13,7 °C 26,3 °C 0,0 km/h (0 Bft)
21.06.2017 18:05 26,2 °C 26,3 °C 46 % 1011,7 hPa 0,0 mm 0,0 km/h (0 Bft) W-SW 254 ° 0 min 0,000 mm 1,1 UV-I 56 W/m² 13,6 °C 26,2 °C 0,0 km/h (0 Bft)
21.06.2017 18:06 26,1 °C 26,2 °C 46 % 1011,7 hPa 0,0 mm 0,0 km/h (0 Bft) W-SW 254 ° 0 min 0,000 mm 1,1 UV-I 56 W/m² 13,6 °C 26,1 °C 0,0 km/h (0 Bft)
21.06.2017 18:07 25,9 °C 26,1 °C 49 % 1011,7 hPa 0,0 mm 0,0 km/h (0 Bft) W-SW 254 ° 0 min 0,000 mm 1,1 UV-I 56 W/m² 14,4 °C 25,9 °C 0,0 km/h (0 Bft)
21.06.2017 18:08 25,8 °C 25,9 °C 48 % 1011,8 hPa 0,0 mm 0,0 km/h (0 Bft) W-SW 254 ° 0 min 0,000 mm 1,0 UV-I 62 W/m² 13,9 °C 25,8 °C 0,0 km/h (0 Bft)
21.06.2017 18:09 25,6 °C 25,8 °C 52 % 1011,7 hPa 0,0 mm 0,1 km/h (0 Bft) W-SW 254 ° 0 min 0,000 mm 1,0 UV-I 65 W/m² 15,0 °C 25,6 °C 1,6 km/h (1 Bft)
21.06.2017 18:10 25,4 °C 25,6 °C 53 % 1011,8 hPa 0,0 mm 0,1 km/h (0 Bft) W-SW 254 ° 0 min 0,000 mm 1,0 UV-I 67 W/m² 15,1 °C 25,4 °C 1,6 km/h (1 Bft)
21.06.2017 18:11 25,3 °C 25,4 °C 53 % 1011,7 hPa 0,0 mm 0,0 km/h (0 Bft) W-SW 254 ° 0 min 0,000 mm 1,1 UV-I 72 W/m² 15,0 °C 25,3 °C 0,0 km/h (0 Bft)
21.06.2017 18:12 25,1 °C 25,3 °C 52 % 1011,8 hPa 0,0 mm 0,0 km/h (0 Bft) W-SW 254 ° 0 min 0,000 mm 1,1 UV-I 77 W/m² 14,5 °C 25,1 °C 0,0 km/h (0 Bft)
21.06.2017 18:13 25,1 °C 25,2 °C 55 % 1011,8 hPa 0,0 mm 0,0 km/h (0 Bft) W-SW 254 ° 0 min 0,000 mm 1,1 UV-I 83 W/m² 15,4 °C 25,1 °C 0,0 km/h (0 Bft)
21.06.2017 18:14 25,0 °C 25,1 °C 55 % 1011,8 hPa 0,0 mm 0,0 km/h (0 Bft) W-SW 254 ° 0 min 0,000 mm 1,1 UV-I 93 W/m² 15,3 °C 25,0 °C 0,0 km/h (0 Bft)
21.06.2017 18:15 24,9 °C 25,0 °C 57 % 1011,9 hPa 0,0 mm 0,0 km/h (0 Bft) W-SW 254 ° 0 min 0,000 mm 1,1 UV-I 100 W/m² 15,8 °C 24,9 °C 0,0 km/h (0 Bft)
21.06.2017 18:16 24,8 °C 24,9 °C 58 % 1011,9 hPa 0,0 mm 0,0 km/h (0 Bft) W-SW 254 ° 0 min 0,000 mm 1,1 UV-I 107 W/m² 16,0 °C 24,8 °C 0,0 km/h (0 Bft)
21.06.2017 18:17 24,7 °C 24,8 °C 59 % 1011,9 hPa 0,0 mm 0,0 km/h (0 Bft) W-SW 254 ° 0 min 0,000 mm 1,1 UV-I 113 W/m² 16,1 °C 24,7 °C 0,0 km/h (0 Bft)
21.06.2017 18:18 24,7 °C 24,7 °C 58 % 1011,9 hPa 0,0 mm 0,0 km/h (0 Bft) W-SW 254 ° 0 min 0,000 mm 1,1 UV-I 118 W/m² 15,9 °C 24,7 °C 0,0 km/h (0 Bft)
21.06.2017 18:19 24,7 °C 24,7 °C 61 % 1011,9 hPa 0,0 mm 0,1 km/h (0 Bft) W-SW 254 ° 0 min 0,000 mm 1,1 UV-I 127 W/m² 16,7 °C 24,7 °C 1,6 km/h (1 Bft)
21.06.2017 18:20 24,7 °C 24,7 °C 61 % 1012,0 hPa 0,0 mm 0,0 km/h (0 Bft) W-SW 254 ° 0 min 0,000 mm 1,2 UV-I 155 W/m² 16,7 °C 24,7 °C 0,0 km/h (0 Bft)
21.06.2017 18:21 24,7 °C 24,8 °C 62 % 1011,9 hPa 0,0 mm 0,0 km/h (0 Bft) W-SW 254 ° 0 min 0,000 mm 1,2 UV-I 160 W/m² 16,9 °C 24,7 °C 0,0 km/h (0 Bft)
21.06.2017 18:22 24,8 °C 24,8 °C 62 % 1011,9 hPa 0,0 mm 0,0 km/h (0 Bft) W-SW 254 ° 0 min 0,000 mm 1,2 UV-I 162 W/m² 17,0 °C 24,8 °C 0,0 km/h (0 Bft)
21.06.2017 18:23 24,9 °C 24,9 °C 58 % 1011,9 hPa 0,0 mm 0,0 km/h (0 Bft) W-SW 254 ° 0 min 0,000 mm 1,2 UV-I 167 W/m² 16,1 °C 24,9 °C 0,0 km/h (0 Bft)
21.06.2017 18:24 25,1 °C 25,1 °C 55 % 1011,9 hPa 0,0 mm 0,0 km/h (0 Bft) W-SW 254 ° 0 min 0,000 mm 1,2 UV-I 172 W/m² 15,4 °C 25,1 °C 0,0 km/h (0 Bft)
21.06.2017 18:25 25,2 °C 25,2 °C 57 % 1011,8 hPa 0,0 mm 0,0 km/h (0 Bft) W-SW 254 ° 0 min 0,000 mm 1,3 UV-I 188 W/m² 16,1 °C 25,2 °C 0,0 km/h (0 Bft)
21.06.2017 18:26 25,4 °C 25,4 °C 64 % 1011,9 hPa 0,0 mm 0,0 km/h (0 Bft) W-SW 254 ° 0 min 0,000 mm 1,3 UV-I 197 W/m² 18,1 °C 25,4 °C 0,0 km/h (0 Bft)
21.06.2017 18:27 25,5 °C 25,5 °C 59 % 1011,9 hPa 0,0 mm 0,0 km/h (0 Bft) W-SW 254 ° 0 min 0,000 mm 1,3 UV-I 216 W/m² 16,9 °C 25,5 °C 0,0 km/h (0 Bft)
21.06.2017 18:28 25,6 °C 25,6 °C 59 % 1011,9 hPa 0,0 mm 0,0 km/h (0 Bft) W-SW 254 ° 0 min 0,000 mm 1,3 UV-I 230 W/m² 17,0 °C 25,6 °C 0,0 km/h (0 Bft)
21.06.2017 18:29 25,7 °C 25,7 °C 55 % 1011,9 hPa 0,0 mm 0,1 km/h (0 Bft) W-SW 254 ° 0 min 0,000 mm 1,4 UV-I 234 W/m² 16,0 °C 25,7 °C 1,6 km/h (1 Bft)
21.06.2017 18:30 25,8 °C 25,8 °C 56 % 1011,9 hPa 0,0 mm 0,7 km/h (0 Bft) W-SW 254 ° 0 min 0,000 mm 1,3 UV-I 213 W/m² 16,3 °C 25,8 °C 3,2 km/h (1 Bft)
21.06.2017 18:31 25,9 °C 25,9 °C 58 % 1012,0 hPa 0,0 mm 2,4 km/h (1 Bft) W-SW 254 ° 0 min 0,000 mm 1,3 UV-I 183 W/m² 17,0 °C 25,9 °C 3,2 km/h (1 Bft)
21.06.2017 18:32 26,0 °C 26,0 °C 60 % 1011,9 hPa 0,0 mm 1,5 km/h (1 Bft) W-SW 254 ° 0 min 0,000 mm 1,3 UV-I 172 W/m² 17,6 °C 26,0 °C 3,2 km/h (1 Bft)
21.06.2017 18:33 26,2 °C 26,2 °C 54 % 1011,9 hPa 0,0 mm 0,7 km/h (0 Bft) W-SW 254 ° 0 min 0,000 mm 1,2 UV-I 162 W/m² 16,1 °C 26,2 °C 1,6 km/h (1 Bft)
21.06.2017 18:34 26,2 °C 26,2 °C 53 % 1011,8 hPa 0,0 mm 0,1 km/h (0 Bft) W-SW 254 ° 0 min 0,000 mm 1,1 UV-I 151 W/m² 15,8 °C 26,2 °C 1,6 km/h (1 Bft)
21.06.2017 18:35 26,2 °C 26,2 °C 52 % 1011,8 hPa 0,0 mm 0,1 km/h (0 Bft) W-SW 254 ° 0 min 0,000 mm 1,1 UV-I 141 W/m² 15,6 °C 26,2 °C 1,6 km/h (1 Bft)
21.06.2017 18:36 26,3 °C 26,3 °C 53 % 1011,9 hPa 0,0 mm 1,1 km/h (1 Bft) W-SW 254 ° 0 min 0,000 mm 1,0 UV-I 132 W/m² 15,9 °C 26,3 °C 1,6 km/h (1 Bft)
21.06.2017 18:37 26,2 °C 26,3 °C 59 % 1011,9 hPa 0,0 mm 0,6 km/h (0 Bft) W-SW 254 ° 0 min 0,000 mm 1,0 UV-I 113 W/m² 17,5 °C 26,2 °C 1,6 km/h (1 Bft)
21.06.2017 18:38 26,1 °C 26,3 °C 55 % 1011,9 hPa 0,0 mm 1,7 km/h (1 Bft) N 355 ° 0 min 0,000 mm 0,9 UV-I 105 W/m² 16,3 °C 26,1 °C 3,2 km/h (1 Bft)
21.06.2017 18:39 26,0 °C 26,1 °C 56 % 1011,9 hPa 0,0 mm 2,1 km/h (1 Bft) N 355 ° 0 min 0,000 mm 0,9 UV-I 100 W/m² 16,5 °C 26,0 °C 3,2 km/h (1 Bft)
21.06.2017 18:40 25,9 °C 26,0 °C 55 % 1011,9 hPa 0,0 mm 3,4 km/h (1 Bft) N 355 ° 0 min 0,000 mm 0,9 UV-I 95 W/m² 16,2 °C 25,9 °C 4,8 km/h (1 Bft)
21.06.2017 18:41 25,8 °C 25,9 °C 55 % 1012,0 hPa 0,0 mm 5,8 km/h (2 Bft) N 9 ° 0 min 0,000 mm 0,9 UV-I 91 W/m² 16,1 °C 25,8 °C 11,3 km/h (2 Bft)
21.06.2017 18:42 25,8 °C 25,8 °C 55 % 1012,0 hPa 0,0 mm 5,4 km/h (1 Bft) N-NO 26 ° 0 min 0,000 mm 0,8 UV-I 86 W/m² 16,1 °C 25,8 °C 8,0 km/h (2 Bft)
21.06.2017 18:43 25,7 °C 25,8 °C 54 % 1012,1 hPa 0,0 mm 4,2 km/h (1 Bft) N-NO 28 ° 0 min 0,000 mm 0,8 UV-I 76 W/m² 15,7 °C 25,7 °C 6,4 km/h (2 Bft)
21.06.2017 18:44 25,7 °C 25,8 °C 55 % 1012,0 hPa 0,0 mm 0,5 km/h (0 Bft) N-NO 28 ° 0 min 0,000 mm 0,8 UV-I 72 W/m² 16,0 °C 25,7 °C 1,6 km/h (1 Bft)
21.06.2017 18:45 25,6 °C 25,7 °C 56 % 1012,0 hPa 0,0 mm 0,0 km/h (0 Bft) N-NO 28 ° 0 min 0,000 mm 0,7 UV-I 69 W/m² 16,2 °C 25,6 °C 0,0 km/h (0 Bft)
21.06.2017 18:46 25,5 °C 25,6 °C 56 % 1011,9 hPa 0,0 mm 0,0 km/h (0 Bft) N-NO 28 ° 0 min 0,000 mm 0,7 UV-I 63 W/m² 16,1 °C 25,5 °C 0,0 km/h (0 Bft)
21.06.2017 18:47 25,3 °C 25,5 °C 56 % 1011,9 hPa 0,0 mm 0,0 km/h (0 Bft) N-NO 28 ° 0 min 0,000 mm 0,7 UV-I 62 W/m² 15,9 °C 25,3 °C 0,0 km/h (0 Bft)
21.06.2017 18:48 25,2 °C 25,3 °C 55 % 1011,9 hPa 0,0 mm 0,0 km/h (0 Bft) N-NO 28 ° 0 min 0,000 mm 0,7 UV-I 58 W/m² 15,5 °C 25,2 °C 0,0 km/h (0 Bft)
21.06.2017 18:49 25,2 °C 25,2 °C 56 % 1011,9 hPa 0,0 mm 0,0 km/h (0 Bft) N-NO 28 ° 0 min 0,000 mm 0,7 UV-I 54 W/m² 15,8 °C 25,2 °C 0,0 km/h (0 Bft)
21.06.2017 18:50 25,0 °C 25,2 °C 58 % 1011,9 hPa 0,0 mm 0,0 km/h (0 Bft) N-NO 28 ° 0 min 0,000 mm 0,0 UV-I 53 W/m² 16,1 °C 25,0 °C 0,0 km/h (0 Bft)
21.06.2017 18:51 24,8 °C 25,0 °C 62 % 1012,0 hPa 0,0 mm 2,0 km/h (1 Bft) N-NO 14 ° 0 min 0,000 mm 0,0 UV-I 53 W/m² 17,0 °C 24,8 °C 4,8 km/h (1 Bft)
21.06.2017 18:52 24,7 °C 24,8 °C 60 % 1012,0 hPa 0,0 mm 0,7 km/h (0 Bft) N-NO 14 ° 0 min 0,000 mm 0,0 UV-I 51 W/m² 16,4 °C 24,7 °C 1,6 km/h (1 Bft)
21.06.2017 18:53 24,6 °C 24,7 °C 61 % 1012,1 hPa 0,0 mm 0,1 km/h (0 Bft) N-NO 14 ° 0 min 0,000 mm 0,0 UV-I 51 W/m² 16,6 °C 24,6 °C 1,6 km/h (1 Bft)
21.06.2017 18:54 24,6 °C 24,6 °C 61 % 1012,1 hPa 0,0 mm 0,0 km/h (0 Bft) N-NO 14 ° 0 min 0,000 mm 0,0 UV-I 51 W/m² 16,6 °C 24,6 °C 0,0 km/h (0 Bft)
21.06.2017 18:55 24,4 °C 24,6 °C 63 % 1012,1 hPa 0,0 mm 0,0 km/h (0 Bft) N-NO 14 ° 0 min 0,000 mm 0,0 UV-I 53 W/m² 16,9 °C 24,4 °C 0,0 km/h (0 Bft)
21.06.2017 18:56 24,3 °C 24,4 °C 63 % 1012,1 hPa 0,0 mm 0,4 km/h (0 Bft) N-NO 14 ° 0 min 0,000 mm 0,0 UV-I 54 W/m² 16,8 °C 24,3 °C 1,6 km/h (1 Bft)
21.06.2017 18:57 24,1 °C 24,3 °C 63 % 1012,1 hPa 0,0 mm 0,0 km/h (0 Bft) N-NO 14 ° 0 min 0,000 mm 0,0 UV-I 54 W/m² 16,6 °C 24,1 °C 0,0 km/h (0 Bft)
21.06.2017 18:58 24,1 °C 24,1 °C 59 % 1012,1 hPa 0,0 mm 1,1 km/h (1 Bft) N-NO 14 ° 0 min 0,000 mm 0,6 UV-I 56 W/m² 15,6 °C 24,1 °C 3,2 km/h (1 Bft)
21.06.2017 18:59 24,1 °C 24,1 °C 63 % 1012,0 hPa 0,0 mm 0,5 km/h (0 Bft) N-NO 14 ° 0 min 0,000 mm 0,6 UV-I 58 W/m² 16,6 °C 24,1 °C 1,6 km/h (1 Bft)
21.06.2017 19:00 24,0 °C 24,1 °C 62 % 1012,1 hPa 0,0 mm 0,5 km/h (0 Bft) O 88 ° 0 min 0,000 mm 0,6 UV-I 60 W/m² 16,3 °C 24,0 °C 3,2 km/h (1 Bft)
21.06.2017 19:01 23,9 °C 24,0 °C 62 % 1012,1 hPa 0,0 mm 3,4 km/h (1 Bft) S-SO 153 ° 0 min 0,077 mm 0,6 UV-I 62 W/m² 16,2 °C 23,9 °C 4,8 km/h (1 Bft)
21.06.2017 19:02 23,9 °C 23,9 °C 60 % 1012,1 hPa 0,0 mm 2,0 km/h (1 Bft) S-SO 153 ° 0 min 0,000 mm 0,6 UV-I 63 W/m² 15,7 °C 23,9 °C 3,2 km/h (1 Bft)
21.06.2017 19:03 23,9 °C 24,0 °C 63 % 1012,1 hPa 0,0 mm 1,2 km/h (1 Bft) S-SO 153 ° 0 min 0,000 mm 0,6 UV-I 63 W/m² 16,4 °C 23,9 °C 3,2 km/h (1 Bft)
21.06.2017 19:04 23,8 °C 23,9 °C 63 % 1012,1 hPa 0,0 mm 3,2 km/h (1 Bft) S-SO 153 ° 0 min 0,000 mm 0,6 UV-I 65 W/m² 16,3 °C 23,8 °C 4,8 km/h (1 Bft)
21.06.2017 19:05 23,9 °C 23,9 °C 63 % 1012,1 hPa 0,0 mm 2,5 km/h (1 Bft) S-SO 157 ° 0 min 0,000 mm 0,6 UV-I 65 W/m² 16,4 °C 23,9 °C 3,2 km/h (1 Bft)
21.06.2017 19:06 23,9 °C 23,9 °C 61 % 1012,2 hPa 0,0 mm 0,6 km/h (0 Bft) S-SO 157 ° 0 min 0,000 mm 0,6 UV-I 63 W/m² 15,9 °C 23,9 °C 1,6 km/h (1 Bft)
21.06.2017 19:07 23,9 °C 23,9 °C 62 % 1012,2 hPa 0,0 mm 0,6 km/h (0 Bft) S-SO 157 ° 0 min 0,000 mm 0,6 UV-I 63 W/m² 16,2 °C 23,9 °C 1,6 km/h (1 Bft)
21.06.2017 19:08 23,8 °C 23,9 °C 64 % 1012,2 hPa 0,0 mm 1,1 km/h (1 Bft) S-SO 157 ° 0 min 0,000 mm 0,6 UV-I 62 W/m² 16,6 °C 23,8 °C 3,2 km/h (1 Bft)
21.06.2017 19:09 23,7 °C 23,8 °C 64 % 1012,2 hPa 0,0 mm 0,3 km/h (0 Bft) S-SO 157 ° 0 min 0,000 mm 0,5 UV-I 60 W/m² 16,5 °C 23,7 °C 1,6 km/h (1 Bft)
21.06.2017 19:10 23,6 °C 23,7 °C 67 % 1012,2 hPa 0,0 mm 0,0 km/h (0 Bft) S-SO 157 ° 0 min 0,000 mm 0,5 UV-I 58 W/m² 17,1 °C 23,6 °C 0,0 km/h (0 Bft)
21.06.2017 19:11 23,5 °C 23,6 °C 66 % 1012,2 hPa 0,0 mm 0,0 km/h (0 Bft) S-SO 157 ° 0 min 0,000 mm 0,5 UV-I 56 W/m² 16,8 °C 23,5 °C 0,0 km/h (0 Bft)
21.06.2017 19:12 23,4 °C 23,5 °C 67 % 1012,2 hPa 0,0 mm 0,0 km/h (0 Bft) S-SO 157 ° 0 min 0,000 mm 0,0 UV-I 53 W/m² 16,9 °C 23,4 °C 0,0 km/h (0 Bft)
21.06.2017 19:13 23,3 °C 23,4 °C 68 % 1012,2 hPa 0,0 mm 0,0 km/h (0 Bft) S-SO 157 ° 0 min 0,000 mm 0,0 UV-I 51 W/m² 17,1 °C 23,3 °C 0,0 km/h (0 Bft)
21.06.2017 19:14 23,3 °C 23,3 °C 64 % 1012,2 hPa 0,0 mm 0,0 km/h (0 Bft) S-SO 157 ° 0 min 0,000 mm 0,0 UV-I 49 W/m² 16,1 °C 23,3 °C 0,0 km/h (0 Bft)
21.06.2017 19:15 23,3 °C 23,3 °C 65 % 1012,2 hPa 0,0 mm 0,0 km/h (0 Bft) S-SO 157 ° 0 min 0,000 mm 0,0 UV-I 47 W/m² 16,3 °C 23,3 °C 0,0 km/h (0 Bft)
21.06.2017 19:16 23,2 °C 23,3 °C 69 % 1012,2 hPa 0,0 mm 0,0 km/h (0 Bft) S-SO 157 ° 0 min 0,000 mm 0,0 UV-I 47 W/m² 17,2 °C 23,2 °C 0,0 km/h (0 Bft)
21.06.2017 19:17 23,2 °C 23,2 °C 69 % 1012,2 hPa 0,0 mm 1,1 km/h (1 Bft) S-SO 157 ° 0 min 0,000 mm 0,0 UV-I 46 W/m² 17,2 °C 23,2 °C 1,6 km/h (1 Bft)
21.06.2017 19:18 23,1 °C 23,2 °C 71 % 1012,2 hPa 0,0 mm 0,1 km/h (0 Bft) S-SO 157 ° 0 min 0,000 mm 0,0 UV-I 44 W/m² 17,5 °C 23,1 °C 1,6 km/h (1 Bft)
21.06.2017 19:19 22,9 °C 23,1 °C 71 % 1012,2 hPa 0,0 mm 0,0 km/h (0 Bft) S-SO 157 ° 0 min 0,000 mm 0,0 UV-I 42 W/m² 17,4 °C 22,9 °C 0,0 km/h (0 Bft)
21.06.2017 19:20 22,9 °C 22,9 °C 72 % 1012,2 hPa 0,0 mm 1,3 km/h (1 Bft) S-SO 157 ° 0 min 0,000 mm 0,0 UV-I 40 W/m² 17,6 °C 22,9 °C 3,2 km/h (1 Bft)
21.06.2017 19:21 22,7 °C 22,9 °C 72 % 1012,2 hPa 0,0 mm 0,9 km/h (0 Bft) S-SO 157 ° 0 min 0,000 mm 0,0 UV-I 40 W/m² 17,4 °C 22,7 °C 1,6 km/h (1 Bft)
21.06.2017 19:22 22,7 °C 22,7 °C 70 % 1012,2 hPa 0,0 mm 0,1 km/h (0 Bft) S-SO 157 ° 0 min 0,000 mm 0,0 UV-I 39 W/m² 16,9 °C 22,7 °C 1,6 km/h (1 Bft)
21.06.2017 19:23 22,6 °C 22,7 °C 71 % 1012,2 hPa 0,0 mm 0,1 km/h (0 Bft) S-SO 157 ° 0 min 0,000 mm 0,0 UV-I 39 W/m² 17,1 °C 22,6 °C 1,6 km/h (1 Bft)
21.06.2017 19:24 22,4 °C 22,6 °C 71 % 1012,2 hPa 0,0 mm 0,2 km/h (0 Bft) S-SO 157 ° 0 min 0,000 mm 0,0 UV-I 37 W/m² 16,9 °C 22,4 °C 3,2 km/h (1 Bft)
21.06.2017 19:25 22,3 °C 22,4 °C 72 % 1012,2 hPa 0,0 mm 1,1 km/h (1 Bft) S-SO 157 ° 0 min 0,000 mm 0,0 UV-I 35 W/m² 17,0 °C 22,3 °C 3,2 km/h (1 Bft)
21.06.2017 19:26 22,2 °C 22,3 °C 72 % 1012,2 hPa 0,0 mm 2,2 km/h (1 Bft) S-SO 157 ° 0 min 0,000 mm 0,0 UV-I 35 W/m² 16,9 °C 22,2 °C 3,2 km/h (1 Bft)
21.06.2017 19:27 22,1 °C 22,2 °C 73 % 1012,2 hPa 0,0 mm 1,9 km/h (1 Bft) S-SO 157 ° 0 min 0,000 mm 0,0 UV-I 33 W/m² 17,0 °C 22,1 °C 3,2 km/h (1 Bft)
21.06.2017 19:28 21,9 °C 22,1 °C 74 % 1012,3 hPa 0,0 mm 1,8 km/h (1 Bft) S-SO 157 ° 0 min 0,000 mm 0,0 UV-I 33 W/m² 17,0 °C 21,9 °C 3,2 km/h (1 Bft)
21.06.2017 19:29 21,8 °C 21,9 °C 74 % 1012,3 hPa 0,0 mm 1,6 km/h (1 Bft) S-SO 157 ° 0 min 0,000 mm 0,0 UV-I 33 W/m² 17,0 °C 21,8 °C 1,6 km/h (1 Bft)
21.06.2017 19:30 21,7 °C 21,8 °C 75 % 1012,3 hPa 0,0 mm 0,3 km/h (0 Bft) S-SO 157 ° 0 min 0,000 mm 0,0 UV-I 33 W/m² 17,1 °C 21,7 °C 1,6 km/h (1 Bft)
21.06.2017 19:31 21,6 °C 21,7 °C 76 % 1012,3 hPa 0,0 mm 0,1 km/h (0 Bft) S-SO 157 ° 0 min 0,000 mm 0,0 UV-I 33 W/m² 17,2 °C 21,6 °C 1,6 km/h (1 Bft)
21.06.2017 19:32 21,6 °C 21,6 °C 76 % 1012,3 hPa 0,0 mm 0,0 km/h (0 Bft) S-SO 157 ° 0 min 0,000 mm 0,0 UV-I 32 W/m² 17,2 °C 21,6 °C 0,0 km/h (0 Bft)
21.06.2017 19:33 21,5 °C 21,6 °C 76 % 1012,3 hPa 0,0 mm 0,0 km/h (0 Bft) S-SO 157 ° 0 min 0,000 mm 0,0 UV-I 32 W/m² 17,1 °C 21,5 °C 0,0 km/h (0 Bft)
21.06.2017 19:34 21,4 °C 21,5 °C 76 % 1012,3 hPa 0,0 mm 0,0 km/h (0 Bft) S-SO 157 ° 0 min 0,000 mm 0,0 UV-I 32 W/m² 17,0 °C 21,4 °C 0,0 km/h (0 Bft)
21.06.2017 19:35 21,4 °C 21,4 °C 74 % 1012,3 hPa 0,0 mm 0,0 km/h (0 Bft) S-SO 157 ° 0 min 0,000 mm 0,0 UV-I 30 W/m² 16,6 °C 21,4 °C 0,0 km/h (0 Bft)
21.06.2017 19:36 21,4 °C 21,4 °C 77 % 1012,4 hPa 0,0 mm 0,5 km/h (0 Bft) S-SO 157 ° 0 min 0,000 mm 0,0 UV-I 30 W/m² 17,2 °C 21,4 °C 3,2 km/h (1 Bft)
21.06.2017 19:37 21,3 °C 21,4 °C 76 % 1012,4 hPa 0,0 mm 2,5 km/h (1 Bft) S-SO 157 ° 0 min 0,000 mm 0,0 UV-I 28 W/m² 16,9 °C 21,3 °C 3,2 km/h (1 Bft)
21.06.2017 19:38 21,3 °C 21,3 °C 77 % 1012,4 hPa 0,0 mm 2,0 km/h (1 Bft) S-SO 157 ° 0 min 0,000 mm 0,0 UV-I 28 W/m² 17,1 °C 21,3 °C 3,2 km/h (1 Bft)
21.06.2017 19:39 21,3 °C 21,3 °C 77 % 1012,3 hPa 0,0 mm 2,5 km/h (1 Bft) S-SO 157 ° 0 min 0,000 mm 0,0 UV-I 28 W/m² 17,1 °C 21,3 °C 3,2 km/h (1 Bft)
21.06.2017 19:40 21,2 °C 21,3 °C 78 % 1012,3 hPa 0,0 mm 1,7 km/h (1 Bft) S-SO 157 ° 0 min 0,000 mm 0,0 UV-I 28 W/m² 17,2 °C 21,2 °C 3,2 km/h (1 Bft)
21.06.2017 19:41 21,2 °C 21,2 °C 78 % 1012,3 hPa 0,0 mm 1,7 km/h (1 Bft) S-SO 157 ° 0 min 0,000 mm 0,0 UV-I 26 W/m² 17,2 °C 21,2 °C 3,2 km/h (1 Bft)
21.06.2017 19:42 21,1 °C 21,2 °C 79 % 1012,3 hPa 0,0 mm 0,4 km/h (0 Bft) S-SO 157 ° 0 min 0,000 mm 0,0 UV-I 26 W/m² 17,3 °C 21,1 °C 1,6 km/h (1 Bft)
21.06.2017 19:43 21,1 °C 21,1 °C 80 % 1012,3 hPa 0,0 mm 0,1 km/h (0 Bft) S-SO 157 ° 0 min 0,000 mm 0,0 UV-I 25 W/m² 17,5 °C 21,1 °C 1,6 km/h (1 Bft)
21.06.2017 19:44 20,9 °C 21,1 °C 81 % 1012,3 hPa 0,0 mm 0,0 km/h (0 Bft) S-SO 157 ° 0 min 0,000 mm 0,0 UV-I 25 W/m² 17,5 °C 20,9 °C 0,0 km/h (0 Bft)
21.06.2017 19:45 20,9 °C 20,9 °C 81 % 1012,2 hPa 0,0 mm 0,0 km/h (0 Bft) S-SO 157 ° 0 min 0,000 mm 0,0 UV-I 25 W/m² 17,5 °C 20,9 °C 0,0 km/h (0 Bft)
21.06.2017 19:46 20,8 °C 20,9 °C 82 % 1012,2 hPa 0,0 mm 0,1 km/h (0 Bft) S-SO 157 ° 0 min 0,000 mm 0,0 UV-I 23 W/m² 17,6 °C 20,8 °C 1,6 km/h (1 Bft)
21.06.2017 19:47 20,7 °C 20,8 °C 82 % 1012,2 hPa 0,0 mm 0,2 km/h (0 Bft) S-SO 157 ° 0 min 0,000 mm 0,0 UV-I 21 W/m² 17,5 °C 20,7 °C 1,6 km/h (1 Bft)
21.06.2017 19:48 20,6 °C 20,7 °C 83 % 1012,1 hPa 0,0 mm 0,9 km/h (0 Bft) S-SO 157 ° 0 min 0,000 mm 0,0 UV-I 21 W/m² 17,6 °C 20,6 °C 3,2 km/h (1 Bft)
21.06.2017 19:49 20,6 °C 20,6 °C 83 % 1012,1 hPa 0,0 mm 0,5 km/h (0 Bft) S-SO 157 ° 0 min 0,000 mm 0,0 UV-I 19 W/m² 17,6 °C 20,6 °C 1,6 km/h (1 Bft)
21.06.2017 19:50 20,4 °C 20,6 °C 84 % 1012,1 hPa 0,0 mm 2,1 km/h (1 Bft) S-SO 158 ° 0 min 0,000 mm 0,0 UV-I 18 W/m² 17,6 °C 20,4 °C 4,8 km/h (1 Bft)
21.06.2017 19:51 20,5 °C 20,5 °C 82 % 1012,2 hPa 0,0 mm 3,8 km/h (1 Bft) S-SO 158 ° 0 min 0,000 mm 0,0 UV-I 18 W/m² 17,3 °C 20,5 °C 4,8 km/h (1 Bft)
21.06.2017 19:52 20,4 °C 20,5 °C 82 % 1012,1 hPa 0,0 mm 3,2 km/h (1 Bft) S-SO 158 ° 0 min 0,000 mm 0,0 UV-I 16 W/m² 17,2 °C 20,4 °C 4,8 km/h (1 Bft)
21.06.2017 19:53 20,4 °C 20,4 °C 79 % 1012,2 hPa 0,0 mm 3,2 km/h (1 Bft) S-SO 158 ° 0 min 0,000 mm 0,0 UV-I 16 W/m² 16,6 °C 20,4 °C 4,8 km/h (1 Bft)
21.06.2017 19:54 20,4 °C 20,5 °C 79 % 1012,1 hPa 0,0 mm 2,1 km/h (1 Bft) S-SO 158 ° 0 min 0,000 mm 0,0 UV-I 14 W/m² 16,6 °C 20,4 °C 3,2 km/h (1 Bft)
21.06.2017 19:55 20,4 °C 20,5 °C 78 % 1012,2 hPa 0,0 mm 1,7 km/h (1 Bft) S-SO 158 ° 0 min 0,000 mm 0,0 UV-I 14 W/m² 16,4 °C 20,4 °C 3,2 km/h (1 Bft)
21.06.2017 19:56 20,5 °C 20,5 °C 77 % 1012,2 hPa 0,0 mm 0,5 km/h (0 Bft) S-SO 158 ° 0 min 0,000 mm 0,0 UV-I 14 W/m² 16,3 °C 20,5 °C 1,6 km/h (1 Bft)
21.06.2017 19:57 20,6 °C 20,6 °C 80 % 1012,3 hPa 0,0 mm 0,0 km/h (0 Bft) S-SO 158 ° 0 min 0,000 mm 0,0 UV-I 14 W/m² 17,0 °C 20,6 °C 0,0 km/h (0 Bft)
21.06.2017 19:58 20,5 °C 20,6 °C 81 % 1012,2 hPa 0,0 mm 0,7 km/h (0 Bft) S-SO 158 ° 0 min 0,000 mm 0,0 UV-I 14 W/m² 17,1 °C 20,5 °C 1,6 km/h (1 Bft)
21.06.2017 19:59 20,4 °C 20,5 °C 81 % 1012,3 hPa 0,0 mm 0,0 km/h (0 Bft) S-SO 158 ° 0 min 0,000 mm 0,0 UV-I 12 W/m² 17,0 °C 20,4 °C 0,0 km/h (0 Bft)
21.06.2017 20:00 20,3 °C 20,4 °C 81 % 1012,3 hPa 0,0 mm 0,8 km/h (0 Bft) S-SO 158 ° 0 min 0,000 mm 0,0 UV-I 12 W/m² 16,9 °C 20,3 °C 1,6 km/h (1 Bft)
21.06.2017 20:01 20,3 °C 20,3 °C 82 % 1012,3 hPa 0,0 mm 0,5 km/h (0 Bft) S-SO 158 ° 0 min 0,025 mm 0,0 UV-I 12 W/m² 17,1 °C 20,3 °C 1,6 km/h (1 Bft)
21.06.2017 20:02 20,2 °C 20,3 °C 82 % 1012,3 hPa 0,0 mm 0,0 km/h (0 Bft) S-SO 158 ° 0 min 0,000 mm 0,0 UV-I 12 W/m² 17,0 °C 20,2 °C 0,0 km/h (0 Bft)
21.06.2017 20:03 20,2 °C 20,2 °C 82 % 1012,3 hPa 0,0 mm 0,0 km/h (0 Bft) S-SO 158 ° 0 min 0,000 mm 0,0 UV-I 12 W/m² 17,0 °C 20,2 °C 0,0 km/h (0 Bft)
21.06.2017 20:04 20,1 °C 20,2 °C 82 % 1012,3 hPa 0,0 mm 0,0 km/h (0 Bft) S-SO 158 ° 0 min 0,000 mm 0,0 UV-I 12 W/m² 16,9 °C 20,1 °C 0,0 km/h (0 Bft)
21.06.2017 20:05 20,1 °C 20,1 °C 82 % 1012,3 hPa 0,0 mm 0,0 km/h (0 Bft) S-SO 158 ° 0 min 0,000 mm 0,0 UV-I 11 W/m² 16,9 °C 20,1 °C 0,0 km/h (0 Bft)
21.06.2017 20:06 20,1 °C 20,1 °C 82 % 1012,3 hPa 0,0 mm 0,0 km/h (0 Bft) S-SO 158 ° 0 min 0,000 mm 0,0 UV-I 11 W/m² 16,9 °C 20,1 °C 0,0 km/h (0 Bft)
21.06.2017 20:07 20,1 °C 20,1 °C 82 % 1012,2 hPa 0,0 mm 0,0 km/h (0 Bft) S-SO 158 ° 0 min 0,000 mm 0,0 UV-I 11 W/m² 16,9 °C 20,1 °C 0,0 km/h (0 Bft)
21.06.2017 20:08 20,1 °C 20,1 °C 81 % 1012,3 hPa 0,0 mm 0,0 km/h (0 Bft) S-SO 158 ° 0 min 0,000 mm 0,0 UV-I 11 W/m² 16,7 °C 20,1 °C 0,0 km/h (0 Bft)
21.06.2017 20:09 20,2 °C 20,2 °C 82 % 1012,3 hPa 0,0 mm 0,0 km/h (0 Bft) S-SO 158 ° 0 min 0,000 mm 0,0 UV-I 11 W/m² 17,0 °C 20,2 °C 0,0 km/h (0 Bft)
21.06.2017 20:10 20,1 °C 20,2 °C 82 % 1012,2 hPa 0,0 mm 0,0 km/h (0 Bft) S-SO 158 ° 0 min 0,000 mm 0,0 UV-I 9 W/m² 16,9 °C 20,1 °C 0,0 km/h (0 Bft)
21.06.2017 20:11 20,1 °C 20,1 °C 81 % 1012,3 hPa 0,0 mm 0,0 km/h (0 Bft) S-SO 158 ° 0 min 0,000 mm 0,0 UV-I 9 W/m² 16,7 °C 20,1 °C 0,0 km/h (0 Bft)
21.06.2017 20:12 20,1 °C 20,1 °C 82 % 1012,3 hPa 0,0 mm 0,0 km/h (0 Bft) S-SO 158 ° 0 min 0,000 mm 0,0 UV-I 9 W/m² 16,9 °C 20,1 °C 0,0 km/h (0 Bft)
21.06.2017 20:13 20,0 °C 20,1 °C 82 % 1012,3 hPa 0,0 mm 0,0 km/h (0 Bft) S-SO 158 ° 0 min 0,000 mm 0,0 UV-I 9 W/m² 16,8 °C 20,0 °C 0,0 km/h (0 Bft)
21.06.2017 20:14 19,9 °C 20,0 °C 81 % 1012,2 hPa 0,0 mm 0,0 km/h (0 Bft) S-SO 158 ° 0 min 0,000 mm 0,0 UV-I 9 W/m² 16,5 °C 19,9 °C 0,0 km/h (0 Bft)
21.06.2017 20:15 19,9 °C 19,9 °C 82 % 1012,2 hPa 0,0 mm 0,0 km/h (0 Bft) S-SO 158 ° 0 min 0,000 mm 0,0 UV-I 9 W/m² 16,7 °C 19,9 °C 0,0 km/h (0 Bft)
21.06.2017 20:16 19,9 °C 19,9 °C 81 % 1012,2 hPa 0,0 mm 0,0 km/h (0 Bft) S-SO 158 ° 0 min 0,000 mm 0,0 UV-I 9 W/m² 16,5 °C 19,9 °C 0,0 km/h (0 Bft)
21.06.2017 20:17 19,9 °C 19,9 °C 80 % 1012,2 hPa 0,0 mm 0,0 km/h (0 Bft) S-SO 158 ° 0 min 0,000 mm 0,0 UV-I 9 W/m² 16,3 °C 19,9 °C 0,0 km/h (0 Bft)
21.06.2017 20:18 20,0 °C 20,0 °C 79 % 1012,2 hPa 0,0 mm 0,0 km/h (0 Bft) S-SO 158 ° 0 min 0,000 mm 0,0 UV-I 9 W/m² 16,2 °C 20,0 °C 0,0 km/h (0 Bft)
21.06.2017 20:19 20,1 °C 20,1 °C 78 % 1012,2 hPa 0,0 mm 0,0 km/h (0 Bft) S-SO 158 ° 0 min 0,000 mm 0,0 UV-I 9 W/m² 16,1 °C 20,1 °C 0,0 km/h (0 Bft)
21.06.2017 20:20 20,1 °C 20,1 °C 79 % 1012,1 hPa 0,0 mm 0,0 km/h (0 Bft) S-SO 158 ° 0 min 0,000 mm 0,0 UV-I 9 W/m² 16,3 °C 20,1 °C 0,0 km/h (0 Bft)
21.06.2017 20:21 20,2 °C 20,2 °C 79 % 1012,1 hPa 0,0 mm 0,0 km/h (0 Bft) S-SO 158 ° 0 min 0,000 mm 0,0 UV-I 9 W/m² 16,4 °C 20,2 °C 0,0 km/h (0 Bft)
21.06.2017 20:22 20,2 °C 20,2 °C 79 % 1012,2 hPa 0,0 mm 0,0 km/h (0 Bft) S-SO 158 ° 0 min 0,000 mm 0,0 UV-I 9 W/m² 16,4 °C 20,2 °C 0,0 km/h (0 Bft)
21.06.2017 20:23 20,2 °C 20,2 °C 80 % 1012,2 hPa 0,0 mm 0,0 km/h (0 Bft) S-SO 158 ° 0 min 0,000 mm 0,0 UV-I 9 W/m² 16,6 °C 20,2 °C 0,0 km/h (0 Bft)
21.06.2017 20:24 20,2 °C 20,2 °C 81 % 1012,2 hPa 0,0 mm 0,0 km/h (0 Bft) S-SO 158 ° 0 min 0,000 mm 0,0 UV-I 9 W/m² 16,8 °C 20,2 °C 0,0 km/h (0 Bft)
21.06.2017 20:25 20,2 °C 20,2 °C 81 % 1012,2 hPa 0,0 mm 0,0 km/h (0 Bft) S-SO 158 ° 0 min 0,000 mm 0,0 UV-I 11 W/m² 16,8 °C 20,2 °C 0,0 km/h (0 Bft)
21.06.2017 20:26 20,2 °C 20,2 °C 81 % 1012,2 hPa 0,0 mm 0,0 km/h (0 Bft) S-SO 158 ° 0 min 0,000 mm 0,0 UV-I 11 W/m² 16,8 °C 20,2 °C 0,0 km/h (0 Bft)
21.06.2017 20:27 20,1 °C 20,2 °C 81 % 1012,3 hPa 0,0 mm 0,0 km/h (0 Bft) S-SO 158 ° 0 min 0,000 mm 0,0 UV-I 11 W/m² 16,7 °C 20,1 °C 0,0 km/h (0 Bft)
21.06.2017 20:28 20,1 °C 20,1 °C 80 % 1012,3 hPa 0,0 mm 0,0 km/h (0 Bft) S-SO 158 ° 0 min 0,000 mm 0,0 UV-I 11 W/m² 16,5 °C 20,1 °C 0,0 km/h (0 Bft)
21.06.2017 20:29 20,1 °C 20,1 °C 81 % 1012,3 hPa 0,0 mm 0,0 km/h (0 Bft) S-SO 158 ° 0 min 0,000 mm 0,0 UV-I 12 W/m² 16,7 °C 20,1 °C 0,0 km/h (0 Bft)
21.06.2017 20:30 20,1 °C 20,2 °C 82 % 1012,3 hPa 0,0 mm 0,0 km/h (0 Bft) S-SO 158 ° 0 min 0,000 mm 0,0 UV-I 12 W/m² 16,9 °C 20,1 °C 0,0 km/h (0 Bft)
21.06.2017 20:31 20,2 °C 20,2 °C 82 % 1012,3 hPa 0,0 mm 0,9 km/h (0 Bft) S-SO 158 ° 0 min 0,000 mm 0,0 UV-I 12 W/m² 17,0 °C 20,2 °C 1,6 km/h (1 Bft)
21.06.2017 20:32 20,2 °C 20,2 °C 82 % 1012,3 hPa 0,0 mm 1,5 km/h (1 Bft) S-SO 158 ° 0 min 0,000 mm 0,0 UV-I 14 W/m² 17,0 °C 20,2 °C 3,2 km/h (1 Bft)
21.06.2017 20:33 20,2 °C 20,2 °C 82 % 1012,3 hPa 0,0 mm 0,9 km/h (0 Bft) S-SO 158 ° 0 min 0,000 mm 0,0 UV-I 14 W/m² 17,0 °C 20,2 °C 3,2 km/h (1 Bft)
21.06.2017 20:34 20,2 °C 20,2 °C 83 % 1012,3 hPa 0,0 mm 1,6 km/h (1 Bft) S-SO 158 ° 0 min 0,000 mm 0,0 UV-I 16 W/m² 17,2 °C 20,2 °C 3,2 km/h (1 Bft)
21.06.2017 20:35 20,2 °C 20,2 °C 82 % 1012,3 hPa 0,0 mm 1,8 km/h (1 Bft) S-SO 158 ° 0 min 0,000 mm 0,0 UV-I 16 W/m² 17,0 °C 20,2 °C 3,2 km/h (1 Bft)
21.06.2017 20:36 20,2 °C 20,2 °C 82 % 1012,3 hPa 0,0 mm 0,3 km/h (0 Bft) S-SO 158 ° 0 min 0,000 mm 0,0 UV-I 18 W/m² 17,0 °C 20,2 °C 1,6 km/h (1 Bft)
21.06.2017 20:37 20,1 °C 20,2 °C 83 % 1012,4 hPa 0,0 mm 1,0 km/h (0 Bft) S-SO 158 ° 0 min 0,000 mm 0,0 UV-I 18 W/m² 17,1 °C 20,1 °C 1,6 km/h (1 Bft)
21.06.2017 20:38 20,1 °C 20,1 °C 83 % 1012,4 hPa 0,0 mm 0,6 km/h (0 Bft) S-SO 158 ° 0 min 0,000 mm 0,0 UV-I 19 W/m² 17,1 °C 20,1 °C 1,6 km/h (1 Bft)
21.06.2017 20:39 20,1 °C 20,1 °C 84 % 1012,4 hPa 0,0 mm 0,0 km/h (0 Bft) S-SO 158 ° 0 min 0,000 mm 0,0 UV-I 19 W/m² 17,3 °C 20,1 °C 0,0 km/h (0 Bft)
21.06.2017 20:40 20,1 °C 20,1 °C 84 % 1012,3 hPa 0,0 mm 0,0 km/h (0 Bft) S-SO 158 ° 0 min 0,000 mm 0,0 UV-I 25 W/m² 17,3 °C 20,1 °C 0,0 km/h (0 Bft)
21.06.2017 20:41 20,1 °C 20,1 °C 84 % 1012,3 hPa 0,0 mm 0,0 km/h (0 Bft) S-SO 158 ° 0 min 0,000 mm 0,0 UV-I 26 W/m² 17,3 °C 20,1 °C 0,0 km/h (0 Bft)
21.06.2017 20:42 20,0 °C 20,1 °C 83 % 1012,3 hPa 0,0 mm 0,0 km/h (0 Bft) S-SO 158 ° 0 min 0,000 mm 0,0 UV-I 28 W/m² 17,0 °C 20,0 °C 0,0 km/h (0 Bft)
21.06.2017 20:43 20,1 °C 20,1 °C 83 % 1012,3 hPa 0,0 mm 0,0 km/h (0 Bft) S-SO 158 ° 0 min 0,000 mm 0,0 UV-I 30 W/m² 17,1 °C 20,1 °C 0,0 km/h (0 Bft)
21.06.2017 20:44 20,1 °C 20,1 °C 82 % 1012,2 hPa 0,0 mm 0,0 km/h (0 Bft) S-SO 158 ° 0 min 0,000 mm 0,0 UV-I 32 W/m² 16,9 °C 20,1 °C 0,0 km/h (0 Bft)
21.06.2017 20:45 20,2 °C 20,2 °C 82 % 1012,2 hPa 0,0 mm 0,0 km/h (0 Bft) S-SO 158 ° 0 min 0,000 mm 0,0 UV-I 33 W/m² 17,0 °C 20,2 °C 0,0 km/h (0 Bft)
21.06.2017 20:46 20,3 °C 20,3 °C 81 % 1012,2 hPa 0,0 mm 0,0 km/h (0 Bft) S-SO 158 ° 0 min 0,000 mm 0,0 UV-I 37 W/m² 16,9 °C 20,3 °C 0,0 km/h (0 Bft)
21.06.2017 20:47 20,3 °C 20,3 °C 81 % 1012,2 hPa 0,0 mm 0,0 km/h (0 Bft) S-SO 158 ° 0 min 0,000 mm 0,0 UV-I 37 W/m² 16,9 °C 20,3 °C 0,0 km/h (0 Bft)
21.06.2017 20:48 20,4 °C 20,4 °C 80 % 1012,2 hPa 0,0 mm 0,0 km/h (0 Bft) S-SO 158 ° 0 min 0,000 mm 0,0 UV-I 37 W/m² 16,8 °C 20,4 °C 0,0 km/h (0 Bft)
21.06.2017 20:49 20,5 °C 20,5 °C 80 % 1012,2 hPa 0,0 mm 0,0 km/h (0 Bft) S-SO 158 ° 0 min 0,000 mm 0,0 UV-I 37 W/m² 16,9 °C 20,5 °C 0,0 km/h (0 Bft)
21.06.2017 20:50 20,6 °C 20,6 °C 79 % 1012,3 hPa 0,0 mm 0,0 km/h (0 Bft) S-SO 158 ° 0 min 0,000 mm 0,0 UV-I 37 W/m² 16,8 °C 20,6 °C 0,0 km/h (0 Bft)
21.06.2017 20:51 20,6 °C 20,6 °C 79 % 1012,3 hPa 0,0 mm 0,0 km/h (0 Bft) S-SO 158 ° 0 min 0,000 mm 0,0 UV-I 37 W/m² 16,8 °C 20,6 °C 0,0 km/h (0 Bft)
21.06.2017 20:52 20,7 °C 20,7 °C 78 % 1012,3 hPa 0,0 mm 0,0 km/h (0 Bft) S-SO 158 ° 0 min 0,000 mm 0,0 UV-I 37 W/m² 16,7 °C 20,7 °C 0,0 km/h (0 Bft)
21.06.2017 20:53 20,7 °C 20,7 °C 78 % 1012,3 hPa 0,0 mm 0,0 km/h (0 Bft) S-SO 158 ° 0 min 0,000 mm 0,0 UV-I 37 W/m² 16,7 °C 20,7 °C 0,0 km/h (0 Bft)
21.06.2017 20:54 20,8 °C 20,8 °C 78 % 1012,4 hPa 0,0 mm 0,0 km/h (0 Bft) S-SO 158 ° 0 min 0,000 mm 0,0 UV-I 37 W/m² 16,8 °C 20,8 °C 0,0 km/h (0 Bft)
21.06.2017 20:55 20,7 °C 20,8 °C 81 % 1012,3 hPa 0,0 mm 0,0 km/h (0 Bft) S-SO 158 ° 0 min 0,000 mm 0,0 UV-I 37 W/m² 17,3 °C 20,7 °C 0,0 km/h (0 Bft)
21.06.2017 20:56 20,6 °C 20,7 °C 82 % 1012,4 hPa 0,0 mm 0,0 km/h (0 Bft) S-SO 158 ° 0 min 0,000 mm 0,0 UV-I 37 W/m² 17,4 °C 20,6 °C 0,0 km/h (0 Bft)
21.06.2017 20:57 20,6 °C 20,6 °C 82 % 1012,4 hPa 0,0 mm 0,0 km/h (0 Bft) S-SO 158 ° 0 min 0,000 mm 0,0 UV-I 37 W/m² 17,4 °C 20,6 °C 0,0 km/h (0 Bft)
21.06.2017 20:58 20,4 °C 20,6 °C 82 % 1012,4 hPa 0,0 mm 0,0 km/h (0 Bft) S-SO 158 ° 0 min 0,000 mm 0,0 UV-I 39 W/m² 17,2 °C 20,4 °C 0,0 km/h (0 Bft)
21.06.2017 20:59 20,4 °C 20,4 °C 81 % 1012,4 hPa 0,0 mm 0,0 km/h (0 Bft) S-SO 158 ° 0 min 0,000 mm 0,0 UV-I 39 W/m² 17,0 °C 20,4 °C 0,0 km/h (0 Bft)
21.06.2017 21:00 20,3 °C 20,4 °C 82 % 1012,4 hPa 0,0 mm 0,0 km/h (0 Bft) S-SO 158 ° 0 min 0,000 mm 0,0 UV-I 39 W/m² 17,1 °C 20,3 °C 0,0 km/h (0 Bft)
21.06.2017 21:01 20,3 °C 20,3 °C 82 % 1012,5 hPa 0,0 mm 0,0 km/h (0 Bft) S-SO 158 ° 0 min 0,025 mm 0,0 UV-I 40 W/m² 17,1 °C 20,3 °C 0,0 km/h (0 Bft)
21.06.2017 21:02 20,3 °C 20,3 °C 82 % 1012,6 hPa 0,0 mm 0,0 km/h (0 Bft) S-SO 158 ° 0 min 0,000 mm 0,0 UV-I 40 W/m² 17,1 °C 20,3 °C 0,0 km/h (0 Bft)
21.06.2017 21:03 20,3 °C 20,3 °C 81 % 1012,6 hPa 0,0 mm 0,0 km/h (0 Bft) S-SO 158 ° 0 min 0,000 mm 0,0 UV-I 42 W/m² 16,9 °C 20,3 °C 0,0 km/h (0 Bft)
21.06.2017 21:04 20,3 °C 20,3 °C 81 % 1012,6 hPa 0,0 mm 0,0 km/h (0 Bft) S-SO 158 ° 0 min 0,000 mm 0,0 UV-I 40 W/m² 16,9 °C 20,3 °C 0,0 km/h (0 Bft)
21.06.2017 21:05 20,4 °C 20,4 °C 82 % 1012,7 hPa 0,0 mm 0,0 km/h (0 Bft) S-SO 158 ° 0 min 0,000 mm 0,0 UV-I 40 W/m² 17,2 °C 20,4 °C 0,0 km/h (0 Bft)
21.06.2017 21:06 20,6 °C 20,6 °C 82 % 1012,7 hPa 0,0 mm 0,0 km/h (0 Bft) S-SO 158 ° 0 min 0,000 mm 0,0 UV-I 39 W/m² 17,4 °C 20,6 °C 0,0 km/h (0 Bft)
21.06.2017 21:07 20,7 °C 20,7 °C 81 % 1012,7 hPa 0,0 mm 0,0 km/h (0 Bft) S-SO 158 ° 0 min 0,000 mm 0,0 UV-I 37 W/m² 17,3 °C 20,7 °C 0,0 km/h (0 Bft)
21.06.2017 21:08 20,8 °C 20,8 °C 80 % 1012,8 hPa 0,0 mm 0,0 km/h (0 Bft) S-SO 158 ° 0 min 0,000 mm 0,0 UV-I 33 W/m² 17,2 °C 20,8 °C 0,0 km/h (0 Bft)
21.06.2017 21:09 20,8 °C 20,8 °C 80 % 1012,8 hPa 0,0 mm 0,0 km/h (0 Bft) S-SO 158 ° 0 min 0,000 mm 0,0 UV-I 30 W/m² 17,2 °C 20,8 °C 0,0 km/h (0 Bft)
21.06.2017 21:10 20,8 °C 20,9 °C 80 % 1012,9 hPa 0,0 mm 0,0 km/h (0 Bft) S-SO 158 ° 0 min 0,000 mm 0,0 UV-I 23 W/m² 17,2 °C 20,8 °C 0,0 km/h (0 Bft)
21.06.2017 21:11 20,9 °C 20,9 °C 80 % 1012,9 hPa 0,0 mm 0,0 km/h (0 Bft) S-SO 158 ° 0 min 0,000 mm 0,0 UV-I 21 W/m² 17,3 °C 20,9 °C 0,0 km/h (0 Bft)
21.06.2017 21:12 20,9 °C 20,9 °C 79 % 1013,0 hPa 0,0 mm 0,0 km/h (0 Bft) S-SO 158 ° 0 min 0,000 mm 0,0 UV-I 21 W/m² 17,1 °C 20,9 °C 0,0 km/h (0 Bft)
21.06.2017 21:13 20,8 °C 20,9 °C 80 % 1013,0 hPa 0,0 mm 0,0 km/h (0 Bft) S-SO 158 ° 0 min 0,000 mm 0,0 UV-I 19 W/m² 17,2 °C 20,8 °C 0,0 km/h (0 Bft)
21.06.2017 21:14 20,9 °C 20,9 °C 79 % 1013,0 hPa 0,0 mm 0,0 km/h (0 Bft) S-SO 158 ° 0 min 0,000 mm 0,0 UV-I 18 W/m² 17,1 °C 20,9 °C 0,0 km/h (0 Bft)
21.06.2017 21:15 20,8 °C 20,9 °C 79 % 1013,0 hPa 0,0 mm 0,0 km/h (0 Bft) S-SO 158 ° 0 min 0,000 mm 0,0 UV-I 14 W/m² 17,0 °C 20,8 °C 0,0 km/h (0 Bft)
21.06.2017 21:16 20,8 °C 20,8 °C 80 % 1013,0 hPa 0,0 mm 0,0 km/h (0 Bft) S-SO 158 ° 0 min 0,000 mm 0,0 UV-I 12 W/m² 17,2 °C 20,8 °C 0,0 km/h (0 Bft)
21.06.2017 21:17 20,7 °C 20,8 °C 80 % 1013,0 hPa 0,0 mm 0,0 km/h (0 Bft) S-SO 158 ° 0 min 0,000 mm 0,0 UV-I 11 W/m² 17,1 °C 20,7 °C 0,0 km/h (0 Bft)
21.06.2017 21:18 20,6 °C 20,7 °C 81 % 1013,0 hPa 0,0 mm 0,0 km/h (0 Bft) S-SO 158 ° 0 min 0,000 mm 0,0 UV-I 11 W/m² 17,2 °C 20,6 °C 0,0 km/h (0 Bft)
21.06.2017 21:19 20,6 °C 20,6 °C 81 % 1013,1 hPa 0,0 mm 0,0 km/h (0 Bft) S-SO 158 ° 0 min 0,000 mm 0,0 UV-I 11 W/m² 17,2 °C 20,6 °C 0,0 km/h (0 Bft)
21.06.2017 21:20 20,6 °C 20,6 °C 81 % 1013,1 hPa 0,0 mm 0,0 km/h (0 Bft) S-SO 158 ° 0 min 0,000 mm 0,0 UV-I 11 W/m² 17,2 °C 20,6 °C 0,0 km/h (0 Bft)
21.06.2017 21:21 20,6 °C 20,6 °C 81 % 1013,1 hPa 0,0 mm 0,0 km/h (0 Bft) S-SO 158 ° 0 min 0,000 mm 0,0 UV-I 9 W/m² 17,2 °C 20,6 °C 0,0 km/h (0 Bft)
21.06.2017 21:22 20,6 °C 20,6 °C 80 % 1013,1 hPa 0,0 mm 0,0 km/h (0 Bft) S-SO 158 ° 0 min 0,000 mm 0,0 UV-I 9 W/m² 17,0 °C 20,6 °C 0,0 km/h (0 Bft)
21.06.2017 21:23 20,6 °C 20,6 °C 80 % 1013,1 hPa 0,0 mm 0,0 km/h (0 Bft) S-SO 158 ° 0 min 0,000 mm 0,0 UV-I 9 W/m² 17,0 °C 20,6 °C 0,0 km/h (0 Bft)
21.06.2017 21:24 20,5 °C 20,6 °C 81 % 1013,1 hPa 0,0 mm 0,0 km/h (0 Bft) S-SO 158 ° 0 min 0,000 mm 0,0 UV-I 7 W/m² 17,1 °C 20,5 °C 0,0 km/h (0 Bft)
21.06.2017 21:25 20,4 °C 20,5 °C 81 % 1013,2 hPa 0,0 mm 0,0 km/h (0 Bft) S-SO 158 ° 0 min 0,000 mm 0,0 UV-I 7 W/m² 17,0 °C 20,4 °C 0,0 km/h (0 Bft)
21.06.2017 21:26 20,4 °C 20,4 °C 80 % 1013,2 hPa 0,0 mm 0,0 km/h (0 Bft) S-SO 158 ° 0 min 0,000 mm 0,0 UV-I 5 W/m² 16,8 °C 20,4 °C 0,0 km/h (0 Bft)
21.06.2017 21:27 20,4 °C 20,4 °C 80 % 1013,1 hPa 0,0 mm 0,0 km/h (0 Bft) S-SO 158 ° 0 min 0,000 mm 0,0 UV-I 0 W/m² 16,8 °C 20,4 °C 0,0 km/h (0 Bft)
21.06.2017 21:28 20,4 °C 20,4 °C 80 % 1013,1 hPa 0,0 mm 0,0 km/h (0 Bft) S-SO 158 ° 0 min 0,000 mm 0,0 UV-I 0 W/m² 16,8 °C 20,4 °C 0,0 km/h (0 Bft)
21.06.2017 21:29 20,4 °C 20,4 °C 80 % 1013,2 hPa 0,0 mm 0,0 km/h (0 Bft) S-SO 158 ° 0 min 0,000 mm 0,0 UV-I 0 W/m² 16,8 °C 20,4 °C 0,0 km/h (0 Bft)
21.06.2017 21:30 20,3 °C 20,4 °C 80 % 1013,2 hPa 0,0 mm 0,0 km/h (0 Bft) S-SO 158 ° 0 min 0,000 mm 0,0 UV-I 0 W/m² 16,7 °C 20,3 °C 0,0 km/h (0 Bft)
21.06.2017 21:31 20,2 °C 20,3 °C 80 % 1013,2 hPa 0,0 mm 0,0 km/h (0 Bft) S-SO 158 ° 0 min 0,000 mm 0,0 UV-I 0 W/m² 16,6 °C 20,2 °C 0,0 km/h (0 Bft)
21.06.2017 21:32 20,1 °C 20,2 °C 81 % 1013,2 hPa 0,0 mm 0,0 km/h (0 Bft) S-SO 158 ° 0 min 0,000 mm 0,0 UV-I 0 W/m² 16,7 °C 20,1 °C 0,0 km/h (0 Bft)
21.06.2017 21:33 20,1 °C 20,1 °C 81 % 1013,2 hPa 0,0 mm 0,0 km/h (0 Bft) S-SO 158 ° 0 min 0,000 mm 0,0 UV-I 0 W/m² 16,7 °C 20,1 °C 0,0 km/h (0 Bft)
21.06.2017 21:34 20,0 °C 20,1 °C 82 % 1013,2 hPa 0,0 mm 0,9 km/h (0 Bft) S-SO 158 ° 0 min 0,000 mm 0,0 UV-I 0 W/m² 16,8 °C 20,0 °C 3,2 km/h (1 Bft)
21.06.2017 21:35 19,9 °C 20,0 °C 82 % 1013,2 hPa 0,0 mm 2,7 km/h (1 Bft) S-SO 158 ° 0 min 0,000 mm 0,0 UV-I 0 W/m² 16,7 °C 19,9 °C 3,2 km/h (1 Bft)
21.06.2017 21:36 19,9 °C 19,9 °C 82 % 1013,2 hPa 0,0 mm 3,0 km/h (1 Bft) S-SO 158 ° 0 min 0,000 mm 0,0 UV-I 0 W/m² 16,7 °C 19,9 °C 3,2 km/h (1 Bft)
21.06.2017 21:37 19,8 °C 19,9 °C 82 % 1013,2 hPa 0,0 mm 2,9 km/h (1 Bft) S-SO 158 ° 0 min 0,000 mm 0,0 UV-I 0 W/m² 16,6 °C 19,8 °C 3,2 km/h (1 Bft)
21.06.2017 21:38 19,7 °C 19,8 °C 82 % 1013,2 hPa 0,0 mm 2,3 km/h (1 Bft) S-SO 158 ° 0 min 0,000 mm 0,0 UV-I 0 W/m² 16,5 °C 19,7 °C 3,2 km/h (1 Bft)
21.06.2017 21:39 19,6 °C 19,7 °C 82 % 1013,3 hPa 0,0 mm 1,2 km/h (1 Bft) S-SO 158 ° 0 min 0,000 mm 0,0 UV-I 0 W/m² 16,4 °C 19,6 °C 1,6 km/h (1 Bft)
21.06.2017 21:40 19,6 °C 19,6 °C 82 % 1013,2 hPa 0,0 mm 1,7 km/h (1 Bft) S-SO 158 ° 0 min 0,000 mm 0,0 UV-I 0 W/m² 16,4 °C 19,6 °C 3,2 km/h (1 Bft)
21.06.2017 21:41 19,5 °C 19,6 °C 82 % 1013,2 hPa 0,0 mm 1,2 km/h (1 Bft) S-SO 158 ° 0 min 0,000 mm 0,0 UV-I 0 W/m² 16,3 °C 19,5 °C 3,2 km/h (1 Bft)
21.06.2017 21:42 19,4 °C 19,5 °C 82 % 1013,3 hPa 0,0 mm 0,6 km/h (0 Bft) S-SO 158 ° 0 min 0,000 mm 0,0 UV-I 0 W/m² 16,2 °C 19,4 °C 1,6 km/h (1 Bft)
21.06.2017 21:43 19,4 °C 19,4 °C 82 % 1013,4 hPa 0,0 mm 0,1 km/h (0 Bft) S-SO 158 ° 0 min 0,000 mm 0,0 UV-I 0 W/m² 16,2 °C 19,4 °C 1,6 km/h (1 Bft)
21.06.2017 21:44 19,4 °C 19,4 °C 82 % 1013,4 hPa 0,0 mm 0,9 km/h (0 Bft) S-SO 158 ° 0 min 0,000 mm 0,0 UV-I 0 W/m² 16,2 °C 19,4 °C 1,6 km/h (1 Bft)
21.06.2017 21:45 19,4 °C 19,4 °C 82 % 1013,3 hPa 0,0 mm 1,2 km/h (1 Bft) S-SO 158 ° 0 min 0,000 mm 0,0 UV-I 0 W/m² 16,2 °C 19,4 °C 1,6 km/h (1 Bft)
21.06.2017 21:46 19,3 °C 19,4 °C 82 % 1013,3 hPa 0,0 mm 0,8 km/h (0 Bft) S-SO 158 ° 0 min 0,000 mm 0,0 UV-I 0 W/m² 16,1 °C 19,3 °C 1,6 km/h (1 Bft)
21.06.2017 21:47 19,3 °C 19,3 °C 82 % 1013,3 hPa 0,0 mm 2,2 km/h (1 Bft) S-SO 158 ° 0 min 0,000 mm 0,0 UV-I 0 W/m² 16,1 °C 19,3 °C 3,2 km/h (1 Bft)
21.06.2017 21:48 19,2 °C 19,3 °C 82 % 1013,3 hPa 0,0 mm 2,3 km/h (1 Bft) S-SO 158 ° 0 min 0,000 mm 0,0 UV-I 0 W/m² 16,0 °C 19,2 °C 3,2 km/h (1 Bft)
21.06.2017 21:49 19,2 °C 19,2 °C 82 % 1013,3 hPa 0,0 mm 2,6 km/h (1 Bft) S-SO 158 ° 0 min 0,000 mm 0,0 UV-I 0 W/m² 16,0 °C 19,2 °C 4,8 km/h (1 Bft)
21.06.2017 21:50 19,1 °C 19,2 °C 82 % 1013,3 hPa 0,0 mm 2,0 km/h (1 Bft) S-SO 158 ° 0 min 0,000 mm 0,0 UV-I 0 W/m² 16,0 °C 19,1 °C 3,2 km/h (1 Bft)
21.06.2017 21:51 19,1 °C 19,1 °C 82 % 1013,3 hPa 0,0 mm 3,0 km/h (1 Bft) S-SO 158 ° 0 min 0,000 mm 0,0 UV-I 0 W/m² 16,0 °C 19,1 °C 4,8 km/h (1 Bft)
21.06.2017 21:52 19,1 °C 19,1 °C 82 % 1013,4 hPa 0,0 mm 2,5 km/h (1 Bft) S-SO 158 ° 0 min 0,000 mm 0,0 UV-I 0 W/m² 16,0 °C 19,1 °C 4,8 km/h (1 Bft)
21.06.2017 21:53 19,1 °C 19,1 °C 82 % 1013,4 hPa 0,0 mm 2,6 km/h (1 Bft) S-SO 158 ° 0 min 0,000 mm 0,0 UV-I 0 W/m² 16,0 °C 19,1 °C 3,2 km/h (1 Bft)
21.06.2017 21:54 19,1 °C 19,1 °C 81 % 1013,4 hPa 0,0 mm 1,8 km/h (1 Bft) S-SO 158 ° 0 min 0,000 mm 0,0 UV-I 0 W/m² 15,8 °C 19,1 °C 3,2 km/h (1 Bft)
21.06.2017 21:55 19,0 °C 19,1 °C 81 % 1013,4 hPa 0,0 mm 2,6 km/h (1 Bft) S-SO 158 ° 0 min 0,000 mm 0,0 UV-I 0 W/m² 15,7 °C 19,0 °C 4,8 km/h (1 Bft)
21.06.2017 21:56 19,0 °C 19,1 °C 81 % 1013,5 hPa 0,0 mm 2,5 km/h (1 Bft) S-SO 158 ° 0 min 0,000 mm 0,0 UV-I 0 W/m² 15,7 °C 19,0 °C 4,8 km/h (1 Bft)
21.06.2017 21:57 19,1 °C 19,1 °C 81 % 1013,5 hPa 0,0 mm 2,5 km/h (1 Bft) S-SO 158 ° 0 min 0,000 mm 0,0 UV-I 0 W/m² 15,8 °C 19,1 °C 3,2 km/h (1 Bft)
21.06.2017 21:58 19,1 °C 19,1 °C 81 % 1013,5 hPa 0,0 mm 1,2 km/h (1 Bft) S-SO 158 ° 0 min 0,000 mm 0,0 UV-I 0 W/m² 15,8 °C 19,1 °C 3,2 km/h (1 Bft)
21.06.2017 21:59 19,1 °C 19,2 °C 81 % 1013,5 hPa 0,0 mm 1,3 km/h (1 Bft) S-SO 156 ° 0 min 0,000 mm 0,0 UV-I 0 W/m² 15,8 °C 19,1 °C 3,2 km/h (1 Bft)
21.06.2017 22:00 19,2 °C 19,2 °C 80 % 1013,5 hPa 0,0 mm 1,4 km/h (1 Bft) S-SO 156 ° 0 min 0,000 mm 0,0 UV-I 0 W/m² 15,7 °C 19,2 °C 1,6 km/h (1 Bft)
21.06.2017 22:01 19,2 °C 19,2 °C 80 % 1013,6 hPa 0,0 mm 1,1 km/h (1 Bft) S-SO 156 ° 0 min 0,000 mm 0,0 UV-I 0 W/m² 15,7 °C 19,2 °C 3,2 km/h (1 Bft)
21.06.2017 22:02 19,2 °C 19,3 °C 80 % 1013,6 hPa 0,0 mm 0,9 km/h (0 Bft) S-SO 156 ° 0 min 0,000 mm 0,0 UV-I 0 W/m² 15,7 °C 19,2 °C 3,2 km/h (1 Bft)
21.06.2017 22:03 19,2 °C 19,3 °C 80 % 1013,5 hPa 0,0 mm 0,0 km/h (0 Bft) S-SO 156 ° 0 min 0,000 mm 0,0 UV-I 0 W/m² 15,7 °C 19,2 °C 0,0 km/h (0 Bft)
21.06.2017 22:04 19,2 °C 19,3 °C 79 % 1013,5 hPa 0,0 mm 0,0 km/h (0 Bft) S-SO 156 ° 0 min 0,000 mm 0,0 UV-I 0 W/m² 15,5 °C 19,2 °C 0,0 km/h (0 Bft)
21.06.2017 22:05 19,2 °C 19,3 °C 80 % 1013,5 hPa 0,0 mm 0,0 km/h (0 Bft) S-SO 156 ° 0 min 0,000 mm 0,0 UV-I 0 W/m² 15,7 °C 19,2 °C 0,0 km/h (0 Bft)
21.06.2017 22:06 19,2 °C 19,3 °C 80 % 1013,5 hPa 0,0 mm 0,0 km/h (0 Bft) S-SO 156 ° 0 min 0,000 mm 0,0 UV-I 0 W/m² 15,7 °C 19,2 °C 0,0 km/h (0 Bft)
21.06.2017 22:07 19,2 °C 19,2 °C 81 % 1013,6 hPa 0,0 mm 0,0 km/h (0 Bft) S-SO 156 ° 0 min 0,000 mm 0,0 UV-I 0 W/m² 15,9 °C 19,2 °C 0,0 km/h (0 Bft)
21.06.2017 22:08 19,2 °C 19,2 °C 81 % 1013,5 hPa 0,0 mm 0,0 km/h (0 Bft) S-SO 156 ° 0 min 0,000 mm 0,0 UV-I 0 W/m² 15,9 °C 19,2 °C 0,0 km/h (0 Bft)
21.06.2017 22:09 19,2 °C 19,2 °C 81 % 1013,5 hPa 0,0 mm 0,0 km/h (0 Bft) S-SO 156 ° 0 min 0,000 mm 0,0 UV-I 0 W/m² 15,9 °C 19,2 °C 0,0 km/h (0 Bft)
21.06.2017 22:10 19,2 °C 19,2 °C 80 % 1013,6 hPa 0,0 mm 0,0 km/h (0 Bft) S-SO 156 ° 0 min 0,000 mm 0,0 UV-I 0 W/m² 15,7 °C 19,2 °C 0,0 km/h (0 Bft)
21.06.2017 22:11 19,1 °C 19,2 °C 80 % 1013,6 hPa 0,0 mm 0,1 km/h (0 Bft) S-SO 156 ° 0 min 0,000 mm 0,0 UV-I 0 W/m² 15,6 °C 19,1 °C 1,6 km/h (1 Bft)
21.06.2017 22:12 19,1 °C 19,2 °C 81 % 1013,6 hPa 0,0 mm 0,3 km/h (0 Bft) S-SO 156 ° 0 min 0,000 mm 0,0 UV-I 0 W/m² 15,8 °C 19,1 °C 1,6 km/h (1 Bft)
21.06.2017 22:13 19,1 °C 19,1 °C 80 % 1013,6 hPa 0,0 mm 1,2 km/h (1 Bft) S-SO 156 ° 0 min 0,000 mm 0,0 UV-I 0 W/m² 15,6 °C 19,1 °C 3,2 km/h (1 Bft)
21.06.2017 22:14 19,2 °C 19,2 °C 80 % 1013,6 hPa 0,0 mm 1,7 km/h (1 Bft) S-SO 156 ° 0 min 0,000 mm 0,0 UV-I 0 W/m² 15,7 °C 19,2 °C 3,2 km/h (1 Bft)
21.06.2017 22:15 19,1 °C 19,2 °C 80 % 1013,6 hPa 0,0 mm 2,0 km/h (1 Bft) S-SO 156 ° 0 min 0,000 mm 0,0 UV-I 0 W/m² 15,6 °C 19,1 °C 3,2 km/h (1 Bft)
21.06.2017 22:16 19,1 °C 19,1 °C 80 % 1013,6 hPa 0,0 mm 1,7 km/h (1 Bft) S-SO 156 ° 0 min 0,000 mm 0,0 UV-I 0 W/m² 15,6 °C 19,1 °C 3,2 km/h (1 Bft)
21.06.2017 22:17 18,9 °C 19,1 °C 81 % 1013,6 hPa 0,0 mm 2,7 km/h (1 Bft) S-SO 156 ° 0 min 0,000 mm 0,0 UV-I 0 W/m² 15,6 °C 18,9 °C 3,2 km/h (1 Bft)
21.06.2017 22:18 18,9 °C 18,9 °C 81 % 1013,6 hPa 0,0 mm 2,9 km/h (1 Bft) S-SO 156 ° 0 min 0,000 mm 0,0 UV-I 0 W/m² 15,6 °C 18,9 °C 4,8 km/h (1 Bft)
21.06.2017 22:19 18,8 °C 18,9 °C 81 % 1013,6 hPa 0,0 mm 2,8 km/h (1 Bft) S-SO 156 ° 0 min 0,000 mm 0,0 UV-I 0 W/m² 15,5 °C 18,8 °C 3,2 km/h (1 Bft)
21.06.2017 22:20 18,7 °C 18,8 °C 82 % 1013,7 hPa 0,0 mm 2,8 km/h (1 Bft) S-SO 156 ° 0 min 0,000 mm 0,0 UV-I 0 W/m² 15,6 °C 18,7 °C 3,2 km/h (1 Bft)
21.06.2017 22:21 18,7 °C 18,7 °C 82 % 1013,6 hPa 0,0 mm 2,4 km/h (1 Bft) S-SO 156 ° 0 min 0,000 mm 0,0 UV-I 0 W/m² 15,6 °C 18,7 °C 3,2 km/h (1 Bft)
21.06.2017 22:22 18,6 °C 18,7 °C 82 % 1013,6 hPa 0,0 mm 1,9 km/h (1 Bft) S-SO 156 ° 0 min 0,000 mm 0,0 UV-I 0 W/m² 15,5 °C 18,6 °C 3,2 km/h (1 Bft)
21.06.2017 22:23 18,5 °C 18,6 °C 82 % 1013,6 hPa 0,0 mm 0,3 km/h (0 Bft) S-SO 156 ° 0 min 0,000 mm 0,0 UV-I 0 W/m² 15,4 °C 18,5 °C 1,6 km/h (1 Bft)
21.06.2017 22:24 18,5 °C 18,5 °C 82 % 1013,6 hPa 0,0 mm 0,0 km/h (0 Bft) S-SO 156 ° 0 min 0,000 mm 0,0 UV-I 0 W/m² 15,4 °C 18,5 °C 0,0 km/h (0 Bft)
21.06.2017 22:25 18,5 °C 18,5 °C 82 % 1013,6 hPa 0,0 mm 0,1 km/h (0 Bft) S-SO 156 ° 0 min 0,000 mm 0,0 UV-I 0 W/m² 15,4 °C 18,5 °C 1,6 km/h (1 Bft)
21.06.2017 22:26 18,4 °C 18,5 °C 83 % 1013,6 hPa 0,0 mm 1,9 km/h (1 Bft) S-SO 156 ° 0 min 0,000 mm 0,0 UV-I 0 W/m² 15,5 °C 18,4 °C 3,2 km/h (1 Bft)
21.06.2017 22:27 18,4 °C 18,4 °C 83 % 1013,6 hPa 0,0 mm 1,5 km/h (1 Bft) S-SO 156 ° 0 min 0,000 mm 0,0 UV-I 0 W/m² 15,5 °C 18,4 °C 3,2 km/h (1 Bft)
21.06.2017 22:28 18,4 °C 18,4 °C 83 % 1013,6 hPa 0,0 mm 0,0 km/h (0 Bft) S-SO 156 ° 0 min 0,000 mm 0,0 UV-I 0 W/m² 15,5 °C 18,4 °C 0,0 km/h (0 Bft)
21.06.2017 22:29 18,3 °C 18,4 °C 83 % 1013,7 hPa 0,0 mm 0,2 km/h (0 Bft) S-SO 156 ° 0 min 0,000 mm 0,0 UV-I 0 W/m² 15,4 °C 18,3 °C 1,6 km/h (1 Bft)
21.06.2017 22:30 18,3 °C 18,3 °C 83 % 1013,7 hPa 0,0 mm 0,8 km/h (0 Bft) S-SO 156 ° 0 min 0,000 mm 0,0 UV-I 0 W/m² 15,4 °C 18,3 °C 3,2 km/h (1 Bft)
21.06.2017 22:31 18,3 °C 18,3 °C 84 % 1013,7 hPa 0,0 mm 0,2 km/h (0 Bft) S-SO 156 ° 0 min 0,000 mm 0,0 UV-I 0 W/m² 15,5 °C 18,3 °C 1,6 km/h (1 Bft)
21.06.2017 22:32 18,3 °C 18,3 °C 83 % 1013,7 hPa 0,0 mm 0,0 km/h (0 Bft) S-SO 156 ° 0 min 0,000 mm 0,0 UV-I 0 W/m² 15,4 °C 18,3 °C 0,0 km/h (0 Bft)
21.06.2017 22:33 18,4 °C 18,4 °C 83 % 1013,6 hPa 0,0 mm 0,0 km/h (0 Bft) S-SO 156 ° 0 min 0,000 mm 0,0 UV-I 0 W/m² 15,5 °C 18,4 °C 0,0 km/h (0 Bft)
21.06.2017 22:34 18,4 °C 18,4 °C 83 % 1013,6 hPa 0,0 mm 0,0 km/h (0 Bft) S-SO 156 ° 0 min 0,000 mm 0,0 UV-I 0 W/m² 15,5 °C 18,4 °C 0,0 km/h (0 Bft)
21.06.2017 22:35 18,6 °C 18,6 °C 83 % 1013,6 hPa 0,0 mm 0,0 km/h (0 Bft) S-SO 156 ° 0 min 0,000 mm 0,0 UV-I 0 W/m² 15,7 °C 18,6 °C 0,0 km/h (0 Bft)
21.06.2017 22:36 18,7 °C 18,7 °C 83 % 1013,6 hPa 0,0 mm 0,0 km/h (0 Bft) S-SO 156 ° 0 min 0,000 mm 0,0 UV-I 0 W/m² 15,8 °C 18,7 °C 0,0 km/h (0 Bft)
21.06.2017 22:37 18,8 °C 18,8 °C 83 % 1013,7 hPa 0,0 mm 0,0 km/h (0 Bft) S-SO 156 ° 0 min 0,000 mm 0,0 UV-I 0 W/m² 15,8 °C 18,8 °C 0,0 km/h (0 Bft)
21.06.2017 22:38 18,8 °C 18,8 °C 83 % 1013,6 hPa 0,0 mm 0,0 km/h (0 Bft) S-SO 156 ° 0 min 0,000 mm 0,0 UV-I 0 W/m² 15,8 °C 18,8 °C 0,0 km/h (0 Bft)
21.06.2017 22:39 18,9 °C 18,9 °C 83 % 1013,6 hPa 0,0 mm 0,0 km/h (0 Bft) S-SO 156 ° 0 min 0,000 mm 0,0 UV-I 0 W/m² 15,9 °C 18,9 °C 0,0 km/h (0 Bft)
21.06.2017 22:40 19,0 °C 19,0 °C 83 % 1013,6 hPa 0,0 mm 0,0 km/h (0 Bft) S-SO 156 ° 0 min 0,000 mm 0,0 UV-I 0 W/m² 16,0 °C 19,0 °C 0,0 km/h (0 Bft)
21.06.2017 22:41 19,0 °C 19,0 °C 82 % 1013,6 hPa 0,0 mm 0,5 km/h (0 Bft) S-SO 156 ° 0 min 0,000 mm 0,0 UV-I 0 W/m² 15,9 °C 19,0 °C 1,6 km/h (1 Bft)
21.06.2017 22:42 19,1 °C 19,1 °C 82 % 1013,6 hPa 0,0 mm 2,7 km/h (1 Bft) S-SO 156 ° 0 min 0,000 mm 0,0 UV-I 0 W/m² 16,0 °C 19,1 °C 3,2 km/h (1 Bft)
21.06.2017 22:43 19,1 °C 19,1 °C 82 % 1013,6 hPa 0,0 mm 1,9 km/h (1 Bft) S-SO 156 ° 0 min 0,000 mm 0,0 UV-I 0 W/m² 16,0 °C 19,1 °C 3,2 km/h (1 Bft)
21.06.2017 22:44 19,1 °C 19,1 °C 82 % 1013,6 hPa 0,0 mm 0,9 km/h (0 Bft) S-SO 156 ° 0 min 0,000 mm 0,0 UV-I 0 W/m² 16,0 °C 19,1 °C 1,6 km/h (1 Bft)
21.06.2017 22:45 19,1 °C 19,1 °C 82 % 1013,7 hPa 0,0 mm 0,0 km/h (0 Bft) S-SO 156 ° 0 min 0,000 mm 0,0 UV-I 0 W/m² 16,0 °C 19,1 °C 0,0 km/h (0 Bft)
21.06.2017 22:46 19,0 °C 19,1 °C 82 % 1013,6 hPa 0,0 mm 0,0 km/h (0 Bft) S-SO 156 ° 0 min 0,000 mm 0,0 UV-I 0 W/m² 15,9 °C 19,0 °C 0,0 km/h (0 Bft)
21.06.2017 22:47 18,9 °C 19,0 °C 82 % 1013,7 hPa 0,0 mm 0,0 km/h (0 Bft) S-SO 156 ° 0 min 0,000 mm 0,0 UV-I 0 W/m² 15,8 °C 18,9 °C 0,0 km/h (0 Bft)
21.06.2017 22:48 18,7 °C 18,9 °C 82 % 1013,6 hPa 0,0 mm 1,4 km/h (1 Bft) S-SO 156 ° 0 min 0,000 mm 0,0 UV-I 0 W/m² 15,6 °C 18,7 °C 3,2 km/h (1 Bft)
21.06.2017 22:49 18,6 °C 18,7 °C 82 % 1013,6 hPa 0,0 mm 0,0 km/h (0 Bft) S-SO 156 ° 0 min 0,000 mm 0,0 UV-I 0 W/m² 15,5 °C 18,6 °C 0,0 km/h (0 Bft)
21.06.2017 22:50 18,4 °C 18,6 °C 83 % 1013,7 hPa 0,0 mm 0,0 km/h (0 Bft) S-SO 156 ° 0 min 0,000 mm 0,0 UV-I 0 W/m² 15,5 °C 18,4 °C 0,0 km/h (0 Bft)
21.06.2017 22:51 18,4 °C 18,4 °C 83 % 1013,7 hPa 0,0 mm 0,0 km/h (0 Bft) S-SO 156 ° 0 min 0,000 mm 0,0 UV-I 0 W/m² 15,5 °C 18,4 °C 0,0 km/h (0 Bft)
21.06.2017 22:52 18,3 °C 18,4 °C 83 % 1013,6 hPa 0,0 mm 0,0 km/h (0 Bft) S-SO 156 ° 0 min 0,000 mm 0,0 UV-I 0 W/m² 15,4 °C 18,3 °C 0,0 km/h (0 Bft)
21.06.2017 22:53 18,3 °C 18,3 °C 84 % 1013,7 hPa 0,0 mm 0,0 km/h (0 Bft) S-SO 156 ° 0 min 0,000 mm 0,0 UV-I 0 W/m² 15,5 °C 18,3 °C 0,0 km/h (0 Bft)
21.06.2017 22:54 18,3 °C 18,3 °C 84 % 1013,6 hPa 0,0 mm 0,0 km/h (0 Bft) S-SO 156 ° 0 min 0,000 mm 0,0 UV-I 0 W/m² 15,5 °C 18,3 °C 0,0 km/h (0 Bft)
21.06.2017 22:55 18,3 °C 18,3 °C 84 % 1013,7 hPa 0,0 mm 0,0 km/h (0 Bft) S-SO 156 ° 0 min 0,000 mm 0,0 UV-I 0 W/m² 15,5 °C 18,3 °C 0,0 km/h (0 Bft)
21.06.2017 22:56 18,3 °C 18,3 °C 83 % 1013,7 hPa 0,0 mm 1,1 km/h (1 Bft) S-SO 156 ° 0 min 0,000 mm 0,0 UV-I 0 W/m² 15,4 °C 18,3 °C 1,6 km/h (1 Bft)
21.06.2017 22:57 18,2 °C 18,3 °C 83 % 1013,7 hPa 0,0 mm 0,0 km/h (0 Bft) S-SO 156 ° 0 min 0,000 mm 0,0 UV-I 0 W/m² 15,3 °C 18,2 °C 0,0 km/h (0 Bft)
21.06.2017 22:58 18,2 °C 18,2 °C 83 % 1013,7 hPa 0,0 mm 0,0 km/h (0 Bft) S-SO 156 ° 0 min 0,000 mm 0,0 UV-I 0 W/m² 15,3 °C 18,2 °C 0,0 km/h (0 Bft)
21.06.2017 22:59 18,2 °C 18,2 °C 83 % 1013,7 hPa 0,0 mm 0,3 km/h (0 Bft) S-SO 156 ° 0 min 0,000 mm 0,0 UV-I 0 W/m² 15,3 °C 18,2 °C 1,6 km/h (1 Bft)
21.06.2017 23:00 18,2 °C 18,2 °C 83 % 1013,7 hPa 0,0 mm 1,3 km/h (1 Bft) S-SO 156 ° 0 min 0,000 mm 0,0 UV-I 0 W/m² 15,3 °C 18,2 °C 3,2 km/h (1 Bft)
21.06.2017 23:01 18,2 °C 18,2 °C 83 % 1013,7 hPa 0,0 mm 0,6 km/h (0 Bft) S-SO 156 ° 0 min 0,026 mm 0,0 UV-I 0 W/m² 15,3 °C 18,2 °C 1,6 km/h (1 Bft)
21.06.2017 23:02 18,2 °C 18,2 °C 83 % 1013,6 hPa 0,0 mm 0,0 km/h (0 Bft) S-SO 156 ° 0 min 0,000 mm 0,0 UV-I 0 W/m² 15,3 °C 18,2 °C 0,0 km/h (0 Bft)
21.06.2017 23:03 18,2 °C 18,2 °C 83 % 1013,7 hPa 0,0 mm 0,0 km/h (0 Bft) S-SO 156 ° 0 min 0,000 mm 0,0 UV-I 0 W/m² 15,3 °C 18,2 °C 0,0 km/h (0 Bft)
21.06.2017 23:04 18,1 °C 18,2 °C 83 % 1013,7 hPa 0,0 mm 0,0 km/h (0 Bft) S-SO 156 ° 0 min 0,000 mm 0,0 UV-I 0 W/m² 15,2 °C 18,1 °C 0,0 km/h (0 Bft)
21.06.2017 23:05 18,1 °C 18,1 °C 83 % 1013,7 hPa 0,0 mm 0,0 km/h (0 Bft) S-SO 156 ° 0 min 0,000 mm 0,0 UV-I 0 W/m² 15,2 °C 18,1 °C 0,0 km/h (0 Bft)
21.06.2017 23:06 18,1 °C 18,1 °C 82 % 1013,7 hPa 0,0 mm 0,0 km/h (0 Bft) S-SO 156 ° 0 min 0,000 mm 0,0 UV-I 0 W/m² 15,0 °C 18,1 °C 0,0 km/h (0 Bft)
21.06.2017 23:07 18,1 °C 18,1 °C 82 % 1013,6 hPa 0,0 mm 0,0 km/h (0 Bft) S-SO 156 ° 0 min 0,000 mm 0,0 UV-I 0 W/m² 15,0 °C 18,1 °C 0,0 km/h (0 Bft)
21.06.2017 23:08 18,1 °C 18,1 °C 82 % 1013,6 hPa 0,0 mm 0,0 km/h (0 Bft) S-SO 156 ° 0 min 0,000 mm 0,0 UV-I 0 W/m² 15,0 °C 18,1 °C 0,0 km/h (0 Bft)
21.06.2017 23:09 18,0 °C 18,1 °C 83 % 1013,6 hPa 0,0 mm 0,0 km/h (0 Bft) S-SO 156 ° 0 min 0,000 mm 0,0 UV-I 0 W/m² 15,1 °C 18,0 °C 0,0 km/h (0 Bft)
21.06.2017 23:10 17,9 °C 18,0 °C 84 % 1013,6 hPa 0,0 mm 0,0 km/h (0 Bft) S-SO 156 ° 0 min 0,000 mm 0,0 UV-I 0 W/m² 15,2 °C 17,9 °C 0,0 km/h (0 Bft)
21.06.2017 23:11 17,8 °C 17,9 °C 84 % 1013,6 hPa 0,0 mm 0,0 km/h (0 Bft) S-SO 156 ° 0 min 0,000 mm 0,0 UV-I 0 W/m² 15,1 °C 17,8 °C 0,0 km/h (0 Bft)
21.06.2017 23:12 17,7 °C 17,8 °C 84 % 1013,6 hPa 0,0 mm 0,0 km/h (0 Bft) S-SO 156 ° 0 min 0,000 mm 0,0 UV-I 0 W/m² 15,0 °C 17,7 °C 0,0 km/h (0 Bft)
21.06.2017 23:13 17,7 °C 17,7 °C 85 % 1013,6 hPa 0,0 mm 0,0 km/h (0 Bft) S-SO 156 ° 0 min 0,000 mm 0,0 UV-I 0 W/m² 15,1 °C 17,7 °C 0,0 km/h (0 Bft)
21.06.2017 23:14 17,6 °C 17,7 °C 85 % 1013,5 hPa 0,0 mm 0,0 km/h (0 Bft) S-SO 156 ° 0 min 0,000 mm 0,0 UV-I 0 W/m² 15,0 °C 17,6 °C 0,0 km/h (0 Bft)
21.06.2017 23:15 17,5 °C 17,6 °C 85 % 1013,6 hPa 0,0 mm 0,0 km/h (0 Bft) S-SO 156 ° 0 min 0,000 mm 0,0 UV-I 0 W/m² 14,9 °C 17,5 °C 0,0 km/h (0 Bft)
21.06.2017 23:16 17,4 °C 17,5 °C 86 % 1013,5 hPa 0,0 mm 0,0 km/h (0 Bft) S-SO 156 ° 0 min 0,000 mm 0,0 UV-I 0 W/m² 15,0 °C 17,4 °C 0,0 km/h (0 Bft)
21.06.2017 23:17 17,4 °C 17,5 °C 86 % 1013,5 hPa 0,0 mm 0,0 km/h (0 Bft) S-SO 156 ° 0 min 0,000 mm 0,0 UV-I 0 W/m² 15,0 °C 17,4 °C 0,0 km/h (0 Bft)
21.06.2017 23:18 17,4 °C 17,4 °C 86 % 1013,5 hPa 0,0 mm 0,0 km/h (0 Bft) S-SO 156 ° 0 min 0,000 mm 0,0 UV-I 0 W/m² 15,0 °C 17,4 °C 0,0 km/h (0 Bft)
21.06.2017 23:19 17,4 °C 17,4 °C 86 % 1013,6 hPa 0,0 mm 0,0 km/h (0 Bft) S-SO 156 ° 0 min 0,000 mm 0,0 UV-I 0 W/m² 15,0 °C 17,4 °C 0,0 km/h (0 Bft)
21.06.2017 23:20 17,5 °C 17,5 °C 85 % 1013,5 hPa 0,0 mm 0,0 km/h (0 Bft) S-SO 156 ° 0 min 0,000 mm 0,0 UV-I 0 W/m² 14,9 °C 17,5 °C 0,0 km/h (0 Bft)
21.06.2017 23:21 17,5 °C 17,5 °C 85 % 1013,5 hPa 0,0 mm 0,0 km/h (0 Bft) S-SO 156 ° 0 min 0,000 mm 0,0 UV-I 0 W/m² 14,9 °C 17,5 °C 0,0 km/h (0 Bft)
21.06.2017 23:22 17,5 °C 17,5 °C 85 % 1013,5 hPa 0,0 mm 0,0 km/h (0 Bft) S-SO 156 ° 0 min 0,000 mm 0,0 UV-I 0 W/m² 14,9 °C 17,5 °C 0,0 km/h (0 Bft)
21.06.2017 23:23 17,6 °C 17,6 °C 85 % 1013,5 hPa 0,0 mm 0,0 km/h (0 Bft) S-SO 156 ° 0 min 0,000 mm 0,0 UV-I 0 W/m² 15,0 °C 17,6 °C 0,0 km/h (0 Bft)
21.06.2017 23:24 17,6 °C 17,6 °C 85 % 1013,5 hPa 0,0 mm 0,0 km/h (0 Bft) S-SO 156 ° 0 min 0,000 mm 0,0 UV-I 0 W/m² 15,0 °C 17,6 °C 0,0 km/h (0 Bft)
21.06.2017 23:25 17,5 °C 17,6 °C 85 % 1013,5 hPa 0,0 mm 0,0 km/h (0 Bft) S-SO 156 ° 0 min 0,000 mm 0,0 UV-I 0 W/m² 14,9 °C 17,5 °C 0,0 km/h (0 Bft)
21.06.2017 23:26 17,5 °C 17,6 °C 85 % 1013,5 hPa 0,0 mm 0,0 km/h (0 Bft) S-SO 156 ° 0 min 0,000 mm 0,0 UV-I 0 W/m² 14,9 °C 17,5 °C 0,0 km/h (0 Bft)
21.06.2017 23:27 17,6 °C 17,6 °C 84 % 1013,5 hPa 0,0 mm 0,0 km/h (0 Bft) S-SO 156 ° 0 min 0,000 mm 0,0 UV-I 0 W/m² 14,9 °C 17,6 °C 0,0 km/h (0 Bft)
21.06.2017 23:28 17,6 °C 17,6 °C 84 % 1013,5 hPa 0,0 mm 0,0 km/h (0 Bft) S-SO 156 ° 0 min 0,000 mm 0,0 UV-I 0 W/m² 14,9 °C 17,6 °C 0,0 km/h (0 Bft)
21.06.2017 23:29 17,6 °C 17,6 °C 84 % 1013,5 hPa 0,0 mm 0,0 km/h (0 Bft) S-SO 156 ° 0 min 0,000 mm 0,0 UV-I 0 W/m² 14,9 °C 17,6 °C 0,0 km/h (0 Bft)
21.06.2017 23:30 17,6 °C 17,6 °C 84 % 1013,5 hPa 0,0 mm 0,0 km/h (0 Bft) S-SO 156 ° 0 min 0,000 mm 0,0 UV-I 0 W/m² 14,9 °C 17,6 °C 0,0 km/h (0 Bft)
21.06.2017 23:31 17,6 °C 17,6 °C 84 % 1013,5 hPa 0,0 mm 0,0 km/h (0 Bft) S-SO 156 ° 0 min 0,000 mm 0,0 UV-I 0 W/m² 14,9 °C 17,6 °C 0,0 km/h (0 Bft)
21.06.2017 23:32 17,6 °C 17,6 °C 84 % 1013,4 hPa 0,0 mm 0,0 km/h (0 Bft) S-SO 156 ° 0 min 0,000 mm 0,0 UV-I 0 W/m² 14,9 °C 17,6 °C 0,0 km/h (0 Bft)
21.06.2017 23:33 17,5 °C 17,6 °C 84 % 1013,4 hPa 0,0 mm 0,0 km/h (0 Bft) S-SO 156 ° 0 min 0,000 mm 0,0 UV-I 0 W/m² 14,8 °C 17,5 °C 0,0 km/h (0 Bft)
21.06.2017 23:34 17,5 °C 17,6 °C 84 % 1013,5 hPa 0,0 mm 0,0 km/h (0 Bft) S-SO 156 ° 0 min 0,000 mm 0,0 UV-I 0 W/m² 14,8 °C 17,5 °C 0,0 km/h (0 Bft)
21.06.2017 23:35 17,5 °C 17,5 °C 85 % 1013,4 hPa 0,0 mm 0,0 km/h (0 Bft) S-SO 156 ° 0 min 0,000 mm 0,0 UV-I 0 W/m² 14,9 °C 17,5 °C 0,0 km/h (0 Bft)
21.06.2017 23:36 17,4 °C 17,5 °C 84 % 1013,4 hPa 0,0 mm 0,0 km/h (0 Bft) S-SO 156 ° 0 min 0,000 mm 0,0 UV-I 0 W/m² 14,7 °C 17,4 °C 0,0 km/h (0 Bft)
21.06.2017 23:37 17,4 °C 17,4 °C 84 % 1013,4 hPa 0,0 mm 0,0 km/h (0 Bft) S-SO 156 ° 0 min 0,000 mm 0,0 UV-I 0 W/m² 14,7 °C 17,4 °C 0,0 km/h (0 Bft)
21.06.2017 23:38 17,4 °C 17,4 °C 84 % 1013,4 hPa 0,0 mm 0,0 km/h (0 Bft) S-SO 156 ° 0 min 0,000 mm 0,0 UV-I 0 W/m² 14,7 °C 17,4 °C 0,0 km/h (0 Bft)
21.06.2017 23:39 17,5 °C 17,5 °C 84 % 1013,4 hPa 0,0 mm 0,0 km/h (0 Bft) S-SO 156 ° 0 min 0,000 mm 0,0 UV-I 0 W/m² 14,8 °C 17,5 °C 0,0 km/h (0 Bft)
21.06.2017 23:40 17,5 °C 17,5 °C 83 % 1013,4 hPa 0,0 mm 0,0 km/h (0 Bft) S-SO 156 ° 0 min 0,000 mm 0,0 UV-I 0 W/m² 14,6 °C 17,5 °C 0,0 km/h (0 Bft)
21.06.2017 23:41 17,5 °C 17,5 °C 83 % 1013,3 hPa 0,0 mm 0,0 km/h (0 Bft) S-SO 156 ° 0 min 0,000 mm 0,0 UV-I 0 W/m² 14,6 °C 17,5 °C 0,0 km/h (0 Bft)
21.06.2017 23:42 17,6 °C 17,6 °C 83 % 1013,3 hPa 0,0 mm 0,0 km/h (0 Bft) S-SO 156 ° 0 min 0,000 mm 0,0 UV-I 0 W/m² 14,7 °C 17,6 °C 0,0 km/h (0 Bft)
21.06.2017 23:43 17,6 °C 17,6 °C 83 % 1013,4 hPa 0,0 mm 0,0 km/h (0 Bft) S-SO 156 ° 0 min 0,000 mm 0,0 UV-I 0 W/m² 14,7 °C 17,6 °C 0,0 km/h (0 Bft)
21.06.2017 23:44 17,6 °C 17,6 °C 82 % 1013,3 hPa 0,0 mm 0,0 km/h (0 Bft) S-SO 156 ° 0 min 0,000 mm 0,0 UV-I 0 W/m² 14,5 °C 17,6 °C 0,0 km/h (0 Bft)
21.06.2017 23:45 17,6 °C 17,7 °C 82 % 1013,3 hPa 0,0 mm 0,0 km/h (0 Bft) S-SO 156 ° 0 min 0,000 mm 0,0 UV-I 0 W/m² 14,5 °C 17,6 °C 0,0 km/h (0 Bft)
21.06.2017 23:46 17,7 °C 17,7 °C 82 % 1013,3 hPa 0,0 mm 0,0 km/h (0 Bft) S-SO 156 ° 0 min 0,000 mm 0,0 UV-I 0 W/m² 14,6 °C 17,7 °C 0,0 km/h (0 Bft)
21.06.2017 23:47 17,8 °C 17,8 °C 82 % 1013,3 hPa 0,0 mm 0,0 km/h (0 Bft) S-SO 156 ° 0 min 0,000 mm 0,0 UV-I 0 W/m² 14,7 °C 17,8 °C 0,0 km/h (0 Bft)
21.06.2017 23:48 17,8 °C 17,8 °C 81 % 1013,3 hPa 0,0 mm 0,0 km/h (0 Bft) S-SO 156 ° 0 min 0,000 mm 0,0 UV-I 0 W/m² 14,5 °C 17,8 °C 0,0 km/h (0 Bft)
21.06.2017 23:49 17,8 °C 17,9 °C 81 % 1013,3 hPa 0,0 mm 0,0 km/h (0 Bft) S-SO 156 ° 0 min 0,000 mm 0,0 UV-I 0 W/m² 14,5 °C 17,8 °C 0,0 km/h (0 Bft)
21.06.2017 23:50 17,9 °C 17,9 °C 81 % 1013,3 hPa 0,0 mm 0,0 km/h (0 Bft) S-SO 156 ° 0 min 0,000 mm 0,0 UV-I 0 W/m² 14,6 °C 17,9 °C 0,0 km/h (0 Bft)
21.06.2017 23:51 18,0 °C 18,0 °C 80 % 1013,3 hPa 0,0 mm 0,0 km/h (0 Bft) S-SO 156 ° 0 min 0,000 mm 0,0 UV-I 0 W/m² 14,5 °C 18,0 °C 0,0 km/h (0 Bft)
21.06.2017 23:52 18,0 °C 18,0 °C 80 % 1013,3 hPa 0,0 mm 0,0 km/h (0 Bft) S-SO 156 ° 0 min 0,000 mm 0,0 UV-I 0 W/m² 14,5 °C 18,0 °C 0,0 km/h (0 Bft)
21.06.2017 23:53 18,0 °C 18,1 °C 80 % 1013,2 hPa 0,0 mm 0,0 km/h (0 Bft) S-SO 156 ° 0 min 0,000 mm 0,0 UV-I 0 W/m² 14,5 °C 18,0 °C 0,0 km/h (0 Bft)
21.06.2017 23:54 18,1 °C 18,1 °C 80 % 1013,3 hPa 0,0 mm 0,0 km/h (0 Bft) S-SO 156 ° 0 min 0,000 mm 0,0 UV-I 0 W/m² 14,6 °C 18,1 °C 0,0 km/h (0 Bft)
21.06.2017 23:55 18,1 °C 18,1 °C 80 % 1013,3 hPa 0,0 mm 0,0 km/h (0 Bft) S-SO 156 ° 0 min 0,000 mm 0,0 UV-I 0 W/m² 14,6 °C 18,1 °C 0,0 km/h (0 Bft)
21.06.2017 23:56 18,1 °C 18,1 °C 80 % 1013,2 hPa 0,0 mm 0,0 km/h (0 Bft) S-SO 156 ° 0 min 0,000 mm 0,0 UV-I 0 W/m² 14,6 °C 18,1 °C 0,0 km/h (0 Bft)
21.06.2017 23:57 18,1 °C 18,1 °C 80 % 1013,3 hPa 0,0 mm 0,0 km/h (0 Bft) S-SO 156 ° 0 min 0,000 mm 0,0 UV-I 0 W/m² 14,6 °C 18,1 °C 0,0 km/h (0 Bft)
21.06.2017 23:59 18,1 °C 18,1 °C 81 % 1013,3 hPa 0,0 mm 0,0 km/h (0 Bft) S-SO 156 ° 0 min 0,000 mm 0,0 UV-I 0 W/m² 14,8 °C 18,1 °C 0,0 km/h (0 Bft)
_ Min-Zeit 05:54 05:54 13:18 18:11 - 23:59 - - - - - - 13:18 05:54 23:59
Minimum _ 15,3 °C 15,3 °C 37 % 1011,7 hPa - 0,0 km/h (0 Bft) - - - - - - 11,7 °C 15,3 °C 0,0 km/h (0 Bft)
_ Max-Zeit 13:33 13:36 06:52 08:23 02:02 10:52 - - 16:13 13:01 13:32 13:34 09:41 13:33 14:00
Maximum _ 28,1 °C 28,1 °C 94 % 1013,8 hPa 0,2 mm 15,2 km/h
W-SW (3 Bft)
- - 1 min 0,610 mm 8,1 UV-I 1027 W/m² 19,8 °C 28,1 °C 20,9 km/h
W (4 Bft)
Durchschnitt _ 21,5 °C 21,5 °C 72 % 1013,0 hPa #1,6 mm 2,5 km/h (1 Bft) W-NW - #7:38 h #3,861 mm 3,8 UV-I 226 W/m² 15,5 °C 21,5 °C 4,2 km/h (1 Bft)